<?xml version="1.0" encoding="UTF-8" standalone="no" ?>
<gpx xmlns="http://www.topografix.com/GPX/1/1" xmlns:xsi="http://www.w3.org/2001/XMLSchema-instance" xsi:schemaLocation="http://www.topografix.com/GPX/1/1 http://www.topografix.com/GPX/1/1/gpx.xsd" version="1.1" creator="VisuGPX - https://www.visugpx.com">
  <metadata>
    <name>rando guy mocquet 6/08</name>
    <desc><![CDATA[rando guy mocquet  06/08]]></desc>
  </metadata>
  <trk>
    <name><![CDATA[80 Avenue de Saint-Ouen]]></name>
    <desc><![CDATA[]]></desc>
    <trkseg>
      <trkpt lat="48.89221" lon="2.32728">
        <ele>113.6</ele>
        <time>2013-08-06T18:02:43.243Z</time>
      </trkpt>
      <trkpt lat="48.89226" lon="2.32728">
        <ele>121.9</ele>
        <time>2013-08-06T18:02:44.243Z</time>
      </trkpt>
      <trkpt lat="48.89223" lon="2.32727">
        <ele>93.7</ele>
        <time>2013-08-06T18:02:45.243Z</time>
      </trkpt>
      <trkpt lat="48.89213" lon="2.3275">
        <ele>79.9</ele>
        <time>2013-08-06T18:02:46.200Z</time>
      </trkpt>
      <trkpt lat="48.89225" lon="2.32739">
        <ele>102.6</ele>
        <time>2013-08-06T18:02:47.243Z</time>
      </trkpt>
      <trkpt lat="48.89231" lon="2.3274">
        <ele>101.2</ele>
        <time>2013-08-06T18:02:48.243Z</time>
      </trkpt>
      <trkpt lat="48.89241" lon="2.3273">
        <ele>101</ele>
        <time>2013-08-06T18:02:49.243Z</time>
      </trkpt>
      <trkpt lat="48.8924" lon="2.32729">
        <ele>92.8</ele>
        <time>2013-08-06T18:02:51.243Z</time>
      </trkpt>
      <trkpt lat="48.89237" lon="2.3272">
        <ele>115.2</ele>
        <time>2013-08-06T18:02:52.243Z</time>
      </trkpt>
      <trkpt lat="48.89237" lon="2.32721">
        <ele>113.6</ele>
        <time>2013-08-06T18:02:53.243Z</time>
      </trkpt>
      <trkpt lat="48.89245" lon="2.32735">
        <ele>97.1</ele>
        <time>2013-08-06T18:02:54.243Z</time>
      </trkpt>
      <trkpt lat="48.89245" lon="2.32736">
        <ele>101.7</ele>
        <time>2013-08-06T18:02:55.243Z</time>
      </trkpt>
      <trkpt lat="48.89254" lon="2.32741">
        <ele>114.9</ele>
        <time>2013-08-06T18:02:56.243Z</time>
      </trkpt>
      <trkpt lat="48.89255" lon="2.32741">
        <ele>91</ele>
        <time>2013-08-06T18:02:57.243Z</time>
      </trkpt>
      <trkpt lat="48.89257" lon="2.32749">
        <ele>101.3</ele>
        <time>2013-08-06T18:02:58.243Z</time>
      </trkpt>
      <trkpt lat="48.89254" lon="2.32749">
        <ele>100.8</ele>
        <time>2013-08-06T18:02:59.243Z</time>
      </trkpt>
      <trkpt lat="48.89259" lon="2.32764">
        <ele>93.8</ele>
        <time>2013-08-06T18:03:00.243Z</time>
      </trkpt>
      <trkpt lat="48.89258" lon="2.32759">
        <ele>105.4</ele>
        <time>2013-08-06T18:03:03.243Z</time>
      </trkpt>
      <trkpt lat="48.89264" lon="2.32752">
        <ele>93.3</ele>
        <time>2013-08-06T18:03:04.243Z</time>
      </trkpt>
      <trkpt lat="48.89274" lon="2.32746">
        <ele>101.1</ele>
        <time>2013-08-06T18:03:05.243Z</time>
      </trkpt>
      <trkpt lat="48.89281" lon="2.32737">
        <ele>99.8</ele>
        <time>2013-08-06T18:03:06.243Z</time>
      </trkpt>
      <trkpt lat="48.89288" lon="2.32737">
        <ele>126.8</ele>
        <time>2013-08-06T18:03:07.243Z</time>
      </trkpt>
      <trkpt lat="48.89283" lon="2.32743">
        <ele>113.1</ele>
        <time>2013-08-06T18:03:08.243Z</time>
      </trkpt>
      <trkpt lat="48.8929" lon="2.32732">
        <ele>111.9</ele>
        <time>2013-08-06T18:03:09.243Z</time>
      </trkpt>
      <trkpt lat="48.89291" lon="2.32734">
        <ele>97.8</ele>
        <time>2013-08-06T18:03:10.243Z</time>
      </trkpt>
      <trkpt lat="48.89294" lon="2.32739">
        <ele>91.3</ele>
        <time>2013-08-06T18:03:11.243Z</time>
      </trkpt>
      <trkpt lat="48.89292" lon="2.32736">
        <ele>98.9</ele>
        <time>2013-08-06T18:03:13.243Z</time>
      </trkpt>
      <trkpt lat="48.89289" lon="2.32749">
        <ele>98.5</ele>
        <time>2013-08-06T18:03:14.243Z</time>
      </trkpt>
      <trkpt lat="48.8929" lon="2.32746">
        <ele>92.2</ele>
        <time>2013-08-06T18:03:15.243Z</time>
      </trkpt>
      <trkpt lat="48.893" lon="2.32739">
        <ele>120.9</ele>
        <time>2013-08-06T18:03:16.000Z</time>
      </trkpt>
      <trkpt lat="48.89304" lon="2.32737">
        <ele>112.7</ele>
        <time>2013-08-06T18:03:17.000Z</time>
      </trkpt>
      <trkpt lat="48.89307" lon="2.32746">
        <ele>106.7</ele>
        <time>2013-08-06T18:03:18.000Z</time>
      </trkpt>
      <trkpt lat="48.89311" lon="2.32753">
        <ele>103</ele>
        <time>2013-08-06T18:03:19.000Z</time>
      </trkpt>
      <trkpt lat="48.89312" lon="2.32758">
        <ele>100.9</ele>
        <time>2013-08-06T18:03:20.000Z</time>
      </trkpt>
      <trkpt lat="48.89311" lon="2.32762">
        <ele>103.1</ele>
        <time>2013-08-06T18:03:21.000Z</time>
      </trkpt>
      <trkpt lat="48.89311" lon="2.32765">
        <ele>100.8</ele>
        <time>2013-08-06T18:03:22.000Z</time>
      </trkpt>
      <trkpt lat="48.89311" lon="2.32769">
        <ele>97.4</ele>
        <time>2013-08-06T18:03:23.000Z</time>
      </trkpt>
      <trkpt lat="48.8931" lon="2.32772">
        <ele>97.9</ele>
        <time>2013-08-06T18:03:24.000Z</time>
      </trkpt>
      <trkpt lat="48.89311" lon="2.32776">
        <ele>95.3</ele>
        <time>2013-08-06T18:03:25.000Z</time>
      </trkpt>
      <trkpt lat="48.89313" lon="2.32779">
        <ele>95.3</ele>
        <time>2013-08-06T18:03:26.000Z</time>
      </trkpt>
      <trkpt lat="48.89314" lon="2.32782">
        <ele>96</ele>
        <time>2013-08-06T18:03:27.000Z</time>
      </trkpt>
      <trkpt lat="48.89316" lon="2.32786">
        <ele>96.8</ele>
        <time>2013-08-06T18:03:28.000Z</time>
      </trkpt>
      <trkpt lat="48.89317" lon="2.32789">
        <ele>95.6</ele>
        <time>2013-08-06T18:03:29.000Z</time>
      </trkpt>
      <trkpt lat="48.89319" lon="2.32795">
        <ele>94.7</ele>
        <time>2013-08-06T18:03:31.000Z</time>
      </trkpt>
      <trkpt lat="48.8932" lon="2.32797">
        <ele>96.9</ele>
        <time>2013-08-06T18:03:32.000Z</time>
      </trkpt>
      <trkpt lat="48.89322" lon="2.32802">
        <ele>96.2</ele>
        <time>2013-08-06T18:03:34.000Z</time>
      </trkpt>
      <trkpt lat="48.89323" lon="2.32805">
        <ele>95.5</ele>
        <time>2013-08-06T18:03:35.000Z</time>
      </trkpt>
      <trkpt lat="48.89325" lon="2.32811">
        <ele>94.7</ele>
        <time>2013-08-06T18:03:37.000Z</time>
      </trkpt>
      <trkpt lat="48.89327" lon="2.32814">
        <ele>94.8</ele>
        <time>2013-08-06T18:03:38.277Z</time>
      </trkpt>
      <trkpt lat="48.8933" lon="2.3282">
        <ele>96</ele>
        <time>2013-08-06T18:03:40.000Z</time>
      </trkpt>
      <trkpt lat="48.89331" lon="2.32823">
        <ele>96.4</ele>
        <time>2013-08-06T18:03:41.000Z</time>
      </trkpt>
      <trkpt lat="48.89332" lon="2.32827">
        <ele>96.4</ele>
        <time>2013-08-06T18:03:42.000Z</time>
      </trkpt>
      <trkpt lat="48.89333" lon="2.32829">
        <ele>96.8</ele>
        <time>2013-08-06T18:03:43.000Z</time>
      </trkpt>
      <trkpt lat="48.89334" lon="2.32832">
        <ele>94.7</ele>
        <time>2013-08-06T18:03:44.000Z</time>
      </trkpt>
      <trkpt lat="48.89335" lon="2.32835">
        <ele>95.9</ele>
        <time>2013-08-06T18:03:45.000Z</time>
      </trkpt>
      <trkpt lat="48.89337" lon="2.32838">
        <ele>96.3</ele>
        <time>2013-08-06T18:03:46.000Z</time>
      </trkpt>
      <trkpt lat="48.89338" lon="2.32842">
        <ele>93.4</ele>
        <time>2013-08-06T18:03:47.000Z</time>
      </trkpt>
      <trkpt lat="48.8934" lon="2.32846">
        <ele>93.9</ele>
        <time>2013-08-06T18:03:48.000Z</time>
      </trkpt>
      <trkpt lat="48.89341" lon="2.32852">
        <ele>93</ele>
        <time>2013-08-06T18:03:49.000Z</time>
      </trkpt>
      <trkpt lat="48.89343" lon="2.32858">
        <ele>90</ele>
        <time>2013-08-06T18:03:50.000Z</time>
      </trkpt>
      <trkpt lat="48.89344" lon="2.32863">
        <ele>88.3</ele>
        <time>2013-08-06T18:03:51.000Z</time>
      </trkpt>
      <trkpt lat="48.89345" lon="2.32868">
        <ele>88.4</ele>
        <time>2013-08-06T18:03:52.000Z</time>
      </trkpt>
      <trkpt lat="48.89346" lon="2.32873">
        <ele>88.6</ele>
        <time>2013-08-06T18:03:53.000Z</time>
      </trkpt>
      <trkpt lat="48.89347" lon="2.32877">
        <ele>89.1</ele>
        <time>2013-08-06T18:03:54.000Z</time>
      </trkpt>
      <trkpt lat="48.89347" lon="2.32881">
        <ele>91.3</ele>
        <time>2013-08-06T18:03:55.000Z</time>
      </trkpt>
      <trkpt lat="48.89348" lon="2.32885">
        <ele>93.8</ele>
        <time>2013-08-06T18:03:56.000Z</time>
      </trkpt>
      <trkpt lat="48.89348" lon="2.32888">
        <ele>94.1</ele>
        <time>2013-08-06T18:03:57.000Z</time>
      </trkpt>
      <trkpt lat="48.89349" lon="2.32892">
        <ele>93</ele>
        <time>2013-08-06T18:03:58.000Z</time>
      </trkpt>
      <trkpt lat="48.89351" lon="2.32896">
        <ele>91.5</ele>
        <time>2013-08-06T18:03:59.000Z</time>
      </trkpt>
      <trkpt lat="48.89353" lon="2.329">
        <ele>90.8</ele>
        <time>2013-08-06T18:04:00.000Z</time>
      </trkpt>
      <trkpt lat="48.89354" lon="2.32904">
        <ele>90.3</ele>
        <time>2013-08-06T18:04:01.000Z</time>
      </trkpt>
      <trkpt lat="48.89356" lon="2.32908">
        <ele>90.1</ele>
        <time>2013-08-06T18:04:02.000Z</time>
      </trkpt>
      <trkpt lat="48.89356" lon="2.32913">
        <ele>90.5</ele>
        <time>2013-08-06T18:04:03.000Z</time>
      </trkpt>
      <trkpt lat="48.89357" lon="2.32918">
        <ele>90.8</ele>
        <time>2013-08-06T18:04:04.000Z</time>
      </trkpt>
      <trkpt lat="48.89357" lon="2.32923">
        <ele>90.8</ele>
        <time>2013-08-06T18:04:05.000Z</time>
      </trkpt>
      <trkpt lat="48.89358" lon="2.32927">
        <ele>93.6</ele>
        <time>2013-08-06T18:04:06.000Z</time>
      </trkpt>
      <trkpt lat="48.8936" lon="2.32931">
        <ele>93.5</ele>
        <time>2013-08-06T18:04:07.000Z</time>
      </trkpt>
      <trkpt lat="48.89362" lon="2.32934">
        <ele>93.8</ele>
        <time>2013-08-06T18:04:08.000Z</time>
      </trkpt>
      <trkpt lat="48.89363" lon="2.32936">
        <ele>93.8</ele>
        <time>2013-08-06T18:04:09.000Z</time>
      </trkpt>
      <trkpt lat="48.89364" lon="2.3294">
        <ele>94.5</ele>
        <time>2013-08-06T18:04:10.000Z</time>
      </trkpt>
      <trkpt lat="48.89366" lon="2.32944">
        <ele>92.8</ele>
        <time>2013-08-06T18:04:11.000Z</time>
      </trkpt>
      <trkpt lat="48.89367" lon="2.32948">
        <ele>93</ele>
        <time>2013-08-06T18:04:12.000Z</time>
      </trkpt>
      <trkpt lat="48.89368" lon="2.32953">
        <ele>93.5</ele>
        <time>2013-08-06T18:04:13.000Z</time>
      </trkpt>
      <trkpt lat="48.89369" lon="2.32957">
        <ele>93</ele>
        <time>2013-08-06T18:04:14.000Z</time>
      </trkpt>
      <trkpt lat="48.8937" lon="2.32962">
        <ele>93.8</ele>
        <time>2013-08-06T18:04:15.000Z</time>
      </trkpt>
      <trkpt lat="48.8937" lon="2.32967">
        <ele>93.7</ele>
        <time>2013-08-06T18:04:16.000Z</time>
      </trkpt>
      <trkpt lat="48.8937" lon="2.32973">
        <ele>95</ele>
        <time>2013-08-06T18:04:17.000Z</time>
      </trkpt>
      <trkpt lat="48.89371" lon="2.32977">
        <ele>95.5</ele>
        <time>2013-08-06T18:04:18.000Z</time>
      </trkpt>
      <trkpt lat="48.89371" lon="2.32982">
        <ele>95.9</ele>
        <time>2013-08-06T18:04:19.000Z</time>
      </trkpt>
      <trkpt lat="48.89372" lon="2.32987">
        <ele>96.6</ele>
        <time>2013-08-06T18:04:20.000Z</time>
      </trkpt>
      <trkpt lat="48.89373" lon="2.32992">
        <ele>96.7</ele>
        <time>2013-08-06T18:04:21.000Z</time>
      </trkpt>
      <trkpt lat="48.89373" lon="2.32997">
        <ele>96.8</ele>
        <time>2013-08-06T18:04:22.000Z</time>
      </trkpt>
      <trkpt lat="48.89374" lon="2.33001">
        <ele>96.1</ele>
        <time>2013-08-06T18:04:23.000Z</time>
      </trkpt>
      <trkpt lat="48.89375" lon="2.33006">
        <ele>97.7</ele>
        <time>2013-08-06T18:04:24.000Z</time>
      </trkpt>
      <trkpt lat="48.89376" lon="2.3301">
        <ele>98.7</ele>
        <time>2013-08-06T18:04:25.000Z</time>
      </trkpt>
      <trkpt lat="48.89376" lon="2.33014">
        <ele>99.2</ele>
        <time>2013-08-06T18:04:26.000Z</time>
      </trkpt>
      <trkpt lat="48.89377" lon="2.33019">
        <ele>99.8</ele>
        <time>2013-08-06T18:04:27.000Z</time>
      </trkpt>
      <trkpt lat="48.89377" lon="2.33024">
        <ele>98.2</ele>
        <time>2013-08-06T18:04:28.000Z</time>
      </trkpt>
      <trkpt lat="48.89376" lon="2.33028">
        <ele>98.5</ele>
        <time>2013-08-06T18:04:29.000Z</time>
      </trkpt>
      <trkpt lat="48.89375" lon="2.33033">
        <ele>99.7</ele>
        <time>2013-08-06T18:04:30.000Z</time>
      </trkpt>
      <trkpt lat="48.89375" lon="2.33038">
        <ele>99.9</ele>
        <time>2013-08-06T18:04:31.000Z</time>
      </trkpt>
      <trkpt lat="48.89375" lon="2.33042">
        <ele>99.9</ele>
        <time>2013-08-06T18:04:32.000Z</time>
      </trkpt>
      <trkpt lat="48.89375" lon="2.33047">
        <ele>100.5</ele>
        <time>2013-08-06T18:04:33.000Z</time>
      </trkpt>
      <trkpt lat="48.89374" lon="2.33052">
        <ele>100.9</ele>
        <time>2013-08-06T18:04:34.000Z</time>
      </trkpt>
      <trkpt lat="48.89374" lon="2.33056">
        <ele>101.5</ele>
        <time>2013-08-06T18:04:35.000Z</time>
      </trkpt>
      <trkpt lat="48.89375" lon="2.3306">
        <ele>104.1</ele>
        <time>2013-08-06T18:04:36.000Z</time>
      </trkpt>
      <trkpt lat="48.89376" lon="2.33064">
        <ele>104.7</ele>
        <time>2013-08-06T18:04:37.000Z</time>
      </trkpt>
      <trkpt lat="48.89376" lon="2.33068">
        <ele>105.8</ele>
        <time>2013-08-06T18:04:38.000Z</time>
      </trkpt>
      <trkpt lat="48.89377" lon="2.33072">
        <ele>106.4</ele>
        <time>2013-08-06T18:04:39.000Z</time>
      </trkpt>
      <trkpt lat="48.89378" lon="2.33076">
        <ele>107.4</ele>
        <time>2013-08-06T18:04:40.000Z</time>
      </trkpt>
      <trkpt lat="48.8938" lon="2.33079">
        <ele>107.6</ele>
        <time>2013-08-06T18:04:41.000Z</time>
      </trkpt>
      <trkpt lat="48.89381" lon="2.33084">
        <ele>107</ele>
        <time>2013-08-06T18:04:42.000Z</time>
      </trkpt>
      <trkpt lat="48.89383" lon="2.33089">
        <ele>106.8</ele>
        <time>2013-08-06T18:04:43.000Z</time>
      </trkpt>
      <trkpt lat="48.89384" lon="2.33093">
        <ele>108.3</ele>
        <time>2013-08-06T18:04:44.000Z</time>
      </trkpt>
      <trkpt lat="48.89385" lon="2.33096">
        <ele>108.4</ele>
        <time>2013-08-06T18:04:45.000Z</time>
      </trkpt>
      <trkpt lat="48.89387" lon="2.331">
        <ele>106.9</ele>
        <time>2013-08-06T18:04:46.000Z</time>
      </trkpt>
      <trkpt lat="48.89388" lon="2.33103">
        <ele>105.6</ele>
        <time>2013-08-06T18:04:47.000Z</time>
      </trkpt>
      <trkpt lat="48.8939" lon="2.33107">
        <ele>106</ele>
        <time>2013-08-06T18:04:48.000Z</time>
      </trkpt>
      <trkpt lat="48.89392" lon="2.3311">
        <ele>107.5</ele>
        <time>2013-08-06T18:04:49.000Z</time>
      </trkpt>
      <trkpt lat="48.89394" lon="2.33114">
        <ele>106.6</ele>
        <time>2013-08-06T18:04:50.000Z</time>
      </trkpt>
      <trkpt lat="48.89396" lon="2.33117">
        <ele>107.3</ele>
        <time>2013-08-06T18:04:51.000Z</time>
      </trkpt>
      <trkpt lat="48.89397" lon="2.33121">
        <ele>107.7</ele>
        <time>2013-08-06T18:04:52.000Z</time>
      </trkpt>
      <trkpt lat="48.89397" lon="2.33125">
        <ele>107.8</ele>
        <time>2013-08-06T18:04:53.000Z</time>
      </trkpt>
      <trkpt lat="48.89398" lon="2.33131">
        <ele>103</ele>
        <time>2013-08-06T18:04:54.000Z</time>
      </trkpt>
      <trkpt lat="48.89399" lon="2.33136">
        <ele>100.9</ele>
        <time>2013-08-06T18:04:55.000Z</time>
      </trkpt>
      <trkpt lat="48.89401" lon="2.33141">
        <ele>103.2</ele>
        <time>2013-08-06T18:04:56.000Z</time>
      </trkpt>
      <trkpt lat="48.89402" lon="2.33145">
        <ele>104.7</ele>
        <time>2013-08-06T18:04:57.000Z</time>
      </trkpt>
      <trkpt lat="48.89404" lon="2.33149">
        <ele>103.7</ele>
        <time>2013-08-06T18:04:58.000Z</time>
      </trkpt>
      <trkpt lat="48.89405" lon="2.33153">
        <ele>102.6</ele>
        <time>2013-08-06T18:04:59.000Z</time>
      </trkpt>
      <trkpt lat="48.89406" lon="2.33158">
        <ele>103.7</ele>
        <time>2013-08-06T18:05:00.000Z</time>
      </trkpt>
      <trkpt lat="48.89407" lon="2.33163">
        <ele>103.1</ele>
        <time>2013-08-06T18:05:01.000Z</time>
      </trkpt>
      <trkpt lat="48.89408" lon="2.33167">
        <ele>102.7</ele>
        <time>2013-08-06T18:05:02.000Z</time>
      </trkpt>
      <trkpt lat="48.89409" lon="2.33173">
        <ele>102.4</ele>
        <time>2013-08-06T18:05:03.000Z</time>
      </trkpt>
      <trkpt lat="48.8941" lon="2.33177">
        <ele>102.8</ele>
        <time>2013-08-06T18:05:04.000Z</time>
      </trkpt>
      <trkpt lat="48.89411" lon="2.33182">
        <ele>103.2</ele>
        <time>2013-08-06T18:05:05.000Z</time>
      </trkpt>
      <trkpt lat="48.89413" lon="2.33186">
        <ele>103.3</ele>
        <time>2013-08-06T18:05:06.000Z</time>
      </trkpt>
      <trkpt lat="48.89414" lon="2.33189">
        <ele>102.7</ele>
        <time>2013-08-06T18:05:07.000Z</time>
      </trkpt>
      <trkpt lat="48.89416" lon="2.33192">
        <ele>101.8</ele>
        <time>2013-08-06T18:05:08.000Z</time>
      </trkpt>
      <trkpt lat="48.89417" lon="2.33195">
        <ele>100.3</ele>
        <time>2013-08-06T18:05:09.000Z</time>
      </trkpt>
      <trkpt lat="48.89418" lon="2.33199">
        <ele>98</ele>
        <time>2013-08-06T18:05:10.000Z</time>
      </trkpt>
      <trkpt lat="48.89419" lon="2.33202">
        <ele>97.6</ele>
        <time>2013-08-06T18:05:11.000Z</time>
      </trkpt>
      <trkpt lat="48.89421" lon="2.33205">
        <ele>97.8</ele>
        <time>2013-08-06T18:05:12.000Z</time>
      </trkpt>
      <trkpt lat="48.89423" lon="2.33208">
        <ele>97.9</ele>
        <time>2013-08-06T18:05:13.000Z</time>
      </trkpt>
      <trkpt lat="48.89424" lon="2.33211">
        <ele>98.7</ele>
        <time>2013-08-06T18:05:14.000Z</time>
      </trkpt>
      <trkpt lat="48.89426" lon="2.33214">
        <ele>99.6</ele>
        <time>2013-08-06T18:05:15.000Z</time>
      </trkpt>
      <trkpt lat="48.89428" lon="2.33217">
        <ele>101.8</ele>
        <time>2013-08-06T18:05:16.000Z</time>
      </trkpt>
      <trkpt lat="48.89429" lon="2.33221">
        <ele>101.6</ele>
        <time>2013-08-06T18:05:17.000Z</time>
      </trkpt>
      <trkpt lat="48.89431" lon="2.33225">
        <ele>102.8</ele>
        <time>2013-08-06T18:05:18.000Z</time>
      </trkpt>
      <trkpt lat="48.89431" lon="2.33228">
        <ele>103.3</ele>
        <time>2013-08-06T18:05:19.000Z</time>
      </trkpt>
      <trkpt lat="48.89432" lon="2.33232">
        <ele>103.3</ele>
        <time>2013-08-06T18:05:20.000Z</time>
      </trkpt>
      <trkpt lat="48.89431" lon="2.33236">
        <ele>105</ele>
        <time>2013-08-06T18:05:21.000Z</time>
      </trkpt>
      <trkpt lat="48.8943" lon="2.3324">
        <ele>105.2</ele>
        <time>2013-08-06T18:05:22.000Z</time>
      </trkpt>
      <trkpt lat="48.89428" lon="2.33243">
        <ele>106.8</ele>
        <time>2013-08-06T18:05:23.000Z</time>
      </trkpt>
      <trkpt lat="48.89425" lon="2.33246">
        <ele>105.7</ele>
        <time>2013-08-06T18:05:24.000Z</time>
      </trkpt>
      <trkpt lat="48.89419" lon="2.33249">
        <ele>105.2</ele>
        <time>2013-08-06T18:05:25.000Z</time>
      </trkpt>
      <trkpt lat="48.89416" lon="2.3325">
        <ele>105.9</ele>
        <time>2013-08-06T18:05:26.000Z</time>
      </trkpt>
      <trkpt lat="48.89414" lon="2.33252">
        <ele>106.2</ele>
        <time>2013-08-06T18:05:27.000Z</time>
      </trkpt>
      <trkpt lat="48.8941" lon="2.33255">
        <ele>106.7</ele>
        <time>2013-08-06T18:05:32.000Z</time>
      </trkpt>
      <trkpt lat="48.8941" lon="2.33255">
        <ele>106.3</ele>
        <time>2013-08-06T18:05:33.000Z</time>
      </trkpt>
      <trkpt lat="48.89408" lon="2.33259">
        <ele>109</ele>
        <time>2013-08-06T18:05:51.000Z</time>
      </trkpt>
      <trkpt lat="48.89407" lon="2.3326">
        <ele>110.6</ele>
        <time>2013-08-06T18:05:52.000Z</time>
      </trkpt>
      <trkpt lat="48.89403" lon="2.33262">
        <ele>110.9</ele>
        <time>2013-08-06T18:05:56.000Z</time>
      </trkpt>
      <trkpt lat="48.89401" lon="2.33263">
        <ele>109.8</ele>
        <time>2013-08-06T18:05:57.000Z</time>
      </trkpt>
      <trkpt lat="48.89399" lon="2.33264">
        <ele>110.8</ele>
        <time>2013-08-06T18:05:59.000Z</time>
      </trkpt>
      <trkpt lat="48.89397" lon="2.33265">
        <ele>111.7</ele>
        <time>2013-08-06T18:06:00.000Z</time>
      </trkpt>
      <trkpt lat="48.89394" lon="2.33269">
        <ele>112.4</ele>
        <time>2013-08-06T18:06:02.000Z</time>
      </trkpt>
      <trkpt lat="48.89391" lon="2.33272">
        <ele>113.2</ele>
        <time>2013-08-06T18:06:03.000Z</time>
      </trkpt>
      <trkpt lat="48.89388" lon="2.33273">
        <ele>113.1</ele>
        <time>2013-08-06T18:06:04.000Z</time>
      </trkpt>
      <trkpt lat="48.89385" lon="2.33275">
        <ele>111.9</ele>
        <time>2013-08-06T18:06:05.000Z</time>
      </trkpt>
      <trkpt lat="48.89382" lon="2.33277">
        <ele>110.9</ele>
        <time>2013-08-06T18:06:06.000Z</time>
      </trkpt>
      <trkpt lat="48.89378" lon="2.33279">
        <ele>110.7</ele>
        <time>2013-08-06T18:06:07.000Z</time>
      </trkpt>
      <trkpt lat="48.89375" lon="2.3328">
        <ele>110.4</ele>
        <time>2013-08-06T18:06:08.000Z</time>
      </trkpt>
      <trkpt lat="48.89372" lon="2.33282">
        <ele>110.9</ele>
        <time>2013-08-06T18:06:09.000Z</time>
      </trkpt>
      <trkpt lat="48.89369" lon="2.33285">
        <ele>111.5</ele>
        <time>2013-08-06T18:06:10.000Z</time>
      </trkpt>
      <trkpt lat="48.89367" lon="2.33288">
        <ele>112.9</ele>
        <time>2013-08-06T18:06:11.000Z</time>
      </trkpt>
      <trkpt lat="48.89364" lon="2.33291">
        <ele>112.4</ele>
        <time>2013-08-06T18:06:12.000Z</time>
      </trkpt>
      <trkpt lat="48.89361" lon="2.33294">
        <ele>113.6</ele>
        <time>2013-08-06T18:06:13.000Z</time>
      </trkpt>
      <trkpt lat="48.89359" lon="2.33297">
        <ele>114.4</ele>
        <time>2013-08-06T18:06:14.000Z</time>
      </trkpt>
      <trkpt lat="48.89356" lon="2.333">
        <ele>115.3</ele>
        <time>2013-08-06T18:06:15.000Z</time>
      </trkpt>
      <trkpt lat="48.89353" lon="2.33303">
        <ele>114.5</ele>
        <time>2013-08-06T18:06:16.000Z</time>
      </trkpt>
      <trkpt lat="48.8935" lon="2.33305">
        <ele>118</ele>
        <time>2013-08-06T18:06:17.000Z</time>
      </trkpt>
      <trkpt lat="48.89348" lon="2.33308">
        <ele>118.6</ele>
        <time>2013-08-06T18:06:18.000Z</time>
      </trkpt>
      <trkpt lat="48.89345" lon="2.33311">
        <ele>120</ele>
        <time>2013-08-06T18:06:19.000Z</time>
      </trkpt>
      <trkpt lat="48.89343" lon="2.33314">
        <ele>121.9</ele>
        <time>2013-08-06T18:06:20.000Z</time>
      </trkpt>
      <trkpt lat="48.89341" lon="2.33317">
        <ele>123.3</ele>
        <time>2013-08-06T18:06:21.000Z</time>
      </trkpt>
      <trkpt lat="48.8934" lon="2.3332">
        <ele>122</ele>
        <time>2013-08-06T18:06:22.000Z</time>
      </trkpt>
      <trkpt lat="48.89337" lon="2.33324">
        <ele>122</ele>
        <time>2013-08-06T18:06:23.000Z</time>
      </trkpt>
      <trkpt lat="48.89334" lon="2.33327">
        <ele>122.2</ele>
        <time>2013-08-06T18:06:24.000Z</time>
      </trkpt>
      <trkpt lat="48.89331" lon="2.3333">
        <ele>122.3</ele>
        <time>2013-08-06T18:06:25.000Z</time>
      </trkpt>
      <trkpt lat="48.89328" lon="2.33333">
        <ele>122.9</ele>
        <time>2013-08-06T18:06:26.000Z</time>
      </trkpt>
      <trkpt lat="48.89325" lon="2.33335">
        <ele>123.4</ele>
        <time>2013-08-06T18:06:27.000Z</time>
      </trkpt>
      <trkpt lat="48.89321" lon="2.33338">
        <ele>123.7</ele>
        <time>2013-08-06T18:06:28.000Z</time>
      </trkpt>
      <trkpt lat="48.89318" lon="2.33341">
        <ele>124.2</ele>
        <time>2013-08-06T18:06:29.000Z</time>
      </trkpt>
      <trkpt lat="48.89315" lon="2.33344">
        <ele>126.2</ele>
        <time>2013-08-06T18:06:30.000Z</time>
      </trkpt>
      <trkpt lat="48.89312" lon="2.33348">
        <ele>127.7</ele>
        <time>2013-08-06T18:06:31.000Z</time>
      </trkpt>
      <trkpt lat="48.8931" lon="2.33351">
        <ele>128.4</ele>
        <time>2013-08-06T18:06:32.000Z</time>
      </trkpt>
      <trkpt lat="48.89307" lon="2.33354">
        <ele>129.4</ele>
        <time>2013-08-06T18:06:33.000Z</time>
      </trkpt>
      <trkpt lat="48.89304" lon="2.33357">
        <ele>129.6</ele>
        <time>2013-08-06T18:06:34.000Z</time>
      </trkpt>
      <trkpt lat="48.893" lon="2.33359">
        <ele>129.2</ele>
        <time>2013-08-06T18:06:35.000Z</time>
      </trkpt>
      <trkpt lat="48.89297" lon="2.33362">
        <ele>130.7</ele>
        <time>2013-08-06T18:06:36.000Z</time>
      </trkpt>
      <trkpt lat="48.89293" lon="2.33365">
        <ele>129</ele>
        <time>2013-08-06T18:06:37.000Z</time>
      </trkpt>
      <trkpt lat="48.8929" lon="2.33367">
        <ele>129.7</ele>
        <time>2013-08-06T18:06:38.000Z</time>
      </trkpt>
      <trkpt lat="48.89286" lon="2.33369">
        <ele>128.1</ele>
        <time>2013-08-06T18:06:39.000Z</time>
      </trkpt>
      <trkpt lat="48.89282" lon="2.33369">
        <ele>126.7</ele>
        <time>2013-08-06T18:06:40.000Z</time>
      </trkpt>
      <trkpt lat="48.89278" lon="2.3337">
        <ele>124.7</ele>
        <time>2013-08-06T18:06:41.000Z</time>
      </trkpt>
      <trkpt lat="48.89273" lon="2.33371">
        <ele>122.5</ele>
        <time>2013-08-06T18:06:42.000Z</time>
      </trkpt>
      <trkpt lat="48.89269" lon="2.33371">
        <ele>120.6</ele>
        <time>2013-08-06T18:06:43.000Z</time>
      </trkpt>
      <trkpt lat="48.89265" lon="2.3337">
        <ele>120.9</ele>
        <time>2013-08-06T18:06:44.000Z</time>
      </trkpt>
      <trkpt lat="48.89261" lon="2.33368">
        <ele>120.9</ele>
        <time>2013-08-06T18:06:45.000Z</time>
      </trkpt>
      <trkpt lat="48.89258" lon="2.33365">
        <ele>117.1</ele>
        <time>2013-08-06T18:06:46.000Z</time>
      </trkpt>
      <trkpt lat="48.89254" lon="2.33363">
        <ele>116.2</ele>
        <time>2013-08-06T18:06:47.000Z</time>
      </trkpt>
      <trkpt lat="48.8925" lon="2.33361">
        <ele>116.9</ele>
        <time>2013-08-06T18:06:48.000Z</time>
      </trkpt>
      <trkpt lat="48.89245" lon="2.33361">
        <ele>116</ele>
        <time>2013-08-06T18:06:49.000Z</time>
      </trkpt>
      <trkpt lat="48.89241" lon="2.33361">
        <ele>115.2</ele>
        <time>2013-08-06T18:06:50.000Z</time>
      </trkpt>
      <trkpt lat="48.89237" lon="2.33361">
        <ele>113.8</ele>
        <time>2013-08-06T18:06:51.000Z</time>
      </trkpt>
      <trkpt lat="48.89233" lon="2.33362">
        <ele>113.4</ele>
        <time>2013-08-06T18:06:52.000Z</time>
      </trkpt>
      <trkpt lat="48.89229" lon="2.33363">
        <ele>113.8</ele>
        <time>2013-08-06T18:06:53.000Z</time>
      </trkpt>
      <trkpt lat="48.89225" lon="2.33365">
        <ele>114.7</ele>
        <time>2013-08-06T18:06:54.000Z</time>
      </trkpt>
      <trkpt lat="48.89222" lon="2.33367">
        <ele>115.1</ele>
        <time>2013-08-06T18:06:55.000Z</time>
      </trkpt>
      <trkpt lat="48.89219" lon="2.33369">
        <ele>116.1</ele>
        <time>2013-08-06T18:06:56.000Z</time>
      </trkpt>
      <trkpt lat="48.89216" lon="2.3337">
        <ele>115.8</ele>
        <time>2013-08-06T18:06:57.000Z</time>
      </trkpt>
      <trkpt lat="48.89214" lon="2.33371">
        <ele>115.9</ele>
        <time>2013-08-06T18:06:58.000Z</time>
      </trkpt>
      <trkpt lat="48.89211" lon="2.33371">
        <ele>114.6</ele>
        <time>2013-08-06T18:06:59.000Z</time>
      </trkpt>
      <trkpt lat="48.89208" lon="2.3337">
        <ele>113.8</ele>
        <time>2013-08-06T18:07:00.000Z</time>
      </trkpt>
      <trkpt lat="48.89205" lon="2.3337">
        <ele>114.7</ele>
        <time>2013-08-06T18:07:01.000Z</time>
      </trkpt>
      <trkpt lat="48.89203" lon="2.33369">
        <ele>114.1</ele>
        <time>2013-08-06T18:07:02.000Z</time>
      </trkpt>
      <trkpt lat="48.892" lon="2.33369">
        <ele>113.9</ele>
        <time>2013-08-06T18:07:03.000Z</time>
      </trkpt>
      <trkpt lat="48.89197" lon="2.33368">
        <ele>113.7</ele>
        <time>2013-08-06T18:07:04.000Z</time>
      </trkpt>
      <trkpt lat="48.89195" lon="2.33367">
        <ele>115.1</ele>
        <time>2013-08-06T18:07:05.000Z</time>
      </trkpt>
      <trkpt lat="48.89191" lon="2.33367">
        <ele>114.9</ele>
        <time>2013-08-06T18:07:07.000Z</time>
      </trkpt>
      <trkpt lat="48.89189" lon="2.33367">
        <ele>115.5</ele>
        <time>2013-08-06T18:07:08.000Z</time>
      </trkpt>
      <trkpt lat="48.89185" lon="2.33367">
        <ele>117.3</ele>
        <time>2013-08-06T18:07:10.000Z</time>
      </trkpt>
      <trkpt lat="48.89183" lon="2.33366">
        <ele>117.4</ele>
        <time>2013-08-06T18:07:11.000Z</time>
      </trkpt>
      <trkpt lat="48.89181" lon="2.33364">
        <ele>117.6</ele>
        <time>2013-08-06T18:07:12.000Z</time>
      </trkpt>
      <trkpt lat="48.89179" lon="2.33362">
        <ele>116.7</ele>
        <time>2013-08-06T18:07:13.000Z</time>
      </trkpt>
      <trkpt lat="48.89175" lon="2.3336">
        <ele>114.3</ele>
        <time>2013-08-06T18:07:14.000Z</time>
      </trkpt>
      <trkpt lat="48.89172" lon="2.33359">
        <ele>114.6</ele>
        <time>2013-08-06T18:07:15.000Z</time>
      </trkpt>
      <trkpt lat="48.89168" lon="2.33358">
        <ele>113.8</ele>
        <time>2013-08-06T18:07:16.000Z</time>
      </trkpt>
      <trkpt lat="48.89164" lon="2.33357">
        <ele>115.6</ele>
        <time>2013-08-06T18:07:17.000Z</time>
      </trkpt>
      <trkpt lat="48.8916" lon="2.33357">
        <ele>115.6</ele>
        <time>2013-08-06T18:07:18.000Z</time>
      </trkpt>
      <trkpt lat="48.89157" lon="2.33356">
        <ele>116.6</ele>
        <time>2013-08-06T18:07:19.000Z</time>
      </trkpt>
      <trkpt lat="48.89153" lon="2.33355">
        <ele>116.4</ele>
        <time>2013-08-06T18:07:20.000Z</time>
      </trkpt>
      <trkpt lat="48.89149" lon="2.33354">
        <ele>117.1</ele>
        <time>2013-08-06T18:07:21.000Z</time>
      </trkpt>
      <trkpt lat="48.89145" lon="2.33354">
        <ele>118.6</ele>
        <time>2013-08-06T18:07:22.000Z</time>
      </trkpt>
      <trkpt lat="48.89142" lon="2.33353">
        <ele>118.3</ele>
        <time>2013-08-06T18:07:23.000Z</time>
      </trkpt>
      <trkpt lat="48.89138" lon="2.33353">
        <ele>118.2</ele>
        <time>2013-08-06T18:07:24.000Z</time>
      </trkpt>
      <trkpt lat="48.89134" lon="2.33351">
        <ele>120</ele>
        <time>2013-08-06T18:07:25.000Z</time>
      </trkpt>
      <trkpt lat="48.89131" lon="2.3335">
        <ele>119.4</ele>
        <time>2013-08-06T18:07:26.000Z</time>
      </trkpt>
      <trkpt lat="48.89128" lon="2.33349">
        <ele>119.9</ele>
        <time>2013-08-06T18:07:27.000Z</time>
      </trkpt>
      <trkpt lat="48.89124" lon="2.33349">
        <ele>119.3</ele>
        <time>2013-08-06T18:07:28.000Z</time>
      </trkpt>
      <trkpt lat="48.89121" lon="2.33349">
        <ele>118.7</ele>
        <time>2013-08-06T18:07:29.000Z</time>
      </trkpt>
      <trkpt lat="48.89118" lon="2.33348">
        <ele>118.5</ele>
        <time>2013-08-06T18:07:30.000Z</time>
      </trkpt>
      <trkpt lat="48.89115" lon="2.33348">
        <ele>120</ele>
        <time>2013-08-06T18:07:31.000Z</time>
      </trkpt>
      <trkpt lat="48.89112" lon="2.33347">
        <ele>120.4</ele>
        <time>2013-08-06T18:07:32.000Z</time>
      </trkpt>
      <trkpt lat="48.89109" lon="2.33347">
        <ele>121.1</ele>
        <time>2013-08-06T18:07:33.000Z</time>
      </trkpt>
      <trkpt lat="48.89106" lon="2.33346">
        <ele>120</ele>
        <time>2013-08-06T18:07:34.000Z</time>
      </trkpt>
      <trkpt lat="48.89103" lon="2.33346">
        <ele>120.1</ele>
        <time>2013-08-06T18:07:35.000Z</time>
      </trkpt>
      <trkpt lat="48.89101" lon="2.33346">
        <ele>120</ele>
        <time>2013-08-06T18:07:36.000Z</time>
      </trkpt>
      <trkpt lat="48.89098" lon="2.33347">
        <ele>120.1</ele>
        <time>2013-08-06T18:07:37.000Z</time>
      </trkpt>
      <trkpt lat="48.89097" lon="2.33347">
        <ele>120.1</ele>
        <time>2013-08-06T18:07:38.000Z</time>
      </trkpt>
      <trkpt lat="48.89094" lon="2.33347">
        <ele>117</ele>
        <time>2013-08-06T18:07:39.000Z</time>
      </trkpt>
      <trkpt lat="48.8909" lon="2.33347">
        <ele>117.3</ele>
        <time>2013-08-06T18:07:40.000Z</time>
      </trkpt>
      <trkpt lat="48.89087" lon="2.33346">
        <ele>117.1</ele>
        <time>2013-08-06T18:07:41.000Z</time>
      </trkpt>
      <trkpt lat="48.89083" lon="2.33346">
        <ele>116.9</ele>
        <time>2013-08-06T18:07:42.000Z</time>
      </trkpt>
      <trkpt lat="48.8908" lon="2.33345">
        <ele>117</ele>
        <time>2013-08-06T18:07:43.000Z</time>
      </trkpt>
      <trkpt lat="48.89077" lon="2.33344">
        <ele>116</ele>
        <time>2013-08-06T18:07:44.000Z</time>
      </trkpt>
      <trkpt lat="48.89074" lon="2.33343">
        <ele>116.2</ele>
        <time>2013-08-06T18:07:45.000Z</time>
      </trkpt>
      <trkpt lat="48.89071" lon="2.33342">
        <ele>115.8</ele>
        <time>2013-08-06T18:07:47.000Z</time>
      </trkpt>
      <trkpt lat="48.89069" lon="2.3334">
        <ele>116.5</ele>
        <time>2013-08-06T18:07:48.000Z</time>
      </trkpt>
      <trkpt lat="48.89066" lon="2.33338">
        <ele>116.3</ele>
        <time>2013-08-06T18:07:49.000Z</time>
      </trkpt>
      <trkpt lat="48.89065" lon="2.33336">
        <ele>119</ele>
        <time>2013-08-06T18:07:50.000Z</time>
      </trkpt>
      <trkpt lat="48.89062" lon="2.33331">
        <ele>126.1</ele>
        <time>2013-08-06T18:07:53.000Z</time>
      </trkpt>
      <trkpt lat="48.89061" lon="2.33331">
        <ele>126.1</ele>
        <time>2013-08-06T18:07:54.000Z</time>
      </trkpt>
      <trkpt lat="48.89057" lon="2.33332">
        <ele>127.6</ele>
        <time>2013-08-06T18:07:57.000Z</time>
      </trkpt>
      <trkpt lat="48.89055" lon="2.33332">
        <ele>127.8</ele>
        <time>2013-08-06T18:07:58.000Z</time>
      </trkpt>
      <trkpt lat="48.89051" lon="2.33331">
        <ele>127</ele>
        <time>2013-08-06T18:08:00.000Z</time>
      </trkpt>
      <trkpt lat="48.89048" lon="2.33329">
        <ele>124.9</ele>
        <time>2013-08-06T18:08:01.000Z</time>
      </trkpt>
      <trkpt lat="48.89045" lon="2.33327">
        <ele>123.3</ele>
        <time>2013-08-06T18:08:02.000Z</time>
      </trkpt>
      <trkpt lat="48.89042" lon="2.33327">
        <ele>123.7</ele>
        <time>2013-08-06T18:08:03.000Z</time>
      </trkpt>
      <trkpt lat="48.89039" lon="2.33327">
        <ele>124.2</ele>
        <time>2013-08-06T18:08:04.000Z</time>
      </trkpt>
      <trkpt lat="48.89035" lon="2.33326">
        <ele>125.5</ele>
        <time>2013-08-06T18:08:05.000Z</time>
      </trkpt>
      <trkpt lat="48.89032" lon="2.33326">
        <ele>126.4</ele>
        <time>2013-08-06T18:08:06.000Z</time>
      </trkpt>
      <trkpt lat="48.89028" lon="2.33326">
        <ele>126.5</ele>
        <time>2013-08-06T18:08:07.000Z</time>
      </trkpt>
      <trkpt lat="48.89025" lon="2.33326">
        <ele>126.8</ele>
        <time>2013-08-06T18:08:08.000Z</time>
      </trkpt>
      <trkpt lat="48.89022" lon="2.33326">
        <ele>128.2</ele>
        <time>2013-08-06T18:08:09.000Z</time>
      </trkpt>
      <trkpt lat="48.89018" lon="2.33326">
        <ele>126.9</ele>
        <time>2013-08-06T18:08:10.000Z</time>
      </trkpt>
      <trkpt lat="48.89015" lon="2.33327">
        <ele>125.3</ele>
        <time>2013-08-06T18:08:11.000Z</time>
      </trkpt>
      <trkpt lat="48.89012" lon="2.33328">
        <ele>123.7</ele>
        <time>2013-08-06T18:08:12.000Z</time>
      </trkpt>
      <trkpt lat="48.8901" lon="2.3333">
        <ele>124.4</ele>
        <time>2013-08-06T18:08:13.000Z</time>
      </trkpt>
      <trkpt lat="48.89007" lon="2.33331">
        <ele>124.3</ele>
        <time>2013-08-06T18:08:14.000Z</time>
      </trkpt>
      <trkpt lat="48.89004" lon="2.33332">
        <ele>123.9</ele>
        <time>2013-08-06T18:08:15.000Z</time>
      </trkpt>
      <trkpt lat="48.89" lon="2.33334">
        <ele>124</ele>
        <time>2013-08-06T18:08:16.000Z</time>
      </trkpt>
      <trkpt lat="48.88997" lon="2.33335">
        <ele>124.2</ele>
        <time>2013-08-06T18:08:17.000Z</time>
      </trkpt>
      <trkpt lat="48.88994" lon="2.33337">
        <ele>124.1</ele>
        <time>2013-08-06T18:08:18.000Z</time>
      </trkpt>
      <trkpt lat="48.8899" lon="2.33339">
        <ele>123.7</ele>
        <time>2013-08-06T18:08:19.000Z</time>
      </trkpt>
      <trkpt lat="48.88985" lon="2.33339">
        <ele>126.3</ele>
        <time>2013-08-06T18:08:20.000Z</time>
      </trkpt>
      <trkpt lat="48.8898" lon="2.33339">
        <ele>127.4</ele>
        <time>2013-08-06T18:08:21.000Z</time>
      </trkpt>
      <trkpt lat="48.88976" lon="2.33339">
        <ele>126</ele>
        <time>2013-08-06T18:08:22.000Z</time>
      </trkpt>
      <trkpt lat="48.88971" lon="2.33339">
        <ele>125.5</ele>
        <time>2013-08-06T18:08:23.000Z</time>
      </trkpt>
      <trkpt lat="48.88967" lon="2.33339">
        <ele>127</ele>
        <time>2013-08-06T18:08:24.000Z</time>
      </trkpt>
      <trkpt lat="48.88964" lon="2.33341">
        <ele>127.4</ele>
        <time>2013-08-06T18:08:25.000Z</time>
      </trkpt>
      <trkpt lat="48.88961" lon="2.33342">
        <ele>128</ele>
        <time>2013-08-06T18:08:26.000Z</time>
      </trkpt>
      <trkpt lat="48.88958" lon="2.33343">
        <ele>127.7</ele>
        <time>2013-08-06T18:08:27.000Z</time>
      </trkpt>
      <trkpt lat="48.88954" lon="2.33345">
        <ele>126.3</ele>
        <time>2013-08-06T18:08:29.000Z</time>
      </trkpt>
      <trkpt lat="48.88953" lon="2.33347">
        <ele>127.6</ele>
        <time>2013-08-06T18:08:30.000Z</time>
      </trkpt>
      <trkpt lat="48.8895" lon="2.33349">
        <ele>126</ele>
        <time>2013-08-06T18:08:34.000Z</time>
      </trkpt>
      <trkpt lat="48.88949" lon="2.33349">
        <ele>126.3</ele>
        <time>2013-08-06T18:08:35.000Z</time>
      </trkpt>
      <trkpt lat="48.88944" lon="2.33349">
        <ele>127.1</ele>
        <time>2013-08-06T18:08:37.000Z</time>
      </trkpt>
      <trkpt lat="48.88942" lon="2.33349">
        <ele>126.7</ele>
        <time>2013-08-06T18:08:38.000Z</time>
      </trkpt>
      <trkpt lat="48.88939" lon="2.33351">
        <ele>126.6</ele>
        <time>2013-08-06T18:08:40.000Z</time>
      </trkpt>
      <trkpt lat="48.88938" lon="2.33354">
        <ele>127.1</ele>
        <time>2013-08-06T18:08:41.000Z</time>
      </trkpt>
      <trkpt lat="48.88935" lon="2.33358">
        <ele>128.3</ele>
        <time>2013-08-06T18:08:44.000Z</time>
      </trkpt>
      <trkpt lat="48.88934" lon="2.33357">
        <ele>129</ele>
        <time>2013-08-06T18:08:45.000Z</time>
      </trkpt>
      <trkpt lat="48.8893" lon="2.33355">
        <ele>130.5</ele>
        <time>2013-08-06T18:08:47.000Z</time>
      </trkpt>
      <trkpt lat="48.88928" lon="2.33354">
        <ele>130.7</ele>
        <time>2013-08-06T18:08:48.000Z</time>
      </trkpt>
      <trkpt lat="48.88926" lon="2.33352">
        <ele>130.8</ele>
        <time>2013-08-06T18:08:49.000Z</time>
      </trkpt>
      <trkpt lat="48.88923" lon="2.33351">
        <ele>131.3</ele>
        <time>2013-08-06T18:08:50.000Z</time>
      </trkpt>
      <trkpt lat="48.88921" lon="2.3335">
        <ele>127.1</ele>
        <time>2013-08-06T18:08:51.000Z</time>
      </trkpt>
      <trkpt lat="48.88918" lon="2.33349">
        <ele>126</ele>
        <time>2013-08-06T18:08:52.000Z</time>
      </trkpt>
      <trkpt lat="48.88915" lon="2.33349">
        <ele>126.6</ele>
        <time>2013-08-06T18:08:53.000Z</time>
      </trkpt>
      <trkpt lat="48.88913" lon="2.33347">
        <ele>127</ele>
        <time>2013-08-06T18:08:54.000Z</time>
      </trkpt>
      <trkpt lat="48.8891" lon="2.33346">
        <ele>127.2</ele>
        <time>2013-08-06T18:08:55.000Z</time>
      </trkpt>
      <trkpt lat="48.88908" lon="2.33345">
        <ele>127.1</ele>
        <time>2013-08-06T18:08:56.000Z</time>
      </trkpt>
      <trkpt lat="48.88905" lon="2.33343">
        <ele>127.5</ele>
        <time>2013-08-06T18:08:57.000Z</time>
      </trkpt>
      <trkpt lat="48.88902" lon="2.33342">
        <ele>128.1</ele>
        <time>2013-08-06T18:08:58.000Z</time>
      </trkpt>
      <trkpt lat="48.88899" lon="2.3334">
        <ele>128</ele>
        <time>2013-08-06T18:08:59.000Z</time>
      </trkpt>
      <trkpt lat="48.88896" lon="2.33338">
        <ele>128.1</ele>
        <time>2013-08-06T18:09:00.000Z</time>
      </trkpt>
      <trkpt lat="48.88893" lon="2.33337">
        <ele>128.6</ele>
        <time>2013-08-06T18:09:01.000Z</time>
      </trkpt>
      <trkpt lat="48.8889" lon="2.33335">
        <ele>130</ele>
        <time>2013-08-06T18:09:02.000Z</time>
      </trkpt>
      <trkpt lat="48.88888" lon="2.33334">
        <ele>130.5</ele>
        <time>2013-08-06T18:09:03.000Z</time>
      </trkpt>
      <trkpt lat="48.88885" lon="2.33332">
        <ele>131</ele>
        <time>2013-08-06T18:09:04.000Z</time>
      </trkpt>
      <trkpt lat="48.88882" lon="2.3333">
        <ele>131.7</ele>
        <time>2013-08-06T18:09:05.000Z</time>
      </trkpt>
      <trkpt lat="48.88879" lon="2.33329">
        <ele>131.7</ele>
        <time>2013-08-06T18:09:06.000Z</time>
      </trkpt>
      <trkpt lat="48.88876" lon="2.33328">
        <ele>132.4</ele>
        <time>2013-08-06T18:09:07.000Z</time>
      </trkpt>
      <trkpt lat="48.88873" lon="2.33326">
        <ele>132.7</ele>
        <time>2013-08-06T18:09:08.000Z</time>
      </trkpt>
      <trkpt lat="48.8887" lon="2.33325">
        <ele>132.8</ele>
        <time>2013-08-06T18:09:09.000Z</time>
      </trkpt>
      <trkpt lat="48.88867" lon="2.33323">
        <ele>132.5</ele>
        <time>2013-08-06T18:09:10.000Z</time>
      </trkpt>
      <trkpt lat="48.88864" lon="2.33322">
        <ele>132.3</ele>
        <time>2013-08-06T18:09:11.000Z</time>
      </trkpt>
      <trkpt lat="48.88861" lon="2.3332">
        <ele>132.3</ele>
        <time>2013-08-06T18:09:12.000Z</time>
      </trkpt>
      <trkpt lat="48.88858" lon="2.33319">
        <ele>132.3</ele>
        <time>2013-08-06T18:09:13.000Z</time>
      </trkpt>
      <trkpt lat="48.88856" lon="2.33318">
        <ele>131.7</ele>
        <time>2013-08-06T18:09:14.000Z</time>
      </trkpt>
      <trkpt lat="48.88853" lon="2.33317">
        <ele>131.3</ele>
        <time>2013-08-06T18:09:15.000Z</time>
      </trkpt>
      <trkpt lat="48.88851" lon="2.33315">
        <ele>130.3</ele>
        <time>2013-08-06T18:09:16.000Z</time>
      </trkpt>
      <trkpt lat="48.88848" lon="2.33314">
        <ele>131</ele>
        <time>2013-08-06T18:09:17.000Z</time>
      </trkpt>
      <trkpt lat="48.88845" lon="2.33312">
        <ele>131.7</ele>
        <time>2013-08-06T18:09:18.000Z</time>
      </trkpt>
      <trkpt lat="48.88842" lon="2.3331">
        <ele>131.5</ele>
        <time>2013-08-06T18:09:19.000Z</time>
      </trkpt>
      <trkpt lat="48.8884" lon="2.33309">
        <ele>131.6</ele>
        <time>2013-08-06T18:09:20.000Z</time>
      </trkpt>
      <trkpt lat="48.88837" lon="2.33307">
        <ele>132.6</ele>
        <time>2013-08-06T18:09:21.000Z</time>
      </trkpt>
      <trkpt lat="48.88834" lon="2.33306">
        <ele>130.5</ele>
        <time>2013-08-06T18:09:22.000Z</time>
      </trkpt>
      <trkpt lat="48.8883" lon="2.33305">
        <ele>130.5</ele>
        <time>2013-08-06T18:09:23.000Z</time>
      </trkpt>
      <trkpt lat="48.88827" lon="2.33304">
        <ele>130.7</ele>
        <time>2013-08-06T18:09:24.000Z</time>
      </trkpt>
      <trkpt lat="48.88824" lon="2.33303">
        <ele>131.2</ele>
        <time>2013-08-06T18:09:25.000Z</time>
      </trkpt>
      <trkpt lat="48.88821" lon="2.33302">
        <ele>131.5</ele>
        <time>2013-08-06T18:09:26.000Z</time>
      </trkpt>
      <trkpt lat="48.88818" lon="2.33301">
        <ele>128</ele>
        <time>2013-08-06T18:09:27.000Z</time>
      </trkpt>
      <trkpt lat="48.88814" lon="2.333">
        <ele>127.8</ele>
        <time>2013-08-06T18:09:28.000Z</time>
      </trkpt>
      <trkpt lat="48.88811" lon="2.33299">
        <ele>127.5</ele>
        <time>2013-08-06T18:09:29.000Z</time>
      </trkpt>
      <trkpt lat="48.88808" lon="2.33297">
        <ele>127.7</ele>
        <time>2013-08-06T18:09:30.000Z</time>
      </trkpt>
      <trkpt lat="48.88804" lon="2.33295">
        <ele>127.6</ele>
        <time>2013-08-06T18:09:31.000Z</time>
      </trkpt>
      <trkpt lat="48.88801" lon="2.33292">
        <ele>129.4</ele>
        <time>2013-08-06T18:09:32.000Z</time>
      </trkpt>
      <trkpt lat="48.88799" lon="2.3329">
        <ele>129.3</ele>
        <time>2013-08-06T18:09:33.000Z</time>
      </trkpt>
      <trkpt lat="48.88796" lon="2.33289">
        <ele>128.6</ele>
        <time>2013-08-06T18:09:34.000Z</time>
      </trkpt>
      <trkpt lat="48.88793" lon="2.33287">
        <ele>129.5</ele>
        <time>2013-08-06T18:09:35.000Z</time>
      </trkpt>
      <trkpt lat="48.8879" lon="2.33287">
        <ele>130.6</ele>
        <time>2013-08-06T18:09:36.000Z</time>
      </trkpt>
      <trkpt lat="48.88786" lon="2.33287">
        <ele>130.5</ele>
        <time>2013-08-06T18:09:38.000Z</time>
      </trkpt>
      <trkpt lat="48.88784" lon="2.33287">
        <ele>130.3</ele>
        <time>2013-08-06T18:09:39.000Z</time>
      </trkpt>
      <trkpt lat="48.88781" lon="2.33287">
        <ele>130.2</ele>
        <time>2013-08-06T18:09:40.000Z</time>
      </trkpt>
      <trkpt lat="48.88779" lon="2.33286">
        <ele>130.1</ele>
        <time>2013-08-06T18:09:41.000Z</time>
      </trkpt>
      <trkpt lat="48.88776" lon="2.33286">
        <ele>129.8</ele>
        <time>2013-08-06T18:09:42.000Z</time>
      </trkpt>
      <trkpt lat="48.88774" lon="2.33286">
        <ele>130</ele>
        <time>2013-08-06T18:09:43.000Z</time>
      </trkpt>
      <trkpt lat="48.88771" lon="2.33286">
        <ele>128.9</ele>
        <time>2013-08-06T18:09:44.000Z</time>
      </trkpt>
      <trkpt lat="48.88768" lon="2.33286">
        <ele>128.7</ele>
        <time>2013-08-06T18:09:45.000Z</time>
      </trkpt>
      <trkpt lat="48.88765" lon="2.33285">
        <ele>127.8</ele>
        <time>2013-08-06T18:09:46.000Z</time>
      </trkpt>
      <trkpt lat="48.88762" lon="2.33285">
        <ele>127.7</ele>
        <time>2013-08-06T18:09:47.000Z</time>
      </trkpt>
      <trkpt lat="48.88759" lon="2.33284">
        <ele>126.4</ele>
        <time>2013-08-06T18:09:48.000Z</time>
      </trkpt>
      <trkpt lat="48.88756" lon="2.33284">
        <ele>126.9</ele>
        <time>2013-08-06T18:09:49.000Z</time>
      </trkpt>
      <trkpt lat="48.88752" lon="2.33283">
        <ele>126.3</ele>
        <time>2013-08-06T18:09:50.000Z</time>
      </trkpt>
      <trkpt lat="48.88749" lon="2.33283">
        <ele>124.6</ele>
        <time>2013-08-06T18:09:51.000Z</time>
      </trkpt>
      <trkpt lat="48.88746" lon="2.33282">
        <ele>124.9</ele>
        <time>2013-08-06T18:09:52.000Z</time>
      </trkpt>
      <trkpt lat="48.88743" lon="2.33283">
        <ele>124.5</ele>
        <time>2013-08-06T18:09:53.000Z</time>
      </trkpt>
      <trkpt lat="48.8874" lon="2.33282">
        <ele>125.1</ele>
        <time>2013-08-06T18:09:54.000Z</time>
      </trkpt>
      <trkpt lat="48.88737" lon="2.33282">
        <ele>126.1</ele>
        <time>2013-08-06T18:09:55.000Z</time>
      </trkpt>
      <trkpt lat="48.88733" lon="2.33282">
        <ele>126.9</ele>
        <time>2013-08-06T18:09:56.000Z</time>
      </trkpt>
      <trkpt lat="48.8873" lon="2.33282">
        <ele>127</ele>
        <time>2013-08-06T18:09:57.000Z</time>
      </trkpt>
      <trkpt lat="48.88726" lon="2.33281">
        <ele>127.5</ele>
        <time>2013-08-06T18:09:58.000Z</time>
      </trkpt>
      <trkpt lat="48.88723" lon="2.3328">
        <ele>126.7</ele>
        <time>2013-08-06T18:09:59.000Z</time>
      </trkpt>
      <trkpt lat="48.8872" lon="2.33279">
        <ele>126.5</ele>
        <time>2013-08-06T18:10:00.000Z</time>
      </trkpt>
      <trkpt lat="48.88717" lon="2.33278">
        <ele>124.6</ele>
        <time>2013-08-06T18:10:01.000Z</time>
      </trkpt>
      <trkpt lat="48.88714" lon="2.33276">
        <ele>124</ele>
        <time>2013-08-06T18:10:02.000Z</time>
      </trkpt>
      <trkpt lat="48.88711" lon="2.33274">
        <ele>123.5</ele>
        <time>2013-08-06T18:10:03.000Z</time>
      </trkpt>
      <trkpt lat="48.88708" lon="2.33273">
        <ele>121.9</ele>
        <time>2013-08-06T18:10:04.000Z</time>
      </trkpt>
      <trkpt lat="48.88706" lon="2.33273">
        <ele>122.2</ele>
        <time>2013-08-06T18:10:05.000Z</time>
      </trkpt>
      <trkpt lat="48.88703" lon="2.33272">
        <ele>121.6</ele>
        <time>2013-08-06T18:10:06.000Z</time>
      </trkpt>
      <trkpt lat="48.88701" lon="2.33271">
        <ele>121.7</ele>
        <time>2013-08-06T18:10:07.000Z</time>
      </trkpt>
      <trkpt lat="48.88697" lon="2.33269">
        <ele>123.6</ele>
        <time>2013-08-06T18:10:09.000Z</time>
      </trkpt>
      <trkpt lat="48.88695" lon="2.33268">
        <ele>123.3</ele>
        <time>2013-08-06T18:10:10.000Z</time>
      </trkpt>
      <trkpt lat="48.88692" lon="2.33265">
        <ele>126.1</ele>
        <time>2013-08-06T18:10:14.000Z</time>
      </trkpt>
      <trkpt lat="48.88691" lon="2.33265">
        <ele>128.2</ele>
        <time>2013-08-06T18:10:15.000Z</time>
      </trkpt>
      <trkpt lat="48.8869" lon="2.33259">
        <ele>130.9</ele>
        <time>2013-08-06T18:10:19.000Z</time>
      </trkpt>
      <trkpt lat="48.8869" lon="2.33258">
        <ele>131.1</ele>
        <time>2013-08-06T18:10:20.000Z</time>
      </trkpt>
      <trkpt lat="48.88694" lon="2.33258">
        <ele>128</ele>
        <time>2013-08-06T18:10:39.000Z</time>
      </trkpt>
      <trkpt lat="48.88694" lon="2.33257">
        <ele>128</ele>
        <time>2013-08-06T18:10:40.000Z</time>
      </trkpt>
      <trkpt lat="48.88691" lon="2.33254">
        <ele>126.5</ele>
        <time>2013-08-06T18:11:04.000Z</time>
      </trkpt>
      <trkpt lat="48.88689" lon="2.33255">
        <ele>125.8</ele>
        <time>2013-08-06T18:11:05.000Z</time>
      </trkpt>
      <trkpt lat="48.88686" lon="2.33255">
        <ele>125.7</ele>
        <time>2013-08-06T18:11:06.000Z</time>
      </trkpt>
      <trkpt lat="48.88684" lon="2.33255">
        <ele>126.3</ele>
        <time>2013-08-06T18:11:07.000Z</time>
      </trkpt>
      <trkpt lat="48.88681" lon="2.33256">
        <ele>126.2</ele>
        <time>2013-08-06T18:11:08.000Z</time>
      </trkpt>
      <trkpt lat="48.88679" lon="2.33257">
        <ele>126.3</ele>
        <time>2013-08-06T18:11:09.000Z</time>
      </trkpt>
      <trkpt lat="48.88676" lon="2.33257">
        <ele>127.8</ele>
        <time>2013-08-06T18:11:10.000Z</time>
      </trkpt>
      <trkpt lat="48.88674" lon="2.33257">
        <ele>127.9</ele>
        <time>2013-08-06T18:11:11.000Z</time>
      </trkpt>
      <trkpt lat="48.88671" lon="2.33257">
        <ele>128.8</ele>
        <time>2013-08-06T18:11:12.000Z</time>
      </trkpt>
      <trkpt lat="48.88668" lon="2.33258">
        <ele>129.1</ele>
        <time>2013-08-06T18:11:13.000Z</time>
      </trkpt>
      <trkpt lat="48.88666" lon="2.33258">
        <ele>129</ele>
        <time>2013-08-06T18:11:14.000Z</time>
      </trkpt>
      <trkpt lat="48.88663" lon="2.33258">
        <ele>129.5</ele>
        <time>2013-08-06T18:11:15.000Z</time>
      </trkpt>
      <trkpt lat="48.8866" lon="2.33257">
        <ele>128.4</ele>
        <time>2013-08-06T18:11:16.000Z</time>
      </trkpt>
      <trkpt lat="48.88658" lon="2.33256">
        <ele>129.6</ele>
        <time>2013-08-06T18:11:17.000Z</time>
      </trkpt>
      <trkpt lat="48.88655" lon="2.33255">
        <ele>128.8</ele>
        <time>2013-08-06T18:11:18.000Z</time>
      </trkpt>
      <trkpt lat="48.88652" lon="2.33252">
        <ele>128.9</ele>
        <time>2013-08-06T18:11:19.000Z</time>
      </trkpt>
      <trkpt lat="48.8865" lon="2.33249">
        <ele>128.9</ele>
        <time>2013-08-06T18:11:20.000Z</time>
      </trkpt>
      <trkpt lat="48.88647" lon="2.33245">
        <ele>128.8</ele>
        <time>2013-08-06T18:11:21.000Z</time>
      </trkpt>
      <trkpt lat="48.88645" lon="2.3324">
        <ele>128.6</ele>
        <time>2013-08-06T18:11:22.000Z</time>
      </trkpt>
      <trkpt lat="48.88642" lon="2.33235">
        <ele>129.2</ele>
        <time>2013-08-06T18:11:23.000Z</time>
      </trkpt>
      <trkpt lat="48.8864" lon="2.3323">
        <ele>129.1</ele>
        <time>2013-08-06T18:11:24.000Z</time>
      </trkpt>
      <trkpt lat="48.88638" lon="2.33224">
        <ele>128.9</ele>
        <time>2013-08-06T18:11:25.000Z</time>
      </trkpt>
      <trkpt lat="48.88635" lon="2.33218">
        <ele>130.5</ele>
        <time>2013-08-06T18:11:26.000Z</time>
      </trkpt>
      <trkpt lat="48.88632" lon="2.33212">
        <ele>130</ele>
        <time>2013-08-06T18:11:27.000Z</time>
      </trkpt>
      <trkpt lat="48.88629" lon="2.33206">
        <ele>129.4</ele>
        <time>2013-08-06T18:11:28.000Z</time>
      </trkpt>
      <trkpt lat="48.88626" lon="2.33201">
        <ele>129.5</ele>
        <time>2013-08-06T18:11:29.000Z</time>
      </trkpt>
      <trkpt lat="48.88623" lon="2.33196">
        <ele>128.7</ele>
        <time>2013-08-06T18:11:30.000Z</time>
      </trkpt>
      <trkpt lat="48.8862" lon="2.33191">
        <ele>128.3</ele>
        <time>2013-08-06T18:11:31.000Z</time>
      </trkpt>
      <trkpt lat="48.88617" lon="2.33186">
        <ele>127.4</ele>
        <time>2013-08-06T18:11:32.000Z</time>
      </trkpt>
      <trkpt lat="48.88614" lon="2.33181">
        <ele>127.8</ele>
        <time>2013-08-06T18:11:33.000Z</time>
      </trkpt>
      <trkpt lat="48.88611" lon="2.33175">
        <ele>127.2</ele>
        <time>2013-08-06T18:11:34.000Z</time>
      </trkpt>
      <trkpt lat="48.88608" lon="2.3317">
        <ele>125.6</ele>
        <time>2013-08-06T18:11:35.000Z</time>
      </trkpt>
      <trkpt lat="48.88606" lon="2.33165">
        <ele>124.7</ele>
        <time>2013-08-06T18:11:36.000Z</time>
      </trkpt>
      <trkpt lat="48.88603" lon="2.33161">
        <ele>124.7</ele>
        <time>2013-08-06T18:11:37.000Z</time>
      </trkpt>
      <trkpt lat="48.886" lon="2.33156">
        <ele>124.3</ele>
        <time>2013-08-06T18:11:38.000Z</time>
      </trkpt>
      <trkpt lat="48.88598" lon="2.33152">
        <ele>124</ele>
        <time>2013-08-06T18:11:39.000Z</time>
      </trkpt>
      <trkpt lat="48.88595" lon="2.33147">
        <ele>123.6</ele>
        <time>2013-08-06T18:11:40.000Z</time>
      </trkpt>
      <trkpt lat="48.88592" lon="2.33143">
        <ele>123.2</ele>
        <time>2013-08-06T18:11:41.000Z</time>
      </trkpt>
      <trkpt lat="48.88589" lon="2.33139">
        <ele>123.2</ele>
        <time>2013-08-06T18:11:42.000Z</time>
      </trkpt>
      <trkpt lat="48.88586" lon="2.33134">
        <ele>122.9</ele>
        <time>2013-08-06T18:11:43.000Z</time>
      </trkpt>
      <trkpt lat="48.88582" lon="2.33128">
        <ele>122.5</ele>
        <time>2013-08-06T18:11:44.000Z</time>
      </trkpt>
      <trkpt lat="48.88578" lon="2.33124">
        <ele>122.1</ele>
        <time>2013-08-06T18:11:45.000Z</time>
      </trkpt>
      <trkpt lat="48.88574" lon="2.33119">
        <ele>121.4</ele>
        <time>2013-08-06T18:11:46.000Z</time>
      </trkpt>
      <trkpt lat="48.8857" lon="2.33114">
        <ele>121</ele>
        <time>2013-08-06T18:11:47.000Z</time>
      </trkpt>
      <trkpt lat="48.88566" lon="2.33108">
        <ele>120.9</ele>
        <time>2013-08-06T18:11:48.000Z</time>
      </trkpt>
      <trkpt lat="48.88563" lon="2.33103">
        <ele>120.8</ele>
        <time>2013-08-06T18:11:49.000Z</time>
      </trkpt>
      <trkpt lat="48.88559" lon="2.33098">
        <ele>120.7</ele>
        <time>2013-08-06T18:11:50.000Z</time>
      </trkpt>
      <trkpt lat="48.88554" lon="2.33093">
        <ele>120.7</ele>
        <time>2013-08-06T18:11:51.000Z</time>
      </trkpt>
      <trkpt lat="48.8855" lon="2.33088">
        <ele>120.1</ele>
        <time>2013-08-06T18:11:52.000Z</time>
      </trkpt>
      <trkpt lat="48.88546" lon="2.33083">
        <ele>120.1</ele>
        <time>2013-08-06T18:11:53.000Z</time>
      </trkpt>
      <trkpt lat="48.88542" lon="2.33081">
        <ele>120.2</ele>
        <time>2013-08-06T18:11:54.000Z</time>
      </trkpt>
      <trkpt lat="48.88538" lon="2.33074">
        <ele>120.9</ele>
        <time>2013-08-06T18:11:55.000Z</time>
      </trkpt>
      <trkpt lat="48.88535" lon="2.33069">
        <ele>121.5</ele>
        <time>2013-08-06T18:11:56.000Z</time>
      </trkpt>
      <trkpt lat="48.88531" lon="2.33063">
        <ele>122</ele>
        <time>2013-08-06T18:11:57.000Z</time>
      </trkpt>
      <trkpt lat="48.88528" lon="2.33059">
        <ele>121.9</ele>
        <time>2013-08-06T18:11:58.000Z</time>
      </trkpt>
      <trkpt lat="48.88523" lon="2.33052">
        <ele>121.3</ele>
        <time>2013-08-06T18:11:59.000Z</time>
      </trkpt>
      <trkpt lat="48.88519" lon="2.33047">
        <ele>120.9</ele>
        <time>2013-08-06T18:12:00.000Z</time>
      </trkpt>
      <trkpt lat="48.88515" lon="2.33042">
        <ele>120.6</ele>
        <time>2013-08-06T18:12:01.000Z</time>
      </trkpt>
      <trkpt lat="48.88512" lon="2.33036">
        <ele>120.7</ele>
        <time>2013-08-06T18:12:02.000Z</time>
      </trkpt>
      <trkpt lat="48.88509" lon="2.33029">
        <ele>122.1</ele>
        <time>2013-08-06T18:12:03.000Z</time>
      </trkpt>
      <trkpt lat="48.88505" lon="2.33022">
        <ele>122.3</ele>
        <time>2013-08-06T18:12:04.000Z</time>
      </trkpt>
      <trkpt lat="48.88502" lon="2.33015">
        <ele>121.8</ele>
        <time>2013-08-06T18:12:05.000Z</time>
      </trkpt>
      <trkpt lat="48.88499" lon="2.33007">
        <ele>121</ele>
        <time>2013-08-06T18:12:06.000Z</time>
      </trkpt>
      <trkpt lat="48.88497" lon="2.33003">
        <ele>120.6</ele>
        <time>2013-08-06T18:12:07.000Z</time>
      </trkpt>
      <trkpt lat="48.88494" lon="2.32998">
        <ele>120.3</ele>
        <time>2013-08-06T18:12:08.000Z</time>
      </trkpt>
      <trkpt lat="48.88492" lon="2.32993">
        <ele>120.3</ele>
        <time>2013-08-06T18:12:09.000Z</time>
      </trkpt>
      <trkpt lat="48.8849" lon="2.3299">
        <ele>120.3</ele>
        <time>2013-08-06T18:12:10.000Z</time>
      </trkpt>
      <trkpt lat="48.88487" lon="2.32986">
        <ele>120.9</ele>
        <time>2013-08-06T18:12:11.000Z</time>
      </trkpt>
      <trkpt lat="48.88485" lon="2.32983">
        <ele>120.2</ele>
        <time>2013-08-06T18:12:12.000Z</time>
      </trkpt>
      <trkpt lat="48.88484" lon="2.3298">
        <ele>119.9</ele>
        <time>2013-08-06T18:12:13.000Z</time>
      </trkpt>
      <trkpt lat="48.88482" lon="2.32977">
        <ele>119.6</ele>
        <time>2013-08-06T18:12:14.000Z</time>
      </trkpt>
      <trkpt lat="48.88478" lon="2.32974">
        <ele>120.8</ele>
        <time>2013-08-06T18:12:16.000Z</time>
      </trkpt>
      <trkpt lat="48.88477" lon="2.32974">
        <ele>122.9</ele>
        <time>2013-08-06T18:12:17.000Z</time>
      </trkpt>
      <trkpt lat="48.88474" lon="2.32976">
        <ele>122.6</ele>
        <time>2013-08-06T18:12:20.000Z</time>
      </trkpt>
      <trkpt lat="48.88473" lon="2.32978">
        <ele>125</ele>
        <time>2013-08-06T18:12:21.000Z</time>
      </trkpt>
      <trkpt lat="48.8847" lon="2.32983">
        <ele>121.8</ele>
        <time>2013-08-06T18:12:44.000Z</time>
      </trkpt>
      <trkpt lat="48.88469" lon="2.32984">
        <ele>122.6</ele>
        <time>2013-08-06T18:12:45.000Z</time>
      </trkpt>
      <trkpt lat="48.88466" lon="2.32986">
        <ele>123.2</ele>
        <time>2013-08-06T18:12:47.000Z</time>
      </trkpt>
      <trkpt lat="48.88464" lon="2.32987">
        <ele>123.3</ele>
        <time>2013-08-06T18:12:48.000Z</time>
      </trkpt>
      <trkpt lat="48.8846" lon="2.32989">
        <ele>125.8</ele>
        <time>2013-08-06T18:12:50.000Z</time>
      </trkpt>
      <trkpt lat="48.88459" lon="2.32991">
        <ele>126.3</ele>
        <time>2013-08-06T18:12:51.000Z</time>
      </trkpt>
      <trkpt lat="48.88456" lon="2.32996">
        <ele>130.6</ele>
        <time>2013-08-06T18:12:53.000Z</time>
      </trkpt>
      <trkpt lat="48.88455" lon="2.32999">
        <ele>127.8</ele>
        <time>2013-08-06T18:12:54.000Z</time>
      </trkpt>
      <trkpt lat="48.88453" lon="2.33003">
        <ele>127</ele>
        <time>2013-08-06T18:12:55.000Z</time>
      </trkpt>
      <trkpt lat="48.88452" lon="2.33007">
        <ele>126.7</ele>
        <time>2013-08-06T18:12:56.000Z</time>
      </trkpt>
      <trkpt lat="48.88451" lon="2.33013">
        <ele>126.8</ele>
        <time>2013-08-06T18:12:57.000Z</time>
      </trkpt>
      <trkpt lat="48.8845" lon="2.33018">
        <ele>126.4</ele>
        <time>2013-08-06T18:12:58.000Z</time>
      </trkpt>
      <trkpt lat="48.88449" lon="2.33024">
        <ele>126.3</ele>
        <time>2013-08-06T18:12:59.000Z</time>
      </trkpt>
      <trkpt lat="48.88448" lon="2.3303">
        <ele>125.3</ele>
        <time>2013-08-06T18:13:00.000Z</time>
      </trkpt>
      <trkpt lat="48.88447" lon="2.33035">
        <ele>124.9</ele>
        <time>2013-08-06T18:13:01.000Z</time>
      </trkpt>
      <trkpt lat="48.88445" lon="2.33041">
        <ele>124.9</ele>
        <time>2013-08-06T18:13:02.000Z</time>
      </trkpt>
      <trkpt lat="48.88444" lon="2.33046">
        <ele>124.5</ele>
        <time>2013-08-06T18:13:03.000Z</time>
      </trkpt>
      <trkpt lat="48.88442" lon="2.33051">
        <ele>124.3</ele>
        <time>2013-08-06T18:13:04.000Z</time>
      </trkpt>
      <trkpt lat="48.88441" lon="2.33056">
        <ele>123.9</ele>
        <time>2013-08-06T18:13:05.000Z</time>
      </trkpt>
      <trkpt lat="48.8844" lon="2.33062">
        <ele>123.2</ele>
        <time>2013-08-06T18:13:06.000Z</time>
      </trkpt>
      <trkpt lat="48.88438" lon="2.33067">
        <ele>122.4</ele>
        <time>2013-08-06T18:13:07.000Z</time>
      </trkpt>
      <trkpt lat="48.88437" lon="2.33073">
        <ele>120.9</ele>
        <time>2013-08-06T18:13:08.000Z</time>
      </trkpt>
      <trkpt lat="48.88435" lon="2.33078">
        <ele>118.6</ele>
        <time>2013-08-06T18:13:09.000Z</time>
      </trkpt>
      <trkpt lat="48.88434" lon="2.33083">
        <ele>118</ele>
        <time>2013-08-06T18:13:10.000Z</time>
      </trkpt>
      <trkpt lat="48.88432" lon="2.33088">
        <ele>118.3</ele>
        <time>2013-08-06T18:13:11.000Z</time>
      </trkpt>
      <trkpt lat="48.8843" lon="2.33093">
        <ele>118.7</ele>
        <time>2013-08-06T18:13:12.000Z</time>
      </trkpt>
      <trkpt lat="48.88428" lon="2.33098">
        <ele>119.5</ele>
        <time>2013-08-06T18:13:13.000Z</time>
      </trkpt>
      <trkpt lat="48.88427" lon="2.33103">
        <ele>119.4</ele>
        <time>2013-08-06T18:13:14.000Z</time>
      </trkpt>
      <trkpt lat="48.88425" lon="2.33109">
        <ele>120.8</ele>
        <time>2013-08-06T18:13:15.000Z</time>
      </trkpt>
      <trkpt lat="48.88424" lon="2.33114">
        <ele>121.3</ele>
        <time>2013-08-06T18:13:16.000Z</time>
      </trkpt>
      <trkpt lat="48.88423" lon="2.3312">
        <ele>121.9</ele>
        <time>2013-08-06T18:13:17.000Z</time>
      </trkpt>
      <trkpt lat="48.88421" lon="2.33126">
        <ele>123.2</ele>
        <time>2013-08-06T18:13:18.000Z</time>
      </trkpt>
      <trkpt lat="48.8842" lon="2.33132">
        <ele>123.7</ele>
        <time>2013-08-06T18:13:19.000Z</time>
      </trkpt>
      <trkpt lat="48.88419" lon="2.33138">
        <ele>125.4</ele>
        <time>2013-08-06T18:13:20.000Z</time>
      </trkpt>
      <trkpt lat="48.88418" lon="2.33144">
        <ele>124.2</ele>
        <time>2013-08-06T18:13:21.000Z</time>
      </trkpt>
      <trkpt lat="48.88416" lon="2.33149">
        <ele>124.9</ele>
        <time>2013-08-06T18:13:22.000Z</time>
      </trkpt>
      <trkpt lat="48.88414" lon="2.33155">
        <ele>125</ele>
        <time>2013-08-06T18:13:23.000Z</time>
      </trkpt>
      <trkpt lat="48.88412" lon="2.3316">
        <ele>125.2</ele>
        <time>2013-08-06T18:13:24.000Z</time>
      </trkpt>
      <trkpt lat="48.88409" lon="2.33165">
        <ele>125.7</ele>
        <time>2013-08-06T18:13:25.000Z</time>
      </trkpt>
      <trkpt lat="48.88407" lon="2.3317">
        <ele>125.9</ele>
        <time>2013-08-06T18:13:26.000Z</time>
      </trkpt>
      <trkpt lat="48.88405" lon="2.33175">
        <ele>126.2</ele>
        <time>2013-08-06T18:13:27.000Z</time>
      </trkpt>
      <trkpt lat="48.88403" lon="2.3318">
        <ele>126</ele>
        <time>2013-08-06T18:13:28.000Z</time>
      </trkpt>
      <trkpt lat="48.88401" lon="2.33185">
        <ele>125.9</ele>
        <time>2013-08-06T18:13:29.000Z</time>
      </trkpt>
      <trkpt lat="48.88399" lon="2.3319">
        <ele>125.6</ele>
        <time>2013-08-06T18:13:30.000Z</time>
      </trkpt>
      <trkpt lat="48.88397" lon="2.33195">
        <ele>125.7</ele>
        <time>2013-08-06T18:13:31.000Z</time>
      </trkpt>
      <trkpt lat="48.88396" lon="2.33198">
        <ele>124.9</ele>
        <time>2013-08-06T18:13:32.000Z</time>
      </trkpt>
      <trkpt lat="48.88394" lon="2.33203">
        <ele>124.3</ele>
        <time>2013-08-06T18:13:38.000Z</time>
      </trkpt>
      <trkpt lat="48.88394" lon="2.33204">
        <ele>124.9</ele>
        <time>2013-08-06T18:13:39.000Z</time>
      </trkpt>
      <trkpt lat="48.8839" lon="2.33208">
        <ele>125.7</ele>
        <time>2013-08-06T18:14:01.000Z</time>
      </trkpt>
      <trkpt lat="48.88389" lon="2.33209">
        <ele>128.3</ele>
        <time>2013-08-06T18:14:02.000Z</time>
      </trkpt>
      <trkpt lat="48.88388" lon="2.33215">
        <ele>126.2</ele>
        <time>2013-08-06T18:14:05.000Z</time>
      </trkpt>
      <trkpt lat="48.88387" lon="2.33219">
        <ele>126.6</ele>
        <time>2013-08-06T18:14:06.000Z</time>
      </trkpt>
      <trkpt lat="48.88386" lon="2.33223">
        <ele>127.5</ele>
        <time>2013-08-06T18:14:07.000Z</time>
      </trkpt>
      <trkpt lat="48.88384" lon="2.33227">
        <ele>128.9</ele>
        <time>2013-08-06T18:14:08.000Z</time>
      </trkpt>
      <trkpt lat="48.88382" lon="2.33232">
        <ele>127.8</ele>
        <time>2013-08-06T18:14:09.000Z</time>
      </trkpt>
      <trkpt lat="48.88381" lon="2.33236">
        <ele>127.2</ele>
        <time>2013-08-06T18:14:10.000Z</time>
      </trkpt>
      <trkpt lat="48.8838" lon="2.33242">
        <ele>127.5</ele>
        <time>2013-08-06T18:14:11.000Z</time>
      </trkpt>
      <trkpt lat="48.88378" lon="2.33247">
        <ele>128.8</ele>
        <time>2013-08-06T18:14:12.000Z</time>
      </trkpt>
      <trkpt lat="48.88377" lon="2.33253">
        <ele>128.9</ele>
        <time>2013-08-06T18:14:13.000Z</time>
      </trkpt>
      <trkpt lat="48.88376" lon="2.33259">
        <ele>128.2</ele>
        <time>2013-08-06T18:14:14.000Z</time>
      </trkpt>
      <trkpt lat="48.88375" lon="2.33264">
        <ele>127.2</ele>
        <time>2013-08-06T18:14:15.000Z</time>
      </trkpt>
      <trkpt lat="48.88374" lon="2.3327">
        <ele>126.5</ele>
        <time>2013-08-06T18:14:16.000Z</time>
      </trkpt>
      <trkpt lat="48.88373" lon="2.33276">
        <ele>126</ele>
        <time>2013-08-06T18:14:17.000Z</time>
      </trkpt>
      <trkpt lat="48.88372" lon="2.33281">
        <ele>125.8</ele>
        <time>2013-08-06T18:14:18.000Z</time>
      </trkpt>
      <trkpt lat="48.88371" lon="2.33286">
        <ele>125.9</ele>
        <time>2013-08-06T18:14:19.000Z</time>
      </trkpt>
      <trkpt lat="48.8837" lon="2.33291">
        <ele>125.9</ele>
        <time>2013-08-06T18:14:20.000Z</time>
      </trkpt>
      <trkpt lat="48.88369" lon="2.33295">
        <ele>123.2</ele>
        <time>2013-08-06T18:14:21.000Z</time>
      </trkpt>
      <trkpt lat="48.88367" lon="2.33298">
        <ele>122.1</ele>
        <time>2013-08-06T18:14:22.000Z</time>
      </trkpt>
      <trkpt lat="48.88366" lon="2.33303">
        <ele>122</ele>
        <time>2013-08-06T18:14:24.000Z</time>
      </trkpt>
      <trkpt lat="48.88366" lon="2.33306">
        <ele>122</ele>
        <time>2013-08-06T18:14:25.000Z</time>
      </trkpt>
      <trkpt lat="48.88366" lon="2.33313">
        <ele>122.7</ele>
        <time>2013-08-06T18:14:27.000Z</time>
      </trkpt>
      <trkpt lat="48.88366" lon="2.33316">
        <ele>123.8</ele>
        <time>2013-08-06T18:14:28.000Z</time>
      </trkpt>
      <trkpt lat="48.88365" lon="2.3332">
        <ele>124.4</ele>
        <time>2013-08-06T18:14:29.000Z</time>
      </trkpt>
      <trkpt lat="48.88365" lon="2.33324">
        <ele>124.4</ele>
        <time>2013-08-06T18:14:30.000Z</time>
      </trkpt>
      <trkpt lat="48.88365" lon="2.33328">
        <ele>126.7</ele>
        <time>2013-08-06T18:14:31.000Z</time>
      </trkpt>
      <trkpt lat="48.88364" lon="2.33332">
        <ele>127.8</ele>
        <time>2013-08-06T18:14:32.000Z</time>
      </trkpt>
      <trkpt lat="48.88363" lon="2.33335">
        <ele>129.1</ele>
        <time>2013-08-06T18:14:33.000Z</time>
      </trkpt>
      <trkpt lat="48.88362" lon="2.33339">
        <ele>129.2</ele>
        <time>2013-08-06T18:14:34.000Z</time>
      </trkpt>
      <trkpt lat="48.8836" lon="2.33342">
        <ele>129.5</ele>
        <time>2013-08-06T18:14:35.000Z</time>
      </trkpt>
      <trkpt lat="48.88358" lon="2.33345">
        <ele>129.9</ele>
        <time>2013-08-06T18:14:36.000Z</time>
      </trkpt>
      <trkpt lat="48.88357" lon="2.33349">
        <ele>130.3</ele>
        <time>2013-08-06T18:14:37.000Z</time>
      </trkpt>
      <trkpt lat="48.88356" lon="2.33353">
        <ele>130.5</ele>
        <time>2013-08-06T18:14:38.000Z</time>
      </trkpt>
      <trkpt lat="48.88355" lon="2.33358">
        <ele>130.1</ele>
        <time>2013-08-06T18:14:39.000Z</time>
      </trkpt>
      <trkpt lat="48.88354" lon="2.33364">
        <ele>129.6</ele>
        <time>2013-08-06T18:14:40.000Z</time>
      </trkpt>
      <trkpt lat="48.88352" lon="2.33369">
        <ele>129.4</ele>
        <time>2013-08-06T18:14:41.000Z</time>
      </trkpt>
      <trkpt lat="48.88351" lon="2.33375">
        <ele>128.2</ele>
        <time>2013-08-06T18:14:42.000Z</time>
      </trkpt>
      <trkpt lat="48.88349" lon="2.33381">
        <ele>129</ele>
        <time>2013-08-06T18:14:43.000Z</time>
      </trkpt>
      <trkpt lat="48.88346" lon="2.33385">
        <ele>125.8</ele>
        <time>2013-08-06T18:14:44.000Z</time>
      </trkpt>
      <trkpt lat="48.88344" lon="2.3339">
        <ele>124.8</ele>
        <time>2013-08-06T18:14:45.000Z</time>
      </trkpt>
      <trkpt lat="48.88341" lon="2.33395">
        <ele>124.3</ele>
        <time>2013-08-06T18:14:46.000Z</time>
      </trkpt>
      <trkpt lat="48.88339" lon="2.33401">
        <ele>122.3</ele>
        <time>2013-08-06T18:14:47.000Z</time>
      </trkpt>
      <trkpt lat="48.88337" lon="2.33406">
        <ele>123.3</ele>
        <time>2013-08-06T18:14:48.000Z</time>
      </trkpt>
      <trkpt lat="48.88336" lon="2.33412">
        <ele>124.4</ele>
        <time>2013-08-06T18:14:49.000Z</time>
      </trkpt>
      <trkpt lat="48.88334" lon="2.33418">
        <ele>124.4</ele>
        <time>2013-08-06T18:14:50.000Z</time>
      </trkpt>
      <trkpt lat="48.88333" lon="2.33424">
        <ele>125.5</ele>
        <time>2013-08-06T18:14:51.000Z</time>
      </trkpt>
      <trkpt lat="48.88331" lon="2.3343">
        <ele>125.4</ele>
        <time>2013-08-06T18:14:52.000Z</time>
      </trkpt>
      <trkpt lat="48.8833" lon="2.33436">
        <ele>126.2</ele>
        <time>2013-08-06T18:14:53.000Z</time>
      </trkpt>
      <trkpt lat="48.88329" lon="2.33442">
        <ele>126.2</ele>
        <time>2013-08-06T18:14:54.000Z</time>
      </trkpt>
      <trkpt lat="48.88327" lon="2.33448">
        <ele>127.2</ele>
        <time>2013-08-06T18:14:55.000Z</time>
      </trkpt>
      <trkpt lat="48.88326" lon="2.33454">
        <ele>127.4</ele>
        <time>2013-08-06T18:14:56.000Z</time>
      </trkpt>
      <trkpt lat="48.88325" lon="2.33459">
        <ele>127.8</ele>
        <time>2013-08-06T18:14:57.000Z</time>
      </trkpt>
      <trkpt lat="48.88324" lon="2.33465">
        <ele>128.1</ele>
        <time>2013-08-06T18:14:58.000Z</time>
      </trkpt>
      <trkpt lat="48.88322" lon="2.3347">
        <ele>127.6</ele>
        <time>2013-08-06T18:14:59.000Z</time>
      </trkpt>
      <trkpt lat="48.8832" lon="2.33475">
        <ele>128.1</ele>
        <time>2013-08-06T18:15:00.000Z</time>
      </trkpt>
      <trkpt lat="48.88319" lon="2.33479">
        <ele>127.4</ele>
        <time>2013-08-06T18:15:01.000Z</time>
      </trkpt>
      <trkpt lat="48.88318" lon="2.33484">
        <ele>126.3</ele>
        <time>2013-08-06T18:15:02.000Z</time>
      </trkpt>
      <trkpt lat="48.88317" lon="2.33488">
        <ele>126.8</ele>
        <time>2013-08-06T18:15:03.000Z</time>
      </trkpt>
      <trkpt lat="48.88316" lon="2.33492">
        <ele>125.7</ele>
        <time>2013-08-06T18:15:04.000Z</time>
      </trkpt>
      <trkpt lat="48.88316" lon="2.33497">
        <ele>126.2</ele>
        <time>2013-08-06T18:15:05.000Z</time>
      </trkpt>
      <trkpt lat="48.88315" lon="2.33501">
        <ele>126.6</ele>
        <time>2013-08-06T18:15:06.000Z</time>
      </trkpt>
      <trkpt lat="48.88314" lon="2.33505">
        <ele>126.7</ele>
        <time>2013-08-06T18:15:07.000Z</time>
      </trkpt>
      <trkpt lat="48.88312" lon="2.3351">
        <ele>127.4</ele>
        <time>2013-08-06T18:15:08.000Z</time>
      </trkpt>
      <trkpt lat="48.88311" lon="2.33515">
        <ele>127.6</ele>
        <time>2013-08-06T18:15:09.000Z</time>
      </trkpt>
      <trkpt lat="48.88309" lon="2.3352">
        <ele>128.1</ele>
        <time>2013-08-06T18:15:10.000Z</time>
      </trkpt>
      <trkpt lat="48.88307" lon="2.33525">
        <ele>127.5</ele>
        <time>2013-08-06T18:15:11.000Z</time>
      </trkpt>
      <trkpt lat="48.88305" lon="2.33529">
        <ele>128.3</ele>
        <time>2013-08-06T18:15:12.000Z</time>
      </trkpt>
      <trkpt lat="48.88304" lon="2.33534">
        <ele>128.7</ele>
        <time>2013-08-06T18:15:13.000Z</time>
      </trkpt>
      <trkpt lat="48.88302" lon="2.33539">
        <ele>128.1</ele>
        <time>2013-08-06T18:15:14.000Z</time>
      </trkpt>
      <trkpt lat="48.883" lon="2.33543">
        <ele>126.5</ele>
        <time>2013-08-06T18:15:15.000Z</time>
      </trkpt>
      <trkpt lat="48.88298" lon="2.33548">
        <ele>125.5</ele>
        <time>2013-08-06T18:15:16.000Z</time>
      </trkpt>
      <trkpt lat="48.88296" lon="2.33553">
        <ele>125</ele>
        <time>2013-08-06T18:15:17.000Z</time>
      </trkpt>
      <trkpt lat="48.88295" lon="2.33558">
        <ele>123.9</ele>
        <time>2013-08-06T18:15:18.000Z</time>
      </trkpt>
      <trkpt lat="48.88293" lon="2.33563">
        <ele>123.5</ele>
        <time>2013-08-06T18:15:19.000Z</time>
      </trkpt>
      <trkpt lat="48.88292" lon="2.33568">
        <ele>124.2</ele>
        <time>2013-08-06T18:15:20.000Z</time>
      </trkpt>
      <trkpt lat="48.88291" lon="2.33572">
        <ele>122.9</ele>
        <time>2013-08-06T18:15:21.000Z</time>
      </trkpt>
      <trkpt lat="48.88289" lon="2.33577">
        <ele>123.3</ele>
        <time>2013-08-06T18:15:22.000Z</time>
      </trkpt>
      <trkpt lat="48.88287" lon="2.33581">
        <ele>124</ele>
        <time>2013-08-06T18:15:23.000Z</time>
      </trkpt>
      <trkpt lat="48.88285" lon="2.33585">
        <ele>124.5</ele>
        <time>2013-08-06T18:15:24.000Z</time>
      </trkpt>
      <trkpt lat="48.88284" lon="2.33589">
        <ele>125</ele>
        <time>2013-08-06T18:15:25.000Z</time>
      </trkpt>
      <trkpt lat="48.88282" lon="2.33593">
        <ele>125.5</ele>
        <time>2013-08-06T18:15:26.000Z</time>
      </trkpt>
      <trkpt lat="48.88281" lon="2.33598">
        <ele>125.4</ele>
        <time>2013-08-06T18:15:27.000Z</time>
      </trkpt>
      <trkpt lat="48.88279" lon="2.33602">
        <ele>126.1</ele>
        <time>2013-08-06T18:15:28.000Z</time>
      </trkpt>
      <trkpt lat="48.88277" lon="2.33606">
        <ele>126.3</ele>
        <time>2013-08-06T18:15:29.000Z</time>
      </trkpt>
      <trkpt lat="48.88275" lon="2.3361">
        <ele>127.6</ele>
        <time>2013-08-06T18:15:30.000Z</time>
      </trkpt>
      <trkpt lat="48.88274" lon="2.33614">
        <ele>129.2</ele>
        <time>2013-08-06T18:15:31.000Z</time>
      </trkpt>
      <trkpt lat="48.88273" lon="2.33619">
        <ele>130.1</ele>
        <time>2013-08-06T18:15:32.000Z</time>
      </trkpt>
      <trkpt lat="48.88272" lon="2.33623">
        <ele>129.5</ele>
        <time>2013-08-06T18:15:33.000Z</time>
      </trkpt>
      <trkpt lat="48.8827" lon="2.33627">
        <ele>130.3</ele>
        <time>2013-08-06T18:15:34.000Z</time>
      </trkpt>
      <trkpt lat="48.88269" lon="2.33632">
        <ele>131.4</ele>
        <time>2013-08-06T18:15:35.000Z</time>
      </trkpt>
      <trkpt lat="48.88268" lon="2.33636">
        <ele>131.7</ele>
        <time>2013-08-06T18:15:36.000Z</time>
      </trkpt>
      <trkpt lat="48.88266" lon="2.33641">
        <ele>132</ele>
        <time>2013-08-06T18:15:37.000Z</time>
      </trkpt>
      <trkpt lat="48.88265" lon="2.33645">
        <ele>132.5</ele>
        <time>2013-08-06T18:15:38.000Z</time>
      </trkpt>
      <trkpt lat="48.88263" lon="2.33649">
        <ele>133</ele>
        <time>2013-08-06T18:15:39.000Z</time>
      </trkpt>
      <trkpt lat="48.88261" lon="2.33653">
        <ele>133.3</ele>
        <time>2013-08-06T18:15:40.000Z</time>
      </trkpt>
      <trkpt lat="48.8826" lon="2.33658">
        <ele>133.3</ele>
        <time>2013-08-06T18:15:41.000Z</time>
      </trkpt>
      <trkpt lat="48.88259" lon="2.33662">
        <ele>128.3</ele>
        <time>2013-08-06T18:15:42.000Z</time>
      </trkpt>
      <trkpt lat="48.88258" lon="2.33665">
        <ele>127.7</ele>
        <time>2013-08-06T18:15:43.000Z</time>
      </trkpt>
      <trkpt lat="48.88258" lon="2.33669">
        <ele>124.7</ele>
        <time>2013-08-06T18:15:44.000Z</time>
      </trkpt>
      <trkpt lat="48.88258" lon="2.33672">
        <ele>123.2</ele>
        <time>2013-08-06T18:15:45.000Z</time>
      </trkpt>
      <trkpt lat="48.88258" lon="2.33676">
        <ele>122.4</ele>
        <time>2013-08-06T18:15:46.000Z</time>
      </trkpt>
      <trkpt lat="48.88257" lon="2.33683">
        <ele>122.6</ele>
        <time>2013-08-06T18:15:48.000Z</time>
      </trkpt>
      <trkpt lat="48.88257" lon="2.33685">
        <ele>122.5</ele>
        <time>2013-08-06T18:15:49.000Z</time>
      </trkpt>
      <trkpt lat="48.88256" lon="2.33692">
        <ele>123.6</ele>
        <time>2013-08-06T18:16:45.000Z</time>
      </trkpt>
      <trkpt lat="48.88256" lon="2.33692">
        <ele>123.5</ele>
        <time>2013-08-06T18:16:46.000Z</time>
      </trkpt>
      <trkpt lat="48.88253" lon="2.3369">
        <ele>128</ele>
        <time>2013-08-06T18:16:48.000Z</time>
      </trkpt>
      <trkpt lat="48.88251" lon="2.33689">
        <ele>131.1</ele>
        <time>2013-08-06T18:16:49.000Z</time>
      </trkpt>
      <trkpt lat="48.88246" lon="2.33689">
        <ele>128.9</ele>
        <time>2013-08-06T18:16:51.000Z</time>
      </trkpt>
      <trkpt lat="48.88244" lon="2.33689">
        <ele>129.4</ele>
        <time>2013-08-06T18:16:52.000Z</time>
      </trkpt>
      <trkpt lat="48.88241" lon="2.33689">
        <ele>128.4</ele>
        <time>2013-08-06T18:16:53.000Z</time>
      </trkpt>
      <trkpt lat="48.88239" lon="2.33689">
        <ele>128.5</ele>
        <time>2013-08-06T18:16:54.000Z</time>
      </trkpt>
      <trkpt lat="48.88236" lon="2.3369">
        <ele>127.3</ele>
        <time>2013-08-06T18:16:55.000Z</time>
      </trkpt>
      <trkpt lat="48.88232" lon="2.3369">
        <ele>127.4</ele>
        <time>2013-08-06T18:16:56.000Z</time>
      </trkpt>
      <trkpt lat="48.88228" lon="2.33691">
        <ele>127</ele>
        <time>2013-08-06T18:16:57.000Z</time>
      </trkpt>
      <trkpt lat="48.88224" lon="2.33692">
        <ele>125.6</ele>
        <time>2013-08-06T18:16:58.000Z</time>
      </trkpt>
      <trkpt lat="48.8822" lon="2.33694">
        <ele>124.5</ele>
        <time>2013-08-06T18:16:59.000Z</time>
      </trkpt>
      <trkpt lat="48.88217" lon="2.33697">
        <ele>122.9</ele>
        <time>2013-08-06T18:17:00.000Z</time>
      </trkpt>
      <trkpt lat="48.88214" lon="2.33701">
        <ele>122.6</ele>
        <time>2013-08-06T18:17:01.000Z</time>
      </trkpt>
      <trkpt lat="48.88211" lon="2.33705">
        <ele>122.2</ele>
        <time>2013-08-06T18:17:02.000Z</time>
      </trkpt>
      <trkpt lat="48.88208" lon="2.33709">
        <ele>120.3</ele>
        <time>2013-08-06T18:17:03.000Z</time>
      </trkpt>
      <trkpt lat="48.88206" lon="2.33714">
        <ele>120.9</ele>
        <time>2013-08-06T18:17:04.000Z</time>
      </trkpt>
      <trkpt lat="48.88203" lon="2.33718">
        <ele>119.6</ele>
        <time>2013-08-06T18:17:05.000Z</time>
      </trkpt>
      <trkpt lat="48.88196" lon="2.33726">
        <ele>122</ele>
        <time>2013-08-06T18:17:06.000Z</time>
      </trkpt>
      <trkpt lat="48.88193" lon="2.3373">
        <ele>121.8</ele>
        <time>2013-08-06T18:17:07.000Z</time>
      </trkpt>
      <trkpt lat="48.88188" lon="2.33733">
        <ele>121.3</ele>
        <time>2013-08-06T18:17:08.000Z</time>
      </trkpt>
      <trkpt lat="48.88183" lon="2.33735">
        <ele>120.8</ele>
        <time>2013-08-06T18:17:09.000Z</time>
      </trkpt>
      <trkpt lat="48.88178" lon="2.33737">
        <ele>120.3</ele>
        <time>2013-08-06T18:17:10.000Z</time>
      </trkpt>
      <trkpt lat="48.88173" lon="2.33741">
        <ele>121.2</ele>
        <time>2013-08-06T18:17:11.000Z</time>
      </trkpt>
      <trkpt lat="48.88168" lon="2.33744">
        <ele>120.6</ele>
        <time>2013-08-06T18:17:12.000Z</time>
      </trkpt>
      <trkpt lat="48.88163" lon="2.33747">
        <ele>120.5</ele>
        <time>2013-08-06T18:17:13.000Z</time>
      </trkpt>
      <trkpt lat="48.88158" lon="2.33751">
        <ele>120.2</ele>
        <time>2013-08-06T18:17:14.000Z</time>
      </trkpt>
      <trkpt lat="48.88153" lon="2.33755">
        <ele>119.6</ele>
        <time>2013-08-06T18:17:15.000Z</time>
      </trkpt>
      <trkpt lat="48.88148" lon="2.33757">
        <ele>119</ele>
        <time>2013-08-06T18:17:16.000Z</time>
      </trkpt>
      <trkpt lat="48.88143" lon="2.3376">
        <ele>118.8</ele>
        <time>2013-08-06T18:17:17.000Z</time>
      </trkpt>
      <trkpt lat="48.88138" lon="2.33763">
        <ele>119.8</ele>
        <time>2013-08-06T18:17:18.000Z</time>
      </trkpt>
      <trkpt lat="48.88133" lon="2.33765">
        <ele>120</ele>
        <time>2013-08-06T18:17:19.000Z</time>
      </trkpt>
      <trkpt lat="48.88128" lon="2.33768">
        <ele>119.7</ele>
        <time>2013-08-06T18:17:20.000Z</time>
      </trkpt>
      <trkpt lat="48.88123" lon="2.3377">
        <ele>119.6</ele>
        <time>2013-08-06T18:17:21.000Z</time>
      </trkpt>
      <trkpt lat="48.88119" lon="2.33772">
        <ele>120.2</ele>
        <time>2013-08-06T18:17:22.000Z</time>
      </trkpt>
      <trkpt lat="48.88114" lon="2.33775">
        <ele>120.3</ele>
        <time>2013-08-06T18:17:23.000Z</time>
      </trkpt>
      <trkpt lat="48.88108" lon="2.33777">
        <ele>119.7</ele>
        <time>2013-08-06T18:17:24.000Z</time>
      </trkpt>
      <trkpt lat="48.88101" lon="2.33777">
        <ele>120</ele>
        <time>2013-08-06T18:17:25.000Z</time>
      </trkpt>
      <trkpt lat="48.88095" lon="2.33778">
        <ele>119.6</ele>
        <time>2013-08-06T18:17:26.000Z</time>
      </trkpt>
      <trkpt lat="48.88089" lon="2.33777">
        <ele>120</ele>
        <time>2013-08-06T18:17:27.000Z</time>
      </trkpt>
      <trkpt lat="48.88085" lon="2.33781">
        <ele>120.2</ele>
        <time>2013-08-06T18:17:28.000Z</time>
      </trkpt>
      <trkpt lat="48.88079" lon="2.33779">
        <ele>118.4</ele>
        <time>2013-08-06T18:17:29.000Z</time>
      </trkpt>
      <trkpt lat="48.88073" lon="2.33777">
        <ele>116.8</ele>
        <time>2013-08-06T18:17:30.000Z</time>
      </trkpt>
      <trkpt lat="48.8807" lon="2.33776">
        <ele>114.7</ele>
        <time>2013-08-06T18:17:31.000Z</time>
      </trkpt>
      <trkpt lat="48.88066" lon="2.33776">
        <ele>112.9</ele>
        <time>2013-08-06T18:17:32.000Z</time>
      </trkpt>
      <trkpt lat="48.88061" lon="2.33774">
        <ele>110.7</ele>
        <time>2013-08-06T18:17:33.000Z</time>
      </trkpt>
      <trkpt lat="48.88058" lon="2.33771">
        <ele>111.1</ele>
        <time>2013-08-06T18:17:34.000Z</time>
      </trkpt>
      <trkpt lat="48.88054" lon="2.3377">
        <ele>110.6</ele>
        <time>2013-08-06T18:17:35.000Z</time>
      </trkpt>
      <trkpt lat="48.88048" lon="2.33768">
        <ele>109.9</ele>
        <time>2013-08-06T18:17:36.000Z</time>
      </trkpt>
      <trkpt lat="48.88043" lon="2.33765">
        <ele>109.3</ele>
        <time>2013-08-06T18:17:37.000Z</time>
      </trkpt>
      <trkpt lat="48.8804" lon="2.33763">
        <ele>109.2</ele>
        <time>2013-08-06T18:17:38.000Z</time>
      </trkpt>
      <trkpt lat="48.88034" lon="2.3376">
        <ele>109.1</ele>
        <time>2013-08-06T18:17:39.000Z</time>
      </trkpt>
      <trkpt lat="48.88031" lon="2.33757">
        <ele>108.8</ele>
        <time>2013-08-06T18:17:40.000Z</time>
      </trkpt>
      <trkpt lat="48.88026" lon="2.33756">
        <ele>108.6</ele>
        <time>2013-08-06T18:17:41.000Z</time>
      </trkpt>
      <trkpt lat="48.88022" lon="2.33753">
        <ele>108.4</ele>
        <time>2013-08-06T18:17:42.000Z</time>
      </trkpt>
      <trkpt lat="48.88018" lon="2.33752">
        <ele>108.2</ele>
        <time>2013-08-06T18:17:43.000Z</time>
      </trkpt>
      <trkpt lat="48.88013" lon="2.33748">
        <ele>108.4</ele>
        <time>2013-08-06T18:17:44.000Z</time>
      </trkpt>
      <trkpt lat="48.88008" lon="2.33745">
        <ele>107.9</ele>
        <time>2013-08-06T18:17:45.000Z</time>
      </trkpt>
      <trkpt lat="48.88004" lon="2.33744">
        <ele>107.8</ele>
        <time>2013-08-06T18:17:46.000Z</time>
      </trkpt>
      <trkpt lat="48.88" lon="2.33742">
        <ele>107.3</ele>
        <time>2013-08-06T18:17:47.000Z</time>
      </trkpt>
      <trkpt lat="48.87995" lon="2.33741">
        <ele>107.3</ele>
        <time>2013-08-06T18:17:48.000Z</time>
      </trkpt>
      <trkpt lat="48.87991" lon="2.33739">
        <ele>107.3</ele>
        <time>2013-08-06T18:17:49.000Z</time>
      </trkpt>
      <trkpt lat="48.87988" lon="2.33737">
        <ele>106.3</ele>
        <time>2013-08-06T18:17:50.000Z</time>
      </trkpt>
      <trkpt lat="48.87984" lon="2.33735">
        <ele>104.8</ele>
        <time>2013-08-06T18:17:51.000Z</time>
      </trkpt>
      <trkpt lat="48.87978" lon="2.33734">
        <ele>106.2</ele>
        <time>2013-08-06T18:17:52.000Z</time>
      </trkpt>
      <trkpt lat="48.87974" lon="2.33732">
        <ele>106.3</ele>
        <time>2013-08-06T18:17:53.000Z</time>
      </trkpt>
      <trkpt lat="48.87969" lon="2.33733">
        <ele>106.9</ele>
        <time>2013-08-06T18:17:54.000Z</time>
      </trkpt>
      <trkpt lat="48.87965" lon="2.3373">
        <ele>105.2</ele>
        <time>2013-08-06T18:17:55.000Z</time>
      </trkpt>
      <trkpt lat="48.87961" lon="2.33727">
        <ele>104.3</ele>
        <time>2013-08-06T18:17:56.000Z</time>
      </trkpt>
      <trkpt lat="48.87957" lon="2.33725">
        <ele>103.6</ele>
        <time>2013-08-06T18:17:57.000Z</time>
      </trkpt>
      <trkpt lat="48.87953" lon="2.33723">
        <ele>104.3</ele>
        <time>2013-08-06T18:17:58.000Z</time>
      </trkpt>
      <trkpt lat="48.8795" lon="2.33724">
        <ele>104.5</ele>
        <time>2013-08-06T18:17:59.000Z</time>
      </trkpt>
      <trkpt lat="48.87948" lon="2.33722">
        <ele>104.4</ele>
        <time>2013-08-06T18:18:00.000Z</time>
      </trkpt>
      <trkpt lat="48.87943" lon="2.33722">
        <ele>106.4</ele>
        <time>2013-08-06T18:18:01.000Z</time>
      </trkpt>
      <trkpt lat="48.8794" lon="2.33725">
        <ele>112.1</ele>
        <time>2013-08-06T18:18:02.000Z</time>
      </trkpt>
      <trkpt lat="48.87936" lon="2.33724">
        <ele>114.7</ele>
        <time>2013-08-06T18:18:03.000Z</time>
      </trkpt>
      <trkpt lat="48.87933" lon="2.33724">
        <ele>115.6</ele>
        <time>2013-08-06T18:18:04.000Z</time>
      </trkpt>
      <trkpt lat="48.8793" lon="2.33724">
        <ele>115.8</ele>
        <time>2013-08-06T18:18:05.000Z</time>
      </trkpt>
      <trkpt lat="48.87927" lon="2.33723">
        <ele>114.7</ele>
        <time>2013-08-06T18:18:06.000Z</time>
      </trkpt>
      <trkpt lat="48.87925" lon="2.33721">
        <ele>114.6</ele>
        <time>2013-08-06T18:18:07.000Z</time>
      </trkpt>
      <trkpt lat="48.87922" lon="2.33719">
        <ele>115.4</ele>
        <time>2013-08-06T18:18:08.000Z</time>
      </trkpt>
      <trkpt lat="48.87919" lon="2.33717">
        <ele>116.3</ele>
        <time>2013-08-06T18:18:09.000Z</time>
      </trkpt>
      <trkpt lat="48.87916" lon="2.33717">
        <ele>116.8</ele>
        <time>2013-08-06T18:18:10.000Z</time>
      </trkpt>
      <trkpt lat="48.87914" lon="2.33716">
        <ele>115.9</ele>
        <time>2013-08-06T18:18:11.000Z</time>
      </trkpt>
      <trkpt lat="48.87911" lon="2.33714">
        <ele>116</ele>
        <time>2013-08-06T18:18:12.000Z</time>
      </trkpt>
      <trkpt lat="48.87909" lon="2.33711">
        <ele>115.3</ele>
        <time>2013-08-06T18:18:13.000Z</time>
      </trkpt>
      <trkpt lat="48.87907" lon="2.33708">
        <ele>114.7</ele>
        <time>2013-08-06T18:18:14.000Z</time>
      </trkpt>
      <trkpt lat="48.87904" lon="2.33707">
        <ele>112.7</ele>
        <time>2013-08-06T18:18:15.000Z</time>
      </trkpt>
      <trkpt lat="48.87901" lon="2.33707">
        <ele>111.8</ele>
        <time>2013-08-06T18:18:16.000Z</time>
      </trkpt>
      <trkpt lat="48.87897" lon="2.33707">
        <ele>111.5</ele>
        <time>2013-08-06T18:18:17.000Z</time>
      </trkpt>
      <trkpt lat="48.87893" lon="2.3371">
        <ele>108.4</ele>
        <time>2013-08-06T18:18:18.000Z</time>
      </trkpt>
      <trkpt lat="48.87888" lon="2.33714">
        <ele>105.7</ele>
        <time>2013-08-06T18:18:19.000Z</time>
      </trkpt>
      <trkpt lat="48.87884" lon="2.33719">
        <ele>105</ele>
        <time>2013-08-06T18:18:20.000Z</time>
      </trkpt>
      <trkpt lat="48.87881" lon="2.33723">
        <ele>103.1</ele>
        <time>2013-08-06T18:18:21.000Z</time>
      </trkpt>
      <trkpt lat="48.87878" lon="2.33729">
        <ele>102.8</ele>
        <time>2013-08-06T18:18:22.000Z</time>
      </trkpt>
      <trkpt lat="48.87874" lon="2.33733">
        <ele>102.9</ele>
        <time>2013-08-06T18:18:23.000Z</time>
      </trkpt>
      <trkpt lat="48.8787" lon="2.33735">
        <ele>103</ele>
        <time>2013-08-06T18:18:24.000Z</time>
      </trkpt>
      <trkpt lat="48.87868" lon="2.33741">
        <ele>103.1</ele>
        <time>2013-08-06T18:18:25.000Z</time>
      </trkpt>
      <trkpt lat="48.87865" lon="2.33746">
        <ele>102.7</ele>
        <time>2013-08-06T18:18:26.000Z</time>
      </trkpt>
      <trkpt lat="48.87859" lon="2.33747">
        <ele>103.5</ele>
        <time>2013-08-06T18:18:27.000Z</time>
      </trkpt>
      <trkpt lat="48.87856" lon="2.33753">
        <ele>104</ele>
        <time>2013-08-06T18:18:28.000Z</time>
      </trkpt>
      <trkpt lat="48.8785" lon="2.33756">
        <ele>106.3</ele>
        <time>2013-08-06T18:18:29.000Z</time>
      </trkpt>
      <trkpt lat="48.87847" lon="2.3376">
        <ele>107.6</ele>
        <time>2013-08-06T18:18:30.000Z</time>
      </trkpt>
      <trkpt lat="48.87844" lon="2.33764">
        <ele>107.6</ele>
        <time>2013-08-06T18:18:31.000Z</time>
      </trkpt>
      <trkpt lat="48.87842" lon="2.33767">
        <ele>107.7</ele>
        <time>2013-08-06T18:18:32.000Z</time>
      </trkpt>
      <trkpt lat="48.87839" lon="2.33769">
        <ele>109</ele>
        <time>2013-08-06T18:18:33.000Z</time>
      </trkpt>
      <trkpt lat="48.87837" lon="2.33772">
        <ele>109.5</ele>
        <time>2013-08-06T18:18:34.000Z</time>
      </trkpt>
      <trkpt lat="48.87834" lon="2.33775">
        <ele>110.7</ele>
        <time>2013-08-06T18:18:35.000Z</time>
      </trkpt>
      <trkpt lat="48.87831" lon="2.3378">
        <ele>109.8</ele>
        <time>2013-08-06T18:18:36.000Z</time>
      </trkpt>
      <trkpt lat="48.87828" lon="2.33783">
        <ele>110</ele>
        <time>2013-08-06T18:18:37.000Z</time>
      </trkpt>
      <trkpt lat="48.87825" lon="2.33786">
        <ele>109.7</ele>
        <time>2013-08-06T18:18:38.000Z</time>
      </trkpt>
      <trkpt lat="48.87822" lon="2.33789">
        <ele>109</ele>
        <time>2013-08-06T18:18:39.000Z</time>
      </trkpt>
      <trkpt lat="48.87818" lon="2.33793">
        <ele>108.1</ele>
        <time>2013-08-06T18:18:40.000Z</time>
      </trkpt>
      <trkpt lat="48.87815" lon="2.33796">
        <ele>106.7</ele>
        <time>2013-08-06T18:18:41.000Z</time>
      </trkpt>
      <trkpt lat="48.87811" lon="2.338">
        <ele>105.3</ele>
        <time>2013-08-06T18:18:42.000Z</time>
      </trkpt>
      <trkpt lat="48.87807" lon="2.33805">
        <ele>104.7</ele>
        <time>2013-08-06T18:18:43.000Z</time>
      </trkpt>
      <trkpt lat="48.87803" lon="2.33808">
        <ele>103.3</ele>
        <time>2013-08-06T18:18:44.000Z</time>
      </trkpt>
      <trkpt lat="48.87799" lon="2.33812">
        <ele>102.9</ele>
        <time>2013-08-06T18:18:45.000Z</time>
      </trkpt>
      <trkpt lat="48.87795" lon="2.33817">
        <ele>102.1</ele>
        <time>2013-08-06T18:18:46.000Z</time>
      </trkpt>
      <trkpt lat="48.87791" lon="2.33821">
        <ele>101</ele>
        <time>2013-08-06T18:18:47.000Z</time>
      </trkpt>
      <trkpt lat="48.87787" lon="2.33826">
        <ele>101</ele>
        <time>2013-08-06T18:18:48.000Z</time>
      </trkpt>
      <trkpt lat="48.87783" lon="2.33827">
        <ele>100.9</ele>
        <time>2013-08-06T18:18:49.000Z</time>
      </trkpt>
      <trkpt lat="48.87779" lon="2.33832">
        <ele>100.4</ele>
        <time>2013-08-06T18:18:50.000Z</time>
      </trkpt>
      <trkpt lat="48.87775" lon="2.33835">
        <ele>99.7</ele>
        <time>2013-08-06T18:18:51.000Z</time>
      </trkpt>
      <trkpt lat="48.87771" lon="2.33842">
        <ele>98.8</ele>
        <time>2013-08-06T18:18:52.000Z</time>
      </trkpt>
      <trkpt lat="48.87766" lon="2.33847">
        <ele>98.6</ele>
        <time>2013-08-06T18:18:53.000Z</time>
      </trkpt>
      <trkpt lat="48.87762" lon="2.3385">
        <ele>97.4</ele>
        <time>2013-08-06T18:18:54.000Z</time>
      </trkpt>
      <trkpt lat="48.87757" lon="2.33853">
        <ele>96.7</ele>
        <time>2013-08-06T18:18:55.000Z</time>
      </trkpt>
      <trkpt lat="48.87753" lon="2.33857">
        <ele>95.8</ele>
        <time>2013-08-06T18:18:56.000Z</time>
      </trkpt>
      <trkpt lat="48.87749" lon="2.33858">
        <ele>95.1</ele>
        <time>2013-08-06T18:18:57.000Z</time>
      </trkpt>
      <trkpt lat="48.87745" lon="2.33863">
        <ele>94</ele>
        <time>2013-08-06T18:18:58.000Z</time>
      </trkpt>
      <trkpt lat="48.87742" lon="2.33867">
        <ele>93.2</ele>
        <time>2013-08-06T18:18:59.000Z</time>
      </trkpt>
      <trkpt lat="48.87737" lon="2.33871">
        <ele>92</ele>
        <time>2013-08-06T18:19:00.000Z</time>
      </trkpt>
      <trkpt lat="48.87733" lon="2.33875">
        <ele>92</ele>
        <time>2013-08-06T18:19:01.000Z</time>
      </trkpt>
      <trkpt lat="48.87729" lon="2.33878">
        <ele>91.7</ele>
        <time>2013-08-06T18:19:02.000Z</time>
      </trkpt>
      <trkpt lat="48.87725" lon="2.33881">
        <ele>91.4</ele>
        <time>2013-08-06T18:19:03.000Z</time>
      </trkpt>
      <trkpt lat="48.87721" lon="2.33884">
        <ele>91.8</ele>
        <time>2013-08-06T18:19:04.000Z</time>
      </trkpt>
      <trkpt lat="48.87716" lon="2.33886">
        <ele>91.9</ele>
        <time>2013-08-06T18:19:05.000Z</time>
      </trkpt>
      <trkpt lat="48.87711" lon="2.33891">
        <ele>90.9</ele>
        <time>2013-08-06T18:19:06.000Z</time>
      </trkpt>
      <trkpt lat="48.87707" lon="2.33893">
        <ele>90.1</ele>
        <time>2013-08-06T18:19:07.000Z</time>
      </trkpt>
      <trkpt lat="48.87704" lon="2.33897">
        <ele>90</ele>
        <time>2013-08-06T18:19:08.000Z</time>
      </trkpt>
      <trkpt lat="48.87699" lon="2.33899">
        <ele>87.9</ele>
        <time>2013-08-06T18:19:09.000Z</time>
      </trkpt>
      <trkpt lat="48.87696" lon="2.33903">
        <ele>87</ele>
        <time>2013-08-06T18:19:10.000Z</time>
      </trkpt>
      <trkpt lat="48.87693" lon="2.33906">
        <ele>86.1</ele>
        <time>2013-08-06T18:19:11.000Z</time>
      </trkpt>
      <trkpt lat="48.87692" lon="2.33909">
        <ele>86.8</ele>
        <time>2013-08-06T18:19:12.000Z</time>
      </trkpt>
      <trkpt lat="48.87689" lon="2.33911">
        <ele>86.4</ele>
        <time>2013-08-06T18:19:13.000Z</time>
      </trkpt>
      <trkpt lat="48.87686" lon="2.33914">
        <ele>85.9</ele>
        <time>2013-08-06T18:19:15.000Z</time>
      </trkpt>
      <trkpt lat="48.87683" lon="2.33915">
        <ele>85</ele>
        <time>2013-08-06T18:19:16.000Z</time>
      </trkpt>
      <trkpt lat="48.8768" lon="2.3392">
        <ele>85.1</ele>
        <time>2013-08-06T18:19:19.000Z</time>
      </trkpt>
      <trkpt lat="48.87679" lon="2.33921">
        <ele>87</ele>
        <time>2013-08-06T18:19:20.000Z</time>
      </trkpt>
      <trkpt lat="48.87679" lon="2.33927">
        <ele>86.6</ele>
        <time>2013-08-06T18:19:43.000Z</time>
      </trkpt>
      <trkpt lat="48.87679" lon="2.33928">
        <ele>86.7</ele>
        <time>2013-08-06T18:19:44.000Z</time>
      </trkpt>
      <trkpt lat="48.87684" lon="2.33927">
        <ele>88.6</ele>
        <time>2013-08-06T18:20:49.000Z</time>
      </trkpt>
      <trkpt lat="48.87684" lon="2.33927">
        <ele>88.9</ele>
        <time>2013-08-06T18:20:50.000Z</time>
      </trkpt>
      <trkpt lat="48.8768" lon="2.33927">
        <ele>84.4</ele>
        <time>2013-08-06T18:21:51.000Z</time>
      </trkpt>
      <trkpt lat="48.87678" lon="2.33926">
        <ele>83</ele>
        <time>2013-08-06T18:21:52.000Z</time>
      </trkpt>
      <trkpt lat="48.87674" lon="2.33928">
        <ele>82.4</ele>
        <time>2013-08-06T18:21:56.000Z</time>
      </trkpt>
      <trkpt lat="48.87672" lon="2.33928">
        <ele>81.9</ele>
        <time>2013-08-06T18:21:57.000Z</time>
      </trkpt>
      <trkpt lat="48.87668" lon="2.33929">
        <ele>84.3</ele>
        <time>2013-08-06T18:21:59.000Z</time>
      </trkpt>
      <trkpt lat="48.87666" lon="2.33928">
        <ele>84.4</ele>
        <time>2013-08-06T18:22:00.000Z</time>
      </trkpt>
      <trkpt lat="48.87664" lon="2.33928">
        <ele>84.1</ele>
        <time>2013-08-06T18:22:01.000Z</time>
      </trkpt>
      <trkpt lat="48.87661" lon="2.33928">
        <ele>83.1</ele>
        <time>2013-08-06T18:22:02.000Z</time>
      </trkpt>
      <trkpt lat="48.87657" lon="2.33928">
        <ele>83.4</ele>
        <time>2013-08-06T18:22:04.000Z</time>
      </trkpt>
      <trkpt lat="48.87655" lon="2.33927">
        <ele>83</ele>
        <time>2013-08-06T18:22:05.000Z</time>
      </trkpt>
      <trkpt lat="48.87653" lon="2.33927">
        <ele>83.3</ele>
        <time>2013-08-06T18:22:06.000Z</time>
      </trkpt>
      <trkpt lat="48.8765" lon="2.33926">
        <ele>82.5</ele>
        <time>2013-08-06T18:22:07.000Z</time>
      </trkpt>
      <trkpt lat="48.87647" lon="2.33926">
        <ele>82.8</ele>
        <time>2013-08-06T18:22:08.000Z</time>
      </trkpt>
      <trkpt lat="48.87643" lon="2.33925">
        <ele>82.9</ele>
        <time>2013-08-06T18:22:09.000Z</time>
      </trkpt>
      <trkpt lat="48.8764" lon="2.33924">
        <ele>82.5</ele>
        <time>2013-08-06T18:22:10.000Z</time>
      </trkpt>
      <trkpt lat="48.87636" lon="2.33924">
        <ele>81.8</ele>
        <time>2013-08-06T18:22:11.000Z</time>
      </trkpt>
      <trkpt lat="48.87633" lon="2.33922">
        <ele>82.4</ele>
        <time>2013-08-06T18:22:12.000Z</time>
      </trkpt>
      <trkpt lat="48.87631" lon="2.33922">
        <ele>81.7</ele>
        <time>2013-08-06T18:22:13.000Z</time>
      </trkpt>
      <trkpt lat="48.87628" lon="2.33921">
        <ele>81.3</ele>
        <time>2013-08-06T18:22:14.000Z</time>
      </trkpt>
      <trkpt lat="48.87625" lon="2.3392">
        <ele>79.9</ele>
        <time>2013-08-06T18:22:15.000Z</time>
      </trkpt>
      <trkpt lat="48.87621" lon="2.33919">
        <ele>79</ele>
        <time>2013-08-06T18:22:16.000Z</time>
      </trkpt>
      <trkpt lat="48.87617" lon="2.33918">
        <ele>77</ele>
        <time>2013-08-06T18:22:17.000Z</time>
      </trkpt>
      <trkpt lat="48.87613" lon="2.33918">
        <ele>76.5</ele>
        <time>2013-08-06T18:22:18.000Z</time>
      </trkpt>
      <trkpt lat="48.8761" lon="2.33919">
        <ele>77</ele>
        <time>2013-08-06T18:22:19.000Z</time>
      </trkpt>
      <trkpt lat="48.87606" lon="2.3392">
        <ele>77.3</ele>
        <time>2013-08-06T18:22:20.000Z</time>
      </trkpt>
      <trkpt lat="48.87604" lon="2.33921">
        <ele>77.4</ele>
        <time>2013-08-06T18:22:21.000Z</time>
      </trkpt>
      <trkpt lat="48.87601" lon="2.33922">
        <ele>77.1</ele>
        <time>2013-08-06T18:22:22.000Z</time>
      </trkpt>
      <trkpt lat="48.87599" lon="2.33923">
        <ele>76.9</ele>
        <time>2013-08-06T18:22:23.000Z</time>
      </trkpt>
      <trkpt lat="48.87597" lon="2.33927">
        <ele>77.8</ele>
        <time>2013-08-06T18:22:24.000Z</time>
      </trkpt>
      <trkpt lat="48.87596" lon="2.33931">
        <ele>78.3</ele>
        <time>2013-08-06T18:22:25.000Z</time>
      </trkpt>
      <trkpt lat="48.87596" lon="2.33936">
        <ele>79.8</ele>
        <time>2013-08-06T18:22:26.000Z</time>
      </trkpt>
      <trkpt lat="48.87597" lon="2.33941">
        <ele>79.6</ele>
        <time>2013-08-06T18:22:27.000Z</time>
      </trkpt>
      <trkpt lat="48.87598" lon="2.33945">
        <ele>81.3</ele>
        <time>2013-08-06T18:22:28.000Z</time>
      </trkpt>
      <trkpt lat="48.87599" lon="2.3395">
        <ele>82.4</ele>
        <time>2013-08-06T18:22:29.000Z</time>
      </trkpt>
      <trkpt lat="48.87599" lon="2.33954">
        <ele>82.3</ele>
        <time>2013-08-06T18:22:30.000Z</time>
      </trkpt>
      <trkpt lat="48.87599" lon="2.33959">
        <ele>81.8</ele>
        <time>2013-08-06T18:22:31.000Z</time>
      </trkpt>
      <trkpt lat="48.87599" lon="2.33962">
        <ele>82</ele>
        <time>2013-08-06T18:22:32.000Z</time>
      </trkpt>
      <trkpt lat="48.876" lon="2.33966">
        <ele>81.7</ele>
        <time>2013-08-06T18:22:33.000Z</time>
      </trkpt>
      <trkpt lat="48.87595" lon="2.33967">
        <ele>90.1</ele>
        <time>2013-08-06T18:22:49.000Z</time>
      </trkpt>
      <trkpt lat="48.87595" lon="2.33968">
        <ele>94</ele>
        <time>2013-08-06T18:22:50.000Z</time>
      </trkpt>
      <trkpt lat="48.87594" lon="2.33971">
        <ele>98</ele>
        <time>2013-08-06T18:22:53.000Z</time>
      </trkpt>
      <trkpt lat="48.87593" lon="2.33975">
        <ele>96.1</ele>
        <time>2013-08-06T18:22:54.000Z</time>
      </trkpt>
      <trkpt lat="48.87593" lon="2.33978">
        <ele>95.6</ele>
        <time>2013-08-06T18:22:55.000Z</time>
      </trkpt>
      <trkpt lat="48.87592" lon="2.33982">
        <ele>95.8</ele>
        <time>2013-08-06T18:22:56.000Z</time>
      </trkpt>
      <trkpt lat="48.87592" lon="2.33985">
        <ele>96.6</ele>
        <time>2013-08-06T18:22:57.000Z</time>
      </trkpt>
      <trkpt lat="48.87592" lon="2.33989">
        <ele>96.7</ele>
        <time>2013-08-06T18:22:58.000Z</time>
      </trkpt>
      <trkpt lat="48.87593" lon="2.33993">
        <ele>95.1</ele>
        <time>2013-08-06T18:22:59.000Z</time>
      </trkpt>
      <trkpt lat="48.87594" lon="2.33998">
        <ele>95</ele>
        <time>2013-08-06T18:23:00.000Z</time>
      </trkpt>
      <trkpt lat="48.87595" lon="2.34005">
        <ele>95.9</ele>
        <time>2013-08-06T18:23:01.000Z</time>
      </trkpt>
      <trkpt lat="48.87596" lon="2.34012">
        <ele>95.4</ele>
        <time>2013-08-06T18:23:02.000Z</time>
      </trkpt>
      <trkpt lat="48.87597" lon="2.34022">
        <ele>95.1</ele>
        <time>2013-08-06T18:23:03.000Z</time>
      </trkpt>
      <trkpt lat="48.87596" lon="2.3403">
        <ele>95.3</ele>
        <time>2013-08-06T18:23:04.000Z</time>
      </trkpt>
      <trkpt lat="48.87595" lon="2.34038">
        <ele>95.7</ele>
        <time>2013-08-06T18:23:05.000Z</time>
      </trkpt>
      <trkpt lat="48.87594" lon="2.34046">
        <ele>96.2</ele>
        <time>2013-08-06T18:23:06.000Z</time>
      </trkpt>
      <trkpt lat="48.87594" lon="2.34054">
        <ele>96</ele>
        <time>2013-08-06T18:23:07.000Z</time>
      </trkpt>
      <trkpt lat="48.87593" lon="2.34062">
        <ele>96.1</ele>
        <time>2013-08-06T18:23:08.000Z</time>
      </trkpt>
      <trkpt lat="48.87592" lon="2.3407">
        <ele>96.1</ele>
        <time>2013-08-06T18:23:09.000Z</time>
      </trkpt>
      <trkpt lat="48.87591" lon="2.34079">
        <ele>96.2</ele>
        <time>2013-08-06T18:23:10.000Z</time>
      </trkpt>
      <trkpt lat="48.87591" lon="2.34088">
        <ele>96.5</ele>
        <time>2013-08-06T18:23:11.000Z</time>
      </trkpt>
      <trkpt lat="48.87593" lon="2.34095">
        <ele>96.8</ele>
        <time>2013-08-06T18:23:12.000Z</time>
      </trkpt>
      <trkpt lat="48.87593" lon="2.34103">
        <ele>96.9</ele>
        <time>2013-08-06T18:23:13.000Z</time>
      </trkpt>
      <trkpt lat="48.87599" lon="2.3411">
        <ele>97.2</ele>
        <time>2013-08-06T18:23:14.000Z</time>
      </trkpt>
      <trkpt lat="48.87598" lon="2.34116">
        <ele>97</ele>
        <time>2013-08-06T18:23:15.000Z</time>
      </trkpt>
      <trkpt lat="48.87597" lon="2.34124">
        <ele>96.9</ele>
        <time>2013-08-06T18:23:16.000Z</time>
      </trkpt>
      <trkpt lat="48.87598" lon="2.34134">
        <ele>96.9</ele>
        <time>2013-08-06T18:23:17.000Z</time>
      </trkpt>
      <trkpt lat="48.87596" lon="2.34141">
        <ele>96.7</ele>
        <time>2013-08-06T18:23:18.000Z</time>
      </trkpt>
      <trkpt lat="48.87596" lon="2.3415">
        <ele>96.4</ele>
        <time>2013-08-06T18:23:19.000Z</time>
      </trkpt>
      <trkpt lat="48.87595" lon="2.34158">
        <ele>96.6</ele>
        <time>2013-08-06T18:23:20.000Z</time>
      </trkpt>
      <trkpt lat="48.87596" lon="2.34165">
        <ele>96.2</ele>
        <time>2013-08-06T18:23:21.000Z</time>
      </trkpt>
      <trkpt lat="48.87595" lon="2.34174">
        <ele>95.9</ele>
        <time>2013-08-06T18:23:22.000Z</time>
      </trkpt>
      <trkpt lat="48.87593" lon="2.34182">
        <ele>95.8</ele>
        <time>2013-08-06T18:23:23.000Z</time>
      </trkpt>
      <trkpt lat="48.87592" lon="2.3419">
        <ele>95.4</ele>
        <time>2013-08-06T18:23:24.000Z</time>
      </trkpt>
      <trkpt lat="48.87591" lon="2.34198">
        <ele>95.3</ele>
        <time>2013-08-06T18:23:25.000Z</time>
      </trkpt>
      <trkpt lat="48.87592" lon="2.34206">
        <ele>94.4</ele>
        <time>2013-08-06T18:23:26.000Z</time>
      </trkpt>
      <trkpt lat="48.87592" lon="2.34214">
        <ele>94.2</ele>
        <time>2013-08-06T18:23:27.000Z</time>
      </trkpt>
      <trkpt lat="48.87592" lon="2.34222">
        <ele>94.3</ele>
        <time>2013-08-06T18:23:28.000Z</time>
      </trkpt>
      <trkpt lat="48.87595" lon="2.34229">
        <ele>96</ele>
        <time>2013-08-06T18:23:29.000Z</time>
      </trkpt>
      <trkpt lat="48.87591" lon="2.34236">
        <ele>95.1</ele>
        <time>2013-08-06T18:23:30.000Z</time>
      </trkpt>
      <trkpt lat="48.87586" lon="2.34243">
        <ele>94.9</ele>
        <time>2013-08-06T18:23:31.000Z</time>
      </trkpt>
      <trkpt lat="48.87582" lon="2.34249">
        <ele>93.8</ele>
        <time>2013-08-06T18:23:32.000Z</time>
      </trkpt>
      <trkpt lat="48.8758" lon="2.34252">
        <ele>92.8</ele>
        <time>2013-08-06T18:23:33.000Z</time>
      </trkpt>
      <trkpt lat="48.87578" lon="2.34255">
        <ele>91.7</ele>
        <time>2013-08-06T18:23:34.000Z</time>
      </trkpt>
      <trkpt lat="48.87575" lon="2.34259">
        <ele>90.2</ele>
        <time>2013-08-06T18:23:39.000Z</time>
      </trkpt>
      <trkpt lat="48.87574" lon="2.34259">
        <ele>90.4</ele>
        <time>2013-08-06T18:23:40.000Z</time>
      </trkpt>
      <trkpt lat="48.87573" lon="2.34265">
        <ele>90.4</ele>
        <time>2013-08-06T18:23:45.000Z</time>
      </trkpt>
      <trkpt lat="48.87573" lon="2.34267">
        <ele>91.8</ele>
        <time>2013-08-06T18:23:46.000Z</time>
      </trkpt>
      <trkpt lat="48.87572" lon="2.34272">
        <ele>97.2</ele>
        <time>2013-08-06T18:23:52.000Z</time>
      </trkpt>
      <trkpt lat="48.87572" lon="2.34275">
        <ele>97.2</ele>
        <time>2013-08-06T18:23:53.000Z</time>
      </trkpt>
      <trkpt lat="48.87571" lon="2.34281">
        <ele>97.2</ele>
        <time>2013-08-06T18:23:54.000Z</time>
      </trkpt>
      <trkpt lat="48.87572" lon="2.34287">
        <ele>97.3</ele>
        <time>2013-08-06T18:23:55.000Z</time>
      </trkpt>
      <trkpt lat="48.87572" lon="2.34293">
        <ele>97.3</ele>
        <time>2013-08-06T18:23:56.000Z</time>
      </trkpt>
      <trkpt lat="48.87573" lon="2.34299">
        <ele>97.3</ele>
        <time>2013-08-06T18:23:57.000Z</time>
      </trkpt>
      <trkpt lat="48.87574" lon="2.34305">
        <ele>97.4</ele>
        <time>2013-08-06T18:23:58.000Z</time>
      </trkpt>
      <trkpt lat="48.87576" lon="2.34311">
        <ele>95.9</ele>
        <time>2013-08-06T18:23:59.000Z</time>
      </trkpt>
      <trkpt lat="48.87578" lon="2.34317">
        <ele>94.5</ele>
        <time>2013-08-06T18:24:00.000Z</time>
      </trkpt>
      <trkpt lat="48.8758" lon="2.34324">
        <ele>92.6</ele>
        <time>2013-08-06T18:24:01.000Z</time>
      </trkpt>
      <trkpt lat="48.87582" lon="2.3433">
        <ele>91.6</ele>
        <time>2013-08-06T18:24:02.000Z</time>
      </trkpt>
      <trkpt lat="48.87584" lon="2.34336">
        <ele>91.1</ele>
        <time>2013-08-06T18:24:03.000Z</time>
      </trkpt>
      <trkpt lat="48.87586" lon="2.34343">
        <ele>90.7</ele>
        <time>2013-08-06T18:24:04.000Z</time>
      </trkpt>
      <trkpt lat="48.87588" lon="2.34349">
        <ele>89.2</ele>
        <time>2013-08-06T18:24:05.000Z</time>
      </trkpt>
      <trkpt lat="48.87589" lon="2.34355">
        <ele>88</ele>
        <time>2013-08-06T18:24:06.000Z</time>
      </trkpt>
      <trkpt lat="48.87591" lon="2.34361">
        <ele>88.3</ele>
        <time>2013-08-06T18:24:07.000Z</time>
      </trkpt>
      <trkpt lat="48.87593" lon="2.34367">
        <ele>89.4</ele>
        <time>2013-08-06T18:24:08.000Z</time>
      </trkpt>
      <trkpt lat="48.87595" lon="2.34372">
        <ele>89.7</ele>
        <time>2013-08-06T18:24:09.000Z</time>
      </trkpt>
      <trkpt lat="48.87597" lon="2.34376">
        <ele>89.8</ele>
        <time>2013-08-06T18:24:10.000Z</time>
      </trkpt>
      <trkpt lat="48.876" lon="2.34381">
        <ele>90.4</ele>
        <time>2013-08-06T18:24:11.000Z</time>
      </trkpt>
      <trkpt lat="48.87602" lon="2.34386">
        <ele>90.5</ele>
        <time>2013-08-06T18:24:12.000Z</time>
      </trkpt>
      <trkpt lat="48.87605" lon="2.34391">
        <ele>90.7</ele>
        <time>2013-08-06T18:24:13.000Z</time>
      </trkpt>
      <trkpt lat="48.87607" lon="2.34397">
        <ele>90.7</ele>
        <time>2013-08-06T18:24:14.000Z</time>
      </trkpt>
      <trkpt lat="48.87609" lon="2.34403">
        <ele>91.4</ele>
        <time>2013-08-06T18:24:15.000Z</time>
      </trkpt>
      <trkpt lat="48.87612" lon="2.3441">
        <ele>91.5</ele>
        <time>2013-08-06T18:24:16.000Z</time>
      </trkpt>
      <trkpt lat="48.87616" lon="2.34414">
        <ele>92</ele>
        <time>2013-08-06T18:24:17.000Z</time>
      </trkpt>
      <trkpt lat="48.8762" lon="2.34422">
        <ele>91.6</ele>
        <time>2013-08-06T18:24:18.000Z</time>
      </trkpt>
      <trkpt lat="48.8762" lon="2.34429">
        <ele>91.4</ele>
        <time>2013-08-06T18:24:19.000Z</time>
      </trkpt>
      <trkpt lat="48.87622" lon="2.34435">
        <ele>92</ele>
        <time>2013-08-06T18:24:20.000Z</time>
      </trkpt>
      <trkpt lat="48.87623" lon="2.34441">
        <ele>92.4</ele>
        <time>2013-08-06T18:24:21.000Z</time>
      </trkpt>
      <trkpt lat="48.87624" lon="2.34447">
        <ele>91.9</ele>
        <time>2013-08-06T18:24:22.000Z</time>
      </trkpt>
      <trkpt lat="48.87626" lon="2.34454">
        <ele>91.2</ele>
        <time>2013-08-06T18:24:23.000Z</time>
      </trkpt>
      <trkpt lat="48.87626" lon="2.34462">
        <ele>91.5</ele>
        <time>2013-08-06T18:24:24.000Z</time>
      </trkpt>
      <trkpt lat="48.87626" lon="2.3447">
        <ele>91.3</ele>
        <time>2013-08-06T18:24:25.000Z</time>
      </trkpt>
      <trkpt lat="48.87628" lon="2.34476">
        <ele>90.4</ele>
        <time>2013-08-06T18:24:26.000Z</time>
      </trkpt>
      <trkpt lat="48.87629" lon="2.34483">
        <ele>90.8</ele>
        <time>2013-08-06T18:24:27.000Z</time>
      </trkpt>
      <trkpt lat="48.8763" lon="2.3449">
        <ele>90.5</ele>
        <time>2013-08-06T18:24:28.000Z</time>
      </trkpt>
      <trkpt lat="48.87632" lon="2.34496">
        <ele>90.4</ele>
        <time>2013-08-06T18:24:29.000Z</time>
      </trkpt>
      <trkpt lat="48.87635" lon="2.34502">
        <ele>90.3</ele>
        <time>2013-08-06T18:24:30.000Z</time>
      </trkpt>
      <trkpt lat="48.87638" lon="2.3451">
        <ele>89</ele>
        <time>2013-08-06T18:24:31.000Z</time>
      </trkpt>
      <trkpt lat="48.87639" lon="2.34517">
        <ele>88.7</ele>
        <time>2013-08-06T18:24:32.000Z</time>
      </trkpt>
      <trkpt lat="48.87641" lon="2.34524">
        <ele>88.2</ele>
        <time>2013-08-06T18:24:33.000Z</time>
      </trkpt>
      <trkpt lat="48.87643" lon="2.34531">
        <ele>88.3</ele>
        <time>2013-08-06T18:24:34.000Z</time>
      </trkpt>
      <trkpt lat="48.87644" lon="2.34537">
        <ele>88.1</ele>
        <time>2013-08-06T18:24:35.000Z</time>
      </trkpt>
      <trkpt lat="48.87646" lon="2.34543">
        <ele>88.5</ele>
        <time>2013-08-06T18:24:36.000Z</time>
      </trkpt>
      <trkpt lat="48.87648" lon="2.3455">
        <ele>87.6</ele>
        <time>2013-08-06T18:24:37.000Z</time>
      </trkpt>
      <trkpt lat="48.87648" lon="2.34557">
        <ele>86.9</ele>
        <time>2013-08-06T18:24:38.000Z</time>
      </trkpt>
      <trkpt lat="48.87651" lon="2.34563">
        <ele>87.7</ele>
        <time>2013-08-06T18:24:39.000Z</time>
      </trkpt>
      <trkpt lat="48.87653" lon="2.34571">
        <ele>86.8</ele>
        <time>2013-08-06T18:24:40.000Z</time>
      </trkpt>
      <trkpt lat="48.87655" lon="2.34577">
        <ele>86.5</ele>
        <time>2013-08-06T18:24:41.000Z</time>
      </trkpt>
      <trkpt lat="48.87657" lon="2.34582">
        <ele>86.1</ele>
        <time>2013-08-06T18:24:42.000Z</time>
      </trkpt>
      <trkpt lat="48.87658" lon="2.34587">
        <ele>87</ele>
        <time>2013-08-06T18:24:43.000Z</time>
      </trkpt>
      <trkpt lat="48.87657" lon="2.34592">
        <ele>86.6</ele>
        <time>2013-08-06T18:24:44.000Z</time>
      </trkpt>
      <trkpt lat="48.87658" lon="2.34598">
        <ele>86.6</ele>
        <time>2013-08-06T18:24:45.000Z</time>
      </trkpt>
      <trkpt lat="48.87659" lon="2.34602">
        <ele>85.6</ele>
        <time>2013-08-06T18:24:46.000Z</time>
      </trkpt>
      <trkpt lat="48.8766" lon="2.34607">
        <ele>85.6</ele>
        <time>2013-08-06T18:24:47.000Z</time>
      </trkpt>
      <trkpt lat="48.87662" lon="2.34611">
        <ele>85.3</ele>
        <time>2013-08-06T18:24:48.000Z</time>
      </trkpt>
      <trkpt lat="48.87662" lon="2.34616">
        <ele>85.2</ele>
        <time>2013-08-06T18:24:49.000Z</time>
      </trkpt>
      <trkpt lat="48.87663" lon="2.34621">
        <ele>86</ele>
        <time>2013-08-06T18:24:50.000Z</time>
      </trkpt>
      <trkpt lat="48.87664" lon="2.34626">
        <ele>85.6</ele>
        <time>2013-08-06T18:24:51.000Z</time>
      </trkpt>
      <trkpt lat="48.87665" lon="2.34631">
        <ele>85.6</ele>
        <time>2013-08-06T18:24:52.000Z</time>
      </trkpt>
      <trkpt lat="48.87667" lon="2.34635">
        <ele>87.3</ele>
        <time>2013-08-06T18:24:53.000Z</time>
      </trkpt>
      <trkpt lat="48.87669" lon="2.34639">
        <ele>88.5</ele>
        <time>2013-08-06T18:24:54.000Z</time>
      </trkpt>
      <trkpt lat="48.87671" lon="2.34643">
        <ele>88.3</ele>
        <time>2013-08-06T18:24:55.000Z</time>
      </trkpt>
      <trkpt lat="48.87673" lon="2.34647">
        <ele>88.1</ele>
        <time>2013-08-06T18:24:56.000Z</time>
      </trkpt>
      <trkpt lat="48.87674" lon="2.34651">
        <ele>87</ele>
        <time>2013-08-06T18:24:57.000Z</time>
      </trkpt>
      <trkpt lat="48.87674" lon="2.34654">
        <ele>86.1</ele>
        <time>2013-08-06T18:24:58.000Z</time>
      </trkpt>
      <trkpt lat="48.87672" lon="2.34657">
        <ele>88.7</ele>
        <time>2013-08-06T18:25:05.000Z</time>
      </trkpt>
      <trkpt lat="48.87673" lon="2.3466">
        <ele>88.6</ele>
        <time>2013-08-06T18:25:06.000Z</time>
      </trkpt>
      <trkpt lat="48.87675" lon="2.34666">
        <ele>88.8</ele>
        <time>2013-08-06T18:25:08.000Z</time>
      </trkpt>
      <trkpt lat="48.87676" lon="2.34669">
        <ele>89.5</ele>
        <time>2013-08-06T18:25:09.000Z</time>
      </trkpt>
      <trkpt lat="48.87677" lon="2.34673">
        <ele>90.1</ele>
        <time>2013-08-06T18:25:10.000Z</time>
      </trkpt>
      <trkpt lat="48.87678" lon="2.34677">
        <ele>90.3</ele>
        <time>2013-08-06T18:25:11.000Z</time>
      </trkpt>
      <trkpt lat="48.87679" lon="2.3468">
        <ele>90.1</ele>
        <time>2013-08-06T18:25:12.000Z</time>
      </trkpt>
      <trkpt lat="48.8768" lon="2.34684">
        <ele>90.4</ele>
        <time>2013-08-06T18:25:13.000Z</time>
      </trkpt>
      <trkpt lat="48.87681" lon="2.34687">
        <ele>90.9</ele>
        <time>2013-08-06T18:25:14.000Z</time>
      </trkpt>
      <trkpt lat="48.87682" lon="2.34692">
        <ele>89.8</ele>
        <time>2013-08-06T18:25:15.000Z</time>
      </trkpt>
      <trkpt lat="48.87683" lon="2.34697">
        <ele>90.4</ele>
        <time>2013-08-06T18:25:16.000Z</time>
      </trkpt>
      <trkpt lat="48.87684" lon="2.34701">
        <ele>91.4</ele>
        <time>2013-08-06T18:25:17.000Z</time>
      </trkpt>
      <trkpt lat="48.87686" lon="2.34705">
        <ele>91.5</ele>
        <time>2013-08-06T18:25:18.000Z</time>
      </trkpt>
      <trkpt lat="48.87687" lon="2.3471">
        <ele>91.3</ele>
        <time>2013-08-06T18:25:19.000Z</time>
      </trkpt>
      <trkpt lat="48.87689" lon="2.34714">
        <ele>91.3</ele>
        <time>2013-08-06T18:25:20.000Z</time>
      </trkpt>
      <trkpt lat="48.8769" lon="2.34718">
        <ele>91.3</ele>
        <time>2013-08-06T18:25:21.000Z</time>
      </trkpt>
      <trkpt lat="48.87691" lon="2.34723">
        <ele>91.8</ele>
        <time>2013-08-06T18:25:22.000Z</time>
      </trkpt>
      <trkpt lat="48.87693" lon="2.34728">
        <ele>92</ele>
        <time>2013-08-06T18:25:23.000Z</time>
      </trkpt>
      <trkpt lat="48.87694" lon="2.34732">
        <ele>92.3</ele>
        <time>2013-08-06T18:25:24.000Z</time>
      </trkpt>
      <trkpt lat="48.87695" lon="2.34736">
        <ele>92.5</ele>
        <time>2013-08-06T18:25:25.000Z</time>
      </trkpt>
      <trkpt lat="48.87696" lon="2.34742">
        <ele>92.3</ele>
        <time>2013-08-06T18:25:27.000Z</time>
      </trkpt>
      <trkpt lat="48.87696" lon="2.34745">
        <ele>92.2</ele>
        <time>2013-08-06T18:25:28.000Z</time>
      </trkpt>
      <trkpt lat="48.87697" lon="2.34749">
        <ele>91.7</ele>
        <time>2013-08-06T18:25:30.000Z</time>
      </trkpt>
      <trkpt lat="48.87698" lon="2.34751">
        <ele>92.1</ele>
        <time>2013-08-06T18:25:31.000Z</time>
      </trkpt>
      <trkpt lat="48.877" lon="2.34755">
        <ele>90.7</ele>
        <time>2013-08-06T18:25:33.000Z</time>
      </trkpt>
      <trkpt lat="48.87702" lon="2.34756">
        <ele>91.5</ele>
        <time>2013-08-06T18:25:34.000Z</time>
      </trkpt>
      <trkpt lat="48.87704" lon="2.3476">
        <ele>87</ele>
        <time>2013-08-06T18:25:46.000Z</time>
      </trkpt>
      <trkpt lat="48.87705" lon="2.34765">
        <ele>86.4</ele>
        <time>2013-08-06T18:25:47.000Z</time>
      </trkpt>
      <trkpt lat="48.87706" lon="2.34771">
        <ele>85.4</ele>
        <time>2013-08-06T18:25:48.000Z</time>
      </trkpt>
      <trkpt lat="48.87708" lon="2.34776">
        <ele>84.8</ele>
        <time>2013-08-06T18:25:49.000Z</time>
      </trkpt>
      <trkpt lat="48.8771" lon="2.34781">
        <ele>84.5</ele>
        <time>2013-08-06T18:25:50.000Z</time>
      </trkpt>
      <trkpt lat="48.87712" lon="2.34786">
        <ele>83.4</ele>
        <time>2013-08-06T18:25:51.000Z</time>
      </trkpt>
      <trkpt lat="48.87714" lon="2.34792">
        <ele>82</ele>
        <time>2013-08-06T18:25:52.000Z</time>
      </trkpt>
      <trkpt lat="48.87715" lon="2.34798">
        <ele>81.7</ele>
        <time>2013-08-06T18:25:53.000Z</time>
      </trkpt>
      <trkpt lat="48.87717" lon="2.34804">
        <ele>81.2</ele>
        <time>2013-08-06T18:25:54.000Z</time>
      </trkpt>
      <trkpt lat="48.87718" lon="2.34811">
        <ele>82.4</ele>
        <time>2013-08-06T18:25:55.000Z</time>
      </trkpt>
      <trkpt lat="48.87719" lon="2.34818">
        <ele>81.5</ele>
        <time>2013-08-06T18:25:56.000Z</time>
      </trkpt>
      <trkpt lat="48.87721" lon="2.34824">
        <ele>81.4</ele>
        <time>2013-08-06T18:25:57.000Z</time>
      </trkpt>
      <trkpt lat="48.87723" lon="2.34833">
        <ele>81.8</ele>
        <time>2013-08-06T18:25:58.000Z</time>
      </trkpt>
      <trkpt lat="48.87725" lon="2.3484">
        <ele>82.6</ele>
        <time>2013-08-06T18:25:59.000Z</time>
      </trkpt>
      <trkpt lat="48.87727" lon="2.34846">
        <ele>84.2</ele>
        <time>2013-08-06T18:26:00.000Z</time>
      </trkpt>
      <trkpt lat="48.87728" lon="2.34853">
        <ele>85.7</ele>
        <time>2013-08-06T18:26:01.000Z</time>
      </trkpt>
      <trkpt lat="48.87729" lon="2.3486">
        <ele>85.3</ele>
        <time>2013-08-06T18:26:02.000Z</time>
      </trkpt>
      <trkpt lat="48.87729" lon="2.34867">
        <ele>85.6</ele>
        <time>2013-08-06T18:26:03.000Z</time>
      </trkpt>
      <trkpt lat="48.8773" lon="2.34873">
        <ele>84.4</ele>
        <time>2013-08-06T18:26:04.000Z</time>
      </trkpt>
      <trkpt lat="48.87732" lon="2.3488">
        <ele>83.4</ele>
        <time>2013-08-06T18:26:05.000Z</time>
      </trkpt>
      <trkpt lat="48.87733" lon="2.34887">
        <ele>84.1</ele>
        <time>2013-08-06T18:26:06.000Z</time>
      </trkpt>
      <trkpt lat="48.87734" lon="2.34894">
        <ele>84.2</ele>
        <time>2013-08-06T18:26:07.000Z</time>
      </trkpt>
      <trkpt lat="48.87736" lon="2.349">
        <ele>84.6</ele>
        <time>2013-08-06T18:26:08.000Z</time>
      </trkpt>
      <trkpt lat="48.87738" lon="2.34906">
        <ele>85.1</ele>
        <time>2013-08-06T18:26:09.000Z</time>
      </trkpt>
      <trkpt lat="48.87739" lon="2.34911">
        <ele>85.5</ele>
        <time>2013-08-06T18:26:10.000Z</time>
      </trkpt>
      <trkpt lat="48.87742" lon="2.34916">
        <ele>85.9</ele>
        <time>2013-08-06T18:26:11.000Z</time>
      </trkpt>
      <trkpt lat="48.87743" lon="2.34922">
        <ele>86</ele>
        <time>2013-08-06T18:26:12.000Z</time>
      </trkpt>
      <trkpt lat="48.87745" lon="2.34929">
        <ele>86</ele>
        <time>2013-08-06T18:26:13.000Z</time>
      </trkpt>
      <trkpt lat="48.87746" lon="2.34935">
        <ele>86</ele>
        <time>2013-08-06T18:26:14.000Z</time>
      </trkpt>
      <trkpt lat="48.87748" lon="2.34941">
        <ele>86.3</ele>
        <time>2013-08-06T18:26:15.000Z</time>
      </trkpt>
      <trkpt lat="48.87749" lon="2.34947">
        <ele>85.8</ele>
        <time>2013-08-06T18:26:16.000Z</time>
      </trkpt>
      <trkpt lat="48.87751" lon="2.34953">
        <ele>84.8</ele>
        <time>2013-08-06T18:26:17.000Z</time>
      </trkpt>
      <trkpt lat="48.87753" lon="2.3496">
        <ele>84.1</ele>
        <time>2013-08-06T18:26:18.000Z</time>
      </trkpt>
      <trkpt lat="48.87752" lon="2.34968">
        <ele>84.8</ele>
        <time>2013-08-06T18:26:19.000Z</time>
      </trkpt>
      <trkpt lat="48.87754" lon="2.34974">
        <ele>84.9</ele>
        <time>2013-08-06T18:26:20.000Z</time>
      </trkpt>
      <trkpt lat="48.87756" lon="2.3498">
        <ele>84.8</ele>
        <time>2013-08-06T18:26:21.000Z</time>
      </trkpt>
      <trkpt lat="48.87756" lon="2.34987">
        <ele>85.7</ele>
        <time>2013-08-06T18:26:22.000Z</time>
      </trkpt>
      <trkpt lat="48.87758" lon="2.34993">
        <ele>85.5</ele>
        <time>2013-08-06T18:26:23.000Z</time>
      </trkpt>
      <trkpt lat="48.87761" lon="2.35">
        <ele>85</ele>
        <time>2013-08-06T18:26:24.000Z</time>
      </trkpt>
      <trkpt lat="48.87764" lon="2.35007">
        <ele>84.4</ele>
        <time>2013-08-06T18:26:25.000Z</time>
      </trkpt>
      <trkpt lat="48.87767" lon="2.35014">
        <ele>83.1</ele>
        <time>2013-08-06T18:26:26.000Z</time>
      </trkpt>
      <trkpt lat="48.87769" lon="2.35021">
        <ele>82.9</ele>
        <time>2013-08-06T18:26:27.000Z</time>
      </trkpt>
      <trkpt lat="48.8777" lon="2.35028">
        <ele>82.7</ele>
        <time>2013-08-06T18:26:28.000Z</time>
      </trkpt>
      <trkpt lat="48.87773" lon="2.35035">
        <ele>82.1</ele>
        <time>2013-08-06T18:26:29.000Z</time>
      </trkpt>
      <trkpt lat="48.87774" lon="2.35041">
        <ele>82</ele>
        <time>2013-08-06T18:26:30.000Z</time>
      </trkpt>
      <trkpt lat="48.87775" lon="2.35047">
        <ele>81.6</ele>
        <time>2013-08-06T18:26:31.000Z</time>
      </trkpt>
      <trkpt lat="48.87777" lon="2.35054">
        <ele>81.3</ele>
        <time>2013-08-06T18:26:32.000Z</time>
      </trkpt>
      <trkpt lat="48.87779" lon="2.3506">
        <ele>80.5</ele>
        <time>2013-08-06T18:26:33.000Z</time>
      </trkpt>
      <trkpt lat="48.8778" lon="2.35066">
        <ele>80.3</ele>
        <time>2013-08-06T18:26:34.000Z</time>
      </trkpt>
      <trkpt lat="48.87782" lon="2.35071">
        <ele>80</ele>
        <time>2013-08-06T18:26:35.000Z</time>
      </trkpt>
      <trkpt lat="48.87784" lon="2.35077">
        <ele>80.3</ele>
        <time>2013-08-06T18:26:36.000Z</time>
      </trkpt>
      <trkpt lat="48.87785" lon="2.35083">
        <ele>80</ele>
        <time>2013-08-06T18:26:37.000Z</time>
      </trkpt>
      <trkpt lat="48.87787" lon="2.35089">
        <ele>79.7</ele>
        <time>2013-08-06T18:26:38.000Z</time>
      </trkpt>
      <trkpt lat="48.87789" lon="2.35093">
        <ele>80.4</ele>
        <time>2013-08-06T18:26:39.000Z</time>
      </trkpt>
      <trkpt lat="48.87786" lon="2.35098">
        <ele>84.8</ele>
        <time>2013-08-06T18:26:40.000Z</time>
      </trkpt>
      <trkpt lat="48.87788" lon="2.35101">
        <ele>85.5</ele>
        <time>2013-08-06T18:26:41.000Z</time>
      </trkpt>
      <trkpt lat="48.8779" lon="2.35104">
        <ele>86.6</ele>
        <time>2013-08-06T18:26:42.000Z</time>
      </trkpt>
      <trkpt lat="48.87792" lon="2.3511">
        <ele>90.7</ele>
        <time>2013-08-06T18:26:44.000Z</time>
      </trkpt>
      <trkpt lat="48.87791" lon="2.35113">
        <ele>91.8</ele>
        <time>2013-08-06T18:26:45.000Z</time>
      </trkpt>
      <trkpt lat="48.8779" lon="2.35119">
        <ele>96.5</ele>
        <time>2013-08-06T18:26:50.000Z</time>
      </trkpt>
      <trkpt lat="48.8779" lon="2.35121">
        <ele>96</ele>
        <time>2013-08-06T18:26:51.000Z</time>
      </trkpt>
      <trkpt lat="48.87791" lon="2.35127">
        <ele>96.5</ele>
        <time>2013-08-06T18:26:53.000Z</time>
      </trkpt>
      <trkpt lat="48.87791" lon="2.3513">
        <ele>96.7</ele>
        <time>2013-08-06T18:26:54.000Z</time>
      </trkpt>
      <trkpt lat="48.87792" lon="2.35133">
        <ele>97</ele>
        <time>2013-08-06T18:26:55.000Z</time>
      </trkpt>
      <trkpt lat="48.87791" lon="2.35137">
        <ele>96.3</ele>
        <time>2013-08-06T18:26:56.000Z</time>
      </trkpt>
      <trkpt lat="48.8779" lon="2.35141">
        <ele>94.3</ele>
        <time>2013-08-06T18:26:57.000Z</time>
      </trkpt>
      <trkpt lat="48.8779" lon="2.35145">
        <ele>93.6</ele>
        <time>2013-08-06T18:26:58.000Z</time>
      </trkpt>
      <trkpt lat="48.8779" lon="2.35149">
        <ele>94.7</ele>
        <time>2013-08-06T18:26:59.000Z</time>
      </trkpt>
      <trkpt lat="48.87792" lon="2.35154">
        <ele>95.1</ele>
        <time>2013-08-06T18:27:00.000Z</time>
      </trkpt>
      <trkpt lat="48.87793" lon="2.35158">
        <ele>95.6</ele>
        <time>2013-08-06T18:27:01.000Z</time>
      </trkpt>
      <trkpt lat="48.87794" lon="2.35162">
        <ele>96.7</ele>
        <time>2013-08-06T18:27:02.000Z</time>
      </trkpt>
      <trkpt lat="48.87795" lon="2.35167">
        <ele>96.8</ele>
        <time>2013-08-06T18:27:03.000Z</time>
      </trkpt>
      <trkpt lat="48.87796" lon="2.35171">
        <ele>97.3</ele>
        <time>2013-08-06T18:27:04.000Z</time>
      </trkpt>
      <trkpt lat="48.87796" lon="2.35176">
        <ele>97.1</ele>
        <time>2013-08-06T18:27:05.000Z</time>
      </trkpt>
      <trkpt lat="48.87797" lon="2.3518">
        <ele>97.9</ele>
        <time>2013-08-06T18:27:06.000Z</time>
      </trkpt>
      <trkpt lat="48.87798" lon="2.35184">
        <ele>98.4</ele>
        <time>2013-08-06T18:27:07.000Z</time>
      </trkpt>
      <trkpt lat="48.87799" lon="2.35189">
        <ele>98.7</ele>
        <time>2013-08-06T18:27:08.000Z</time>
      </trkpt>
      <trkpt lat="48.87799" lon="2.35193">
        <ele>98.6</ele>
        <time>2013-08-06T18:27:09.000Z</time>
      </trkpt>
      <trkpt lat="48.878" lon="2.35198">
        <ele>99.2</ele>
        <time>2013-08-06T18:27:10.000Z</time>
      </trkpt>
      <trkpt lat="48.87802" lon="2.35203">
        <ele>99.7</ele>
        <time>2013-08-06T18:27:11.000Z</time>
      </trkpt>
      <trkpt lat="48.87803" lon="2.35208">
        <ele>99.6</ele>
        <time>2013-08-06T18:27:12.000Z</time>
      </trkpt>
      <trkpt lat="48.87805" lon="2.35213">
        <ele>99.9</ele>
        <time>2013-08-06T18:27:13.000Z</time>
      </trkpt>
      <trkpt lat="48.87806" lon="2.35219">
        <ele>99.9</ele>
        <time>2013-08-06T18:27:14.000Z</time>
      </trkpt>
      <trkpt lat="48.87807" lon="2.35225">
        <ele>99.8</ele>
        <time>2013-08-06T18:27:15.000Z</time>
      </trkpt>
      <trkpt lat="48.87809" lon="2.3523">
        <ele>99.6</ele>
        <time>2013-08-06T18:27:16.000Z</time>
      </trkpt>
      <trkpt lat="48.8781" lon="2.35238">
        <ele>100.6</ele>
        <time>2013-08-06T18:27:17.000Z</time>
      </trkpt>
      <trkpt lat="48.87812" lon="2.35244">
        <ele>100.7</ele>
        <time>2013-08-06T18:27:18.000Z</time>
      </trkpt>
      <trkpt lat="48.87814" lon="2.3525">
        <ele>100.8</ele>
        <time>2013-08-06T18:27:19.000Z</time>
      </trkpt>
      <trkpt lat="48.87816" lon="2.35256">
        <ele>100.6</ele>
        <time>2013-08-06T18:27:20.000Z</time>
      </trkpt>
      <trkpt lat="48.87817" lon="2.35262">
        <ele>100.7</ele>
        <time>2013-08-06T18:27:21.000Z</time>
      </trkpt>
      <trkpt lat="48.87819" lon="2.35268">
        <ele>100.5</ele>
        <time>2013-08-06T18:27:22.000Z</time>
      </trkpt>
      <trkpt lat="48.87821" lon="2.35274">
        <ele>100.5</ele>
        <time>2013-08-06T18:27:23.000Z</time>
      </trkpt>
      <trkpt lat="48.87823" lon="2.35281">
        <ele>100.1</ele>
        <time>2013-08-06T18:27:24.000Z</time>
      </trkpt>
      <trkpt lat="48.87826" lon="2.35287">
        <ele>100.1</ele>
        <time>2013-08-06T18:27:25.000Z</time>
      </trkpt>
      <trkpt lat="48.87828" lon="2.35293">
        <ele>99.3</ele>
        <time>2013-08-06T18:27:26.000Z</time>
      </trkpt>
      <trkpt lat="48.87831" lon="2.35299">
        <ele>99.1</ele>
        <time>2013-08-06T18:27:27.000Z</time>
      </trkpt>
      <trkpt lat="48.87832" lon="2.35305">
        <ele>98.8</ele>
        <time>2013-08-06T18:27:28.000Z</time>
      </trkpt>
      <trkpt lat="48.87834" lon="2.35312">
        <ele>98.6</ele>
        <time>2013-08-06T18:27:29.000Z</time>
      </trkpt>
      <trkpt lat="48.87836" lon="2.35319">
        <ele>98.7</ele>
        <time>2013-08-06T18:27:30.000Z</time>
      </trkpt>
      <trkpt lat="48.87836" lon="2.35325">
        <ele>98.7</ele>
        <time>2013-08-06T18:27:31.000Z</time>
      </trkpt>
      <trkpt lat="48.87839" lon="2.35331">
        <ele>97.8</ele>
        <time>2013-08-06T18:27:32.000Z</time>
      </trkpt>
      <trkpt lat="48.87842" lon="2.35337">
        <ele>97.6</ele>
        <time>2013-08-06T18:27:33.000Z</time>
      </trkpt>
      <trkpt lat="48.87844" lon="2.35342">
        <ele>97.6</ele>
        <time>2013-08-06T18:27:34.000Z</time>
      </trkpt>
      <trkpt lat="48.87848" lon="2.35348">
        <ele>96.7</ele>
        <time>2013-08-06T18:27:35.000Z</time>
      </trkpt>
      <trkpt lat="48.8785" lon="2.35352">
        <ele>97.2</ele>
        <time>2013-08-06T18:27:36.000Z</time>
      </trkpt>
      <trkpt lat="48.87852" lon="2.35358">
        <ele>97.2</ele>
        <time>2013-08-06T18:27:37.000Z</time>
      </trkpt>
      <trkpt lat="48.87853" lon="2.35362">
        <ele>98.5</ele>
        <time>2013-08-06T18:27:38.000Z</time>
      </trkpt>
      <trkpt lat="48.87854" lon="2.35366">
        <ele>99.7</ele>
        <time>2013-08-06T18:27:39.000Z</time>
      </trkpt>
      <trkpt lat="48.87855" lon="2.35371">
        <ele>101.2</ele>
        <time>2013-08-06T18:27:41.000Z</time>
      </trkpt>
      <trkpt lat="48.87856" lon="2.35373">
        <ele>102</ele>
        <time>2013-08-06T18:27:42.000Z</time>
      </trkpt>
      <trkpt lat="48.87857" lon="2.35379">
        <ele>104.8</ele>
        <time>2013-08-06T18:27:45.000Z</time>
      </trkpt>
      <trkpt lat="48.87857" lon="2.35381">
        <ele>105.2</ele>
        <time>2013-08-06T18:27:46.000Z</time>
      </trkpt>
      <trkpt lat="48.87861" lon="2.35383">
        <ele>108.4</ele>
        <time>2013-08-06T18:30:15.000Z</time>
      </trkpt>
      <trkpt lat="48.87862" lon="2.35384">
        <ele>109.9</ele>
        <time>2013-08-06T18:30:16.000Z</time>
      </trkpt>
      <trkpt lat="48.87865" lon="2.35386">
        <ele>109.7</ele>
        <time>2013-08-06T18:30:17.000Z</time>
      </trkpt>
      <trkpt lat="48.87867" lon="2.35387">
        <ele>110.7</ele>
        <time>2013-08-06T18:30:18.000Z</time>
      </trkpt>
      <trkpt lat="48.87868" lon="2.35393">
        <ele>108.5</ele>
        <time>2013-08-06T18:30:20.000Z</time>
      </trkpt>
      <trkpt lat="48.87867" lon="2.35396">
        <ele>109.9</ele>
        <time>2013-08-06T18:30:21.000Z</time>
      </trkpt>
      <trkpt lat="48.87866" lon="2.354">
        <ele>112</ele>
        <time>2013-08-06T18:30:22.000Z</time>
      </trkpt>
      <trkpt lat="48.87865" lon="2.35403">
        <ele>112</ele>
        <time>2013-08-06T18:30:23.000Z</time>
      </trkpt>
      <trkpt lat="48.87865" lon="2.35407">
        <ele>112.5</ele>
        <time>2013-08-06T18:30:24.000Z</time>
      </trkpt>
      <trkpt lat="48.87864" lon="2.35411">
        <ele>113.2</ele>
        <time>2013-08-06T18:30:25.000Z</time>
      </trkpt>
      <trkpt lat="48.87863" lon="2.35415">
        <ele>113.5</ele>
        <time>2013-08-06T18:30:26.000Z</time>
      </trkpt>
      <trkpt lat="48.87861" lon="2.35418">
        <ele>113</ele>
        <time>2013-08-06T18:30:27.000Z</time>
      </trkpt>
      <trkpt lat="48.87859" lon="2.35421">
        <ele>114.2</ele>
        <time>2013-08-06T18:30:28.000Z</time>
      </trkpt>
      <trkpt lat="48.87856" lon="2.35423">
        <ele>115.4</ele>
        <time>2013-08-06T18:30:29.000Z</time>
      </trkpt>
      <trkpt lat="48.87854" lon="2.35426">
        <ele>115.9</ele>
        <time>2013-08-06T18:30:30.000Z</time>
      </trkpt>
      <trkpt lat="48.87851" lon="2.35428">
        <ele>116.4</ele>
        <time>2013-08-06T18:30:31.000Z</time>
      </trkpt>
      <trkpt lat="48.87849" lon="2.35431">
        <ele>115.8</ele>
        <time>2013-08-06T18:30:32.000Z</time>
      </trkpt>
      <trkpt lat="48.87847" lon="2.35434">
        <ele>115.1</ele>
        <time>2013-08-06T18:30:33.000Z</time>
      </trkpt>
      <trkpt lat="48.87846" lon="2.35437">
        <ele>115.4</ele>
        <time>2013-08-06T18:30:34.000Z</time>
      </trkpt>
      <trkpt lat="48.87845" lon="2.35441">
        <ele>115</ele>
        <time>2013-08-06T18:30:35.000Z</time>
      </trkpt>
      <trkpt lat="48.87844" lon="2.35444">
        <ele>114.8</ele>
        <time>2013-08-06T18:30:36.000Z</time>
      </trkpt>
      <trkpt lat="48.87843" lon="2.35448">
        <ele>114.4</ele>
        <time>2013-08-06T18:30:37.000Z</time>
      </trkpt>
      <trkpt lat="48.87842" lon="2.35452">
        <ele>115.9</ele>
        <time>2013-08-06T18:30:38.000Z</time>
      </trkpt>
      <trkpt lat="48.87841" lon="2.35456">
        <ele>115.7</ele>
        <time>2013-08-06T18:30:39.000Z</time>
      </trkpt>
      <trkpt lat="48.87841" lon="2.35462">
        <ele>115.9</ele>
        <time>2013-08-06T18:30:40.000Z</time>
      </trkpt>
      <trkpt lat="48.8784" lon="2.35467">
        <ele>115</ele>
        <time>2013-08-06T18:30:41.000Z</time>
      </trkpt>
      <trkpt lat="48.8784" lon="2.35473">
        <ele>114.7</ele>
        <time>2013-08-06T18:30:42.000Z</time>
      </trkpt>
      <trkpt lat="48.87841" lon="2.35479">
        <ele>114.4</ele>
        <time>2013-08-06T18:30:43.000Z</time>
      </trkpt>
      <trkpt lat="48.87841" lon="2.35485">
        <ele>114.2</ele>
        <time>2013-08-06T18:30:44.000Z</time>
      </trkpt>
      <trkpt lat="48.87841" lon="2.35491">
        <ele>113.5</ele>
        <time>2013-08-06T18:30:45.000Z</time>
      </trkpt>
      <trkpt lat="48.87842" lon="2.35497">
        <ele>113.7</ele>
        <time>2013-08-06T18:30:46.000Z</time>
      </trkpt>
      <trkpt lat="48.87842" lon="2.35503">
        <ele>114.1</ele>
        <time>2013-08-06T18:30:47.000Z</time>
      </trkpt>
      <trkpt lat="48.87843" lon="2.35508">
        <ele>114.2</ele>
        <time>2013-08-06T18:30:48.000Z</time>
      </trkpt>
      <trkpt lat="48.87842" lon="2.35513">
        <ele>113.1</ele>
        <time>2013-08-06T18:30:49.000Z</time>
      </trkpt>
      <trkpt lat="48.87842" lon="2.35518">
        <ele>112</ele>
        <time>2013-08-06T18:30:50.000Z</time>
      </trkpt>
      <trkpt lat="48.87841" lon="2.35524">
        <ele>110.3</ele>
        <time>2013-08-06T18:30:51.000Z</time>
      </trkpt>
      <trkpt lat="48.87841" lon="2.3553">
        <ele>108.9</ele>
        <time>2013-08-06T18:30:52.000Z</time>
      </trkpt>
      <trkpt lat="48.8784" lon="2.35535">
        <ele>109</ele>
        <time>2013-08-06T18:30:53.000Z</time>
      </trkpt>
      <trkpt lat="48.87838" lon="2.3554">
        <ele>109.4</ele>
        <time>2013-08-06T18:30:54.000Z</time>
      </trkpt>
      <trkpt lat="48.87837" lon="2.35544">
        <ele>109.8</ele>
        <time>2013-08-06T18:30:55.000Z</time>
      </trkpt>
      <trkpt lat="48.87836" lon="2.35549">
        <ele>109.7</ele>
        <time>2013-08-06T18:30:56.000Z</time>
      </trkpt>
      <trkpt lat="48.87835" lon="2.35553">
        <ele>108.8</ele>
        <time>2013-08-06T18:30:57.000Z</time>
      </trkpt>
      <trkpt lat="48.87834" lon="2.35557">
        <ele>108</ele>
        <time>2013-08-06T18:30:58.000Z</time>
      </trkpt>
      <trkpt lat="48.87833" lon="2.35561">
        <ele>108.2</ele>
        <time>2013-08-06T18:30:59.000Z</time>
      </trkpt>
      <trkpt lat="48.87832" lon="2.35566">
        <ele>109.6</ele>
        <time>2013-08-06T18:31:00.000Z</time>
      </trkpt>
      <trkpt lat="48.87831" lon="2.3557">
        <ele>110.5</ele>
        <time>2013-08-06T18:31:01.000Z</time>
      </trkpt>
      <trkpt lat="48.8783" lon="2.35575">
        <ele>110.9</ele>
        <time>2013-08-06T18:31:02.000Z</time>
      </trkpt>
      <trkpt lat="48.87828" lon="2.3558">
        <ele>111.3</ele>
        <time>2013-08-06T18:31:03.000Z</time>
      </trkpt>
      <trkpt lat="48.87827" lon="2.35585">
        <ele>110.8</ele>
        <time>2013-08-06T18:31:04.000Z</time>
      </trkpt>
      <trkpt lat="48.87826" lon="2.3559">
        <ele>111.8</ele>
        <time>2013-08-06T18:31:05.000Z</time>
      </trkpt>
      <trkpt lat="48.87825" lon="2.35595">
        <ele>109.8</ele>
        <time>2013-08-06T18:31:06.000Z</time>
      </trkpt>
      <trkpt lat="48.87824" lon="2.35599">
        <ele>108.6</ele>
        <time>2013-08-06T18:31:07.000Z</time>
      </trkpt>
      <trkpt lat="48.87822" lon="2.35604">
        <ele>106.7</ele>
        <time>2013-08-06T18:31:08.000Z</time>
      </trkpt>
      <trkpt lat="48.87821" lon="2.35609">
        <ele>106.3</ele>
        <time>2013-08-06T18:31:09.000Z</time>
      </trkpt>
      <trkpt lat="48.87819" lon="2.35614">
        <ele>106.4</ele>
        <time>2013-08-06T18:31:10.000Z</time>
      </trkpt>
      <trkpt lat="48.87818" lon="2.35619">
        <ele>106.3</ele>
        <time>2013-08-06T18:31:11.000Z</time>
      </trkpt>
      <trkpt lat="48.87818" lon="2.35623">
        <ele>106</ele>
        <time>2013-08-06T18:31:12.000Z</time>
      </trkpt>
      <trkpt lat="48.87817" lon="2.35626">
        <ele>106</ele>
        <time>2013-08-06T18:31:13.000Z</time>
      </trkpt>
      <trkpt lat="48.87818" lon="2.35631">
        <ele>107.5</ele>
        <time>2013-08-06T18:31:15.000Z</time>
      </trkpt>
      <trkpt lat="48.87818" lon="2.35633">
        <ele>108.2</ele>
        <time>2013-08-06T18:31:16.000Z</time>
      </trkpt>
      <trkpt lat="48.87821" lon="2.35636">
        <ele>111.9</ele>
        <time>2013-08-06T18:31:18.000Z</time>
      </trkpt>
      <trkpt lat="48.87823" lon="2.35636">
        <ele>111.8</ele>
        <time>2013-08-06T18:31:19.000Z</time>
      </trkpt>
      <trkpt lat="48.87825" lon="2.35636">
        <ele>111.5</ele>
        <time>2013-08-06T18:31:20.000Z</time>
      </trkpt>
      <trkpt lat="48.87828" lon="2.35636">
        <ele>110.6</ele>
        <time>2013-08-06T18:31:21.000Z</time>
      </trkpt>
      <trkpt lat="48.8783" lon="2.35637">
        <ele>110.3</ele>
        <time>2013-08-06T18:31:22.000Z</time>
      </trkpt>
      <trkpt lat="48.87833" lon="2.35638">
        <ele>110.7</ele>
        <time>2013-08-06T18:31:23.000Z</time>
      </trkpt>
      <trkpt lat="48.87835" lon="2.3564">
        <ele>110.4</ele>
        <time>2013-08-06T18:31:24.000Z</time>
      </trkpt>
      <trkpt lat="48.87837" lon="2.35641">
        <ele>110.6</ele>
        <time>2013-08-06T18:31:25.000Z</time>
      </trkpt>
      <trkpt lat="48.87839" lon="2.35643">
        <ele>110.3</ele>
        <time>2013-08-06T18:31:26.000Z</time>
      </trkpt>
      <trkpt lat="48.87842" lon="2.35644">
        <ele>107.4</ele>
        <time>2013-08-06T18:31:27.000Z</time>
      </trkpt>
      <trkpt lat="48.87845" lon="2.35646">
        <ele>108</ele>
        <time>2013-08-06T18:31:28.000Z</time>
      </trkpt>
      <trkpt lat="48.87848" lon="2.35647">
        <ele>108.3</ele>
        <time>2013-08-06T18:31:29.000Z</time>
      </trkpt>
      <trkpt lat="48.87851" lon="2.35648">
        <ele>109.2</ele>
        <time>2013-08-06T18:31:30.000Z</time>
      </trkpt>
      <trkpt lat="48.87853" lon="2.3565">
        <ele>109.9</ele>
        <time>2013-08-06T18:31:31.000Z</time>
      </trkpt>
      <trkpt lat="48.87856" lon="2.35651">
        <ele>108.6</ele>
        <time>2013-08-06T18:31:32.000Z</time>
      </trkpt>
      <trkpt lat="48.87859" lon="2.35651">
        <ele>108.9</ele>
        <time>2013-08-06T18:31:33.000Z</time>
      </trkpt>
      <trkpt lat="48.87861" lon="2.35652">
        <ele>109.6</ele>
        <time>2013-08-06T18:31:34.000Z</time>
      </trkpt>
      <trkpt lat="48.87864" lon="2.35653">
        <ele>110.3</ele>
        <time>2013-08-06T18:31:35.000Z</time>
      </trkpt>
      <trkpt lat="48.87867" lon="2.35654">
        <ele>110</ele>
        <time>2013-08-06T18:31:36.000Z</time>
      </trkpt>
      <trkpt lat="48.8787" lon="2.35655">
        <ele>110.3</ele>
        <time>2013-08-06T18:31:37.000Z</time>
      </trkpt>
      <trkpt lat="48.87874" lon="2.35657">
        <ele>110.6</ele>
        <time>2013-08-06T18:31:38.000Z</time>
      </trkpt>
      <trkpt lat="48.87877" lon="2.35658">
        <ele>111.8</ele>
        <time>2013-08-06T18:31:39.000Z</time>
      </trkpt>
      <trkpt lat="48.87879" lon="2.3566">
        <ele>112.3</ele>
        <time>2013-08-06T18:31:40.000Z</time>
      </trkpt>
      <trkpt lat="48.87882" lon="2.35661">
        <ele>114.4</ele>
        <time>2013-08-06T18:31:41.000Z</time>
      </trkpt>
      <trkpt lat="48.87884" lon="2.35662">
        <ele>115.6</ele>
        <time>2013-08-06T18:31:42.000Z</time>
      </trkpt>
      <trkpt lat="48.87887" lon="2.35662">
        <ele>116.2</ele>
        <time>2013-08-06T18:31:43.000Z</time>
      </trkpt>
      <trkpt lat="48.87889" lon="2.35664">
        <ele>116.2</ele>
        <time>2013-08-06T18:31:44.000Z</time>
      </trkpt>
      <trkpt lat="48.87892" lon="2.35665">
        <ele>116.8</ele>
        <time>2013-08-06T18:31:45.000Z</time>
      </trkpt>
      <trkpt lat="48.87896" lon="2.35666">
        <ele>117.4</ele>
        <time>2013-08-06T18:31:46.000Z</time>
      </trkpt>
      <trkpt lat="48.87898" lon="2.35667">
        <ele>118.3</ele>
        <time>2013-08-06T18:31:47.000Z</time>
      </trkpt>
      <trkpt lat="48.87901" lon="2.35666">
        <ele>119</ele>
        <time>2013-08-06T18:31:49.000Z</time>
      </trkpt>
      <trkpt lat="48.87903" lon="2.35666">
        <ele>119</ele>
        <time>2013-08-06T18:31:50.000Z</time>
      </trkpt>
      <trkpt lat="48.87907" lon="2.35668">
        <ele>120.3</ele>
        <time>2013-08-06T18:31:52.000Z</time>
      </trkpt>
      <trkpt lat="48.87908" lon="2.3567">
        <ele>121.1</ele>
        <time>2013-08-06T18:31:53.000Z</time>
      </trkpt>
      <trkpt lat="48.87911" lon="2.35675">
        <ele>122.9</ele>
        <time>2013-08-06T18:31:55.000Z</time>
      </trkpt>
      <trkpt lat="48.87912" lon="2.35678">
        <ele>123.1</ele>
        <time>2013-08-06T18:31:56.000Z</time>
      </trkpt>
      <trkpt lat="48.87915" lon="2.35682">
        <ele>120</ele>
        <time>2013-08-06T18:31:57.000Z</time>
      </trkpt>
      <trkpt lat="48.87918" lon="2.35687">
        <ele>118.4</ele>
        <time>2013-08-06T18:31:58.000Z</time>
      </trkpt>
      <trkpt lat="48.87921" lon="2.35692">
        <ele>119</ele>
        <time>2013-08-06T18:31:59.000Z</time>
      </trkpt>
      <trkpt lat="48.87922" lon="2.35694">
        <ele>119.5</ele>
        <time>2013-08-06T18:32:00.000Z</time>
      </trkpt>
      <trkpt lat="48.87924" lon="2.35704">
        <ele>117.9</ele>
        <time>2013-08-06T18:32:01.000Z</time>
      </trkpt>
      <trkpt lat="48.87926" lon="2.35711">
        <ele>119.4</ele>
        <time>2013-08-06T18:32:02.000Z</time>
      </trkpt>
      <trkpt lat="48.87928" lon="2.35718">
        <ele>119</ele>
        <time>2013-08-06T18:32:03.000Z</time>
      </trkpt>
      <trkpt lat="48.87929" lon="2.35725">
        <ele>119.2</ele>
        <time>2013-08-06T18:32:04.000Z</time>
      </trkpt>
      <trkpt lat="48.87931" lon="2.35731">
        <ele>120.6</ele>
        <time>2013-08-06T18:32:05.000Z</time>
      </trkpt>
      <trkpt lat="48.87932" lon="2.35737">
        <ele>120.1</ele>
        <time>2013-08-06T18:32:06.000Z</time>
      </trkpt>
      <trkpt lat="48.87934" lon="2.35743">
        <ele>120.3</ele>
        <time>2013-08-06T18:32:07.000Z</time>
      </trkpt>
      <trkpt lat="48.87936" lon="2.3575">
        <ele>115</ele>
        <time>2013-08-06T18:32:08.000Z</time>
      </trkpt>
      <trkpt lat="48.87938" lon="2.35756">
        <ele>115.2</ele>
        <time>2013-08-06T18:32:09.000Z</time>
      </trkpt>
      <trkpt lat="48.8794" lon="2.35762">
        <ele>114.8</ele>
        <time>2013-08-06T18:32:10.000Z</time>
      </trkpt>
      <trkpt lat="48.87942" lon="2.35768">
        <ele>116</ele>
        <time>2013-08-06T18:32:11.000Z</time>
      </trkpt>
      <trkpt lat="48.87944" lon="2.35775">
        <ele>115.6</ele>
        <time>2013-08-06T18:32:12.000Z</time>
      </trkpt>
      <trkpt lat="48.87946" lon="2.35781">
        <ele>114.5</ele>
        <time>2013-08-06T18:32:13.000Z</time>
      </trkpt>
      <trkpt lat="48.87948" lon="2.35787">
        <ele>113.2</ele>
        <time>2013-08-06T18:32:14.000Z</time>
      </trkpt>
      <trkpt lat="48.87952" lon="2.35793">
        <ele>111.5</ele>
        <time>2013-08-06T18:32:15.000Z</time>
      </trkpt>
      <trkpt lat="48.87956" lon="2.35798">
        <ele>111.3</ele>
        <time>2013-08-06T18:32:16.000Z</time>
      </trkpt>
      <trkpt lat="48.8796" lon="2.35803">
        <ele>111.8</ele>
        <time>2013-08-06T18:32:17.000Z</time>
      </trkpt>
      <trkpt lat="48.87963" lon="2.35807">
        <ele>112</ele>
        <time>2013-08-06T18:32:18.000Z</time>
      </trkpt>
      <trkpt lat="48.87967" lon="2.35812">
        <ele>112</ele>
        <time>2013-08-06T18:32:19.000Z</time>
      </trkpt>
      <trkpt lat="48.8797" lon="2.35816">
        <ele>110.4</ele>
        <time>2013-08-06T18:32:20.000Z</time>
      </trkpt>
      <trkpt lat="48.87972" lon="2.35821">
        <ele>110.5</ele>
        <time>2013-08-06T18:32:21.000Z</time>
      </trkpt>
      <trkpt lat="48.87975" lon="2.35823">
        <ele>108.6</ele>
        <time>2013-08-06T18:32:22.000Z</time>
      </trkpt>
      <trkpt lat="48.87978" lon="2.35827">
        <ele>108.7</ele>
        <time>2013-08-06T18:32:23.000Z</time>
      </trkpt>
      <trkpt lat="48.8798" lon="2.35831">
        <ele>108.8</ele>
        <time>2013-08-06T18:32:24.000Z</time>
      </trkpt>
      <trkpt lat="48.87983" lon="2.35835">
        <ele>110.1</ele>
        <time>2013-08-06T18:32:25.000Z</time>
      </trkpt>
      <trkpt lat="48.87985" lon="2.35839">
        <ele>109.4</ele>
        <time>2013-08-06T18:32:26.000Z</time>
      </trkpt>
      <trkpt lat="48.87988" lon="2.35844">
        <ele>109.4</ele>
        <time>2013-08-06T18:32:27.000Z</time>
      </trkpt>
      <trkpt lat="48.87991" lon="2.35849">
        <ele>109.5</ele>
        <time>2013-08-06T18:32:28.000Z</time>
      </trkpt>
      <trkpt lat="48.87994" lon="2.35852">
        <ele>109.4</ele>
        <time>2013-08-06T18:32:29.000Z</time>
      </trkpt>
      <trkpt lat="48.87997" lon="2.35856">
        <ele>107.3</ele>
        <time>2013-08-06T18:32:30.000Z</time>
      </trkpt>
      <trkpt lat="48.87999" lon="2.35859">
        <ele>105.5</ele>
        <time>2013-08-06T18:32:31.000Z</time>
      </trkpt>
      <trkpt lat="48.88002" lon="2.35863">
        <ele>105.5</ele>
        <time>2013-08-06T18:32:32.000Z</time>
      </trkpt>
      <trkpt lat="48.88004" lon="2.35867">
        <ele>106.3</ele>
        <time>2013-08-06T18:32:33.000Z</time>
      </trkpt>
      <trkpt lat="48.88006" lon="2.35871">
        <ele>105.9</ele>
        <time>2013-08-06T18:32:34.000Z</time>
      </trkpt>
      <trkpt lat="48.88008" lon="2.35875">
        <ele>107</ele>
        <time>2013-08-06T18:32:35.000Z</time>
      </trkpt>
      <trkpt lat="48.88011" lon="2.35879">
        <ele>106.8</ele>
        <time>2013-08-06T18:32:36.000Z</time>
      </trkpt>
      <trkpt lat="48.88014" lon="2.35883">
        <ele>105.7</ele>
        <time>2013-08-06T18:32:37.000Z</time>
      </trkpt>
      <trkpt lat="48.88016" lon="2.35887">
        <ele>103.8</ele>
        <time>2013-08-06T18:32:38.000Z</time>
      </trkpt>
      <trkpt lat="48.88019" lon="2.35892">
        <ele>103.5</ele>
        <time>2013-08-06T18:32:39.000Z</time>
      </trkpt>
      <trkpt lat="48.88022" lon="2.35898">
        <ele>102.7</ele>
        <time>2013-08-06T18:32:40.000Z</time>
      </trkpt>
      <trkpt lat="48.88024" lon="2.35904">
        <ele>102.4</ele>
        <time>2013-08-06T18:32:41.000Z</time>
      </trkpt>
      <trkpt lat="48.88027" lon="2.3591">
        <ele>101.6</ele>
        <time>2013-08-06T18:32:42.000Z</time>
      </trkpt>
      <trkpt lat="48.8803" lon="2.35915">
        <ele>102.2</ele>
        <time>2013-08-06T18:32:43.000Z</time>
      </trkpt>
      <trkpt lat="48.88033" lon="2.3592">
        <ele>102.7</ele>
        <time>2013-08-06T18:32:44.000Z</time>
      </trkpt>
      <trkpt lat="48.88036" lon="2.35925">
        <ele>102.5</ele>
        <time>2013-08-06T18:32:45.000Z</time>
      </trkpt>
      <trkpt lat="48.88039" lon="2.3593">
        <ele>101.1</ele>
        <time>2013-08-06T18:32:46.000Z</time>
      </trkpt>
      <trkpt lat="48.88042" lon="2.35939">
        <ele>100.9</ele>
        <time>2013-08-06T18:32:47.000Z</time>
      </trkpt>
      <trkpt lat="48.88045" lon="2.35944">
        <ele>100.3</ele>
        <time>2013-08-06T18:32:48.000Z</time>
      </trkpt>
      <trkpt lat="48.88048" lon="2.35951">
        <ele>102.3</ele>
        <time>2013-08-06T18:32:49.000Z</time>
      </trkpt>
      <trkpt lat="48.8805" lon="2.35957">
        <ele>102.9</ele>
        <time>2013-08-06T18:32:50.000Z</time>
      </trkpt>
      <trkpt lat="48.88055" lon="2.35964">
        <ele>103.1</ele>
        <time>2013-08-06T18:32:51.000Z</time>
      </trkpt>
      <trkpt lat="48.88057" lon="2.3597">
        <ele>102.4</ele>
        <time>2013-08-06T18:32:52.000Z</time>
      </trkpt>
      <trkpt lat="48.88059" lon="2.35977">
        <ele>103.5</ele>
        <time>2013-08-06T18:32:53.000Z</time>
      </trkpt>
      <trkpt lat="48.88062" lon="2.35982">
        <ele>103.2</ele>
        <time>2013-08-06T18:32:54.000Z</time>
      </trkpt>
      <trkpt lat="48.88065" lon="2.35986">
        <ele>102.4</ele>
        <time>2013-08-06T18:32:55.000Z</time>
      </trkpt>
      <trkpt lat="48.88068" lon="2.35994">
        <ele>102.6</ele>
        <time>2013-08-06T18:32:56.000Z</time>
      </trkpt>
      <trkpt lat="48.8807" lon="2.36">
        <ele>102.5</ele>
        <time>2013-08-06T18:32:57.000Z</time>
      </trkpt>
      <trkpt lat="48.88074" lon="2.36005">
        <ele>103.2</ele>
        <time>2013-08-06T18:32:58.000Z</time>
      </trkpt>
      <trkpt lat="48.88077" lon="2.3601">
        <ele>104.5</ele>
        <time>2013-08-06T18:32:59.000Z</time>
      </trkpt>
      <trkpt lat="48.8808" lon="2.36015">
        <ele>103.8</ele>
        <time>2013-08-06T18:33:00.000Z</time>
      </trkpt>
      <trkpt lat="48.88083" lon="2.3602">
        <ele>105</ele>
        <time>2013-08-06T18:33:01.000Z</time>
      </trkpt>
      <trkpt lat="48.88085" lon="2.36027">
        <ele>105.2</ele>
        <time>2013-08-06T18:33:02.000Z</time>
      </trkpt>
      <trkpt lat="48.88086" lon="2.36033">
        <ele>105</ele>
        <time>2013-08-06T18:33:03.000Z</time>
      </trkpt>
      <trkpt lat="48.88087" lon="2.36038">
        <ele>104.6</ele>
        <time>2013-08-06T18:33:04.000Z</time>
      </trkpt>
      <trkpt lat="48.88089" lon="2.36044">
        <ele>104.8</ele>
        <time>2013-08-06T18:33:05.000Z</time>
      </trkpt>
      <trkpt lat="48.88092" lon="2.36049">
        <ele>105.1</ele>
        <time>2013-08-06T18:33:06.000Z</time>
      </trkpt>
      <trkpt lat="48.88095" lon="2.36053">
        <ele>105.5</ele>
        <time>2013-08-06T18:33:07.000Z</time>
      </trkpt>
      <trkpt lat="48.88099" lon="2.36055">
        <ele>104.3</ele>
        <time>2013-08-06T18:33:08.000Z</time>
      </trkpt>
      <trkpt lat="48.88101" lon="2.36061">
        <ele>103.7</ele>
        <time>2013-08-06T18:33:09.000Z</time>
      </trkpt>
      <trkpt lat="48.88104" lon="2.36066">
        <ele>105.2</ele>
        <time>2013-08-06T18:33:10.000Z</time>
      </trkpt>
      <trkpt lat="48.88107" lon="2.36072">
        <ele>104.8</ele>
        <time>2013-08-06T18:33:11.000Z</time>
      </trkpt>
      <trkpt lat="48.88109" lon="2.36077">
        <ele>104.6</ele>
        <time>2013-08-06T18:33:12.000Z</time>
      </trkpt>
      <trkpt lat="48.88111" lon="2.36084">
        <ele>104.5</ele>
        <time>2013-08-06T18:33:13.000Z</time>
      </trkpt>
      <trkpt lat="48.88114" lon="2.36089">
        <ele>105</ele>
        <time>2013-08-06T18:33:14.000Z</time>
      </trkpt>
      <trkpt lat="48.88117" lon="2.36094">
        <ele>104.9</ele>
        <time>2013-08-06T18:33:15.000Z</time>
      </trkpt>
      <trkpt lat="48.88117" lon="2.361">
        <ele>105.3</ele>
        <time>2013-08-06T18:33:16.000Z</time>
      </trkpt>
      <trkpt lat="48.88119" lon="2.36107">
        <ele>107</ele>
        <time>2013-08-06T18:33:17.000Z</time>
      </trkpt>
      <trkpt lat="48.88121" lon="2.36112">
        <ele>106.6</ele>
        <time>2013-08-06T18:33:18.000Z</time>
      </trkpt>
      <trkpt lat="48.88123" lon="2.36117">
        <ele>106.8</ele>
        <time>2013-08-06T18:33:19.000Z</time>
      </trkpt>
      <trkpt lat="48.88125" lon="2.36123">
        <ele>107.1</ele>
        <time>2013-08-06T18:33:20.000Z</time>
      </trkpt>
      <trkpt lat="48.88128" lon="2.36129">
        <ele>107.3</ele>
        <time>2013-08-06T18:33:21.000Z</time>
      </trkpt>
      <trkpt lat="48.88131" lon="2.36134">
        <ele>107.1</ele>
        <time>2013-08-06T18:33:22.000Z</time>
      </trkpt>
      <trkpt lat="48.88132" lon="2.3614">
        <ele>108.1</ele>
        <time>2013-08-06T18:33:23.000Z</time>
      </trkpt>
      <trkpt lat="48.88135" lon="2.36145">
        <ele>107.6</ele>
        <time>2013-08-06T18:33:24.000Z</time>
      </trkpt>
      <trkpt lat="48.88137" lon="2.3615">
        <ele>109.9</ele>
        <time>2013-08-06T18:33:25.000Z</time>
      </trkpt>
      <trkpt lat="48.88139" lon="2.36155">
        <ele>110.5</ele>
        <time>2013-08-06T18:33:26.000Z</time>
      </trkpt>
      <trkpt lat="48.8814" lon="2.3616">
        <ele>109.7</ele>
        <time>2013-08-06T18:33:27.000Z</time>
      </trkpt>
      <trkpt lat="48.88142" lon="2.36164">
        <ele>109.3</ele>
        <time>2013-08-06T18:33:28.000Z</time>
      </trkpt>
      <trkpt lat="48.88145" lon="2.36168">
        <ele>111.5</ele>
        <time>2013-08-06T18:33:29.000Z</time>
      </trkpt>
      <trkpt lat="48.88145" lon="2.36173">
        <ele>111.3</ele>
        <time>2013-08-06T18:33:30.000Z</time>
      </trkpt>
      <trkpt lat="48.88145" lon="2.36178">
        <ele>111.2</ele>
        <time>2013-08-06T18:33:31.000Z</time>
      </trkpt>
      <trkpt lat="48.88142" lon="2.36181">
        <ele>110.8</ele>
        <time>2013-08-06T18:33:32.000Z</time>
      </trkpt>
      <trkpt lat="48.8814" lon="2.36184">
        <ele>110.6</ele>
        <time>2013-08-06T18:33:33.000Z</time>
      </trkpt>
      <trkpt lat="48.88137" lon="2.36186">
        <ele>112.8</ele>
        <time>2013-08-06T18:33:34.000Z</time>
      </trkpt>
      <trkpt lat="48.88134" lon="2.36186">
        <ele>114.4</ele>
        <time>2013-08-06T18:33:35.000Z</time>
      </trkpt>
      <trkpt lat="48.88131" lon="2.36186">
        <ele>114.9</ele>
        <time>2013-08-06T18:33:36.000Z</time>
      </trkpt>
      <trkpt lat="48.88129" lon="2.36186">
        <ele>115.3</ele>
        <time>2013-08-06T18:33:37.000Z</time>
      </trkpt>
      <trkpt lat="48.88125" lon="2.36186">
        <ele>115.4</ele>
        <time>2013-08-06T18:33:38.000Z</time>
      </trkpt>
      <trkpt lat="48.88122" lon="2.36186">
        <ele>115.3</ele>
        <time>2013-08-06T18:33:39.000Z</time>
      </trkpt>
      <trkpt lat="48.88118" lon="2.36188">
        <ele>115.6</ele>
        <time>2013-08-06T18:33:40.000Z</time>
      </trkpt>
      <trkpt lat="48.88115" lon="2.36189">
        <ele>115.5</ele>
        <time>2013-08-06T18:33:41.000Z</time>
      </trkpt>
      <trkpt lat="48.88111" lon="2.3619">
        <ele>114.7</ele>
        <time>2013-08-06T18:33:42.000Z</time>
      </trkpt>
      <trkpt lat="48.88107" lon="2.36191">
        <ele>114.3</ele>
        <time>2013-08-06T18:33:43.000Z</time>
      </trkpt>
      <trkpt lat="48.88104" lon="2.36192">
        <ele>114.1</ele>
        <time>2013-08-06T18:33:44.000Z</time>
      </trkpt>
      <trkpt lat="48.881" lon="2.36194">
        <ele>113.4</ele>
        <time>2013-08-06T18:33:45.000Z</time>
      </trkpt>
      <trkpt lat="48.88096" lon="2.36195">
        <ele>112.7</ele>
        <time>2013-08-06T18:33:46.000Z</time>
      </trkpt>
      <trkpt lat="48.88091" lon="2.36196">
        <ele>112.2</ele>
        <time>2013-08-06T18:33:47.000Z</time>
      </trkpt>
      <trkpt lat="48.88087" lon="2.36198">
        <ele>112.2</ele>
        <time>2013-08-06T18:33:48.000Z</time>
      </trkpt>
      <trkpt lat="48.88083" lon="2.36199">
        <ele>111.6</ele>
        <time>2013-08-06T18:33:49.000Z</time>
      </trkpt>
      <trkpt lat="48.88078" lon="2.362">
        <ele>109.7</ele>
        <time>2013-08-06T18:33:50.000Z</time>
      </trkpt>
      <trkpt lat="48.88074" lon="2.362">
        <ele>108.7</ele>
        <time>2013-08-06T18:33:51.000Z</time>
      </trkpt>
      <trkpt lat="48.88069" lon="2.362">
        <ele>108.5</ele>
        <time>2013-08-06T18:33:52.000Z</time>
      </trkpt>
      <trkpt lat="48.88065" lon="2.36199">
        <ele>106.1</ele>
        <time>2013-08-06T18:33:53.000Z</time>
      </trkpt>
      <trkpt lat="48.88062" lon="2.362">
        <ele>106.4</ele>
        <time>2013-08-06T18:33:54.000Z</time>
      </trkpt>
      <trkpt lat="48.88058" lon="2.36201">
        <ele>106.6</ele>
        <time>2013-08-06T18:33:55.000Z</time>
      </trkpt>
      <trkpt lat="48.88054" lon="2.36202">
        <ele>106.8</ele>
        <time>2013-08-06T18:33:56.000Z</time>
      </trkpt>
      <trkpt lat="48.8805" lon="2.36202">
        <ele>106.8</ele>
        <time>2013-08-06T18:33:57.000Z</time>
      </trkpt>
      <trkpt lat="48.88046" lon="2.36203">
        <ele>105.5</ele>
        <time>2013-08-06T18:33:58.000Z</time>
      </trkpt>
      <trkpt lat="48.88041" lon="2.36205">
        <ele>105.2</ele>
        <time>2013-08-06T18:33:59.000Z</time>
      </trkpt>
      <trkpt lat="48.88032" lon="2.36209">
        <ele>104.9</ele>
        <time>2013-08-06T18:34:00.000Z</time>
      </trkpt>
      <trkpt lat="48.88026" lon="2.3621">
        <ele>104.1</ele>
        <time>2013-08-06T18:34:01.000Z</time>
      </trkpt>
      <trkpt lat="48.8802" lon="2.36212">
        <ele>103.9</ele>
        <time>2013-08-06T18:34:02.000Z</time>
      </trkpt>
      <trkpt lat="48.88015" lon="2.36213">
        <ele>104.5</ele>
        <time>2013-08-06T18:34:03.000Z</time>
      </trkpt>
      <trkpt lat="48.8801" lon="2.36214">
        <ele>104.4</ele>
        <time>2013-08-06T18:34:04.000Z</time>
      </trkpt>
      <trkpt lat="48.88004" lon="2.36216">
        <ele>104.3</ele>
        <time>2013-08-06T18:34:05.000Z</time>
      </trkpt>
      <trkpt lat="48.87998" lon="2.36218">
        <ele>104.5</ele>
        <time>2013-08-06T18:34:06.000Z</time>
      </trkpt>
      <trkpt lat="48.87993" lon="2.36219">
        <ele>105.3</ele>
        <time>2013-08-06T18:34:07.000Z</time>
      </trkpt>
      <trkpt lat="48.87986" lon="2.36222">
        <ele>105.5</ele>
        <time>2013-08-06T18:34:08.000Z</time>
      </trkpt>
      <trkpt lat="48.87981" lon="2.36224">
        <ele>105.5</ele>
        <time>2013-08-06T18:34:09.000Z</time>
      </trkpt>
      <trkpt lat="48.87976" lon="2.36226">
        <ele>105.8</ele>
        <time>2013-08-06T18:34:10.000Z</time>
      </trkpt>
      <trkpt lat="48.8797" lon="2.36227">
        <ele>104.5</ele>
        <time>2013-08-06T18:34:11.000Z</time>
      </trkpt>
      <trkpt lat="48.87963" lon="2.36228">
        <ele>103.8</ele>
        <time>2013-08-06T18:34:12.000Z</time>
      </trkpt>
      <trkpt lat="48.87956" lon="2.3623">
        <ele>104.5</ele>
        <time>2013-08-06T18:34:13.000Z</time>
      </trkpt>
      <trkpt lat="48.87949" lon="2.36232">
        <ele>104.9</ele>
        <time>2013-08-06T18:34:14.000Z</time>
      </trkpt>
      <trkpt lat="48.87945" lon="2.36234">
        <ele>106.9</ele>
        <time>2013-08-06T18:34:15.000Z</time>
      </trkpt>
      <trkpt lat="48.8794" lon="2.36236">
        <ele>106.9</ele>
        <time>2013-08-06T18:34:16.000Z</time>
      </trkpt>
      <trkpt lat="48.87933" lon="2.36237">
        <ele>105.5</ele>
        <time>2013-08-06T18:34:17.000Z</time>
      </trkpt>
      <trkpt lat="48.87927" lon="2.36237">
        <ele>104.7</ele>
        <time>2013-08-06T18:34:18.000Z</time>
      </trkpt>
      <trkpt lat="48.87922" lon="2.36238">
        <ele>103.5</ele>
        <time>2013-08-06T18:34:19.000Z</time>
      </trkpt>
      <trkpt lat="48.87917" lon="2.36238">
        <ele>103.7</ele>
        <time>2013-08-06T18:34:20.000Z</time>
      </trkpt>
      <trkpt lat="48.87914" lon="2.36236">
        <ele>104.9</ele>
        <time>2013-08-06T18:34:21.000Z</time>
      </trkpt>
      <trkpt lat="48.8791" lon="2.36235">
        <ele>105.1</ele>
        <time>2013-08-06T18:34:22.000Z</time>
      </trkpt>
      <trkpt lat="48.87908" lon="2.36236">
        <ele>108.1</ele>
        <time>2013-08-06T18:34:23.000Z</time>
      </trkpt>
      <trkpt lat="48.87904" lon="2.36236">
        <ele>107.6</ele>
        <time>2013-08-06T18:34:25.000Z</time>
      </trkpt>
      <trkpt lat="48.87902" lon="2.36237">
        <ele>107.7</ele>
        <time>2013-08-06T18:34:26.000Z</time>
      </trkpt>
      <trkpt lat="48.87905" lon="2.36233">
        <ele>106.1</ele>
        <time>2013-08-06T18:34:30.000Z</time>
      </trkpt>
      <trkpt lat="48.87906" lon="2.36233">
        <ele>106.7</ele>
        <time>2013-08-06T18:34:31.000Z</time>
      </trkpt>
      <trkpt lat="48.8791" lon="2.36232">
        <ele>112.7</ele>
        <time>2013-08-06T18:34:49.000Z</time>
      </trkpt>
      <trkpt lat="48.87911" lon="2.36232">
        <ele>112.5</ele>
        <time>2013-08-06T18:34:50.000Z</time>
      </trkpt>
      <trkpt lat="48.87909" lon="2.36237">
        <ele>124.6</ele>
        <time>2013-08-06T18:36:19.000Z</time>
      </trkpt>
      <trkpt lat="48.87908" lon="2.36239">
        <ele>122.1</ele>
        <time>2013-08-06T18:36:20.000Z</time>
      </trkpt>
      <trkpt lat="48.87909" lon="2.36245">
        <ele>121.8</ele>
        <time>2013-08-06T18:36:23.000Z</time>
      </trkpt>
      <trkpt lat="48.87909" lon="2.36247">
        <ele>122.1</ele>
        <time>2013-08-06T18:36:24.000Z</time>
      </trkpt>
      <trkpt lat="48.87911" lon="2.36252">
        <ele>124.1</ele>
        <time>2013-08-06T18:36:26.000Z</time>
      </trkpt>
      <trkpt lat="48.87912" lon="2.36254">
        <ele>125.2</ele>
        <time>2013-08-06T18:36:27.000Z</time>
      </trkpt>
      <trkpt lat="48.87915" lon="2.36256">
        <ele>127.5</ele>
        <time>2013-08-06T18:36:29.000Z</time>
      </trkpt>
      <trkpt lat="48.87916" lon="2.36258">
        <ele>127.9</ele>
        <time>2013-08-06T18:36:30.000Z</time>
      </trkpt>
      <trkpt lat="48.87918" lon="2.36261">
        <ele>127.4</ele>
        <time>2013-08-06T18:36:32.000Z</time>
      </trkpt>
      <trkpt lat="48.8792" lon="2.36262">
        <ele>126.8</ele>
        <time>2013-08-06T18:36:33.000Z</time>
      </trkpt>
      <trkpt lat="48.87923" lon="2.36265">
        <ele>129.2</ele>
        <time>2013-08-06T18:36:35.000Z</time>
      </trkpt>
      <trkpt lat="48.87925" lon="2.36268">
        <ele>129.1</ele>
        <time>2013-08-06T18:36:36.000Z</time>
      </trkpt>
      <trkpt lat="48.87928" lon="2.36271">
        <ele>128.3</ele>
        <time>2013-08-06T18:36:37.000Z</time>
      </trkpt>
      <trkpt lat="48.8793" lon="2.36274">
        <ele>127.9</ele>
        <time>2013-08-06T18:36:38.000Z</time>
      </trkpt>
      <trkpt lat="48.87932" lon="2.36278">
        <ele>127.7</ele>
        <time>2013-08-06T18:36:39.000Z</time>
      </trkpt>
      <trkpt lat="48.87934" lon="2.36281">
        <ele>128</ele>
        <time>2013-08-06T18:36:40.000Z</time>
      </trkpt>
      <trkpt lat="48.87937" lon="2.36285">
        <ele>127.5</ele>
        <time>2013-08-06T18:36:41.000Z</time>
      </trkpt>
      <trkpt lat="48.8794" lon="2.36289">
        <ele>127.8</ele>
        <time>2013-08-06T18:36:42.000Z</time>
      </trkpt>
      <trkpt lat="48.87943" lon="2.36293">
        <ele>126.3</ele>
        <time>2013-08-06T18:36:43.000Z</time>
      </trkpt>
      <trkpt lat="48.87947" lon="2.36297">
        <ele>126.2</ele>
        <time>2013-08-06T18:36:44.000Z</time>
      </trkpt>
      <trkpt lat="48.8795" lon="2.363">
        <ele>126.2</ele>
        <time>2013-08-06T18:36:45.000Z</time>
      </trkpt>
      <trkpt lat="48.87953" lon="2.36306">
        <ele>125.3</ele>
        <time>2013-08-06T18:36:46.000Z</time>
      </trkpt>
      <trkpt lat="48.87957" lon="2.36311">
        <ele>121.6</ele>
        <time>2013-08-06T18:36:47.000Z</time>
      </trkpt>
      <trkpt lat="48.8796" lon="2.36315">
        <ele>120.2</ele>
        <time>2013-08-06T18:36:48.000Z</time>
      </trkpt>
      <trkpt lat="48.87964" lon="2.36319">
        <ele>117.9</ele>
        <time>2013-08-06T18:36:49.000Z</time>
      </trkpt>
      <trkpt lat="48.87968" lon="2.36323">
        <ele>116.7</ele>
        <time>2013-08-06T18:36:50.000Z</time>
      </trkpt>
      <trkpt lat="48.87972" lon="2.36327">
        <ele>116.2</ele>
        <time>2013-08-06T18:36:51.000Z</time>
      </trkpt>
      <trkpt lat="48.87976" lon="2.3633">
        <ele>115.2</ele>
        <time>2013-08-06T18:36:52.000Z</time>
      </trkpt>
      <trkpt lat="48.8798" lon="2.36334">
        <ele>114.4</ele>
        <time>2013-08-06T18:36:53.000Z</time>
      </trkpt>
      <trkpt lat="48.87984" lon="2.36338">
        <ele>112.3</ele>
        <time>2013-08-06T18:36:54.000Z</time>
      </trkpt>
      <trkpt lat="48.87988" lon="2.36342">
        <ele>112</ele>
        <time>2013-08-06T18:36:55.000Z</time>
      </trkpt>
      <trkpt lat="48.87991" lon="2.36346">
        <ele>111.9</ele>
        <time>2013-08-06T18:36:56.000Z</time>
      </trkpt>
      <trkpt lat="48.87995" lon="2.3635">
        <ele>111.7</ele>
        <time>2013-08-06T18:36:57.000Z</time>
      </trkpt>
      <trkpt lat="48.87998" lon="2.36354">
        <ele>113</ele>
        <time>2013-08-06T18:36:58.000Z</time>
      </trkpt>
      <trkpt lat="48.88002" lon="2.36357">
        <ele>113.3</ele>
        <time>2013-08-06T18:36:59.000Z</time>
      </trkpt>
      <trkpt lat="48.88005" lon="2.36361">
        <ele>113.2</ele>
        <time>2013-08-06T18:37:00.000Z</time>
      </trkpt>
      <trkpt lat="48.88008" lon="2.36365">
        <ele>113.8</ele>
        <time>2013-08-06T18:37:01.000Z</time>
      </trkpt>
      <trkpt lat="48.88012" lon="2.3637">
        <ele>115.2</ele>
        <time>2013-08-06T18:37:02.000Z</time>
      </trkpt>
      <trkpt lat="48.88016" lon="2.36375">
        <ele>115.7</ele>
        <time>2013-08-06T18:37:03.000Z</time>
      </trkpt>
      <trkpt lat="48.88021" lon="2.36383">
        <ele>114.7</ele>
        <time>2013-08-06T18:37:04.000Z</time>
      </trkpt>
      <trkpt lat="48.88025" lon="2.36388">
        <ele>115.6</ele>
        <time>2013-08-06T18:37:05.000Z</time>
      </trkpt>
      <trkpt lat="48.88029" lon="2.36392">
        <ele>115.2</ele>
        <time>2013-08-06T18:37:06.000Z</time>
      </trkpt>
      <trkpt lat="48.88033" lon="2.36396">
        <ele>115.5</ele>
        <time>2013-08-06T18:37:07.000Z</time>
      </trkpt>
      <trkpt lat="48.88037" lon="2.36401">
        <ele>115.5</ele>
        <time>2013-08-06T18:37:08.000Z</time>
      </trkpt>
      <trkpt lat="48.88042" lon="2.36407">
        <ele>116.3</ele>
        <time>2013-08-06T18:37:09.000Z</time>
      </trkpt>
      <trkpt lat="48.88049" lon="2.36415">
        <ele>115.9</ele>
        <time>2013-08-06T18:37:10.000Z</time>
      </trkpt>
      <trkpt lat="48.88053" lon="2.36421">
        <ele>115.7</ele>
        <time>2013-08-06T18:37:11.000Z</time>
      </trkpt>
      <trkpt lat="48.88057" lon="2.36427">
        <ele>116.4</ele>
        <time>2013-08-06T18:37:12.000Z</time>
      </trkpt>
      <trkpt lat="48.8806" lon="2.36432">
        <ele>115.8</ele>
        <time>2013-08-06T18:37:13.000Z</time>
      </trkpt>
      <trkpt lat="48.88065" lon="2.36437">
        <ele>115.7</ele>
        <time>2013-08-06T18:37:14.000Z</time>
      </trkpt>
      <trkpt lat="48.88069" lon="2.36441">
        <ele>115.8</ele>
        <time>2013-08-06T18:37:15.000Z</time>
      </trkpt>
      <trkpt lat="48.88073" lon="2.36447">
        <ele>116</ele>
        <time>2013-08-06T18:37:16.000Z</time>
      </trkpt>
      <trkpt lat="48.88074" lon="2.36449">
        <ele>115.7</ele>
        <time>2013-08-06T18:37:17.000Z</time>
      </trkpt>
      <trkpt lat="48.88077" lon="2.36452">
        <ele>115.4</ele>
        <time>2013-08-06T18:37:18.000Z</time>
      </trkpt>
      <trkpt lat="48.88081" lon="2.36456">
        <ele>115</ele>
        <time>2013-08-06T18:37:19.000Z</time>
      </trkpt>
      <trkpt lat="48.88084" lon="2.3646">
        <ele>115.3</ele>
        <time>2013-08-06T18:37:20.000Z</time>
      </trkpt>
      <trkpt lat="48.88088" lon="2.36465">
        <ele>115.9</ele>
        <time>2013-08-06T18:37:21.000Z</time>
      </trkpt>
      <trkpt lat="48.88093" lon="2.36471">
        <ele>115.5</ele>
        <time>2013-08-06T18:37:22.000Z</time>
      </trkpt>
      <trkpt lat="48.88095" lon="2.36475">
        <ele>115.2</ele>
        <time>2013-08-06T18:37:23.000Z</time>
      </trkpt>
      <trkpt lat="48.88098" lon="2.3648">
        <ele>115.1</ele>
        <time>2013-08-06T18:37:24.000Z</time>
      </trkpt>
      <trkpt lat="48.881" lon="2.36482">
        <ele>114.5</ele>
        <time>2013-08-06T18:37:25.000Z</time>
      </trkpt>
      <trkpt lat="48.88102" lon="2.36485">
        <ele>114.2</ele>
        <time>2013-08-06T18:37:26.000Z</time>
      </trkpt>
      <trkpt lat="48.88105" lon="2.36488">
        <ele>112.7</ele>
        <time>2013-08-06T18:37:27.000Z</time>
      </trkpt>
      <trkpt lat="48.8811" lon="2.36493">
        <ele>111.6</ele>
        <time>2013-08-06T18:37:28.000Z</time>
      </trkpt>
      <trkpt lat="48.88112" lon="2.36497">
        <ele>112.3</ele>
        <time>2013-08-06T18:37:29.000Z</time>
      </trkpt>
      <trkpt lat="48.88116" lon="2.365">
        <ele>112.3</ele>
        <time>2013-08-06T18:37:30.000Z</time>
      </trkpt>
      <trkpt lat="48.88118" lon="2.36505">
        <ele>115</ele>
        <time>2013-08-06T18:37:41.000Z</time>
      </trkpt>
      <trkpt lat="48.88118" lon="2.36506">
        <ele>115.3</ele>
        <time>2013-08-06T18:37:42.000Z</time>
      </trkpt>
      <trkpt lat="48.88121" lon="2.3651">
        <ele>116.9</ele>
        <time>2013-08-06T18:37:44.000Z</time>
      </trkpt>
      <trkpt lat="48.88123" lon="2.36512">
        <ele>116.6</ele>
        <time>2013-08-06T18:37:45.000Z</time>
      </trkpt>
      <trkpt lat="48.88124" lon="2.36514">
        <ele>116.8</ele>
        <time>2013-08-06T18:37:46.000Z</time>
      </trkpt>
      <trkpt lat="48.88126" lon="2.36517">
        <ele>118.2</ele>
        <time>2013-08-06T18:37:47.000Z</time>
      </trkpt>
      <trkpt lat="48.88129" lon="2.3652">
        <ele>118.5</ele>
        <time>2013-08-06T18:37:48.000Z</time>
      </trkpt>
      <trkpt lat="48.88131" lon="2.36523">
        <ele>119</ele>
        <time>2013-08-06T18:37:49.000Z</time>
      </trkpt>
      <trkpt lat="48.88133" lon="2.36529">
        <ele>119.8</ele>
        <time>2013-08-06T18:37:50.000Z</time>
      </trkpt>
      <trkpt lat="48.88135" lon="2.36534">
        <ele>119.8</ele>
        <time>2013-08-06T18:37:51.000Z</time>
      </trkpt>
      <trkpt lat="48.88137" lon="2.36538">
        <ele>119.9</ele>
        <time>2013-08-06T18:37:52.000Z</time>
      </trkpt>
      <trkpt lat="48.88139" lon="2.36542">
        <ele>120.9</ele>
        <time>2013-08-06T18:37:53.000Z</time>
      </trkpt>
      <trkpt lat="48.88141" lon="2.36547">
        <ele>119.7</ele>
        <time>2013-08-06T18:37:54.000Z</time>
      </trkpt>
      <trkpt lat="48.88143" lon="2.36551">
        <ele>119</ele>
        <time>2013-08-06T18:37:55.000Z</time>
      </trkpt>
      <trkpt lat="48.88144" lon="2.36556">
        <ele>118.9</ele>
        <time>2013-08-06T18:37:56.000Z</time>
      </trkpt>
      <trkpt lat="48.88145" lon="2.36561">
        <ele>118.7</ele>
        <time>2013-08-06T18:37:57.000Z</time>
      </trkpt>
      <trkpt lat="48.88146" lon="2.36566">
        <ele>118.7</ele>
        <time>2013-08-06T18:37:58.000Z</time>
      </trkpt>
      <trkpt lat="48.88148" lon="2.36571">
        <ele>118.1</ele>
        <time>2013-08-06T18:37:59.000Z</time>
      </trkpt>
      <trkpt lat="48.8815" lon="2.36575">
        <ele>117.4</ele>
        <time>2013-08-06T18:38:00.000Z</time>
      </trkpt>
      <trkpt lat="48.88153" lon="2.36579">
        <ele>116.7</ele>
        <time>2013-08-06T18:38:01.000Z</time>
      </trkpt>
      <trkpt lat="48.88157" lon="2.36583">
        <ele>116.3</ele>
        <time>2013-08-06T18:38:02.000Z</time>
      </trkpt>
      <trkpt lat="48.88161" lon="2.36586">
        <ele>116.3</ele>
        <time>2013-08-06T18:38:03.000Z</time>
      </trkpt>
      <trkpt lat="48.88166" lon="2.36589">
        <ele>115.3</ele>
        <time>2013-08-06T18:38:04.000Z</time>
      </trkpt>
      <trkpt lat="48.8817" lon="2.36593">
        <ele>115.6</ele>
        <time>2013-08-06T18:38:05.000Z</time>
      </trkpt>
      <trkpt lat="48.88175" lon="2.36597">
        <ele>114.4</ele>
        <time>2013-08-06T18:38:06.000Z</time>
      </trkpt>
      <trkpt lat="48.88179" lon="2.366">
        <ele>113.4</ele>
        <time>2013-08-06T18:38:07.000Z</time>
      </trkpt>
      <trkpt lat="48.88184" lon="2.36604">
        <ele>113.3</ele>
        <time>2013-08-06T18:38:08.000Z</time>
      </trkpt>
      <trkpt lat="48.88187" lon="2.36607">
        <ele>113.6</ele>
        <time>2013-08-06T18:38:09.000Z</time>
      </trkpt>
      <trkpt lat="48.8819" lon="2.3661">
        <ele>113.5</ele>
        <time>2013-08-06T18:38:10.000Z</time>
      </trkpt>
      <trkpt lat="48.88193" lon="2.36614">
        <ele>113.9</ele>
        <time>2013-08-06T18:38:11.000Z</time>
      </trkpt>
      <trkpt lat="48.88196" lon="2.36617">
        <ele>113.8</ele>
        <time>2013-08-06T18:38:12.000Z</time>
      </trkpt>
      <trkpt lat="48.88199" lon="2.36621">
        <ele>113.3</ele>
        <time>2013-08-06T18:38:13.000Z</time>
      </trkpt>
      <trkpt lat="48.88203" lon="2.36625">
        <ele>111.9</ele>
        <time>2013-08-06T18:38:14.000Z</time>
      </trkpt>
      <trkpt lat="48.88209" lon="2.36629">
        <ele>110.5</ele>
        <time>2013-08-06T18:38:15.000Z</time>
      </trkpt>
      <trkpt lat="48.88212" lon="2.36632">
        <ele>110.8</ele>
        <time>2013-08-06T18:38:16.000Z</time>
      </trkpt>
      <trkpt lat="48.88217" lon="2.36634">
        <ele>110.5</ele>
        <time>2013-08-06T18:38:17.000Z</time>
      </trkpt>
      <trkpt lat="48.88221" lon="2.3664">
        <ele>108.6</ele>
        <time>2013-08-06T18:38:18.000Z</time>
      </trkpt>
      <trkpt lat="48.88223" lon="2.36641">
        <ele>109.2</ele>
        <time>2013-08-06T18:38:19.000Z</time>
      </trkpt>
      <trkpt lat="48.88225" lon="2.36643">
        <ele>111.5</ele>
        <time>2013-08-06T18:38:20.000Z</time>
      </trkpt>
      <trkpt lat="48.88228" lon="2.36644">
        <ele>113.3</ele>
        <time>2013-08-06T18:38:21.000Z</time>
      </trkpt>
      <trkpt lat="48.88232" lon="2.3665">
        <ele>112.8</ele>
        <time>2013-08-06T18:38:22.000Z</time>
      </trkpt>
      <trkpt lat="48.88235" lon="2.36655">
        <ele>113.4</ele>
        <time>2013-08-06T18:38:23.000Z</time>
      </trkpt>
      <trkpt lat="48.88241" lon="2.36661">
        <ele>113.5</ele>
        <time>2013-08-06T18:38:24.000Z</time>
      </trkpt>
      <trkpt lat="48.88246" lon="2.36667">
        <ele>112.4</ele>
        <time>2013-08-06T18:38:25.000Z</time>
      </trkpt>
      <trkpt lat="48.88252" lon="2.36674">
        <ele>110.6</ele>
        <time>2013-08-06T18:38:26.000Z</time>
      </trkpt>
      <trkpt lat="48.88256" lon="2.3668">
        <ele>110.6</ele>
        <time>2013-08-06T18:38:27.000Z</time>
      </trkpt>
      <trkpt lat="48.8826" lon="2.36684">
        <ele>110.1</ele>
        <time>2013-08-06T18:38:28.000Z</time>
      </trkpt>
      <trkpt lat="48.88264" lon="2.36688">
        <ele>109.4</ele>
        <time>2013-08-06T18:38:29.000Z</time>
      </trkpt>
      <trkpt lat="48.88269" lon="2.36693">
        <ele>111.4</ele>
        <time>2013-08-06T18:38:30.000Z</time>
      </trkpt>
      <trkpt lat="48.88273" lon="2.36699">
        <ele>111.1</ele>
        <time>2013-08-06T18:38:31.000Z</time>
      </trkpt>
      <trkpt lat="48.88279" lon="2.36705">
        <ele>111</ele>
        <time>2013-08-06T18:38:32.000Z</time>
      </trkpt>
      <trkpt lat="48.88287" lon="2.36711">
        <ele>110.9</ele>
        <time>2013-08-06T18:38:33.000Z</time>
      </trkpt>
      <trkpt lat="48.8829" lon="2.36716">
        <ele>111.5</ele>
        <time>2013-08-06T18:38:34.000Z</time>
      </trkpt>
      <trkpt lat="48.88293" lon="2.36721">
        <ele>111.9</ele>
        <time>2013-08-06T18:38:35.000Z</time>
      </trkpt>
      <trkpt lat="48.88298" lon="2.36725">
        <ele>112</ele>
        <time>2013-08-06T18:38:36.000Z</time>
      </trkpt>
      <trkpt lat="48.88303" lon="2.36728">
        <ele>112.3</ele>
        <time>2013-08-06T18:38:37.000Z</time>
      </trkpt>
      <trkpt lat="48.88307" lon="2.36734">
        <ele>112.6</ele>
        <time>2013-08-06T18:38:38.000Z</time>
      </trkpt>
      <trkpt lat="48.88311" lon="2.36739">
        <ele>112.6</ele>
        <time>2013-08-06T18:38:39.000Z</time>
      </trkpt>
      <trkpt lat="48.88315" lon="2.36745">
        <ele>112.2</ele>
        <time>2013-08-06T18:38:40.000Z</time>
      </trkpt>
      <trkpt lat="48.88316" lon="2.3675">
        <ele>112</ele>
        <time>2013-08-06T18:38:41.000Z</time>
      </trkpt>
      <trkpt lat="48.88319" lon="2.36756">
        <ele>111.9</ele>
        <time>2013-08-06T18:38:42.000Z</time>
      </trkpt>
      <trkpt lat="48.88324" lon="2.3676">
        <ele>111.8</ele>
        <time>2013-08-06T18:38:43.000Z</time>
      </trkpt>
      <trkpt lat="48.88328" lon="2.36764">
        <ele>111.5</ele>
        <time>2013-08-06T18:38:44.000Z</time>
      </trkpt>
      <trkpt lat="48.88331" lon="2.36768">
        <ele>113.2</ele>
        <time>2013-08-06T18:38:45.000Z</time>
      </trkpt>
      <trkpt lat="48.88334" lon="2.36772">
        <ele>112</ele>
        <time>2013-08-06T18:38:46.000Z</time>
      </trkpt>
      <trkpt lat="48.8834" lon="2.36776">
        <ele>111.6</ele>
        <time>2013-08-06T18:38:47.000Z</time>
      </trkpt>
      <trkpt lat="48.88344" lon="2.3678">
        <ele>111.7</ele>
        <time>2013-08-06T18:38:48.000Z</time>
      </trkpt>
      <trkpt lat="48.88347" lon="2.36783">
        <ele>111.6</ele>
        <time>2013-08-06T18:38:49.000Z</time>
      </trkpt>
      <trkpt lat="48.8835" lon="2.36787">
        <ele>111.5</ele>
        <time>2013-08-06T18:38:50.000Z</time>
      </trkpt>
      <trkpt lat="48.88354" lon="2.36792">
        <ele>112.4</ele>
        <time>2013-08-06T18:38:51.000Z</time>
      </trkpt>
      <trkpt lat="48.88357" lon="2.36796">
        <ele>112.3</ele>
        <time>2013-08-06T18:38:52.000Z</time>
      </trkpt>
      <trkpt lat="48.8836" lon="2.36801">
        <ele>112.1</ele>
        <time>2013-08-06T18:38:53.000Z</time>
      </trkpt>
      <trkpt lat="48.88363" lon="2.36805">
        <ele>112.3</ele>
        <time>2013-08-06T18:38:54.000Z</time>
      </trkpt>
      <trkpt lat="48.88367" lon="2.36809">
        <ele>112</ele>
        <time>2013-08-06T18:38:55.000Z</time>
      </trkpt>
      <trkpt lat="48.8837" lon="2.36813">
        <ele>112.1</ele>
        <time>2013-08-06T18:38:56.000Z</time>
      </trkpt>
      <trkpt lat="48.88376" lon="2.36819">
        <ele>110.2</ele>
        <time>2013-08-06T18:38:57.000Z</time>
      </trkpt>
      <trkpt lat="48.88378" lon="2.36821">
        <ele>111</ele>
        <time>2013-08-06T18:38:58.000Z</time>
      </trkpt>
      <trkpt lat="48.88379" lon="2.36825">
        <ele>114.3</ele>
        <time>2013-08-06T18:38:59.000Z</time>
      </trkpt>
      <trkpt lat="48.88382" lon="2.36827">
        <ele>111.2</ele>
        <time>2013-08-06T18:39:00.000Z</time>
      </trkpt>
      <trkpt lat="48.88383" lon="2.36831">
        <ele>111.6</ele>
        <time>2013-08-06T18:39:01.000Z</time>
      </trkpt>
      <trkpt lat="48.88385" lon="2.36836">
        <ele>111.4</ele>
        <time>2013-08-06T18:39:04.000Z</time>
      </trkpt>
      <trkpt lat="48.88385" lon="2.36839">
        <ele>109.6</ele>
        <time>2013-08-06T18:39:05.000Z</time>
      </trkpt>
      <trkpt lat="48.88382" lon="2.36842">
        <ele>110.2</ele>
        <time>2013-08-06T18:39:07.000Z</time>
      </trkpt>
      <trkpt lat="48.88381" lon="2.36843">
        <ele>110</ele>
        <time>2013-08-06T18:39:08.000Z</time>
      </trkpt>
      <trkpt lat="48.88378" lon="2.36845">
        <ele>109.4</ele>
        <time>2013-08-06T18:39:10.000Z</time>
      </trkpt>
      <trkpt lat="48.88376" lon="2.36846">
        <ele>104.7</ele>
        <time>2013-08-06T18:39:11.000Z</time>
      </trkpt>
      <trkpt lat="48.88374" lon="2.36847">
        <ele>103.9</ele>
        <time>2013-08-06T18:39:12.000Z</time>
      </trkpt>
      <trkpt lat="48.88371" lon="2.36847">
        <ele>101</ele>
        <time>2013-08-06T18:39:13.000Z</time>
      </trkpt>
      <trkpt lat="48.88369" lon="2.36848">
        <ele>99.3</ele>
        <time>2013-08-06T18:39:14.000Z</time>
      </trkpt>
      <trkpt lat="48.88366" lon="2.36848">
        <ele>98</ele>
        <time>2013-08-06T18:39:15.000Z</time>
      </trkpt>
      <trkpt lat="48.88364" lon="2.3685">
        <ele>95.5</ele>
        <time>2013-08-06T18:39:16.000Z</time>
      </trkpt>
      <trkpt lat="48.88361" lon="2.36852">
        <ele>94.2</ele>
        <time>2013-08-06T18:39:17.000Z</time>
      </trkpt>
      <trkpt lat="48.88357" lon="2.36854">
        <ele>94</ele>
        <time>2013-08-06T18:39:18.000Z</time>
      </trkpt>
      <trkpt lat="48.88354" lon="2.36855">
        <ele>93.3</ele>
        <time>2013-08-06T18:39:19.000Z</time>
      </trkpt>
      <trkpt lat="48.88351" lon="2.36857">
        <ele>92.2</ele>
        <time>2013-08-06T18:39:20.000Z</time>
      </trkpt>
      <trkpt lat="48.88347" lon="2.36858">
        <ele>91.5</ele>
        <time>2013-08-06T18:39:21.000Z</time>
      </trkpt>
      <trkpt lat="48.88344" lon="2.3686">
        <ele>91.7</ele>
        <time>2013-08-06T18:39:22.000Z</time>
      </trkpt>
      <trkpt lat="48.88341" lon="2.36863">
        <ele>93.6</ele>
        <time>2013-08-06T18:39:23.000Z</time>
      </trkpt>
      <trkpt lat="48.88338" lon="2.36865">
        <ele>95.3</ele>
        <time>2013-08-06T18:39:24.000Z</time>
      </trkpt>
      <trkpt lat="48.88335" lon="2.36869">
        <ele>96.8</ele>
        <time>2013-08-06T18:39:25.000Z</time>
      </trkpt>
      <trkpt lat="48.88333" lon="2.36872">
        <ele>97.2</ele>
        <time>2013-08-06T18:39:26.000Z</time>
      </trkpt>
      <trkpt lat="48.88331" lon="2.36876">
        <ele>97</ele>
        <time>2013-08-06T18:39:27.000Z</time>
      </trkpt>
      <trkpt lat="48.88328" lon="2.3688">
        <ele>97.5</ele>
        <time>2013-08-06T18:39:28.000Z</time>
      </trkpt>
      <trkpt lat="48.88326" lon="2.36883">
        <ele>97.6</ele>
        <time>2013-08-06T18:39:29.000Z</time>
      </trkpt>
      <trkpt lat="48.88324" lon="2.36887">
        <ele>97.7</ele>
        <time>2013-08-06T18:39:30.000Z</time>
      </trkpt>
      <trkpt lat="48.88321" lon="2.3689">
        <ele>97.3</ele>
        <time>2013-08-06T18:39:31.000Z</time>
      </trkpt>
      <trkpt lat="48.88319" lon="2.36893">
        <ele>97.4</ele>
        <time>2013-08-06T18:39:32.000Z</time>
      </trkpt>
      <trkpt lat="48.88316" lon="2.36895">
        <ele>97.7</ele>
        <time>2013-08-06T18:39:33.000Z</time>
      </trkpt>
      <trkpt lat="48.88313" lon="2.36899">
        <ele>99.6</ele>
        <time>2013-08-06T18:39:34.000Z</time>
      </trkpt>
      <trkpt lat="48.88311" lon="2.36902">
        <ele>99.9</ele>
        <time>2013-08-06T18:39:35.000Z</time>
      </trkpt>
      <trkpt lat="48.88309" lon="2.36906">
        <ele>100.6</ele>
        <time>2013-08-06T18:39:36.000Z</time>
      </trkpt>
      <trkpt lat="48.88307" lon="2.3691">
        <ele>102.6</ele>
        <time>2013-08-06T18:39:37.000Z</time>
      </trkpt>
      <trkpt lat="48.88306" lon="2.36915">
        <ele>104</ele>
        <time>2013-08-06T18:39:38.000Z</time>
      </trkpt>
      <trkpt lat="48.88305" lon="2.3692">
        <ele>104.9</ele>
        <time>2013-08-06T18:39:39.000Z</time>
      </trkpt>
      <trkpt lat="48.88303" lon="2.36926">
        <ele>107</ele>
        <time>2013-08-06T18:39:40.000Z</time>
      </trkpt>
      <trkpt lat="48.88302" lon="2.36931">
        <ele>108.3</ele>
        <time>2013-08-06T18:39:41.000Z</time>
      </trkpt>
      <trkpt lat="48.883" lon="2.36935">
        <ele>108.5</ele>
        <time>2013-08-06T18:39:42.000Z</time>
      </trkpt>
      <trkpt lat="48.88298" lon="2.3694">
        <ele>107.4</ele>
        <time>2013-08-06T18:39:43.000Z</time>
      </trkpt>
      <trkpt lat="48.88295" lon="2.36944">
        <ele>107</ele>
        <time>2013-08-06T18:39:44.000Z</time>
      </trkpt>
      <trkpt lat="48.88292" lon="2.36948">
        <ele>107.3</ele>
        <time>2013-08-06T18:39:45.000Z</time>
      </trkpt>
      <trkpt lat="48.88289" lon="2.36952">
        <ele>106.1</ele>
        <time>2013-08-06T18:39:46.000Z</time>
      </trkpt>
      <trkpt lat="48.88286" lon="2.36955">
        <ele>105.3</ele>
        <time>2013-08-06T18:39:47.000Z</time>
      </trkpt>
      <trkpt lat="48.88284" lon="2.36957">
        <ele>105</ele>
        <time>2013-08-06T18:39:48.000Z</time>
      </trkpt>
      <trkpt lat="48.88282" lon="2.36959">
        <ele>105.1</ele>
        <time>2013-08-06T18:39:49.000Z</time>
      </trkpt>
      <trkpt lat="48.88279" lon="2.36964">
        <ele>109</ele>
        <time>2013-08-06T18:39:51.000Z</time>
      </trkpt>
      <trkpt lat="48.88277" lon="2.36966">
        <ele>108.5</ele>
        <time>2013-08-06T18:39:52.000Z</time>
      </trkpt>
      <trkpt lat="48.88276" lon="2.36973">
        <ele>107.8</ele>
        <time>2013-08-06T18:39:55.000Z</time>
      </trkpt>
      <trkpt lat="48.88275" lon="2.36973">
        <ele>107.9</ele>
        <time>2013-08-06T18:39:56.000Z</time>
      </trkpt>
      <trkpt lat="48.88272" lon="2.36975">
        <ele>106.7</ele>
        <time>2013-08-06T18:40:15.000Z</time>
      </trkpt>
      <trkpt lat="48.8827" lon="2.36975">
        <ele>107</ele>
        <time>2013-08-06T18:40:16.000Z</time>
      </trkpt>
      <trkpt lat="48.88266" lon="2.36977">
        <ele>108</ele>
        <time>2013-08-06T18:40:18.000Z</time>
      </trkpt>
      <trkpt lat="48.88264" lon="2.36978">
        <ele>107.1</ele>
        <time>2013-08-06T18:40:19.000Z</time>
      </trkpt>
      <trkpt lat="48.88262" lon="2.36979">
        <ele>106.9</ele>
        <time>2013-08-06T18:40:20.000Z</time>
      </trkpt>
      <trkpt lat="48.8826" lon="2.3698">
        <ele>105.9</ele>
        <time>2013-08-06T18:40:21.000Z</time>
      </trkpt>
      <trkpt lat="48.88255" lon="2.36982">
        <ele>105.7</ele>
        <time>2013-08-06T18:40:23.000Z</time>
      </trkpt>
      <trkpt lat="48.88253" lon="2.36983">
        <ele>103.9</ele>
        <time>2013-08-06T18:40:24.000Z</time>
      </trkpt>
      <trkpt lat="48.8825" lon="2.36985">
        <ele>105.1</ele>
        <time>2013-08-06T18:40:26.000Z</time>
      </trkpt>
      <trkpt lat="48.88248" lon="2.36987">
        <ele>106</ele>
        <time>2013-08-06T18:40:27.000Z</time>
      </trkpt>
      <trkpt lat="48.88246" lon="2.36988">
        <ele>107.4</ele>
        <time>2013-08-06T18:40:28.000Z</time>
      </trkpt>
      <trkpt lat="48.88244" lon="2.3699">
        <ele>107.9</ele>
        <time>2013-08-06T18:40:29.000Z</time>
      </trkpt>
      <trkpt lat="48.88242" lon="2.36992">
        <ele>108.4</ele>
        <time>2013-08-06T18:40:30.000Z</time>
      </trkpt>
      <trkpt lat="48.8824" lon="2.36994">
        <ele>108.6</ele>
        <time>2013-08-06T18:40:31.000Z</time>
      </trkpt>
      <trkpt lat="48.88238" lon="2.36996">
        <ele>111.1</ele>
        <time>2013-08-06T18:40:32.000Z</time>
      </trkpt>
      <trkpt lat="48.88235" lon="2.36996">
        <ele>111</ele>
        <time>2013-08-06T18:40:33.000Z</time>
      </trkpt>
      <trkpt lat="48.88232" lon="2.36996">
        <ele>112.6</ele>
        <time>2013-08-06T18:40:34.000Z</time>
      </trkpt>
      <trkpt lat="48.8823" lon="2.36997">
        <ele>112</ele>
        <time>2013-08-06T18:40:35.000Z</time>
      </trkpt>
      <trkpt lat="48.88227" lon="2.36999">
        <ele>112.8</ele>
        <time>2013-08-06T18:40:37.000Z</time>
      </trkpt>
      <trkpt lat="48.88225" lon="2.37">
        <ele>113.2</ele>
        <time>2013-08-06T18:40:38.000Z</time>
      </trkpt>
      <trkpt lat="48.88221" lon="2.37002">
        <ele>104.4</ele>
        <time>2013-08-06T18:40:57.000Z</time>
      </trkpt>
      <trkpt lat="48.88222" lon="2.37004">
        <ele>103.5</ele>
        <time>2013-08-06T18:40:58.000Z</time>
      </trkpt>
      <trkpt lat="48.88223" lon="2.37009">
        <ele>101.2</ele>
        <time>2013-08-06T18:41:00.000Z</time>
      </trkpt>
      <trkpt lat="48.88225" lon="2.37011">
        <ele>101.3</ele>
        <time>2013-08-06T18:41:01.000Z</time>
      </trkpt>
      <trkpt lat="48.88227" lon="2.37015">
        <ele>101</ele>
        <time>2013-08-06T18:41:03.000Z</time>
      </trkpt>
      <trkpt lat="48.88228" lon="2.37017">
        <ele>101</ele>
        <time>2013-08-06T18:41:04.000Z</time>
      </trkpt>
      <trkpt lat="48.88229" lon="2.3702">
        <ele>100.8</ele>
        <time>2013-08-06T18:41:05.000Z</time>
      </trkpt>
      <trkpt lat="48.88231" lon="2.37023">
        <ele>99.7</ele>
        <time>2013-08-06T18:41:06.000Z</time>
      </trkpt>
      <trkpt lat="48.88233" lon="2.37027">
        <ele>99.9</ele>
        <time>2013-08-06T18:41:08.000Z</time>
      </trkpt>
      <trkpt lat="48.88234" lon="2.37028">
        <ele>100.7</ele>
        <time>2013-08-06T18:41:09.000Z</time>
      </trkpt>
      <trkpt lat="48.88238" lon="2.37029">
        <ele>100.7</ele>
        <time>2013-08-06T18:41:17.000Z</time>
      </trkpt>
      <trkpt lat="48.88239" lon="2.3703">
        <ele>101</ele>
        <time>2013-08-06T18:41:18.000Z</time>
      </trkpt>
      <trkpt lat="48.88242" lon="2.37033">
        <ele>107.2</ele>
        <time>2013-08-06T18:41:58.000Z</time>
      </trkpt>
      <trkpt lat="48.88243" lon="2.37034">
        <ele>107.6</ele>
        <time>2013-08-06T18:41:59.000Z</time>
      </trkpt>
      <trkpt lat="48.88245" lon="2.37038">
        <ele>113</ele>
        <time>2013-08-06T18:42:01.000Z</time>
      </trkpt>
      <trkpt lat="48.88246" lon="2.37041">
        <ele>113.2</ele>
        <time>2013-08-06T18:42:02.000Z</time>
      </trkpt>
      <trkpt lat="48.88247" lon="2.37043">
        <ele>113.8</ele>
        <time>2013-08-06T18:42:03.000Z</time>
      </trkpt>
      <trkpt lat="48.88247" lon="2.37047">
        <ele>108.7</ele>
        <time>2013-08-06T18:42:04.000Z</time>
      </trkpt>
      <trkpt lat="48.88247" lon="2.37052">
        <ele>109.4</ele>
        <time>2013-08-06T18:42:05.000Z</time>
      </trkpt>
      <trkpt lat="48.88246" lon="2.37057">
        <ele>108.5</ele>
        <time>2013-08-06T18:42:06.000Z</time>
      </trkpt>
      <trkpt lat="48.88246" lon="2.3706">
        <ele>108.4</ele>
        <time>2013-08-06T18:42:07.000Z</time>
      </trkpt>
      <trkpt lat="48.88243" lon="2.37067">
        <ele>111.4</ele>
        <time>2013-08-06T18:42:08.000Z</time>
      </trkpt>
      <trkpt lat="48.88241" lon="2.37073">
        <ele>110.3</ele>
        <time>2013-08-06T18:42:09.000Z</time>
      </trkpt>
      <trkpt lat="48.88238" lon="2.37079">
        <ele>111.4</ele>
        <time>2013-08-06T18:42:10.000Z</time>
      </trkpt>
      <trkpt lat="48.88236" lon="2.37085">
        <ele>111.8</ele>
        <time>2013-08-06T18:42:11.000Z</time>
      </trkpt>
      <trkpt lat="48.88233" lon="2.37091">
        <ele>112.3</ele>
        <time>2013-08-06T18:42:12.000Z</time>
      </trkpt>
      <trkpt lat="48.88231" lon="2.37097">
        <ele>112</ele>
        <time>2013-08-06T18:42:13.000Z</time>
      </trkpt>
      <trkpt lat="48.88228" lon="2.37104">
        <ele>112</ele>
        <time>2013-08-06T18:42:14.000Z</time>
      </trkpt>
      <trkpt lat="48.88224" lon="2.3711">
        <ele>113.5</ele>
        <time>2013-08-06T18:42:15.000Z</time>
      </trkpt>
      <trkpt lat="48.88218" lon="2.37117">
        <ele>112.8</ele>
        <time>2013-08-06T18:42:16.000Z</time>
      </trkpt>
      <trkpt lat="48.88215" lon="2.37123">
        <ele>112.4</ele>
        <time>2013-08-06T18:42:17.000Z</time>
      </trkpt>
      <trkpt lat="48.88212" lon="2.37128">
        <ele>112.4</ele>
        <time>2013-08-06T18:42:18.000Z</time>
      </trkpt>
      <trkpt lat="48.88206" lon="2.37136">
        <ele>113</ele>
        <time>2013-08-06T18:42:19.000Z</time>
      </trkpt>
      <trkpt lat="48.88203" lon="2.37142">
        <ele>113.9</ele>
        <time>2013-08-06T18:42:20.000Z</time>
      </trkpt>
      <trkpt lat="48.882" lon="2.37148">
        <ele>114.1</ele>
        <time>2013-08-06T18:42:21.000Z</time>
      </trkpt>
      <trkpt lat="48.88197" lon="2.37154">
        <ele>114.6</ele>
        <time>2013-08-06T18:42:22.000Z</time>
      </trkpt>
      <trkpt lat="48.88194" lon="2.37159">
        <ele>114.3</ele>
        <time>2013-08-06T18:42:23.000Z</time>
      </trkpt>
      <trkpt lat="48.88192" lon="2.37164">
        <ele>114.6</ele>
        <time>2013-08-06T18:42:24.000Z</time>
      </trkpt>
      <trkpt lat="48.8819" lon="2.37167">
        <ele>115</ele>
        <time>2013-08-06T18:42:25.000Z</time>
      </trkpt>
      <trkpt lat="48.88189" lon="2.37173">
        <ele>117.5</ele>
        <time>2013-08-06T18:42:26.000Z</time>
      </trkpt>
      <trkpt lat="48.88187" lon="2.37177">
        <ele>118.7</ele>
        <time>2013-08-06T18:42:27.000Z</time>
      </trkpt>
      <trkpt lat="48.88185" lon="2.37183">
        <ele>119.2</ele>
        <time>2013-08-06T18:42:28.000Z</time>
      </trkpt>
      <trkpt lat="48.88183" lon="2.37191">
        <ele>120.6</ele>
        <time>2013-08-06T18:42:29.000Z</time>
      </trkpt>
      <trkpt lat="48.88179" lon="2.37196">
        <ele>120.2</ele>
        <time>2013-08-06T18:42:30.000Z</time>
      </trkpt>
      <trkpt lat="48.88176" lon="2.37201">
        <ele>120.1</ele>
        <time>2013-08-06T18:42:31.000Z</time>
      </trkpt>
      <trkpt lat="48.88173" lon="2.37208">
        <ele>120.6</ele>
        <time>2013-08-06T18:42:32.000Z</time>
      </trkpt>
      <trkpt lat="48.8817" lon="2.37213">
        <ele>120.4</ele>
        <time>2013-08-06T18:42:33.000Z</time>
      </trkpt>
      <trkpt lat="48.88167" lon="2.37218">
        <ele>119.7</ele>
        <time>2013-08-06T18:42:34.000Z</time>
      </trkpt>
      <trkpt lat="48.88164" lon="2.37223">
        <ele>119.3</ele>
        <time>2013-08-06T18:42:35.000Z</time>
      </trkpt>
      <trkpt lat="48.88166" lon="2.3723">
        <ele>119</ele>
        <time>2013-08-06T18:42:36.000Z</time>
      </trkpt>
      <trkpt lat="48.88164" lon="2.37236">
        <ele>119.1</ele>
        <time>2013-08-06T18:42:37.000Z</time>
      </trkpt>
      <trkpt lat="48.88163" lon="2.37241">
        <ele>119</ele>
        <time>2013-08-06T18:42:38.000Z</time>
      </trkpt>
      <trkpt lat="48.88161" lon="2.37247">
        <ele>121.5</ele>
        <time>2013-08-06T18:42:39.000Z</time>
      </trkpt>
      <trkpt lat="48.88158" lon="2.37253">
        <ele>119.6</ele>
        <time>2013-08-06T18:42:40.000Z</time>
      </trkpt>
      <trkpt lat="48.88155" lon="2.37259">
        <ele>120.3</ele>
        <time>2013-08-06T18:42:41.000Z</time>
      </trkpt>
      <trkpt lat="48.88153" lon="2.37264">
        <ele>120.4</ele>
        <time>2013-08-06T18:42:42.000Z</time>
      </trkpt>
      <trkpt lat="48.88149" lon="2.37268">
        <ele>120.6</ele>
        <time>2013-08-06T18:42:43.000Z</time>
      </trkpt>
      <trkpt lat="48.88145" lon="2.37274">
        <ele>120</ele>
        <time>2013-08-06T18:42:44.000Z</time>
      </trkpt>
      <trkpt lat="48.88142" lon="2.3728">
        <ele>118.9</ele>
        <time>2013-08-06T18:42:45.000Z</time>
      </trkpt>
      <trkpt lat="48.8814" lon="2.37286">
        <ele>118.2</ele>
        <time>2013-08-06T18:42:46.000Z</time>
      </trkpt>
      <trkpt lat="48.88138" lon="2.37291">
        <ele>118.6</ele>
        <time>2013-08-06T18:42:47.000Z</time>
      </trkpt>
      <trkpt lat="48.88135" lon="2.37297">
        <ele>118.7</ele>
        <time>2013-08-06T18:42:48.000Z</time>
      </trkpt>
      <trkpt lat="48.88133" lon="2.37302">
        <ele>115.9</ele>
        <time>2013-08-06T18:42:49.000Z</time>
      </trkpt>
      <trkpt lat="48.88131" lon="2.37307">
        <ele>116.2</ele>
        <time>2013-08-06T18:42:50.000Z</time>
      </trkpt>
      <trkpt lat="48.88129" lon="2.37312">
        <ele>116.1</ele>
        <time>2013-08-06T18:42:51.000Z</time>
      </trkpt>
      <trkpt lat="48.88127" lon="2.37318">
        <ele>115.9</ele>
        <time>2013-08-06T18:42:52.000Z</time>
      </trkpt>
      <trkpt lat="48.88126" lon="2.37323">
        <ele>116.1</ele>
        <time>2013-08-06T18:42:53.000Z</time>
      </trkpt>
      <trkpt lat="48.88125" lon="2.37327">
        <ele>116.4</ele>
        <time>2013-08-06T18:42:54.000Z</time>
      </trkpt>
      <trkpt lat="48.88125" lon="2.3733">
        <ele>117.3</ele>
        <time>2013-08-06T18:42:55.000Z</time>
      </trkpt>
      <trkpt lat="48.88124" lon="2.37334">
        <ele>118.9</ele>
        <time>2013-08-06T18:42:56.000Z</time>
      </trkpt>
      <trkpt lat="48.88122" lon="2.37338">
        <ele>118.9</ele>
        <time>2013-08-06T18:42:57.000Z</time>
      </trkpt>
      <trkpt lat="48.88121" lon="2.37341">
        <ele>120.3</ele>
        <time>2013-08-06T18:42:58.000Z</time>
      </trkpt>
      <trkpt lat="48.88119" lon="2.37345">
        <ele>119.9</ele>
        <time>2013-08-06T18:42:59.000Z</time>
      </trkpt>
      <trkpt lat="48.88116" lon="2.37349">
        <ele>119.4</ele>
        <time>2013-08-06T18:43:00.000Z</time>
      </trkpt>
      <trkpt lat="48.88114" lon="2.37353">
        <ele>119.3</ele>
        <time>2013-08-06T18:43:01.000Z</time>
      </trkpt>
      <trkpt lat="48.88112" lon="2.37356">
        <ele>119.3</ele>
        <time>2013-08-06T18:43:02.000Z</time>
      </trkpt>
      <trkpt lat="48.88109" lon="2.37359">
        <ele>118.8</ele>
        <time>2013-08-06T18:43:03.000Z</time>
      </trkpt>
      <trkpt lat="48.88107" lon="2.37362">
        <ele>116.8</ele>
        <time>2013-08-06T18:43:04.000Z</time>
      </trkpt>
      <trkpt lat="48.88105" lon="2.37364">
        <ele>115.6</ele>
        <time>2013-08-06T18:43:05.000Z</time>
      </trkpt>
      <trkpt lat="48.88102" lon="2.37367">
        <ele>115.5</ele>
        <time>2013-08-06T18:43:06.000Z</time>
      </trkpt>
      <trkpt lat="48.881" lon="2.37369">
        <ele>115.5</ele>
        <time>2013-08-06T18:43:07.000Z</time>
      </trkpt>
      <trkpt lat="48.88098" lon="2.37372">
        <ele>115.7</ele>
        <time>2013-08-06T18:43:08.000Z</time>
      </trkpt>
      <trkpt lat="48.88095" lon="2.37376">
        <ele>117.5</ele>
        <time>2013-08-06T18:43:10.000Z</time>
      </trkpt>
      <trkpt lat="48.88095" lon="2.37377">
        <ele>116.8</ele>
        <time>2013-08-06T18:43:11.000Z</time>
      </trkpt>
      <trkpt lat="48.88098" lon="2.37381">
        <ele>122.6</ele>
        <time>2013-08-06T18:43:41.000Z</time>
      </trkpt>
      <trkpt lat="48.88099" lon="2.37381">
        <ele>123.7</ele>
        <time>2013-08-06T18:43:42.000Z</time>
      </trkpt>
      <trkpt lat="48.88102" lon="2.37385">
        <ele>126.7</ele>
        <time>2013-08-06T18:43:45.000Z</time>
      </trkpt>
      <trkpt lat="48.88104" lon="2.37388">
        <ele>127.8</ele>
        <time>2013-08-06T18:43:46.000Z</time>
      </trkpt>
      <trkpt lat="48.88106" lon="2.37391">
        <ele>128.7</ele>
        <time>2013-08-06T18:43:47.000Z</time>
      </trkpt>
      <trkpt lat="48.88108" lon="2.37393">
        <ele>129.4</ele>
        <time>2013-08-06T18:43:48.000Z</time>
      </trkpt>
      <trkpt lat="48.8811" lon="2.37395">
        <ele>129.8</ele>
        <time>2013-08-06T18:43:49.000Z</time>
      </trkpt>
      <trkpt lat="48.88112" lon="2.37396">
        <ele>130</ele>
        <time>2013-08-06T18:43:50.000Z</time>
      </trkpt>
      <trkpt lat="48.88115" lon="2.37399">
        <ele>129.5</ele>
        <time>2013-08-06T18:43:51.000Z</time>
      </trkpt>
      <trkpt lat="48.88118" lon="2.37401">
        <ele>130.3</ele>
        <time>2013-08-06T18:43:52.000Z</time>
      </trkpt>
      <trkpt lat="48.8812" lon="2.37404">
        <ele>130.6</ele>
        <time>2013-08-06T18:43:53.000Z</time>
      </trkpt>
      <trkpt lat="48.88123" lon="2.37406">
        <ele>131.2</ele>
        <time>2013-08-06T18:43:54.000Z</time>
      </trkpt>
      <trkpt lat="48.88125" lon="2.37409">
        <ele>131.3</ele>
        <time>2013-08-06T18:43:55.000Z</time>
      </trkpt>
      <trkpt lat="48.88128" lon="2.37412">
        <ele>129.4</ele>
        <time>2013-08-06T18:43:56.000Z</time>
      </trkpt>
      <trkpt lat="48.88131" lon="2.37415">
        <ele>126.7</ele>
        <time>2013-08-06T18:43:57.000Z</time>
      </trkpt>
      <trkpt lat="48.88134" lon="2.37418">
        <ele>125.7</ele>
        <time>2013-08-06T18:43:58.000Z</time>
      </trkpt>
      <trkpt lat="48.88137" lon="2.37421">
        <ele>127.9</ele>
        <time>2013-08-06T18:43:59.000Z</time>
      </trkpt>
      <trkpt lat="48.88137" lon="2.37426">
        <ele>124.2</ele>
        <time>2013-08-06T18:44:00.000Z</time>
      </trkpt>
      <trkpt lat="48.88135" lon="2.37431">
        <ele>122.4</ele>
        <time>2013-08-06T18:44:01.000Z</time>
      </trkpt>
      <trkpt lat="48.88134" lon="2.37435">
        <ele>120.8</ele>
        <time>2013-08-06T18:44:02.000Z</time>
      </trkpt>
      <trkpt lat="48.88133" lon="2.3744">
        <ele>120.4</ele>
        <time>2013-08-06T18:44:03.000Z</time>
      </trkpt>
      <trkpt lat="48.88132" lon="2.37444">
        <ele>118.8</ele>
        <time>2013-08-06T18:44:04.000Z</time>
      </trkpt>
      <trkpt lat="48.88131" lon="2.37448">
        <ele>118.3</ele>
        <time>2013-08-06T18:44:05.000Z</time>
      </trkpt>
      <trkpt lat="48.8813" lon="2.37452">
        <ele>118.2</ele>
        <time>2013-08-06T18:44:06.000Z</time>
      </trkpt>
      <trkpt lat="48.88129" lon="2.37456">
        <ele>119</ele>
        <time>2013-08-06T18:44:07.000Z</time>
      </trkpt>
      <trkpt lat="48.88128" lon="2.3746">
        <ele>119.6</ele>
        <time>2013-08-06T18:44:08.000Z</time>
      </trkpt>
      <trkpt lat="48.88127" lon="2.37464">
        <ele>120.2</ele>
        <time>2013-08-06T18:44:09.000Z</time>
      </trkpt>
      <trkpt lat="48.88126" lon="2.37467">
        <ele>120.7</ele>
        <time>2013-08-06T18:44:10.000Z</time>
      </trkpt>
      <trkpt lat="48.88126" lon="2.37471">
        <ele>118.6</ele>
        <time>2013-08-06T18:44:11.000Z</time>
      </trkpt>
      <trkpt lat="48.88125" lon="2.37475">
        <ele>119.3</ele>
        <time>2013-08-06T18:44:12.000Z</time>
      </trkpt>
      <trkpt lat="48.88124" lon="2.37479">
        <ele>120.3</ele>
        <time>2013-08-06T18:44:13.000Z</time>
      </trkpt>
      <trkpt lat="48.88123" lon="2.37482">
        <ele>119.6</ele>
        <time>2013-08-06T18:44:14.000Z</time>
      </trkpt>
      <trkpt lat="48.88123" lon="2.37486">
        <ele>119</ele>
        <time>2013-08-06T18:44:15.000Z</time>
      </trkpt>
      <trkpt lat="48.88122" lon="2.37489">
        <ele>119.5</ele>
        <time>2013-08-06T18:44:16.000Z</time>
      </trkpt>
      <trkpt lat="48.88121" lon="2.37493">
        <ele>120</ele>
        <time>2013-08-06T18:44:17.000Z</time>
      </trkpt>
      <trkpt lat="48.8812" lon="2.37496">
        <ele>120.8</ele>
        <time>2013-08-06T18:44:18.000Z</time>
      </trkpt>
      <trkpt lat="48.88119" lon="2.375">
        <ele>121.7</ele>
        <time>2013-08-06T18:44:19.000Z</time>
      </trkpt>
      <trkpt lat="48.88117" lon="2.37502">
        <ele>121.8</ele>
        <time>2013-08-06T18:44:20.000Z</time>
      </trkpt>
      <trkpt lat="48.88116" lon="2.37505">
        <ele>122</ele>
        <time>2013-08-06T18:44:21.000Z</time>
      </trkpt>
      <trkpt lat="48.88114" lon="2.37508">
        <ele>121.4</ele>
        <time>2013-08-06T18:44:22.000Z</time>
      </trkpt>
      <trkpt lat="48.88113" lon="2.37511">
        <ele>120.6</ele>
        <time>2013-08-06T18:44:23.000Z</time>
      </trkpt>
      <trkpt lat="48.88111" lon="2.37514">
        <ele>121.1</ele>
        <time>2013-08-06T18:44:24.000Z</time>
      </trkpt>
      <trkpt lat="48.8811" lon="2.37517">
        <ele>120.9</ele>
        <time>2013-08-06T18:44:25.000Z</time>
      </trkpt>
      <trkpt lat="48.88108" lon="2.37521">
        <ele>120.7</ele>
        <time>2013-08-06T18:44:26.000Z</time>
      </trkpt>
      <trkpt lat="48.88107" lon="2.37526">
        <ele>118.7</ele>
        <time>2013-08-06T18:44:27.000Z</time>
      </trkpt>
      <trkpt lat="48.88107" lon="2.37531">
        <ele>118.9</ele>
        <time>2013-08-06T18:44:28.000Z</time>
      </trkpt>
      <trkpt lat="48.88106" lon="2.37536">
        <ele>118</ele>
        <time>2013-08-06T18:44:29.000Z</time>
      </trkpt>
      <trkpt lat="48.88104" lon="2.37541">
        <ele>116.8</ele>
        <time>2013-08-06T18:44:30.000Z</time>
      </trkpt>
      <trkpt lat="48.88103" lon="2.37546">
        <ele>116.9</ele>
        <time>2013-08-06T18:44:31.000Z</time>
      </trkpt>
      <trkpt lat="48.88101" lon="2.37551">
        <ele>116.6</ele>
        <time>2013-08-06T18:44:32.000Z</time>
      </trkpt>
      <trkpt lat="48.881" lon="2.37554">
        <ele>117.1</ele>
        <time>2013-08-06T18:44:33.000Z</time>
      </trkpt>
      <trkpt lat="48.88098" lon="2.37558">
        <ele>117.4</ele>
        <time>2013-08-06T18:44:34.000Z</time>
      </trkpt>
      <trkpt lat="48.88096" lon="2.3756">
        <ele>117.4</ele>
        <time>2013-08-06T18:44:35.000Z</time>
      </trkpt>
      <trkpt lat="48.88095" lon="2.37564">
        <ele>117.8</ele>
        <time>2013-08-06T18:44:36.000Z</time>
      </trkpt>
      <trkpt lat="48.88094" lon="2.37568">
        <ele>116.7</ele>
        <time>2013-08-06T18:44:37.000Z</time>
      </trkpt>
      <trkpt lat="48.88093" lon="2.37572">
        <ele>116.4</ele>
        <time>2013-08-06T18:44:38.000Z</time>
      </trkpt>
      <trkpt lat="48.88092" lon="2.37576">
        <ele>116.3</ele>
        <time>2013-08-06T18:44:39.000Z</time>
      </trkpt>
      <trkpt lat="48.88091" lon="2.37579">
        <ele>116.8</ele>
        <time>2013-08-06T18:44:40.000Z</time>
      </trkpt>
      <trkpt lat="48.8809" lon="2.37583">
        <ele>117.1</ele>
        <time>2013-08-06T18:44:41.000Z</time>
      </trkpt>
      <trkpt lat="48.8809" lon="2.37586">
        <ele>118.3</ele>
        <time>2013-08-06T18:44:42.000Z</time>
      </trkpt>
      <trkpt lat="48.8809" lon="2.37592">
        <ele>118.4</ele>
        <time>2013-08-06T18:44:44.000Z</time>
      </trkpt>
      <trkpt lat="48.88089" lon="2.37595">
        <ele>119.3</ele>
        <time>2013-08-06T18:44:45.000Z</time>
      </trkpt>
      <trkpt lat="48.88087" lon="2.37599">
        <ele>119.9</ele>
        <time>2013-08-06T18:44:46.000Z</time>
      </trkpt>
      <trkpt lat="48.88086" lon="2.37603">
        <ele>121</ele>
        <time>2013-08-06T18:44:47.000Z</time>
      </trkpt>
      <trkpt lat="48.88083" lon="2.37606">
        <ele>120.2</ele>
        <time>2013-08-06T18:44:48.000Z</time>
      </trkpt>
      <trkpt lat="48.88081" lon="2.3761">
        <ele>120.9</ele>
        <time>2013-08-06T18:44:49.000Z</time>
      </trkpt>
      <trkpt lat="48.88078" lon="2.37613">
        <ele>121.3</ele>
        <time>2013-08-06T18:44:50.000Z</time>
      </trkpt>
      <trkpt lat="48.88076" lon="2.37617">
        <ele>121.9</ele>
        <time>2013-08-06T18:44:51.000Z</time>
      </trkpt>
      <trkpt lat="48.88073" lon="2.3762">
        <ele>121.3</ele>
        <time>2013-08-06T18:44:52.000Z</time>
      </trkpt>
      <trkpt lat="48.8807" lon="2.37623">
        <ele>119.6</ele>
        <time>2013-08-06T18:44:53.000Z</time>
      </trkpt>
      <trkpt lat="48.88068" lon="2.37627">
        <ele>120.3</ele>
        <time>2013-08-06T18:44:54.000Z</time>
      </trkpt>
      <trkpt lat="48.88066" lon="2.37631">
        <ele>120.6</ele>
        <time>2013-08-06T18:44:55.000Z</time>
      </trkpt>
      <trkpt lat="48.88064" lon="2.37635">
        <ele>120</ele>
        <time>2013-08-06T18:44:56.000Z</time>
      </trkpt>
      <trkpt lat="48.88062" lon="2.37639">
        <ele>120.3</ele>
        <time>2013-08-06T18:44:57.000Z</time>
      </trkpt>
      <trkpt lat="48.8806" lon="2.37643">
        <ele>121.4</ele>
        <time>2013-08-06T18:44:58.000Z</time>
      </trkpt>
      <trkpt lat="48.88059" lon="2.37646">
        <ele>122.1</ele>
        <time>2013-08-06T18:44:59.000Z</time>
      </trkpt>
      <trkpt lat="48.88056" lon="2.37651">
        <ele>121.7</ele>
        <time>2013-08-06T18:45:15.000Z</time>
      </trkpt>
      <trkpt lat="48.88056" lon="2.37653">
        <ele>121.6</ele>
        <time>2013-08-06T18:45:16.000Z</time>
      </trkpt>
      <trkpt lat="48.88056" lon="2.37657">
        <ele>125.3</ele>
        <time>2013-08-06T18:45:18.000Z</time>
      </trkpt>
      <trkpt lat="48.88056" lon="2.3766">
        <ele>125.4</ele>
        <time>2013-08-06T18:45:19.000Z</time>
      </trkpt>
      <trkpt lat="48.88057" lon="2.37666">
        <ele>125</ele>
        <time>2013-08-06T18:45:21.000Z</time>
      </trkpt>
      <trkpt lat="48.88058" lon="2.37669">
        <ele>125.1</ele>
        <time>2013-08-06T18:45:22.000Z</time>
      </trkpt>
      <trkpt lat="48.8806" lon="2.37672">
        <ele>124.7</ele>
        <time>2013-08-06T18:45:23.000Z</time>
      </trkpt>
      <trkpt lat="48.88061" lon="2.37675">
        <ele>124.4</ele>
        <time>2013-08-06T18:45:24.000Z</time>
      </trkpt>
      <trkpt lat="48.88063" lon="2.37678">
        <ele>125.3</ele>
        <time>2013-08-06T18:45:25.000Z</time>
      </trkpt>
      <trkpt lat="48.88064" lon="2.37682">
        <ele>124.6</ele>
        <time>2013-08-06T18:45:26.000Z</time>
      </trkpt>
      <trkpt lat="48.88066" lon="2.37685">
        <ele>124.3</ele>
        <time>2013-08-06T18:45:27.000Z</time>
      </trkpt>
      <trkpt lat="48.88068" lon="2.37689">
        <ele>124.5</ele>
        <time>2013-08-06T18:45:28.000Z</time>
      </trkpt>
      <trkpt lat="48.8807" lon="2.37694">
        <ele>124.9</ele>
        <time>2013-08-06T18:45:29.000Z</time>
      </trkpt>
      <trkpt lat="48.88072" lon="2.37698">
        <ele>124.7</ele>
        <time>2013-08-06T18:45:30.000Z</time>
      </trkpt>
      <trkpt lat="48.88073" lon="2.37703">
        <ele>124.6</ele>
        <time>2013-08-06T18:45:31.000Z</time>
      </trkpt>
      <trkpt lat="48.88075" lon="2.37707">
        <ele>124.7</ele>
        <time>2013-08-06T18:45:32.000Z</time>
      </trkpt>
      <trkpt lat="48.88077" lon="2.37712">
        <ele>125.1</ele>
        <time>2013-08-06T18:45:33.000Z</time>
      </trkpt>
      <trkpt lat="48.88079" lon="2.37716">
        <ele>125</ele>
        <time>2013-08-06T18:45:34.000Z</time>
      </trkpt>
      <trkpt lat="48.88081" lon="2.37721">
        <ele>124.8</ele>
        <time>2013-08-06T18:45:35.000Z</time>
      </trkpt>
      <trkpt lat="48.88083" lon="2.37726">
        <ele>124.6</ele>
        <time>2013-08-06T18:45:36.000Z</time>
      </trkpt>
      <trkpt lat="48.88085" lon="2.37731">
        <ele>125</ele>
        <time>2013-08-06T18:45:37.000Z</time>
      </trkpt>
      <trkpt lat="48.88087" lon="2.37736">
        <ele>125.4</ele>
        <time>2013-08-06T18:45:38.000Z</time>
      </trkpt>
      <trkpt lat="48.88089" lon="2.3774">
        <ele>124.7</ele>
        <time>2013-08-06T18:45:39.000Z</time>
      </trkpt>
      <trkpt lat="48.88091" lon="2.37745">
        <ele>123.9</ele>
        <time>2013-08-06T18:45:40.000Z</time>
      </trkpt>
      <trkpt lat="48.88093" lon="2.37749">
        <ele>124.5</ele>
        <time>2013-08-06T18:45:41.000Z</time>
      </trkpt>
      <trkpt lat="48.88094" lon="2.37754">
        <ele>124</ele>
        <time>2013-08-06T18:45:42.000Z</time>
      </trkpt>
      <trkpt lat="48.88096" lon="2.37758">
        <ele>124.7</ele>
        <time>2013-08-06T18:45:43.000Z</time>
      </trkpt>
      <trkpt lat="48.88098" lon="2.37762">
        <ele>125</ele>
        <time>2013-08-06T18:45:44.000Z</time>
      </trkpt>
      <trkpt lat="48.881" lon="2.37766">
        <ele>125.2</ele>
        <time>2013-08-06T18:45:45.000Z</time>
      </trkpt>
      <trkpt lat="48.88103" lon="2.37771">
        <ele>124.9</ele>
        <time>2013-08-06T18:45:46.000Z</time>
      </trkpt>
      <trkpt lat="48.88105" lon="2.37775">
        <ele>124.8</ele>
        <time>2013-08-06T18:45:47.000Z</time>
      </trkpt>
      <trkpt lat="48.88107" lon="2.37781">
        <ele>125.8</ele>
        <time>2013-08-06T18:45:48.000Z</time>
      </trkpt>
      <trkpt lat="48.88109" lon="2.37786">
        <ele>126.7</ele>
        <time>2013-08-06T18:45:49.000Z</time>
      </trkpt>
      <trkpt lat="48.88111" lon="2.37791">
        <ele>127.2</ele>
        <time>2013-08-06T18:45:50.000Z</time>
      </trkpt>
      <trkpt lat="48.88113" lon="2.37797">
        <ele>127.5</ele>
        <time>2013-08-06T18:45:51.000Z</time>
      </trkpt>
      <trkpt lat="48.88114" lon="2.37804">
        <ele>127</ele>
        <time>2013-08-06T18:45:52.000Z</time>
      </trkpt>
      <trkpt lat="48.88115" lon="2.3781">
        <ele>126.8</ele>
        <time>2013-08-06T18:45:53.000Z</time>
      </trkpt>
      <trkpt lat="48.88116" lon="2.37817">
        <ele>125.3</ele>
        <time>2013-08-06T18:45:54.000Z</time>
      </trkpt>
      <trkpt lat="48.88117" lon="2.37823">
        <ele>125.5</ele>
        <time>2013-08-06T18:45:55.000Z</time>
      </trkpt>
      <trkpt lat="48.88118" lon="2.37829">
        <ele>125.8</ele>
        <time>2013-08-06T18:45:56.000Z</time>
      </trkpt>
      <trkpt lat="48.88119" lon="2.37835">
        <ele>125.2</ele>
        <time>2013-08-06T18:45:57.000Z</time>
      </trkpt>
      <trkpt lat="48.8812" lon="2.37841">
        <ele>125.7</ele>
        <time>2013-08-06T18:45:58.000Z</time>
      </trkpt>
      <trkpt lat="48.88121" lon="2.37847">
        <ele>126.3</ele>
        <time>2013-08-06T18:45:59.000Z</time>
      </trkpt>
      <trkpt lat="48.88122" lon="2.37853">
        <ele>126.5</ele>
        <time>2013-08-06T18:46:00.000Z</time>
      </trkpt>
      <trkpt lat="48.88123" lon="2.37858">
        <ele>127.3</ele>
        <time>2013-08-06T18:46:01.000Z</time>
      </trkpt>
      <trkpt lat="48.88124" lon="2.37863">
        <ele>127.9</ele>
        <time>2013-08-06T18:46:02.000Z</time>
      </trkpt>
      <trkpt lat="48.88124" lon="2.37869">
        <ele>127.9</ele>
        <time>2013-08-06T18:46:03.000Z</time>
      </trkpt>
      <trkpt lat="48.88123" lon="2.37873">
        <ele>128.6</ele>
        <time>2013-08-06T18:46:04.000Z</time>
      </trkpt>
      <trkpt lat="48.88121" lon="2.37878">
        <ele>128.2</ele>
        <time>2013-08-06T18:46:05.000Z</time>
      </trkpt>
      <trkpt lat="48.88119" lon="2.37881">
        <ele>127.2</ele>
        <time>2013-08-06T18:46:06.000Z</time>
      </trkpt>
      <trkpt lat="48.88116" lon="2.37884">
        <ele>126.2</ele>
        <time>2013-08-06T18:46:07.000Z</time>
      </trkpt>
      <trkpt lat="48.88112" lon="2.37887">
        <ele>125.9</ele>
        <time>2013-08-06T18:46:08.000Z</time>
      </trkpt>
      <trkpt lat="48.88108" lon="2.37889">
        <ele>125.2</ele>
        <time>2013-08-06T18:46:09.000Z</time>
      </trkpt>
      <trkpt lat="48.88105" lon="2.37891">
        <ele>125</ele>
        <time>2013-08-06T18:46:10.000Z</time>
      </trkpt>
      <trkpt lat="48.88102" lon="2.37894">
        <ele>126.2</ele>
        <time>2013-08-06T18:46:11.000Z</time>
      </trkpt>
      <trkpt lat="48.88099" lon="2.37897">
        <ele>125.5</ele>
        <time>2013-08-06T18:46:12.000Z</time>
      </trkpt>
      <trkpt lat="48.88095" lon="2.37899">
        <ele>125.3</ele>
        <time>2013-08-06T18:46:13.000Z</time>
      </trkpt>
      <trkpt lat="48.88092" lon="2.37902">
        <ele>123.5</ele>
        <time>2013-08-06T18:46:14.000Z</time>
      </trkpt>
      <trkpt lat="48.88089" lon="2.37905">
        <ele>122.4</ele>
        <time>2013-08-06T18:46:15.000Z</time>
      </trkpt>
      <trkpt lat="48.88086" lon="2.3791">
        <ele>122.7</ele>
        <time>2013-08-06T18:46:16.000Z</time>
      </trkpt>
      <trkpt lat="48.88083" lon="2.37914">
        <ele>122.4</ele>
        <time>2013-08-06T18:46:17.000Z</time>
      </trkpt>
      <trkpt lat="48.88081" lon="2.37918">
        <ele>123.4</ele>
        <time>2013-08-06T18:46:18.000Z</time>
      </trkpt>
      <trkpt lat="48.88078" lon="2.37922">
        <ele>122</ele>
        <time>2013-08-06T18:46:19.000Z</time>
      </trkpt>
      <trkpt lat="48.88075" lon="2.37927">
        <ele>121.6</ele>
        <time>2013-08-06T18:46:20.000Z</time>
      </trkpt>
      <trkpt lat="48.88072" lon="2.3793">
        <ele>123.7</ele>
        <time>2013-08-06T18:46:21.000Z</time>
      </trkpt>
      <trkpt lat="48.88069" lon="2.37933">
        <ele>123.4</ele>
        <time>2013-08-06T18:46:22.000Z</time>
      </trkpt>
      <trkpt lat="48.88065" lon="2.37935">
        <ele>123.6</ele>
        <time>2013-08-06T18:46:23.000Z</time>
      </trkpt>
      <trkpt lat="48.88062" lon="2.37938">
        <ele>124.9</ele>
        <time>2013-08-06T18:46:24.000Z</time>
      </trkpt>
      <trkpt lat="48.88059" lon="2.37941">
        <ele>126.2</ele>
        <time>2013-08-06T18:46:25.000Z</time>
      </trkpt>
      <trkpt lat="48.88057" lon="2.37945">
        <ele>126.4</ele>
        <time>2013-08-06T18:46:26.000Z</time>
      </trkpt>
      <trkpt lat="48.88055" lon="2.37949">
        <ele>126.6</ele>
        <time>2013-08-06T18:46:27.000Z</time>
      </trkpt>
      <trkpt lat="48.88052" lon="2.37952">
        <ele>125.9</ele>
        <time>2013-08-06T18:46:28.000Z</time>
      </trkpt>
      <trkpt lat="48.8805" lon="2.37955">
        <ele>125.6</ele>
        <time>2013-08-06T18:46:29.000Z</time>
      </trkpt>
      <trkpt lat="48.88048" lon="2.37956">
        <ele>125.9</ele>
        <time>2013-08-06T18:46:30.000Z</time>
      </trkpt>
      <trkpt lat="48.88044" lon="2.37955">
        <ele>125.8</ele>
        <time>2013-08-06T18:46:58.000Z</time>
      </trkpt>
      <trkpt lat="48.88043" lon="2.37956">
        <ele>124.6</ele>
        <time>2013-08-06T18:46:59.000Z</time>
      </trkpt>
      <trkpt lat="48.88039" lon="2.37957">
        <ele>124.6</ele>
        <time>2013-08-06T18:47:02.000Z</time>
      </trkpt>
      <trkpt lat="48.88038" lon="2.37957">
        <ele>124</ele>
        <time>2013-08-06T18:47:03.000Z</time>
      </trkpt>
      <trkpt lat="48.88034" lon="2.37961">
        <ele>124</ele>
        <time>2013-08-06T18:47:08.000Z</time>
      </trkpt>
      <trkpt lat="48.88034" lon="2.37962">
        <ele>123</ele>
        <time>2013-08-06T18:47:09.000Z</time>
      </trkpt>
      <trkpt lat="48.88031" lon="2.37965">
        <ele>122.9</ele>
        <time>2013-08-06T18:47:12.000Z</time>
      </trkpt>
      <trkpt lat="48.8803" lon="2.37966">
        <ele>123</ele>
        <time>2013-08-06T18:47:13.000Z</time>
      </trkpt>
      <trkpt lat="48.88027" lon="2.3797">
        <ele>124.1</ele>
        <time>2013-08-06T18:47:16.000Z</time>
      </trkpt>
      <trkpt lat="48.88026" lon="2.37971">
        <ele>124.3</ele>
        <time>2013-08-06T18:47:17.000Z</time>
      </trkpt>
      <trkpt lat="48.88025" lon="2.37978">
        <ele>126.1</ele>
        <time>2013-08-06T18:47:31.000Z</time>
      </trkpt>
      <trkpt lat="48.88027" lon="2.3798">
        <ele>126.6</ele>
        <time>2013-08-06T18:47:32.000Z</time>
      </trkpt>
      <trkpt lat="48.88029" lon="2.37985">
        <ele>129.3</ele>
        <time>2013-08-06T18:47:34.000Z</time>
      </trkpt>
      <trkpt lat="48.8803" lon="2.37987">
        <ele>130</ele>
        <time>2013-08-06T18:47:35.000Z</time>
      </trkpt>
      <trkpt lat="48.88032" lon="2.37992">
        <ele>131.4</ele>
        <time>2013-08-06T18:47:37.000Z</time>
      </trkpt>
      <trkpt lat="48.88034" lon="2.37995">
        <ele>131.7</ele>
        <time>2013-08-06T18:47:38.000Z</time>
      </trkpt>
      <trkpt lat="48.88036" lon="2.37999">
        <ele>131.2</ele>
        <time>2013-08-06T18:47:40.000Z</time>
      </trkpt>
      <trkpt lat="48.88036" lon="2.38001">
        <ele>129.4</ele>
        <time>2013-08-06T18:47:41.000Z</time>
      </trkpt>
      <trkpt lat="48.88035" lon="2.38007">
        <ele>122.8</ele>
        <time>2013-08-06T18:47:43.000Z</time>
      </trkpt>
      <trkpt lat="48.88034" lon="2.38009">
        <ele>121.5</ele>
        <time>2013-08-06T18:47:44.000Z</time>
      </trkpt>
      <trkpt lat="48.88033" lon="2.38015">
        <ele>120.4</ele>
        <time>2013-08-06T18:47:46.000Z</time>
      </trkpt>
      <trkpt lat="48.88032" lon="2.38018">
        <ele>120.3</ele>
        <time>2013-08-06T18:47:47.000Z</time>
      </trkpt>
      <trkpt lat="48.88031" lon="2.38024">
        <ele>120.6</ele>
        <time>2013-08-06T18:47:49.000Z</time>
      </trkpt>
      <trkpt lat="48.8803" lon="2.38027">
        <ele>120.3</ele>
        <time>2013-08-06T18:47:50.000Z</time>
      </trkpt>
      <trkpt lat="48.88029" lon="2.3803">
        <ele>119.9</ele>
        <time>2013-08-06T18:47:51.000Z</time>
      </trkpt>
      <trkpt lat="48.88028" lon="2.38033">
        <ele>119</ele>
        <time>2013-08-06T18:47:52.000Z</time>
      </trkpt>
      <trkpt lat="48.88028" lon="2.38037">
        <ele>118.9</ele>
        <time>2013-08-06T18:47:53.000Z</time>
      </trkpt>
      <trkpt lat="48.88027" lon="2.38041">
        <ele>118.7</ele>
        <time>2013-08-06T18:47:54.000Z</time>
      </trkpt>
      <trkpt lat="48.88026" lon="2.38047">
        <ele>119.1</ele>
        <time>2013-08-06T18:47:56.000Z</time>
      </trkpt>
      <trkpt lat="48.88026" lon="2.38049">
        <ele>119.3</ele>
        <time>2013-08-06T18:47:57.000Z</time>
      </trkpt>
      <trkpt lat="48.88026" lon="2.38056">
        <ele>118.3</ele>
        <time>2013-08-06T18:48:00.000Z</time>
      </trkpt>
      <trkpt lat="48.88026" lon="2.38058">
        <ele>117.6</ele>
        <time>2013-08-06T18:48:01.000Z</time>
      </trkpt>
      <trkpt lat="48.88026" lon="2.38064">
        <ele>118</ele>
        <time>2013-08-06T18:48:04.000Z</time>
      </trkpt>
      <trkpt lat="48.88026" lon="2.38066">
        <ele>117.8</ele>
        <time>2013-08-06T18:48:05.000Z</time>
      </trkpt>
      <trkpt lat="48.88027" lon="2.38071">
        <ele>118.4</ele>
        <time>2013-08-06T18:48:08.000Z</time>
      </trkpt>
      <trkpt lat="48.88028" lon="2.38073">
        <ele>118.6</ele>
        <time>2013-08-06T18:48:09.000Z</time>
      </trkpt>
      <trkpt lat="48.8803" lon="2.38078">
        <ele>118.1</ele>
        <time>2013-08-06T18:48:12.000Z</time>
      </trkpt>
      <trkpt lat="48.8803" lon="2.38079">
        <ele>117.7</ele>
        <time>2013-08-06T18:48:13.000Z</time>
      </trkpt>
      <trkpt lat="48.88031" lon="2.38085">
        <ele>120.3</ele>
        <time>2013-08-06T18:48:17.000Z</time>
      </trkpt>
      <trkpt lat="48.88031" lon="2.38087">
        <ele>120.1</ele>
        <time>2013-08-06T18:48:18.000Z</time>
      </trkpt>
      <trkpt lat="48.88033" lon="2.38091">
        <ele>120.7</ele>
        <time>2013-08-06T18:48:21.000Z</time>
      </trkpt>
      <trkpt lat="48.88034" lon="2.38093">
        <ele>120.8</ele>
        <time>2013-08-06T18:48:22.000Z</time>
      </trkpt>
      <trkpt lat="48.88037" lon="2.38097">
        <ele>120.4</ele>
        <time>2013-08-06T18:48:24.000Z</time>
      </trkpt>
      <trkpt lat="48.88038" lon="2.38098">
        <ele>121</ele>
        <time>2013-08-06T18:48:25.000Z</time>
      </trkpt>
      <trkpt lat="48.88041" lon="2.38101">
        <ele>120.5</ele>
        <time>2013-08-06T18:48:27.000Z</time>
      </trkpt>
      <trkpt lat="48.88043" lon="2.38102">
        <ele>119.4</ele>
        <time>2013-08-06T18:48:28.000Z</time>
      </trkpt>
      <trkpt lat="48.88046" lon="2.38104">
        <ele>118.9</ele>
        <time>2013-08-06T18:48:30.000Z</time>
      </trkpt>
      <trkpt lat="48.88048" lon="2.38105">
        <ele>117.8</ele>
        <time>2013-08-06T18:48:31.000Z</time>
      </trkpt>
      <trkpt lat="48.88051" lon="2.38106">
        <ele>118</ele>
        <time>2013-08-06T18:48:33.000Z</time>
      </trkpt>
      <trkpt lat="48.88053" lon="2.38107">
        <ele>117.9</ele>
        <time>2013-08-06T18:48:34.000Z</time>
      </trkpt>
      <trkpt lat="48.88056" lon="2.38108">
        <ele>119.2</ele>
        <time>2013-08-06T18:48:36.000Z</time>
      </trkpt>
      <trkpt lat="48.88058" lon="2.38109">
        <ele>118.7</ele>
        <time>2013-08-06T18:48:37.000Z</time>
      </trkpt>
      <trkpt lat="48.88061" lon="2.3811">
        <ele>119.9</ele>
        <time>2013-08-06T18:48:40.000Z</time>
      </trkpt>
      <trkpt lat="48.88063" lon="2.38111">
        <ele>119.8</ele>
        <time>2013-08-06T18:48:41.000Z</time>
      </trkpt>
      <trkpt lat="48.88066" lon="2.38112">
        <ele>120.1</ele>
        <time>2013-08-06T18:48:43.000Z</time>
      </trkpt>
      <trkpt lat="48.88069" lon="2.38113">
        <ele>120</ele>
        <time>2013-08-06T18:48:44.000Z</time>
      </trkpt>
      <trkpt lat="48.88071" lon="2.38113">
        <ele>119.6</ele>
        <time>2013-08-06T18:48:45.000Z</time>
      </trkpt>
      <trkpt lat="48.88073" lon="2.38113">
        <ele>120.9</ele>
        <time>2013-08-06T18:48:46.000Z</time>
      </trkpt>
      <trkpt lat="48.88076" lon="2.38113">
        <ele>121.1</ele>
        <time>2013-08-06T18:48:47.000Z</time>
      </trkpt>
      <trkpt lat="48.88078" lon="2.38113">
        <ele>121.4</ele>
        <time>2013-08-06T18:48:48.000Z</time>
      </trkpt>
      <trkpt lat="48.88082" lon="2.38112">
        <ele>120.8</ele>
        <time>2013-08-06T18:48:50.000Z</time>
      </trkpt>
      <trkpt lat="48.88084" lon="2.38112">
        <ele>120.2</ele>
        <time>2013-08-06T18:48:51.000Z</time>
      </trkpt>
      <trkpt lat="48.88088" lon="2.38111">
        <ele>118.9</ele>
        <time>2013-08-06T18:48:53.000Z</time>
      </trkpt>
      <trkpt lat="48.88089" lon="2.38111">
        <ele>119.2</ele>
        <time>2013-08-06T18:48:54.000Z</time>
      </trkpt>
      <trkpt lat="48.88093" lon="2.38111">
        <ele>119.5</ele>
        <time>2013-08-06T18:48:56.000Z</time>
      </trkpt>
      <trkpt lat="48.88094" lon="2.38112">
        <ele>119.6</ele>
        <time>2013-08-06T18:48:57.000Z</time>
      </trkpt>
      <trkpt lat="48.88097" lon="2.38116">
        <ele>118.4</ele>
        <time>2013-08-06T18:49:04.000Z</time>
      </trkpt>
      <trkpt lat="48.88098" lon="2.38117">
        <ele>118.7</ele>
        <time>2013-08-06T18:49:05.000Z</time>
      </trkpt>
      <trkpt lat="48.881" lon="2.38122">
        <ele>119.3</ele>
        <time>2013-08-06T18:49:30.000Z</time>
      </trkpt>
      <trkpt lat="48.881" lon="2.38123">
        <ele>119.1</ele>
        <time>2013-08-06T18:49:31.000Z</time>
      </trkpt>
      <trkpt lat="48.881" lon="2.38129">
        <ele>118.8</ele>
        <time>2013-08-06T18:50:18.000Z</time>
      </trkpt>
      <trkpt lat="48.88101" lon="2.38132">
        <ele>118.1</ele>
        <time>2013-08-06T18:50:19.000Z</time>
      </trkpt>
      <trkpt lat="48.88101" lon="2.38137">
        <ele>117.7</ele>
        <time>2013-08-06T18:50:21.000Z</time>
      </trkpt>
      <trkpt lat="48.88101" lon="2.3814">
        <ele>120.4</ele>
        <time>2013-08-06T18:50:22.000Z</time>
      </trkpt>
      <trkpt lat="48.88102" lon="2.38145">
        <ele>119.1</ele>
        <time>2013-08-06T18:50:24.000Z</time>
      </trkpt>
      <trkpt lat="48.88102" lon="2.38147">
        <ele>118.1</ele>
        <time>2013-08-06T18:50:25.000Z</time>
      </trkpt>
      <trkpt lat="48.88102" lon="2.38152">
        <ele>116.5</ele>
        <time>2013-08-06T18:50:27.000Z</time>
      </trkpt>
      <trkpt lat="48.88102" lon="2.38154">
        <ele>117.4</ele>
        <time>2013-08-06T18:50:28.000Z</time>
      </trkpt>
      <trkpt lat="48.88102" lon="2.38159">
        <ele>116.9</ele>
        <time>2013-08-06T18:50:30.000Z</time>
      </trkpt>
      <trkpt lat="48.88102" lon="2.38161">
        <ele>117.3</ele>
        <time>2013-08-06T18:50:31.000Z</time>
      </trkpt>
      <trkpt lat="48.88103" lon="2.38166">
        <ele>117.8</ele>
        <time>2013-08-06T18:50:33.000Z</time>
      </trkpt>
      <trkpt lat="48.88103" lon="2.38168">
        <ele>116.7</ele>
        <time>2013-08-06T18:50:34.000Z</time>
      </trkpt>
      <trkpt lat="48.88102" lon="2.38173">
        <ele>116.2</ele>
        <time>2013-08-06T18:50:36.000Z</time>
      </trkpt>
      <trkpt lat="48.88102" lon="2.38175">
        <ele>116.2</ele>
        <time>2013-08-06T18:50:37.000Z</time>
      </trkpt>
      <trkpt lat="48.88102" lon="2.38181">
        <ele>113.6</ele>
        <time>2013-08-06T18:50:44.000Z</time>
      </trkpt>
      <trkpt lat="48.88102" lon="2.38183">
        <ele>112.9</ele>
        <time>2013-08-06T18:50:45.000Z</time>
      </trkpt>
      <trkpt lat="48.88102" lon="2.38188">
        <ele>112.5</ele>
        <time>2013-08-06T18:50:47.000Z</time>
      </trkpt>
      <trkpt lat="48.88103" lon="2.38191">
        <ele>111.5</ele>
        <time>2013-08-06T18:50:48.000Z</time>
      </trkpt>
      <trkpt lat="48.88102" lon="2.38195">
        <ele>111.2</ele>
        <time>2013-08-06T18:50:50.000Z</time>
      </trkpt>
      <trkpt lat="48.88102" lon="2.38198">
        <ele>111.6</ele>
        <time>2013-08-06T18:50:51.000Z</time>
      </trkpt>
      <trkpt lat="48.88103" lon="2.38203">
        <ele>111</ele>
        <time>2013-08-06T18:50:53.000Z</time>
      </trkpt>
      <trkpt lat="48.88103" lon="2.38206">
        <ele>110.9</ele>
        <time>2013-08-06T18:50:54.000Z</time>
      </trkpt>
      <trkpt lat="48.88103" lon="2.38211">
        <ele>110.2</ele>
        <time>2013-08-06T18:50:56.000Z</time>
      </trkpt>
      <trkpt lat="48.88103" lon="2.38213">
        <ele>110.3</ele>
        <time>2013-08-06T18:50:57.000Z</time>
      </trkpt>
      <trkpt lat="48.88104" lon="2.38218">
        <ele>110.2</ele>
        <time>2013-08-06T18:50:59.000Z</time>
      </trkpt>
      <trkpt lat="48.88104" lon="2.38221">
        <ele>110.1</ele>
        <time>2013-08-06T18:51:00.000Z</time>
      </trkpt>
      <trkpt lat="48.88104" lon="2.38227">
        <ele>110.2</ele>
        <time>2013-08-06T18:51:03.000Z</time>
      </trkpt>
      <trkpt lat="48.88104" lon="2.38229">
        <ele>110.9</ele>
        <time>2013-08-06T18:51:04.000Z</time>
      </trkpt>
      <trkpt lat="48.88102" lon="2.38234">
        <ele>110.6</ele>
        <time>2013-08-06T18:51:07.000Z</time>
      </trkpt>
      <trkpt lat="48.88102" lon="2.38236">
        <ele>110.6</ele>
        <time>2013-08-06T18:51:08.000Z</time>
      </trkpt>
      <trkpt lat="48.88099" lon="2.38241">
        <ele>111</ele>
        <time>2013-08-06T18:51:11.000Z</time>
      </trkpt>
      <trkpt lat="48.88099" lon="2.38242">
        <ele>110.4</ele>
        <time>2013-08-06T18:51:12.000Z</time>
      </trkpt>
      <trkpt lat="48.88095" lon="2.38245">
        <ele>108.7</ele>
        <time>2013-08-06T18:51:15.000Z</time>
      </trkpt>
      <trkpt lat="48.88094" lon="2.38245">
        <ele>109.3</ele>
        <time>2013-08-06T18:51:16.000Z</time>
      </trkpt>
      <trkpt lat="48.8809" lon="2.38248">
        <ele>110.7</ele>
        <time>2013-08-06T18:51:19.000Z</time>
      </trkpt>
      <trkpt lat="48.88089" lon="2.38249">
        <ele>110.4</ele>
        <time>2013-08-06T18:51:20.000Z</time>
      </trkpt>
      <trkpt lat="48.88087" lon="2.38254">
        <ele>110.1</ele>
        <time>2013-08-06T18:51:23.000Z</time>
      </trkpt>
      <trkpt lat="48.88086" lon="2.38256">
        <ele>109.5</ele>
        <time>2013-08-06T18:51:24.000Z</time>
      </trkpt>
      <trkpt lat="48.88084" lon="2.3826">
        <ele>110.6</ele>
        <time>2013-08-06T18:51:27.000Z</time>
      </trkpt>
      <trkpt lat="48.88084" lon="2.38262">
        <ele>110.3</ele>
        <time>2013-08-06T18:51:28.000Z</time>
      </trkpt>
      <trkpt lat="48.88081" lon="2.38266">
        <ele>111</ele>
        <time>2013-08-06T18:51:31.000Z</time>
      </trkpt>
      <trkpt lat="48.8808" lon="2.38267">
        <ele>112.4</ele>
        <time>2013-08-06T18:51:32.000Z</time>
      </trkpt>
      <trkpt lat="48.88077" lon="2.38271">
        <ele>112.6</ele>
        <time>2013-08-06T18:51:35.000Z</time>
      </trkpt>
      <trkpt lat="48.88076" lon="2.38272">
        <ele>112.7</ele>
        <time>2013-08-06T18:51:36.000Z</time>
      </trkpt>
      <trkpt lat="48.88072" lon="2.38276">
        <ele>114.2</ele>
        <time>2013-08-06T18:51:39.000Z</time>
      </trkpt>
      <trkpt lat="48.88071" lon="2.38278">
        <ele>113.8</ele>
        <time>2013-08-06T18:51:40.000Z</time>
      </trkpt>
      <trkpt lat="48.88068" lon="2.38281">
        <ele>113.6</ele>
        <time>2013-08-06T18:51:43.000Z</time>
      </trkpt>
      <trkpt lat="48.88067" lon="2.38282">
        <ele>114.3</ele>
        <time>2013-08-06T18:51:44.000Z</time>
      </trkpt>
      <trkpt lat="48.88064" lon="2.38283">
        <ele>113.9</ele>
        <time>2013-08-06T18:51:46.000Z</time>
      </trkpt>
      <trkpt lat="48.88061" lon="2.38285">
        <ele>114.3</ele>
        <time>2013-08-06T18:51:47.000Z</time>
      </trkpt>
      <trkpt lat="48.88058" lon="2.38287">
        <ele>113.3</ele>
        <time>2013-08-06T18:51:49.000Z</time>
      </trkpt>
      <trkpt lat="48.88056" lon="2.38289">
        <ele>113.7</ele>
        <time>2013-08-06T18:51:50.000Z</time>
      </trkpt>
      <trkpt lat="48.88052" lon="2.3829">
        <ele>112.7</ele>
        <time>2013-08-06T18:51:52.000Z</time>
      </trkpt>
      <trkpt lat="48.8805" lon="2.3829">
        <ele>113.5</ele>
        <time>2013-08-06T18:51:53.000Z</time>
      </trkpt>
      <trkpt lat="48.88046" lon="2.38291">
        <ele>113.9</ele>
        <time>2013-08-06T18:51:55.000Z</time>
      </trkpt>
      <trkpt lat="48.88044" lon="2.38291">
        <ele>114.4</ele>
        <time>2013-08-06T18:51:56.000Z</time>
      </trkpt>
      <trkpt lat="48.88041" lon="2.38292">
        <ele>115.4</ele>
        <time>2013-08-06T18:51:58.000Z</time>
      </trkpt>
      <trkpt lat="48.88039" lon="2.38293">
        <ele>115.5</ele>
        <time>2013-08-06T18:51:59.000Z</time>
      </trkpt>
      <trkpt lat="48.88035" lon="2.38295">
        <ele>118.8</ele>
        <time>2013-08-06T18:52:03.000Z</time>
      </trkpt>
      <trkpt lat="48.88035" lon="2.38296">
        <ele>119.5</ele>
        <time>2013-08-06T18:52:04.000Z</time>
      </trkpt>
      <trkpt lat="48.88033" lon="2.38301">
        <ele>124.5</ele>
        <time>2013-08-06T18:52:49.000Z</time>
      </trkpt>
      <trkpt lat="48.88032" lon="2.38301">
        <ele>124.6</ele>
        <time>2013-08-06T18:52:50.000Z</time>
      </trkpt>
      <trkpt lat="48.88029" lon="2.38302">
        <ele>125.8</ele>
        <time>2013-08-06T18:52:55.000Z</time>
      </trkpt>
      <trkpt lat="48.88027" lon="2.38302">
        <ele>125.9</ele>
        <time>2013-08-06T18:52:56.000Z</time>
      </trkpt>
      <trkpt lat="48.88024" lon="2.38303">
        <ele>127.3</ele>
        <time>2013-08-06T18:52:58.000Z</time>
      </trkpt>
      <trkpt lat="48.88022" lon="2.38303">
        <ele>126.8</ele>
        <time>2013-08-06T18:52:59.000Z</time>
      </trkpt>
      <trkpt lat="48.88018" lon="2.38304">
        <ele>126.5</ele>
        <time>2013-08-06T18:53:02.000Z</time>
      </trkpt>
      <trkpt lat="48.88017" lon="2.38304">
        <ele>126.9</ele>
        <time>2013-08-06T18:53:03.000Z</time>
      </trkpt>
      <trkpt lat="48.88013" lon="2.38305">
        <ele>128.1</ele>
        <time>2013-08-06T18:53:06.000Z</time>
      </trkpt>
      <trkpt lat="48.88012" lon="2.38305">
        <ele>128</ele>
        <time>2013-08-06T18:53:07.000Z</time>
      </trkpt>
      <trkpt lat="48.88009" lon="2.38303">
        <ele>128.2</ele>
        <time>2013-08-06T18:53:10.000Z</time>
      </trkpt>
      <trkpt lat="48.88007" lon="2.38303">
        <ele>128.2</ele>
        <time>2013-08-06T18:53:11.000Z</time>
      </trkpt>
      <trkpt lat="48.88005" lon="2.38302">
        <ele>129.5</ele>
        <time>2013-08-06T18:53:13.000Z</time>
      </trkpt>
      <trkpt lat="48.88003" lon="2.38303">
        <ele>130.7</ele>
        <time>2013-08-06T18:53:14.000Z</time>
      </trkpt>
      <trkpt lat="48.87999" lon="2.38302">
        <ele>131.5</ele>
        <time>2013-08-06T18:53:16.000Z</time>
      </trkpt>
      <trkpt lat="48.87997" lon="2.38301">
        <ele>132</ele>
        <time>2013-08-06T18:53:17.000Z</time>
      </trkpt>
      <trkpt lat="48.87994" lon="2.383">
        <ele>132.6</ele>
        <time>2013-08-06T18:53:19.000Z</time>
      </trkpt>
      <trkpt lat="48.87992" lon="2.383">
        <ele>132.7</ele>
        <time>2013-08-06T18:53:20.000Z</time>
      </trkpt>
      <trkpt lat="48.87989" lon="2.38299">
        <ele>132.7</ele>
        <time>2013-08-06T18:53:22.000Z</time>
      </trkpt>
      <trkpt lat="48.87987" lon="2.38299">
        <ele>132.6</ele>
        <time>2013-08-06T18:53:23.000Z</time>
      </trkpt>
      <trkpt lat="48.87983" lon="2.383">
        <ele>135.5</ele>
        <time>2013-08-06T18:53:26.000Z</time>
      </trkpt>
      <trkpt lat="48.87982" lon="2.38299">
        <ele>135.8</ele>
        <time>2013-08-06T18:53:27.000Z</time>
      </trkpt>
      <trkpt lat="48.87978" lon="2.38297">
        <ele>135</ele>
        <time>2013-08-06T18:53:30.000Z</time>
      </trkpt>
      <trkpt lat="48.87977" lon="2.38297">
        <ele>135.4</ele>
        <time>2013-08-06T18:53:31.000Z</time>
      </trkpt>
      <trkpt lat="48.87973" lon="2.38295">
        <ele>136.3</ele>
        <time>2013-08-06T18:53:34.000Z</time>
      </trkpt>
      <trkpt lat="48.87972" lon="2.38294">
        <ele>136.5</ele>
        <time>2013-08-06T18:53:35.000Z</time>
      </trkpt>
      <trkpt lat="48.87968" lon="2.38293">
        <ele>137.6</ele>
        <time>2013-08-06T18:53:39.000Z</time>
      </trkpt>
      <trkpt lat="48.87967" lon="2.38292">
        <ele>137.8</ele>
        <time>2013-08-06T18:53:40.000Z</time>
      </trkpt>
      <trkpt lat="48.87963" lon="2.3829">
        <ele>138.8</ele>
        <time>2013-08-06T18:53:44.000Z</time>
      </trkpt>
      <trkpt lat="48.87962" lon="2.38289">
        <ele>138.9</ele>
        <time>2013-08-06T18:53:45.000Z</time>
      </trkpt>
      <trkpt lat="48.87959" lon="2.38286">
        <ele>139.4</ele>
        <time>2013-08-06T18:53:49.000Z</time>
      </trkpt>
      <trkpt lat="48.87958" lon="2.38285">
        <ele>139</ele>
        <time>2013-08-06T18:53:50.000Z</time>
      </trkpt>
      <trkpt lat="48.87954" lon="2.38283">
        <ele>138.4</ele>
        <time>2013-08-06T18:53:54.000Z</time>
      </trkpt>
      <trkpt lat="48.87953" lon="2.38282">
        <ele>137.7</ele>
        <time>2013-08-06T18:53:55.000Z</time>
      </trkpt>
      <trkpt lat="48.8795" lon="2.38278">
        <ele>138.6</ele>
        <time>2013-08-06T18:53:59.000Z</time>
      </trkpt>
      <trkpt lat="48.8795" lon="2.38277">
        <ele>138</ele>
        <time>2013-08-06T18:54:00.000Z</time>
      </trkpt>
      <trkpt lat="48.87947" lon="2.38272">
        <ele>136.6</ele>
        <time>2013-08-06T18:54:04.000Z</time>
      </trkpt>
      <trkpt lat="48.87946" lon="2.38271">
        <ele>136.7</ele>
        <time>2013-08-06T18:54:05.000Z</time>
      </trkpt>
      <trkpt lat="48.87945" lon="2.38277">
        <ele>138.6</ele>
        <time>2013-08-06T18:54:24.000Z</time>
      </trkpt>
      <trkpt lat="48.87945" lon="2.3828">
        <ele>138.7</ele>
        <time>2013-08-06T18:54:25.000Z</time>
      </trkpt>
      <trkpt lat="48.87946" lon="2.38286">
        <ele>138.2</ele>
        <time>2013-08-06T18:54:28.000Z</time>
      </trkpt>
      <trkpt lat="48.87947" lon="2.38288">
        <ele>138.2</ele>
        <time>2013-08-06T18:54:29.000Z</time>
      </trkpt>
      <trkpt lat="48.87947" lon="2.38295">
        <ele>139</ele>
        <time>2013-08-06T18:54:32.000Z</time>
      </trkpt>
      <trkpt lat="48.87948" lon="2.38297">
        <ele>139.7</ele>
        <time>2013-08-06T18:54:33.000Z</time>
      </trkpt>
      <trkpt lat="48.87948" lon="2.38301">
        <ele>139.8</ele>
        <time>2013-08-06T18:54:35.000Z</time>
      </trkpt>
      <trkpt lat="48.87949" lon="2.38304">
        <ele>139.9</ele>
        <time>2013-08-06T18:54:36.000Z</time>
      </trkpt>
      <trkpt lat="48.87949" lon="2.38308">
        <ele>141.4</ele>
        <time>2013-08-06T18:54:38.000Z</time>
      </trkpt>
      <trkpt lat="48.87949" lon="2.38312">
        <ele>141.1</ele>
        <time>2013-08-06T18:54:39.000Z</time>
      </trkpt>
      <trkpt lat="48.87949" lon="2.38317">
        <ele>142.6</ele>
        <time>2013-08-06T18:54:41.000Z</time>
      </trkpt>
      <trkpt lat="48.8795" lon="2.3832">
        <ele>143</ele>
        <time>2013-08-06T18:54:42.000Z</time>
      </trkpt>
      <trkpt lat="48.87951" lon="2.38326">
        <ele>143.4</ele>
        <time>2013-08-06T18:54:44.000Z</time>
      </trkpt>
      <trkpt lat="48.87951" lon="2.38328">
        <ele>142.9</ele>
        <time>2013-08-06T18:54:45.000Z</time>
      </trkpt>
      <trkpt lat="48.87953" lon="2.38335">
        <ele>143.4</ele>
        <time>2013-08-06T18:54:47.000Z</time>
      </trkpt>
      <trkpt lat="48.87953" lon="2.38338">
        <ele>143.8</ele>
        <time>2013-08-06T18:54:48.000Z</time>
      </trkpt>
      <trkpt lat="48.87953" lon="2.38342">
        <ele>143.9</ele>
        <time>2013-08-06T18:54:49.000Z</time>
      </trkpt>
      <trkpt lat="48.87953" lon="2.38346">
        <ele>143.5</ele>
        <time>2013-08-06T18:54:50.000Z</time>
      </trkpt>
      <trkpt lat="48.87953" lon="2.38349">
        <ele>143.8</ele>
        <time>2013-08-06T18:54:51.000Z</time>
      </trkpt>
      <trkpt lat="48.87953" lon="2.38353">
        <ele>143.9</ele>
        <time>2013-08-06T18:54:52.000Z</time>
      </trkpt>
      <trkpt lat="48.87953" lon="2.38357">
        <ele>144.2</ele>
        <time>2013-08-06T18:54:53.000Z</time>
      </trkpt>
      <trkpt lat="48.87953" lon="2.3836">
        <ele>145.5</ele>
        <time>2013-08-06T18:54:54.000Z</time>
      </trkpt>
      <trkpt lat="48.87954" lon="2.38364">
        <ele>146.7</ele>
        <time>2013-08-06T18:54:55.000Z</time>
      </trkpt>
      <trkpt lat="48.87955" lon="2.38368">
        <ele>147.8</ele>
        <time>2013-08-06T18:54:56.000Z</time>
      </trkpt>
      <trkpt lat="48.87955" lon="2.38372">
        <ele>147.5</ele>
        <time>2013-08-06T18:54:57.000Z</time>
      </trkpt>
      <trkpt lat="48.87956" lon="2.38377">
        <ele>147.8</ele>
        <time>2013-08-06T18:54:58.000Z</time>
      </trkpt>
      <trkpt lat="48.87956" lon="2.38382">
        <ele>148.4</ele>
        <time>2013-08-06T18:54:59.000Z</time>
      </trkpt>
      <trkpt lat="48.87956" lon="2.38387">
        <ele>147.9</ele>
        <time>2013-08-06T18:55:00.000Z</time>
      </trkpt>
      <trkpt lat="48.87957" lon="2.38392">
        <ele>147.8</ele>
        <time>2013-08-06T18:55:01.000Z</time>
      </trkpt>
      <trkpt lat="48.87957" lon="2.38396">
        <ele>147</ele>
        <time>2013-08-06T18:55:02.000Z</time>
      </trkpt>
      <trkpt lat="48.87958" lon="2.38401">
        <ele>147.6</ele>
        <time>2013-08-06T18:55:03.000Z</time>
      </trkpt>
      <trkpt lat="48.87959" lon="2.38406">
        <ele>148.2</ele>
        <time>2013-08-06T18:55:04.000Z</time>
      </trkpt>
      <trkpt lat="48.8796" lon="2.3841">
        <ele>149.2</ele>
        <time>2013-08-06T18:55:05.000Z</time>
      </trkpt>
      <trkpt lat="48.87961" lon="2.38415">
        <ele>149.4</ele>
        <time>2013-08-06T18:55:06.000Z</time>
      </trkpt>
      <trkpt lat="48.87962" lon="2.3842">
        <ele>150</ele>
        <time>2013-08-06T18:55:07.000Z</time>
      </trkpt>
      <trkpt lat="48.87963" lon="2.38425">
        <ele>150.6</ele>
        <time>2013-08-06T18:55:08.000Z</time>
      </trkpt>
      <trkpt lat="48.87964" lon="2.3843">
        <ele>148.6</ele>
        <time>2013-08-06T18:55:09.000Z</time>
      </trkpt>
      <trkpt lat="48.87965" lon="2.38435">
        <ele>148.6</ele>
        <time>2013-08-06T18:55:10.000Z</time>
      </trkpt>
      <trkpt lat="48.87966" lon="2.3844">
        <ele>149</ele>
        <time>2013-08-06T18:55:11.000Z</time>
      </trkpt>
      <trkpt lat="48.87968" lon="2.38446">
        <ele>148.7</ele>
        <time>2013-08-06T18:55:12.000Z</time>
      </trkpt>
      <trkpt lat="48.87969" lon="2.38451">
        <ele>148.5</ele>
        <time>2013-08-06T18:55:13.000Z</time>
      </trkpt>
      <trkpt lat="48.8797" lon="2.38457">
        <ele>148.6</ele>
        <time>2013-08-06T18:55:14.000Z</time>
      </trkpt>
      <trkpt lat="48.87971" lon="2.38462">
        <ele>147.9</ele>
        <time>2013-08-06T18:55:15.000Z</time>
      </trkpt>
      <trkpt lat="48.87972" lon="2.38468">
        <ele>147.8</ele>
        <time>2013-08-06T18:55:16.000Z</time>
      </trkpt>
      <trkpt lat="48.87974" lon="2.38473">
        <ele>149.6</ele>
        <time>2013-08-06T18:55:17.000Z</time>
      </trkpt>
      <trkpt lat="48.87975" lon="2.38479">
        <ele>148.1</ele>
        <time>2013-08-06T18:55:18.000Z</time>
      </trkpt>
      <trkpt lat="48.87977" lon="2.38484">
        <ele>147.6</ele>
        <time>2013-08-06T18:55:19.000Z</time>
      </trkpt>
      <trkpt lat="48.87979" lon="2.3849">
        <ele>149.5</ele>
        <time>2013-08-06T18:55:20.000Z</time>
      </trkpt>
      <trkpt lat="48.87981" lon="2.38495">
        <ele>149.1</ele>
        <time>2013-08-06T18:55:21.000Z</time>
      </trkpt>
      <trkpt lat="48.87983" lon="2.385">
        <ele>148.7</ele>
        <time>2013-08-06T18:55:22.000Z</time>
      </trkpt>
      <trkpt lat="48.87985" lon="2.38506">
        <ele>148.6</ele>
        <time>2013-08-06T18:55:23.000Z</time>
      </trkpt>
      <trkpt lat="48.87987" lon="2.38512">
        <ele>145.5</ele>
        <time>2013-08-06T18:55:24.000Z</time>
      </trkpt>
      <trkpt lat="48.87989" lon="2.3852">
        <ele>143.8</ele>
        <time>2013-08-06T18:55:25.000Z</time>
      </trkpt>
      <trkpt lat="48.87988" lon="2.3853">
        <ele>143.4</ele>
        <time>2013-08-06T18:55:26.000Z</time>
      </trkpt>
      <trkpt lat="48.8799" lon="2.38537">
        <ele>143</ele>
        <time>2013-08-06T18:55:27.000Z</time>
      </trkpt>
      <trkpt lat="48.87992" lon="2.38544">
        <ele>141.9</ele>
        <time>2013-08-06T18:55:28.000Z</time>
      </trkpt>
      <trkpt lat="48.87994" lon="2.3855">
        <ele>140.4</ele>
        <time>2013-08-06T18:55:29.000Z</time>
      </trkpt>
      <trkpt lat="48.87995" lon="2.38557">
        <ele>139</ele>
        <time>2013-08-06T18:55:30.000Z</time>
      </trkpt>
      <trkpt lat="48.87998" lon="2.38563">
        <ele>138.2</ele>
        <time>2013-08-06T18:55:31.000Z</time>
      </trkpt>
      <trkpt lat="48.88" lon="2.38568">
        <ele>137.8</ele>
        <time>2013-08-06T18:55:32.000Z</time>
      </trkpt>
      <trkpt lat="48.88002" lon="2.38573">
        <ele>138.4</ele>
        <time>2013-08-06T18:55:33.000Z</time>
      </trkpt>
      <trkpt lat="48.88004" lon="2.38577">
        <ele>138.6</ele>
        <time>2013-08-06T18:55:34.000Z</time>
      </trkpt>
      <trkpt lat="48.88004" lon="2.38581">
        <ele>137.5</ele>
        <time>2013-08-06T18:55:35.000Z</time>
      </trkpt>
      <trkpt lat="48.88005" lon="2.38585">
        <ele>137.1</ele>
        <time>2013-08-06T18:55:36.000Z</time>
      </trkpt>
      <trkpt lat="48.88006" lon="2.3859">
        <ele>137.2</ele>
        <time>2013-08-06T18:55:37.000Z</time>
      </trkpt>
      <trkpt lat="48.88007" lon="2.38594">
        <ele>137</ele>
        <time>2013-08-06T18:55:38.000Z</time>
      </trkpt>
      <trkpt lat="48.88008" lon="2.386">
        <ele>137.4</ele>
        <time>2013-08-06T18:55:39.000Z</time>
      </trkpt>
      <trkpt lat="48.88008" lon="2.38602">
        <ele>137.9</ele>
        <time>2013-08-06T18:55:40.000Z</time>
      </trkpt>
      <trkpt lat="48.88008" lon="2.38606">
        <ele>137.5</ele>
        <time>2013-08-06T18:55:41.000Z</time>
      </trkpt>
      <trkpt lat="48.88008" lon="2.38611">
        <ele>137.9</ele>
        <time>2013-08-06T18:55:42.000Z</time>
      </trkpt>
      <trkpt lat="48.88009" lon="2.38615">
        <ele>138</ele>
        <time>2013-08-06T18:55:43.000Z</time>
      </trkpt>
      <trkpt lat="48.88009" lon="2.38619">
        <ele>136.4</ele>
        <time>2013-08-06T18:55:44.000Z</time>
      </trkpt>
      <trkpt lat="48.88009" lon="2.38624">
        <ele>137.3</ele>
        <time>2013-08-06T18:55:45.000Z</time>
      </trkpt>
      <trkpt lat="48.8801" lon="2.38628">
        <ele>138</ele>
        <time>2013-08-06T18:55:46.000Z</time>
      </trkpt>
      <trkpt lat="48.88011" lon="2.38632">
        <ele>138.2</ele>
        <time>2013-08-06T18:55:47.000Z</time>
      </trkpt>
      <trkpt lat="48.88012" lon="2.38635">
        <ele>139.9</ele>
        <time>2013-08-06T18:55:48.000Z</time>
      </trkpt>
      <trkpt lat="48.88013" lon="2.38638">
        <ele>141.7</ele>
        <time>2013-08-06T18:55:49.000Z</time>
      </trkpt>
      <trkpt lat="48.88015" lon="2.38643">
        <ele>144.8</ele>
        <time>2013-08-06T18:55:52.000Z</time>
      </trkpt>
      <trkpt lat="48.88016" lon="2.38645">
        <ele>145.2</ele>
        <time>2013-08-06T18:55:53.000Z</time>
      </trkpt>
      <trkpt lat="48.88016" lon="2.38649">
        <ele>142.5</ele>
        <time>2013-08-06T18:55:55.000Z</time>
      </trkpt>
      <trkpt lat="48.88016" lon="2.38652">
        <ele>142.5</ele>
        <time>2013-08-06T18:55:56.000Z</time>
      </trkpt>
      <trkpt lat="48.88016" lon="2.38656">
        <ele>142.6</ele>
        <time>2013-08-06T18:55:58.000Z</time>
      </trkpt>
      <trkpt lat="48.88015" lon="2.38659">
        <ele>141.4</ele>
        <time>2013-08-06T18:55:59.000Z</time>
      </trkpt>
      <trkpt lat="48.88014" lon="2.38664">
        <ele>141.7</ele>
        <time>2013-08-06T18:56:02.000Z</time>
      </trkpt>
      <trkpt lat="48.88014" lon="2.38666">
        <ele>141.1</ele>
        <time>2013-08-06T18:56:03.000Z</time>
      </trkpt>
      <trkpt lat="48.88013" lon="2.38671">
        <ele>140</ele>
        <time>2013-08-06T18:56:05.000Z</time>
      </trkpt>
      <trkpt lat="48.88012" lon="2.38674">
        <ele>139.8</ele>
        <time>2013-08-06T18:56:06.000Z</time>
      </trkpt>
      <trkpt lat="48.88012" lon="2.3868">
        <ele>138.1</ele>
        <time>2013-08-06T18:56:08.000Z</time>
      </trkpt>
      <trkpt lat="48.88012" lon="2.38683">
        <ele>137.8</ele>
        <time>2013-08-06T18:56:09.000Z</time>
      </trkpt>
      <trkpt lat="48.88013" lon="2.38689">
        <ele>137</ele>
        <time>2013-08-06T18:56:11.000Z</time>
      </trkpt>
      <trkpt lat="48.88013" lon="2.38692">
        <ele>138.1</ele>
        <time>2013-08-06T18:56:12.000Z</time>
      </trkpt>
      <trkpt lat="48.88013" lon="2.38698">
        <ele>138.9</ele>
        <time>2013-08-06T18:56:14.000Z</time>
      </trkpt>
      <trkpt lat="48.88013" lon="2.38701">
        <ele>138.7</ele>
        <time>2013-08-06T18:56:15.000Z</time>
      </trkpt>
      <trkpt lat="48.88013" lon="2.38706">
        <ele>138.8</ele>
        <time>2013-08-06T18:56:17.000Z</time>
      </trkpt>
      <trkpt lat="48.88013" lon="2.38709">
        <ele>139.5</ele>
        <time>2013-08-06T18:56:18.000Z</time>
      </trkpt>
      <trkpt lat="48.88013" lon="2.38714">
        <ele>139.1</ele>
        <time>2013-08-06T18:56:20.000Z</time>
      </trkpt>
      <trkpt lat="48.88014" lon="2.38716">
        <ele>139.5</ele>
        <time>2013-08-06T18:56:21.000Z</time>
      </trkpt>
      <trkpt lat="48.88014" lon="2.38721">
        <ele>137.8</ele>
        <time>2013-08-06T18:56:23.000Z</time>
      </trkpt>
      <trkpt lat="48.88014" lon="2.38723">
        <ele>138.8</ele>
        <time>2013-08-06T18:56:24.000Z</time>
      </trkpt>
      <trkpt lat="48.88014" lon="2.38729">
        <ele>137</ele>
        <time>2013-08-06T18:56:26.000Z</time>
      </trkpt>
      <trkpt lat="48.88014" lon="2.38731">
        <ele>137.6</ele>
        <time>2013-08-06T18:56:27.000Z</time>
      </trkpt>
      <trkpt lat="48.88014" lon="2.38737">
        <ele>138.1</ele>
        <time>2013-08-06T18:56:29.000Z</time>
      </trkpt>
      <trkpt lat="48.88014" lon="2.3874">
        <ele>137.8</ele>
        <time>2013-08-06T18:56:30.000Z</time>
      </trkpt>
      <trkpt lat="48.88014" lon="2.38745">
        <ele>138.5</ele>
        <time>2013-08-06T18:56:32.000Z</time>
      </trkpt>
      <trkpt lat="48.88013" lon="2.38748">
        <ele>139.4</ele>
        <time>2013-08-06T18:56:33.000Z</time>
      </trkpt>
      <trkpt lat="48.88012" lon="2.38753">
        <ele>140.5</ele>
        <time>2013-08-06T18:56:35.000Z</time>
      </trkpt>
      <trkpt lat="48.88012" lon="2.38756">
        <ele>141</ele>
        <time>2013-08-06T18:56:36.000Z</time>
      </trkpt>
      <trkpt lat="48.88011" lon="2.38762">
        <ele>140.1</ele>
        <time>2013-08-06T18:56:38.000Z</time>
      </trkpt>
      <trkpt lat="48.88011" lon="2.38764">
        <ele>140.1</ele>
        <time>2013-08-06T18:56:39.000Z</time>
      </trkpt>
      <trkpt lat="48.88009" lon="2.3877">
        <ele>142.1</ele>
        <time>2013-08-06T18:56:41.000Z</time>
      </trkpt>
      <trkpt lat="48.88008" lon="2.38772">
        <ele>142.1</ele>
        <time>2013-08-06T18:56:42.000Z</time>
      </trkpt>
      <trkpt lat="48.88008" lon="2.38778">
        <ele>142.3</ele>
        <time>2013-08-06T18:56:44.000Z</time>
      </trkpt>
      <trkpt lat="48.88007" lon="2.38781">
        <ele>141.6</ele>
        <time>2013-08-06T18:56:45.000Z</time>
      </trkpt>
      <trkpt lat="48.88007" lon="2.38787">
        <ele>143.2</ele>
        <time>2013-08-06T18:56:47.000Z</time>
      </trkpt>
      <trkpt lat="48.88007" lon="2.3879">
        <ele>143.6</ele>
        <time>2013-08-06T18:56:48.000Z</time>
      </trkpt>
      <trkpt lat="48.88006" lon="2.38796">
        <ele>143.3</ele>
        <time>2013-08-06T18:56:50.000Z</time>
      </trkpt>
      <trkpt lat="48.88005" lon="2.38799">
        <ele>143.2</ele>
        <time>2013-08-06T18:56:51.000Z</time>
      </trkpt>
      <trkpt lat="48.88003" lon="2.38805">
        <ele>143.9</ele>
        <time>2013-08-06T18:56:53.000Z</time>
      </trkpt>
      <trkpt lat="48.88002" lon="2.38808">
        <ele>144.5</ele>
        <time>2013-08-06T18:56:54.000Z</time>
      </trkpt>
      <trkpt lat="48.88" lon="2.38813">
        <ele>143.9</ele>
        <time>2013-08-06T18:56:56.000Z</time>
      </trkpt>
      <trkpt lat="48.87999" lon="2.38816">
        <ele>143.9</ele>
        <time>2013-08-06T18:56:57.000Z</time>
      </trkpt>
      <trkpt lat="48.87998" lon="2.38819">
        <ele>142.5</ele>
        <time>2013-08-06T18:56:58.000Z</time>
      </trkpt>
      <trkpt lat="48.87997" lon="2.38821">
        <ele>142.5</ele>
        <time>2013-08-06T18:56:59.000Z</time>
      </trkpt>
      <trkpt lat="48.87994" lon="2.38823">
        <ele>140.8</ele>
        <time>2013-08-06T18:57:00.000Z</time>
      </trkpt>
      <trkpt lat="48.87992" lon="2.38824">
        <ele>140.6</ele>
        <time>2013-08-06T18:57:01.000Z</time>
      </trkpt>
      <trkpt lat="48.87989" lon="2.38827">
        <ele>138.7</ele>
        <time>2013-08-06T18:57:03.000Z</time>
      </trkpt>
      <trkpt lat="48.87987" lon="2.38828">
        <ele>138.1</ele>
        <time>2013-08-06T18:57:04.000Z</time>
      </trkpt>
      <trkpt lat="48.87984" lon="2.38832">
        <ele>143.7</ele>
        <time>2013-08-06T18:59:12.000Z</time>
      </trkpt>
      <trkpt lat="48.87983" lon="2.38832">
        <ele>144.3</ele>
        <time>2013-08-06T18:59:13.000Z</time>
      </trkpt>
      <trkpt lat="48.87979" lon="2.38832">
        <ele>142.3</ele>
        <time>2013-08-06T18:59:16.000Z</time>
      </trkpt>
      <trkpt lat="48.87978" lon="2.38832">
        <ele>142.7</ele>
        <time>2013-08-06T18:59:17.000Z</time>
      </trkpt>
      <trkpt lat="48.87974" lon="2.38831">
        <ele>143.4</ele>
        <time>2013-08-06T18:59:20.000Z</time>
      </trkpt>
      <trkpt lat="48.87973" lon="2.3883">
        <ele>143.1</ele>
        <time>2013-08-06T18:59:21.000Z</time>
      </trkpt>
      <trkpt lat="48.87969" lon="2.38834">
        <ele>141.4</ele>
        <time>2013-08-06T18:59:25.000Z</time>
      </trkpt>
      <trkpt lat="48.87968" lon="2.38836">
        <ele>142.7</ele>
        <time>2013-08-06T18:59:26.000Z</time>
      </trkpt>
      <trkpt lat="48.87965" lon="2.3884">
        <ele>142.7</ele>
        <time>2013-08-06T18:59:29.000Z</time>
      </trkpt>
      <trkpt lat="48.87963" lon="2.38841">
        <ele>143.2</ele>
        <time>2013-08-06T18:59:30.000Z</time>
      </trkpt>
      <trkpt lat="48.87961" lon="2.3884">
        <ele>143.7</ele>
        <time>2013-08-06T18:59:31.000Z</time>
      </trkpt>
      <trkpt lat="48.87958" lon="2.3884">
        <ele>144.2</ele>
        <time>2013-08-06T18:59:32.000Z</time>
      </trkpt>
      <trkpt lat="48.87955" lon="2.38839">
        <ele>143.9</ele>
        <time>2013-08-06T18:59:33.000Z</time>
      </trkpt>
      <trkpt lat="48.87952" lon="2.38839">
        <ele>144.4</ele>
        <time>2013-08-06T18:59:34.000Z</time>
      </trkpt>
      <trkpt lat="48.87949" lon="2.38839">
        <ele>147.9</ele>
        <time>2013-08-06T18:59:35.000Z</time>
      </trkpt>
      <trkpt lat="48.87947" lon="2.38838">
        <ele>149.2</ele>
        <time>2013-08-06T18:59:36.000Z</time>
      </trkpt>
      <trkpt lat="48.87944" lon="2.38838">
        <ele>149.4</ele>
        <time>2013-08-06T18:59:37.000Z</time>
      </trkpt>
      <trkpt lat="48.87942" lon="2.38838">
        <ele>150.1</ele>
        <time>2013-08-06T18:59:38.000Z</time>
      </trkpt>
      <trkpt lat="48.87939" lon="2.38839">
        <ele>149.8</ele>
        <time>2013-08-06T18:59:39.000Z</time>
      </trkpt>
      <trkpt lat="48.87937" lon="2.3884">
        <ele>149.8</ele>
        <time>2013-08-06T18:59:40.000Z</time>
      </trkpt>
      <trkpt lat="48.87934" lon="2.3884">
        <ele>150</ele>
        <time>2013-08-06T18:59:41.000Z</time>
      </trkpt>
      <trkpt lat="48.87932" lon="2.3884">
        <ele>149.8</ele>
        <time>2013-08-06T18:59:42.000Z</time>
      </trkpt>
      <trkpt lat="48.87928" lon="2.38839">
        <ele>152.7</ele>
        <time>2013-08-06T18:59:44.000Z</time>
      </trkpt>
      <trkpt lat="48.87926" lon="2.38838">
        <ele>152.6</ele>
        <time>2013-08-06T18:59:45.000Z</time>
      </trkpt>
      <trkpt lat="48.87923" lon="2.38836">
        <ele>153.6</ele>
        <time>2013-08-06T18:59:47.000Z</time>
      </trkpt>
      <trkpt lat="48.87921" lon="2.38835">
        <ele>154</ele>
        <time>2013-08-06T18:59:48.000Z</time>
      </trkpt>
      <trkpt lat="48.87917" lon="2.38833">
        <ele>154.8</ele>
        <time>2013-08-06T18:59:50.000Z</time>
      </trkpt>
      <trkpt lat="48.87915" lon="2.38831">
        <ele>151.3</ele>
        <time>2013-08-06T18:59:51.000Z</time>
      </trkpt>
      <trkpt lat="48.87912" lon="2.3883">
        <ele>152.9</ele>
        <time>2013-08-06T18:59:52.000Z</time>
      </trkpt>
      <trkpt lat="48.8791" lon="2.3883">
        <ele>153</ele>
        <time>2013-08-06T18:59:53.000Z</time>
      </trkpt>
      <trkpt lat="48.87908" lon="2.3883">
        <ele>151</ele>
        <time>2013-08-06T18:59:54.000Z</time>
      </trkpt>
      <trkpt lat="48.87905" lon="2.38831">
        <ele>150.6</ele>
        <time>2013-08-06T18:59:55.000Z</time>
      </trkpt>
      <trkpt lat="48.87903" lon="2.38831">
        <ele>151</ele>
        <time>2013-08-06T18:59:56.000Z</time>
      </trkpt>
      <trkpt lat="48.879" lon="2.38831">
        <ele>150.7</ele>
        <time>2013-08-06T18:59:57.000Z</time>
      </trkpt>
      <trkpt lat="48.87897" lon="2.3883">
        <ele>150.6</ele>
        <time>2013-08-06T18:59:58.000Z</time>
      </trkpt>
      <trkpt lat="48.87894" lon="2.3883">
        <ele>151</ele>
        <time>2013-08-06T18:59:59.000Z</time>
      </trkpt>
      <trkpt lat="48.87889" lon="2.38829">
        <ele>151.6</ele>
        <time>2013-08-06T19:00:00.000Z</time>
      </trkpt>
      <trkpt lat="48.87885" lon="2.38828">
        <ele>151</ele>
        <time>2013-08-06T19:00:01.000Z</time>
      </trkpt>
      <trkpt lat="48.87881" lon="2.38828">
        <ele>150.8</ele>
        <time>2013-08-06T19:00:02.000Z</time>
      </trkpt>
      <trkpt lat="48.87878" lon="2.38828">
        <ele>150.6</ele>
        <time>2013-08-06T19:00:03.000Z</time>
      </trkpt>
      <trkpt lat="48.87875" lon="2.38827">
        <ele>151.2</ele>
        <time>2013-08-06T19:00:04.000Z</time>
      </trkpt>
      <trkpt lat="48.87872" lon="2.38827">
        <ele>150.5</ele>
        <time>2013-08-06T19:00:05.000Z</time>
      </trkpt>
      <trkpt lat="48.87869" lon="2.38826">
        <ele>149.7</ele>
        <time>2013-08-06T19:00:06.000Z</time>
      </trkpt>
      <trkpt lat="48.87866" lon="2.38826">
        <ele>149.6</ele>
        <time>2013-08-06T19:00:07.000Z</time>
      </trkpt>
      <trkpt lat="48.87864" lon="2.38825">
        <ele>150.9</ele>
        <time>2013-08-06T19:00:08.000Z</time>
      </trkpt>
      <trkpt lat="48.87861" lon="2.38825">
        <ele>152.8</ele>
        <time>2013-08-06T19:00:09.000Z</time>
      </trkpt>
      <trkpt lat="48.87858" lon="2.38826">
        <ele>154.3</ele>
        <time>2013-08-06T19:00:10.000Z</time>
      </trkpt>
      <trkpt lat="48.87856" lon="2.38825">
        <ele>156.4</ele>
        <time>2013-08-06T19:00:11.000Z</time>
      </trkpt>
      <trkpt lat="48.87853" lon="2.38825">
        <ele>156.3</ele>
        <time>2013-08-06T19:00:12.000Z</time>
      </trkpt>
      <trkpt lat="48.8785" lon="2.38824">
        <ele>154.9</ele>
        <time>2013-08-06T19:00:13.000Z</time>
      </trkpt>
      <trkpt lat="48.87848" lon="2.38824">
        <ele>155.3</ele>
        <time>2013-08-06T19:00:14.000Z</time>
      </trkpt>
      <trkpt lat="48.87845" lon="2.38825">
        <ele>154.5</ele>
        <time>2013-08-06T19:00:15.000Z</time>
      </trkpt>
      <trkpt lat="48.87842" lon="2.38825">
        <ele>155</ele>
        <time>2013-08-06T19:00:16.000Z</time>
      </trkpt>
      <trkpt lat="48.87839" lon="2.38824">
        <ele>155.2</ele>
        <time>2013-08-06T19:00:17.000Z</time>
      </trkpt>
      <trkpt lat="48.87837" lon="2.38823">
        <ele>155.4</ele>
        <time>2013-08-06T19:00:18.000Z</time>
      </trkpt>
      <trkpt lat="48.87834" lon="2.38822">
        <ele>154.7</ele>
        <time>2013-08-06T19:00:19.000Z</time>
      </trkpt>
      <trkpt lat="48.87831" lon="2.3882">
        <ele>154.7</ele>
        <time>2013-08-06T19:00:20.000Z</time>
      </trkpt>
      <trkpt lat="48.87828" lon="2.38819">
        <ele>153.7</ele>
        <time>2013-08-06T19:00:21.000Z</time>
      </trkpt>
      <trkpt lat="48.87825" lon="2.38818">
        <ele>154.4</ele>
        <time>2013-08-06T19:00:22.000Z</time>
      </trkpt>
      <trkpt lat="48.87822" lon="2.38817">
        <ele>155.2</ele>
        <time>2013-08-06T19:00:23.000Z</time>
      </trkpt>
      <trkpt lat="48.87818" lon="2.38816">
        <ele>155.1</ele>
        <time>2013-08-06T19:00:24.000Z</time>
      </trkpt>
      <trkpt lat="48.87814" lon="2.38815">
        <ele>154.9</ele>
        <time>2013-08-06T19:00:25.000Z</time>
      </trkpt>
      <trkpt lat="48.87811" lon="2.38814">
        <ele>154.9</ele>
        <time>2013-08-06T19:00:26.000Z</time>
      </trkpt>
      <trkpt lat="48.87808" lon="2.38813">
        <ele>154.6</ele>
        <time>2013-08-06T19:00:27.000Z</time>
      </trkpt>
      <trkpt lat="48.87805" lon="2.38812">
        <ele>153.5</ele>
        <time>2013-08-06T19:00:28.000Z</time>
      </trkpt>
      <trkpt lat="48.87802" lon="2.38811">
        <ele>153.9</ele>
        <time>2013-08-06T19:00:29.000Z</time>
      </trkpt>
      <trkpt lat="48.87799" lon="2.3881">
        <ele>154.4</ele>
        <time>2013-08-06T19:00:30.000Z</time>
      </trkpt>
      <trkpt lat="48.87796" lon="2.3881">
        <ele>155</ele>
        <time>2013-08-06T19:00:31.000Z</time>
      </trkpt>
      <trkpt lat="48.87793" lon="2.38809">
        <ele>155.4</ele>
        <time>2013-08-06T19:00:32.000Z</time>
      </trkpt>
      <trkpt lat="48.87791" lon="2.38808">
        <ele>156.5</ele>
        <time>2013-08-06T19:00:33.000Z</time>
      </trkpt>
      <trkpt lat="48.87788" lon="2.38808">
        <ele>159.6</ele>
        <time>2013-08-06T19:00:34.000Z</time>
      </trkpt>
      <trkpt lat="48.87785" lon="2.38807">
        <ele>161.5</ele>
        <time>2013-08-06T19:00:35.000Z</time>
      </trkpt>
      <trkpt lat="48.87782" lon="2.38806">
        <ele>162</ele>
        <time>2013-08-06T19:00:36.000Z</time>
      </trkpt>
      <trkpt lat="48.87779" lon="2.38806">
        <ele>163.1</ele>
        <time>2013-08-06T19:00:37.000Z</time>
      </trkpt>
      <trkpt lat="48.87777" lon="2.38806">
        <ele>163.3</ele>
        <time>2013-08-06T19:00:38.000Z</time>
      </trkpt>
      <trkpt lat="48.87774" lon="2.38806">
        <ele>163.3</ele>
        <time>2013-08-06T19:00:39.000Z</time>
      </trkpt>
      <trkpt lat="48.87771" lon="2.38806">
        <ele>164.6</ele>
        <time>2013-08-06T19:00:40.000Z</time>
      </trkpt>
      <trkpt lat="48.87768" lon="2.38806">
        <ele>164.7</ele>
        <time>2013-08-06T19:00:41.000Z</time>
      </trkpt>
      <trkpt lat="48.87765" lon="2.38806">
        <ele>164.6</ele>
        <time>2013-08-06T19:00:42.000Z</time>
      </trkpt>
      <trkpt lat="48.87762" lon="2.38805">
        <ele>164.4</ele>
        <time>2013-08-06T19:00:43.000Z</time>
      </trkpt>
      <trkpt lat="48.8776" lon="2.38805">
        <ele>164.5</ele>
        <time>2013-08-06T19:00:44.000Z</time>
      </trkpt>
      <trkpt lat="48.87757" lon="2.38805">
        <ele>163.9</ele>
        <time>2013-08-06T19:00:45.000Z</time>
      </trkpt>
      <trkpt lat="48.87754" lon="2.38805">
        <ele>164.1</ele>
        <time>2013-08-06T19:00:46.000Z</time>
      </trkpt>
      <trkpt lat="48.87751" lon="2.38804">
        <ele>163.4</ele>
        <time>2013-08-06T19:00:47.000Z</time>
      </trkpt>
      <trkpt lat="48.87748" lon="2.38804">
        <ele>164</ele>
        <time>2013-08-06T19:00:48.000Z</time>
      </trkpt>
      <trkpt lat="48.87744" lon="2.38803">
        <ele>164.1</ele>
        <time>2013-08-06T19:00:49.000Z</time>
      </trkpt>
      <trkpt lat="48.8774" lon="2.38802">
        <ele>163.9</ele>
        <time>2013-08-06T19:00:50.000Z</time>
      </trkpt>
      <trkpt lat="48.87736" lon="2.38801">
        <ele>162.9</ele>
        <time>2013-08-06T19:00:51.000Z</time>
      </trkpt>
      <trkpt lat="48.87733" lon="2.38801">
        <ele>162.7</ele>
        <time>2013-08-06T19:00:52.000Z</time>
      </trkpt>
      <trkpt lat="48.8773" lon="2.388">
        <ele>163</ele>
        <time>2013-08-06T19:00:53.000Z</time>
      </trkpt>
      <trkpt lat="48.87728" lon="2.38798">
        <ele>163.2</ele>
        <time>2013-08-06T19:00:54.000Z</time>
      </trkpt>
      <trkpt lat="48.87728" lon="2.38794">
        <ele>160.6</ele>
        <time>2013-08-06T19:00:55.000Z</time>
      </trkpt>
      <trkpt lat="48.87729" lon="2.38789">
        <ele>160.1</ele>
        <time>2013-08-06T19:00:56.000Z</time>
      </trkpt>
      <trkpt lat="48.87729" lon="2.38784">
        <ele>160</ele>
        <time>2013-08-06T19:00:57.000Z</time>
      </trkpt>
      <trkpt lat="48.8773" lon="2.38777">
        <ele>159.4</ele>
        <time>2013-08-06T19:00:58.000Z</time>
      </trkpt>
      <trkpt lat="48.8773" lon="2.38771">
        <ele>160.5</ele>
        <time>2013-08-06T19:00:59.000Z</time>
      </trkpt>
      <trkpt lat="48.87731" lon="2.38764">
        <ele>160.7</ele>
        <time>2013-08-06T19:01:00.000Z</time>
      </trkpt>
      <trkpt lat="48.87732" lon="2.38757">
        <ele>160.1</ele>
        <time>2013-08-06T19:01:01.000Z</time>
      </trkpt>
      <trkpt lat="48.87733" lon="2.38751">
        <ele>160.4</ele>
        <time>2013-08-06T19:01:02.000Z</time>
      </trkpt>
      <trkpt lat="48.87733" lon="2.38744">
        <ele>160.8</ele>
        <time>2013-08-06T19:01:03.000Z</time>
      </trkpt>
      <trkpt lat="48.87735" lon="2.38737">
        <ele>160.3</ele>
        <time>2013-08-06T19:01:04.000Z</time>
      </trkpt>
      <trkpt lat="48.87735" lon="2.38731">
        <ele>161</ele>
        <time>2013-08-06T19:01:05.000Z</time>
      </trkpt>
      <trkpt lat="48.87736" lon="2.38724">
        <ele>161.5</ele>
        <time>2013-08-06T19:01:06.000Z</time>
      </trkpt>
      <trkpt lat="48.87736" lon="2.38717">
        <ele>160.7</ele>
        <time>2013-08-06T19:01:07.000Z</time>
      </trkpt>
      <trkpt lat="48.87737" lon="2.38711">
        <ele>160.6</ele>
        <time>2013-08-06T19:01:08.000Z</time>
      </trkpt>
      <trkpt lat="48.87737" lon="2.38705">
        <ele>159.7</ele>
        <time>2013-08-06T19:01:09.000Z</time>
      </trkpt>
      <trkpt lat="48.87738" lon="2.38699">
        <ele>159.7</ele>
        <time>2013-08-06T19:01:10.000Z</time>
      </trkpt>
      <trkpt lat="48.87739" lon="2.38692">
        <ele>159.5</ele>
        <time>2013-08-06T19:01:11.000Z</time>
      </trkpt>
      <trkpt lat="48.8774" lon="2.38686">
        <ele>159</ele>
        <time>2013-08-06T19:01:12.000Z</time>
      </trkpt>
      <trkpt lat="48.87741" lon="2.38679">
        <ele>158.9</ele>
        <time>2013-08-06T19:01:13.000Z</time>
      </trkpt>
      <trkpt lat="48.87742" lon="2.38672">
        <ele>159.1</ele>
        <time>2013-08-06T19:01:14.000Z</time>
      </trkpt>
      <trkpt lat="48.87743" lon="2.38664">
        <ele>159.7</ele>
        <time>2013-08-06T19:01:15.000Z</time>
      </trkpt>
      <trkpt lat="48.87744" lon="2.38657">
        <ele>159.9</ele>
        <time>2013-08-06T19:01:16.000Z</time>
      </trkpt>
      <trkpt lat="48.87745" lon="2.3865">
        <ele>158.7</ele>
        <time>2013-08-06T19:01:17.000Z</time>
      </trkpt>
      <trkpt lat="48.87746" lon="2.38643">
        <ele>157.8</ele>
        <time>2013-08-06T19:01:18.000Z</time>
      </trkpt>
      <trkpt lat="48.87746" lon="2.38636">
        <ele>157.5</ele>
        <time>2013-08-06T19:01:19.000Z</time>
      </trkpt>
      <trkpt lat="48.87747" lon="2.38629">
        <ele>157.1</ele>
        <time>2013-08-06T19:01:20.000Z</time>
      </trkpt>
      <trkpt lat="48.87749" lon="2.38622">
        <ele>156.8</ele>
        <time>2013-08-06T19:01:21.000Z</time>
      </trkpt>
      <trkpt lat="48.8775" lon="2.38614">
        <ele>156.8</ele>
        <time>2013-08-06T19:01:22.000Z</time>
      </trkpt>
      <trkpt lat="48.87752" lon="2.38607">
        <ele>155.8</ele>
        <time>2013-08-06T19:01:23.000Z</time>
      </trkpt>
      <trkpt lat="48.87753" lon="2.386">
        <ele>155.8</ele>
        <time>2013-08-06T19:01:24.000Z</time>
      </trkpt>
      <trkpt lat="48.87754" lon="2.38593">
        <ele>155</ele>
        <time>2013-08-06T19:01:25.000Z</time>
      </trkpt>
      <trkpt lat="48.87755" lon="2.38587">
        <ele>155.1</ele>
        <time>2013-08-06T19:01:26.000Z</time>
      </trkpt>
      <trkpt lat="48.87755" lon="2.38581">
        <ele>155.5</ele>
        <time>2013-08-06T19:01:27.000Z</time>
      </trkpt>
      <trkpt lat="48.87756" lon="2.38575">
        <ele>155.5</ele>
        <time>2013-08-06T19:01:28.000Z</time>
      </trkpt>
      <trkpt lat="48.87757" lon="2.3857">
        <ele>155.2</ele>
        <time>2013-08-06T19:01:29.000Z</time>
      </trkpt>
      <trkpt lat="48.87758" lon="2.38564">
        <ele>155.5</ele>
        <time>2013-08-06T19:01:30.000Z</time>
      </trkpt>
      <trkpt lat="48.87759" lon="2.38559">
        <ele>155.8</ele>
        <time>2013-08-06T19:01:31.000Z</time>
      </trkpt>
      <trkpt lat="48.87757" lon="2.38553">
        <ele>157.1</ele>
        <time>2013-08-06T19:01:34.000Z</time>
      </trkpt>
      <trkpt lat="48.87758" lon="2.38552">
        <ele>157.3</ele>
        <time>2013-08-06T19:01:35.000Z</time>
      </trkpt>
      <trkpt lat="48.87754" lon="2.38552">
        <ele>156.9</ele>
        <time>2013-08-06T19:02:27.000Z</time>
      </trkpt>
      <trkpt lat="48.87752" lon="2.3855">
        <ele>157.3</ele>
        <time>2013-08-06T19:02:28.000Z</time>
      </trkpt>
      <trkpt lat="48.87749" lon="2.38549">
        <ele>156.5</ele>
        <time>2013-08-06T19:02:29.000Z</time>
      </trkpt>
      <trkpt lat="48.87746" lon="2.38548">
        <ele>156.5</ele>
        <time>2013-08-06T19:02:30.000Z</time>
      </trkpt>
      <trkpt lat="48.87742" lon="2.38548">
        <ele>156.8</ele>
        <time>2013-08-06T19:02:31.000Z</time>
      </trkpt>
      <trkpt lat="48.87739" lon="2.38548">
        <ele>156.6</ele>
        <time>2013-08-06T19:02:32.000Z</time>
      </trkpt>
      <trkpt lat="48.87736" lon="2.38548">
        <ele>158.1</ele>
        <time>2013-08-06T19:02:33.000Z</time>
      </trkpt>
      <trkpt lat="48.87732" lon="2.38548">
        <ele>159.1</ele>
        <time>2013-08-06T19:02:34.000Z</time>
      </trkpt>
      <trkpt lat="48.87729" lon="2.38548">
        <ele>159</ele>
        <time>2013-08-06T19:02:35.000Z</time>
      </trkpt>
      <trkpt lat="48.87725" lon="2.38547">
        <ele>159.6</ele>
        <time>2013-08-06T19:02:36.000Z</time>
      </trkpt>
      <trkpt lat="48.8772" lon="2.38545">
        <ele>159.9</ele>
        <time>2013-08-06T19:02:37.000Z</time>
      </trkpt>
      <trkpt lat="48.87712" lon="2.38541">
        <ele>160.2</ele>
        <time>2013-08-06T19:02:38.000Z</time>
      </trkpt>
      <trkpt lat="48.87708" lon="2.3854">
        <ele>159.3</ele>
        <time>2013-08-06T19:02:39.000Z</time>
      </trkpt>
      <trkpt lat="48.87704" lon="2.38541">
        <ele>157.8</ele>
        <time>2013-08-06T19:02:40.000Z</time>
      </trkpt>
      <trkpt lat="48.87701" lon="2.38541">
        <ele>157</ele>
        <time>2013-08-06T19:02:41.000Z</time>
      </trkpt>
      <trkpt lat="48.87697" lon="2.3854">
        <ele>157.2</ele>
        <time>2013-08-06T19:02:42.000Z</time>
      </trkpt>
      <trkpt lat="48.87695" lon="2.3854">
        <ele>157.8</ele>
        <time>2013-08-06T19:02:43.000Z</time>
      </trkpt>
      <trkpt lat="48.87693" lon="2.38542">
        <ele>158.1</ele>
        <time>2013-08-06T19:02:44.000Z</time>
      </trkpt>
      <trkpt lat="48.8769" lon="2.38546">
        <ele>158.5</ele>
        <time>2013-08-06T19:02:45.000Z</time>
      </trkpt>
      <trkpt lat="48.87684" lon="2.38538">
        <ele>160.5</ele>
        <time>2013-08-06T19:02:46.000Z</time>
      </trkpt>
      <trkpt lat="48.87681" lon="2.38534">
        <ele>162</ele>
        <time>2013-08-06T19:02:47.000Z</time>
      </trkpt>
      <trkpt lat="48.87678" lon="2.38529">
        <ele>163.3</ele>
        <time>2013-08-06T19:02:48.000Z</time>
      </trkpt>
      <trkpt lat="48.87675" lon="2.38524">
        <ele>164.3</ele>
        <time>2013-08-06T19:02:49.000Z</time>
      </trkpt>
      <trkpt lat="48.87673" lon="2.3852">
        <ele>164.4</ele>
        <time>2013-08-06T19:02:50.000Z</time>
      </trkpt>
      <trkpt lat="48.87671" lon="2.38514">
        <ele>164.3</ele>
        <time>2013-08-06T19:02:51.000Z</time>
      </trkpt>
      <trkpt lat="48.87671" lon="2.38507">
        <ele>164</ele>
        <time>2013-08-06T19:02:52.000Z</time>
      </trkpt>
      <trkpt lat="48.87672" lon="2.38501">
        <ele>165.1</ele>
        <time>2013-08-06T19:02:53.000Z</time>
      </trkpt>
      <trkpt lat="48.87673" lon="2.38495">
        <ele>164.3</ele>
        <time>2013-08-06T19:02:54.000Z</time>
      </trkpt>
      <trkpt lat="48.87674" lon="2.38488">
        <ele>164.3</ele>
        <time>2013-08-06T19:02:55.000Z</time>
      </trkpt>
      <trkpt lat="48.87674" lon="2.38481">
        <ele>163.9</ele>
        <time>2013-08-06T19:02:56.000Z</time>
      </trkpt>
      <trkpt lat="48.87675" lon="2.38474">
        <ele>162.5</ele>
        <time>2013-08-06T19:02:57.000Z</time>
      </trkpt>
      <trkpt lat="48.87675" lon="2.38467">
        <ele>161.4</ele>
        <time>2013-08-06T19:02:58.000Z</time>
      </trkpt>
      <trkpt lat="48.87675" lon="2.3846">
        <ele>160.4</ele>
        <time>2013-08-06T19:02:59.000Z</time>
      </trkpt>
      <trkpt lat="48.87675" lon="2.38453">
        <ele>159.8</ele>
        <time>2013-08-06T19:03:00.000Z</time>
      </trkpt>
      <trkpt lat="48.87675" lon="2.38447">
        <ele>158.9</ele>
        <time>2013-08-06T19:03:01.000Z</time>
      </trkpt>
      <trkpt lat="48.87675" lon="2.38441">
        <ele>158.8</ele>
        <time>2013-08-06T19:03:02.000Z</time>
      </trkpt>
      <trkpt lat="48.87674" lon="2.38435">
        <ele>158.4</ele>
        <time>2013-08-06T19:03:03.000Z</time>
      </trkpt>
      <trkpt lat="48.87674" lon="2.38429">
        <ele>158.3</ele>
        <time>2013-08-06T19:03:04.000Z</time>
      </trkpt>
      <trkpt lat="48.87673" lon="2.38423">
        <ele>158.1</ele>
        <time>2013-08-06T19:03:05.000Z</time>
      </trkpt>
      <trkpt lat="48.87673" lon="2.38417">
        <ele>156.9</ele>
        <time>2013-08-06T19:03:06.000Z</time>
      </trkpt>
      <trkpt lat="48.87673" lon="2.38411">
        <ele>155.9</ele>
        <time>2013-08-06T19:03:07.000Z</time>
      </trkpt>
      <trkpt lat="48.87673" lon="2.38406">
        <ele>155</ele>
        <time>2013-08-06T19:03:08.000Z</time>
      </trkpt>
      <trkpt lat="48.87673" lon="2.384">
        <ele>153.9</ele>
        <time>2013-08-06T19:03:09.000Z</time>
      </trkpt>
      <trkpt lat="48.87672" lon="2.38396">
        <ele>155.3</ele>
        <time>2013-08-06T19:03:10.000Z</time>
      </trkpt>
      <trkpt lat="48.87671" lon="2.38393">
        <ele>154.8</ele>
        <time>2013-08-06T19:03:11.000Z</time>
      </trkpt>
      <trkpt lat="48.87668" lon="2.38391">
        <ele>155</ele>
        <time>2013-08-06T19:03:12.000Z</time>
      </trkpt>
      <trkpt lat="48.87665" lon="2.38389">
        <ele>154.3</ele>
        <time>2013-08-06T19:03:13.000Z</time>
      </trkpt>
      <trkpt lat="48.87662" lon="2.38388">
        <ele>154.3</ele>
        <time>2013-08-06T19:03:14.000Z</time>
      </trkpt>
      <trkpt lat="48.87658" lon="2.38386">
        <ele>154.9</ele>
        <time>2013-08-06T19:03:15.000Z</time>
      </trkpt>
      <trkpt lat="48.87654" lon="2.38384">
        <ele>153.4</ele>
        <time>2013-08-06T19:03:16.000Z</time>
      </trkpt>
      <trkpt lat="48.8765" lon="2.38383">
        <ele>153.3</ele>
        <time>2013-08-06T19:03:17.000Z</time>
      </trkpt>
      <trkpt lat="48.87646" lon="2.3838">
        <ele>153.1</ele>
        <time>2013-08-06T19:03:18.000Z</time>
      </trkpt>
      <trkpt lat="48.87642" lon="2.38378">
        <ele>153</ele>
        <time>2013-08-06T19:03:19.000Z</time>
      </trkpt>
      <trkpt lat="48.87638" lon="2.38376">
        <ele>152.3</ele>
        <time>2013-08-06T19:03:20.000Z</time>
      </trkpt>
      <trkpt lat="48.87634" lon="2.38374">
        <ele>151</ele>
        <time>2013-08-06T19:03:21.000Z</time>
      </trkpt>
      <trkpt lat="48.87631" lon="2.38372">
        <ele>150.8</ele>
        <time>2013-08-06T19:03:22.000Z</time>
      </trkpt>
      <trkpt lat="48.87627" lon="2.38371">
        <ele>150.1</ele>
        <time>2013-08-06T19:03:23.000Z</time>
      </trkpt>
      <trkpt lat="48.87623" lon="2.38369">
        <ele>151.8</ele>
        <time>2013-08-06T19:03:24.000Z</time>
      </trkpt>
      <trkpt lat="48.87617" lon="2.38367">
        <ele>152.6</ele>
        <time>2013-08-06T19:03:25.000Z</time>
      </trkpt>
      <trkpt lat="48.87612" lon="2.38365">
        <ele>152.4</ele>
        <time>2013-08-06T19:03:26.000Z</time>
      </trkpt>
      <trkpt lat="48.87607" lon="2.38366">
        <ele>153.1</ele>
        <time>2013-08-06T19:03:27.000Z</time>
      </trkpt>
      <trkpt lat="48.87602" lon="2.38366">
        <ele>153.5</ele>
        <time>2013-08-06T19:03:28.000Z</time>
      </trkpt>
      <trkpt lat="48.87598" lon="2.38367">
        <ele>155.2</ele>
        <time>2013-08-06T19:03:29.000Z</time>
      </trkpt>
      <trkpt lat="48.87594" lon="2.38367">
        <ele>157.5</ele>
        <time>2013-08-06T19:03:30.000Z</time>
      </trkpt>
      <trkpt lat="48.8759" lon="2.38367">
        <ele>159.1</ele>
        <time>2013-08-06T19:03:31.000Z</time>
      </trkpt>
      <trkpt lat="48.87585" lon="2.38365">
        <ele>159.7</ele>
        <time>2013-08-06T19:03:32.000Z</time>
      </trkpt>
      <trkpt lat="48.87583" lon="2.38364">
        <ele>160.6</ele>
        <time>2013-08-06T19:03:33.000Z</time>
      </trkpt>
      <trkpt lat="48.8758" lon="2.38362">
        <ele>160.6</ele>
        <time>2013-08-06T19:03:34.000Z</time>
      </trkpt>
      <trkpt lat="48.87577" lon="2.38362">
        <ele>161.8</ele>
        <time>2013-08-06T19:03:35.000Z</time>
      </trkpt>
      <trkpt lat="48.87575" lon="2.38363">
        <ele>162.8</ele>
        <time>2013-08-06T19:03:36.000Z</time>
      </trkpt>
      <trkpt lat="48.87573" lon="2.38363">
        <ele>162.6</ele>
        <time>2013-08-06T19:03:37.000Z</time>
      </trkpt>
      <trkpt lat="48.87568" lon="2.38362">
        <ele>160.5</ele>
        <time>2013-08-06T19:03:39.000Z</time>
      </trkpt>
      <trkpt lat="48.87567" lon="2.38362">
        <ele>161</ele>
        <time>2013-08-06T19:03:40.000Z</time>
      </trkpt>
      <trkpt lat="48.87566" lon="2.38363">
        <ele>159.2</ele>
        <time>2013-08-06T19:04:20.000Z</time>
      </trkpt>
      <trkpt lat="48.87563" lon="2.38364">
        <ele>159.1</ele>
        <time>2013-08-06T19:04:21.000Z</time>
      </trkpt>
      <trkpt lat="48.8756" lon="2.38365">
        <ele>158.2</ele>
        <time>2013-08-06T19:04:22.000Z</time>
      </trkpt>
      <trkpt lat="48.87558" lon="2.38366">
        <ele>158.5</ele>
        <time>2013-08-06T19:04:23.000Z</time>
      </trkpt>
      <trkpt lat="48.87555" lon="2.38367">
        <ele>157.3</ele>
        <time>2013-08-06T19:04:24.000Z</time>
      </trkpt>
      <trkpt lat="48.87552" lon="2.38368">
        <ele>156.6</ele>
        <time>2013-08-06T19:04:25.000Z</time>
      </trkpt>
      <trkpt lat="48.8755" lon="2.38368">
        <ele>156.7</ele>
        <time>2013-08-06T19:04:26.000Z</time>
      </trkpt>
      <trkpt lat="48.87547" lon="2.38371">
        <ele>156.5</ele>
        <time>2013-08-06T19:04:27.000Z</time>
      </trkpt>
      <trkpt lat="48.87545" lon="2.38375">
        <ele>156.7</ele>
        <time>2013-08-06T19:04:28.000Z</time>
      </trkpt>
      <trkpt lat="48.87543" lon="2.38379">
        <ele>158.2</ele>
        <time>2013-08-06T19:04:29.000Z</time>
      </trkpt>
      <trkpt lat="48.8754" lon="2.38383">
        <ele>157.9</ele>
        <time>2013-08-06T19:04:30.000Z</time>
      </trkpt>
      <trkpt lat="48.87538" lon="2.38387">
        <ele>157.7</ele>
        <time>2013-08-06T19:04:31.000Z</time>
      </trkpt>
      <trkpt lat="48.87536" lon="2.38391">
        <ele>159.7</ele>
        <time>2013-08-06T19:04:32.000Z</time>
      </trkpt>
      <trkpt lat="48.87534" lon="2.38394">
        <ele>161.1</ele>
        <time>2013-08-06T19:04:33.000Z</time>
      </trkpt>
      <trkpt lat="48.87532" lon="2.38398">
        <ele>160.8</ele>
        <time>2013-08-06T19:04:34.000Z</time>
      </trkpt>
      <trkpt lat="48.8753" lon="2.38402">
        <ele>160.3</ele>
        <time>2013-08-06T19:04:35.000Z</time>
      </trkpt>
      <trkpt lat="48.87528" lon="2.38406">
        <ele>159.3</ele>
        <time>2013-08-06T19:04:36.000Z</time>
      </trkpt>
      <trkpt lat="48.87527" lon="2.38411">
        <ele>159.2</ele>
        <time>2013-08-06T19:04:37.000Z</time>
      </trkpt>
      <trkpt lat="48.87526" lon="2.38415">
        <ele>159.3</ele>
        <time>2013-08-06T19:04:38.000Z</time>
      </trkpt>
      <trkpt lat="48.87524" lon="2.38419">
        <ele>158.5</ele>
        <time>2013-08-06T19:04:39.000Z</time>
      </trkpt>
      <trkpt lat="48.87522" lon="2.38422">
        <ele>158.1</ele>
        <time>2013-08-06T19:04:40.000Z</time>
      </trkpt>
      <trkpt lat="48.87521" lon="2.38427">
        <ele>152.8</ele>
        <time>2013-08-06T19:04:41.000Z</time>
      </trkpt>
      <trkpt lat="48.8752" lon="2.38431">
        <ele>153.1</ele>
        <time>2013-08-06T19:04:42.000Z</time>
      </trkpt>
      <trkpt lat="48.87519" lon="2.38435">
        <ele>153.1</ele>
        <time>2013-08-06T19:04:43.000Z</time>
      </trkpt>
      <trkpt lat="48.87517" lon="2.38439">
        <ele>153.9</ele>
        <time>2013-08-06T19:04:44.000Z</time>
      </trkpt>
      <trkpt lat="48.87515" lon="2.38442">
        <ele>153.1</ele>
        <time>2013-08-06T19:04:45.000Z</time>
      </trkpt>
      <trkpt lat="48.87512" lon="2.38445">
        <ele>153.6</ele>
        <time>2013-08-06T19:04:46.000Z</time>
      </trkpt>
      <trkpt lat="48.87509" lon="2.38448">
        <ele>153.5</ele>
        <time>2013-08-06T19:04:47.000Z</time>
      </trkpt>
      <trkpt lat="48.87505" lon="2.3845">
        <ele>152.3</ele>
        <time>2013-08-06T19:04:48.000Z</time>
      </trkpt>
      <trkpt lat="48.87502" lon="2.38453">
        <ele>152</ele>
        <time>2013-08-06T19:04:49.000Z</time>
      </trkpt>
      <trkpt lat="48.87499" lon="2.38456">
        <ele>150.8</ele>
        <time>2013-08-06T19:04:50.000Z</time>
      </trkpt>
      <trkpt lat="48.87495" lon="2.3846">
        <ele>150.5</ele>
        <time>2013-08-06T19:04:51.000Z</time>
      </trkpt>
      <trkpt lat="48.87492" lon="2.38463">
        <ele>151.2</ele>
        <time>2013-08-06T19:04:52.000Z</time>
      </trkpt>
      <trkpt lat="48.87489" lon="2.38466">
        <ele>151.1</ele>
        <time>2013-08-06T19:04:53.000Z</time>
      </trkpt>
      <trkpt lat="48.87486" lon="2.3847">
        <ele>151.3</ele>
        <time>2013-08-06T19:04:54.000Z</time>
      </trkpt>
      <trkpt lat="48.87483" lon="2.38473">
        <ele>150.5</ele>
        <time>2013-08-06T19:04:55.000Z</time>
      </trkpt>
      <trkpt lat="48.8748" lon="2.38476">
        <ele>150.7</ele>
        <time>2013-08-06T19:04:56.000Z</time>
      </trkpt>
      <trkpt lat="48.87477" lon="2.38479">
        <ele>150.7</ele>
        <time>2013-08-06T19:04:57.000Z</time>
      </trkpt>
      <trkpt lat="48.87474" lon="2.38482">
        <ele>150.4</ele>
        <time>2013-08-06T19:04:58.000Z</time>
      </trkpt>
      <trkpt lat="48.87471" lon="2.38485">
        <ele>150.6</ele>
        <time>2013-08-06T19:04:59.000Z</time>
      </trkpt>
      <trkpt lat="48.87468" lon="2.38488">
        <ele>151.2</ele>
        <time>2013-08-06T19:05:00.000Z</time>
      </trkpt>
      <trkpt lat="48.87465" lon="2.38492">
        <ele>152</ele>
        <time>2013-08-06T19:05:01.000Z</time>
      </trkpt>
      <trkpt lat="48.87462" lon="2.38495">
        <ele>151.2</ele>
        <time>2013-08-06T19:05:02.000Z</time>
      </trkpt>
      <trkpt lat="48.87459" lon="2.38498">
        <ele>150.5</ele>
        <time>2013-08-06T19:05:03.000Z</time>
      </trkpt>
      <trkpt lat="48.87456" lon="2.38501">
        <ele>150.2</ele>
        <time>2013-08-06T19:05:04.000Z</time>
      </trkpt>
      <trkpt lat="48.87453" lon="2.38504">
        <ele>149.6</ele>
        <time>2013-08-06T19:05:05.000Z</time>
      </trkpt>
      <trkpt lat="48.8745" lon="2.38507">
        <ele>149.6</ele>
        <time>2013-08-06T19:05:06.000Z</time>
      </trkpt>
      <trkpt lat="48.87447" lon="2.3851">
        <ele>149.4</ele>
        <time>2013-08-06T19:05:07.000Z</time>
      </trkpt>
      <trkpt lat="48.87445" lon="2.38513">
        <ele>148.9</ele>
        <time>2013-08-06T19:05:08.000Z</time>
      </trkpt>
      <trkpt lat="48.87442" lon="2.38516">
        <ele>148.2</ele>
        <time>2013-08-06T19:05:09.000Z</time>
      </trkpt>
      <trkpt lat="48.8744" lon="2.38519">
        <ele>147.5</ele>
        <time>2013-08-06T19:05:10.000Z</time>
      </trkpt>
      <trkpt lat="48.87437" lon="2.38523">
        <ele>148.1</ele>
        <time>2013-08-06T19:05:11.000Z</time>
      </trkpt>
      <trkpt lat="48.87435" lon="2.38528">
        <ele>147.5</ele>
        <time>2013-08-06T19:05:12.000Z</time>
      </trkpt>
      <trkpt lat="48.87433" lon="2.38532">
        <ele>147.2</ele>
        <time>2013-08-06T19:05:13.000Z</time>
      </trkpt>
      <trkpt lat="48.87432" lon="2.38537">
        <ele>147.7</ele>
        <time>2013-08-06T19:05:14.000Z</time>
      </trkpt>
      <trkpt lat="48.8743" lon="2.38541">
        <ele>147.4</ele>
        <time>2013-08-06T19:05:15.000Z</time>
      </trkpt>
      <trkpt lat="48.87428" lon="2.38546">
        <ele>147.3</ele>
        <time>2013-08-06T19:05:16.000Z</time>
      </trkpt>
      <trkpt lat="48.87426" lon="2.38551">
        <ele>147.5</ele>
        <time>2013-08-06T19:05:17.000Z</time>
      </trkpt>
      <trkpt lat="48.87424" lon="2.38555">
        <ele>148.4</ele>
        <time>2013-08-06T19:05:18.000Z</time>
      </trkpt>
      <trkpt lat="48.87422" lon="2.38558">
        <ele>147.5</ele>
        <time>2013-08-06T19:05:19.000Z</time>
      </trkpt>
      <trkpt lat="48.87419" lon="2.38563">
        <ele>146.8</ele>
        <time>2013-08-06T19:05:21.000Z</time>
      </trkpt>
      <trkpt lat="48.87417" lon="2.38565">
        <ele>146.8</ele>
        <time>2013-08-06T19:05:22.000Z</time>
      </trkpt>
      <trkpt lat="48.87415" lon="2.3857">
        <ele>146</ele>
        <time>2013-08-06T19:05:25.000Z</time>
      </trkpt>
      <trkpt lat="48.87416" lon="2.38572">
        <ele>145.5</ele>
        <time>2013-08-06T19:05:26.000Z</time>
      </trkpt>
      <trkpt lat="48.87418" lon="2.38575">
        <ele>144.7</ele>
        <time>2013-08-06T19:05:28.000Z</time>
      </trkpt>
      <trkpt lat="48.87419" lon="2.38577">
        <ele>143.6</ele>
        <time>2013-08-06T19:05:29.000Z</time>
      </trkpt>
      <trkpt lat="48.87421" lon="2.38582">
        <ele>141.8</ele>
        <time>2013-08-06T19:05:31.000Z</time>
      </trkpt>
      <trkpt lat="48.87422" lon="2.38586">
        <ele>140.7</ele>
        <time>2013-08-06T19:05:32.000Z</time>
      </trkpt>
      <trkpt lat="48.87424" lon="2.3859">
        <ele>140.5</ele>
        <time>2013-08-06T19:05:33.000Z</time>
      </trkpt>
      <trkpt lat="48.87425" lon="2.38593">
        <ele>140.2</ele>
        <time>2013-08-06T19:05:34.000Z</time>
      </trkpt>
      <trkpt lat="48.87428" lon="2.38598">
        <ele>139.8</ele>
        <time>2013-08-06T19:05:36.000Z</time>
      </trkpt>
      <trkpt lat="48.87428" lon="2.38599">
        <ele>140.4</ele>
        <time>2013-08-06T19:05:37.000Z</time>
      </trkpt>
      <trkpt lat="48.8743" lon="2.38604">
        <ele>140.2</ele>
        <time>2013-08-06T19:05:39.000Z</time>
      </trkpt>
      <trkpt lat="48.87431" lon="2.38607">
        <ele>140.3</ele>
        <time>2013-08-06T19:05:40.000Z</time>
      </trkpt>
      <trkpt lat="48.87433" lon="2.38613">
        <ele>140.7</ele>
        <time>2013-08-06T19:05:42.000Z</time>
      </trkpt>
      <trkpt lat="48.87434" lon="2.38616">
        <ele>141</ele>
        <time>2013-08-06T19:05:43.000Z</time>
      </trkpt>
      <trkpt lat="48.87436" lon="2.38618">
        <ele>139.5</ele>
        <time>2013-08-06T19:05:44.000Z</time>
      </trkpt>
      <trkpt lat="48.87437" lon="2.38622">
        <ele>139.2</ele>
        <time>2013-08-06T19:05:45.000Z</time>
      </trkpt>
      <trkpt lat="48.87439" lon="2.38625">
        <ele>138</ele>
        <time>2013-08-06T19:05:46.000Z</time>
      </trkpt>
      <trkpt lat="48.8744" lon="2.38628">
        <ele>137.7</ele>
        <time>2013-08-06T19:05:47.000Z</time>
      </trkpt>
      <trkpt lat="48.8744" lon="2.38631">
        <ele>137.8</ele>
        <time>2013-08-06T19:05:48.000Z</time>
      </trkpt>
      <trkpt lat="48.87441" lon="2.38635">
        <ele>137.3</ele>
        <time>2013-08-06T19:05:49.000Z</time>
      </trkpt>
      <trkpt lat="48.87441" lon="2.38639">
        <ele>137.7</ele>
        <time>2013-08-06T19:05:50.000Z</time>
      </trkpt>
      <trkpt lat="48.87442" lon="2.38642">
        <ele>140</ele>
        <time>2013-08-06T19:05:51.000Z</time>
      </trkpt>
      <trkpt lat="48.87444" lon="2.38647">
        <ele>143.5</ele>
        <time>2013-08-06T19:05:53.000Z</time>
      </trkpt>
      <trkpt lat="48.87445" lon="2.3865">
        <ele>143.7</ele>
        <time>2013-08-06T19:05:54.000Z</time>
      </trkpt>
      <trkpt lat="48.87446" lon="2.38655">
        <ele>146.2</ele>
        <time>2013-08-06T19:05:56.000Z</time>
      </trkpt>
      <trkpt lat="48.87447" lon="2.38657">
        <ele>146.9</ele>
        <time>2013-08-06T19:05:57.000Z</time>
      </trkpt>
      <trkpt lat="48.87448" lon="2.38659">
        <ele>147.1</ele>
        <time>2013-08-06T19:05:58.000Z</time>
      </trkpt>
      <trkpt lat="48.8745" lon="2.38662">
        <ele>144.1</ele>
        <time>2013-08-06T19:05:59.000Z</time>
      </trkpt>
      <trkpt lat="48.87452" lon="2.38667">
        <ele>141.9</ele>
        <time>2013-08-06T19:06:00.000Z</time>
      </trkpt>
      <trkpt lat="48.87454" lon="2.38672">
        <ele>141.9</ele>
        <time>2013-08-06T19:06:01.000Z</time>
      </trkpt>
      <trkpt lat="48.87455" lon="2.38678">
        <ele>141.9</ele>
        <time>2013-08-06T19:06:02.000Z</time>
      </trkpt>
      <trkpt lat="48.87457" lon="2.38683">
        <ele>141.2</ele>
        <time>2013-08-06T19:06:03.000Z</time>
      </trkpt>
      <trkpt lat="48.87458" lon="2.38687">
        <ele>139</ele>
        <time>2013-08-06T19:06:04.000Z</time>
      </trkpt>
      <trkpt lat="48.87458" lon="2.38691">
        <ele>139.3</ele>
        <time>2013-08-06T19:06:05.000Z</time>
      </trkpt>
      <trkpt lat="48.87459" lon="2.38695">
        <ele>138.3</ele>
        <time>2013-08-06T19:06:06.000Z</time>
      </trkpt>
      <trkpt lat="48.87458" lon="2.38699">
        <ele>139.3</ele>
        <time>2013-08-06T19:06:07.000Z</time>
      </trkpt>
      <trkpt lat="48.87456" lon="2.38703">
        <ele>138.7</ele>
        <time>2013-08-06T19:06:08.000Z</time>
      </trkpt>
      <trkpt lat="48.87455" lon="2.38707">
        <ele>137.9</ele>
        <time>2013-08-06T19:06:09.000Z</time>
      </trkpt>
      <trkpt lat="48.87454" lon="2.38711">
        <ele>138</ele>
        <time>2013-08-06T19:06:10.000Z</time>
      </trkpt>
      <trkpt lat="48.87454" lon="2.38715">
        <ele>137.9</ele>
        <time>2013-08-06T19:06:11.000Z</time>
      </trkpt>
      <trkpt lat="48.87454" lon="2.38721">
        <ele>136</ele>
        <time>2013-08-06T19:06:13.000Z</time>
      </trkpt>
      <trkpt lat="48.87455" lon="2.38724">
        <ele>137.2</ele>
        <time>2013-08-06T19:06:14.000Z</time>
      </trkpt>
      <trkpt lat="48.87456" lon="2.38728">
        <ele>138.8</ele>
        <time>2013-08-06T19:06:15.000Z</time>
      </trkpt>
      <trkpt lat="48.87457" lon="2.38732">
        <ele>141.4</ele>
        <time>2013-08-06T19:06:16.000Z</time>
      </trkpt>
      <trkpt lat="48.87459" lon="2.38736">
        <ele>142.7</ele>
        <time>2013-08-06T19:06:17.000Z</time>
      </trkpt>
      <trkpt lat="48.8746" lon="2.3874">
        <ele>143.7</ele>
        <time>2013-08-06T19:06:18.000Z</time>
      </trkpt>
      <trkpt lat="48.8746" lon="2.38744">
        <ele>145.8</ele>
        <time>2013-08-06T19:06:19.000Z</time>
      </trkpt>
      <trkpt lat="48.87461" lon="2.38747">
        <ele>146.5</ele>
        <time>2013-08-06T19:06:20.000Z</time>
      </trkpt>
      <trkpt lat="48.87461" lon="2.38753">
        <ele>151.5</ele>
        <time>2013-08-06T19:06:22.000Z</time>
      </trkpt>
      <trkpt lat="48.87461" lon="2.38755">
        <ele>152.3</ele>
        <time>2013-08-06T19:06:23.000Z</time>
      </trkpt>
      <trkpt lat="48.87463" lon="2.38759">
        <ele>155.3</ele>
        <time>2013-08-06T19:06:29.000Z</time>
      </trkpt>
      <trkpt lat="48.87463" lon="2.3876">
        <ele>157.1</ele>
        <time>2013-08-06T19:06:30.000Z</time>
      </trkpt>
      <trkpt lat="48.87462" lon="2.38766">
        <ele>162.9</ele>
        <time>2013-08-06T19:06:38.000Z</time>
      </trkpt>
      <trkpt lat="48.87462" lon="2.38767">
        <ele>163</ele>
        <time>2013-08-06T19:06:39.000Z</time>
      </trkpt>
      <trkpt lat="48.87459" lon="2.38771">
        <ele>162.2</ele>
        <time>2013-08-06T19:06:52.000Z</time>
      </trkpt>
      <trkpt lat="48.87458" lon="2.38772">
        <ele>162.4</ele>
        <time>2013-08-06T19:06:53.000Z</time>
      </trkpt>
      <trkpt lat="48.87456" lon="2.38774">
        <ele>161.8</ele>
        <time>2013-08-06T19:06:54.000Z</time>
      </trkpt>
      <trkpt lat="48.87454" lon="2.38775">
        <ele>162</ele>
        <time>2013-08-06T19:06:55.000Z</time>
      </trkpt>
      <trkpt lat="48.87452" lon="2.38777">
        <ele>161.5</ele>
        <time>2013-08-06T19:06:56.000Z</time>
      </trkpt>
      <trkpt lat="48.87449" lon="2.38778">
        <ele>161.6</ele>
        <time>2013-08-06T19:06:57.000Z</time>
      </trkpt>
      <trkpt lat="48.87446" lon="2.38779">
        <ele>161.5</ele>
        <time>2013-08-06T19:06:58.000Z</time>
      </trkpt>
      <trkpt lat="48.87442" lon="2.38781">
        <ele>161.4</ele>
        <time>2013-08-06T19:06:59.000Z</time>
      </trkpt>
      <trkpt lat="48.87439" lon="2.38783">
        <ele>161.5</ele>
        <time>2013-08-06T19:07:00.000Z</time>
      </trkpt>
      <trkpt lat="48.87435" lon="2.38785">
        <ele>162.6</ele>
        <time>2013-08-06T19:07:01.000Z</time>
      </trkpt>
      <trkpt lat="48.87431" lon="2.38786">
        <ele>163.6</ele>
        <time>2013-08-06T19:07:02.000Z</time>
      </trkpt>
      <trkpt lat="48.87427" lon="2.38788">
        <ele>163.2</ele>
        <time>2013-08-06T19:07:03.000Z</time>
      </trkpt>
      <trkpt lat="48.87424" lon="2.3879">
        <ele>163.7</ele>
        <time>2013-08-06T19:07:04.000Z</time>
      </trkpt>
      <trkpt lat="48.8742" lon="2.38792">
        <ele>165.3</ele>
        <time>2013-08-06T19:07:05.000Z</time>
      </trkpt>
      <trkpt lat="48.87417" lon="2.38793">
        <ele>165.6</ele>
        <time>2013-08-06T19:07:06.000Z</time>
      </trkpt>
      <trkpt lat="48.87412" lon="2.38796">
        <ele>160.5</ele>
        <time>2013-08-06T19:07:07.000Z</time>
      </trkpt>
      <trkpt lat="48.87408" lon="2.38797">
        <ele>159.6</ele>
        <time>2013-08-06T19:07:08.000Z</time>
      </trkpt>
      <trkpt lat="48.87405" lon="2.38799">
        <ele>158</ele>
        <time>2013-08-06T19:07:09.000Z</time>
      </trkpt>
      <trkpt lat="48.87401" lon="2.38801">
        <ele>157.1</ele>
        <time>2013-08-06T19:07:10.000Z</time>
      </trkpt>
      <trkpt lat="48.87398" lon="2.38802">
        <ele>155</ele>
        <time>2013-08-06T19:07:11.000Z</time>
      </trkpt>
      <trkpt lat="48.87395" lon="2.38804">
        <ele>154.2</ele>
        <time>2013-08-06T19:07:12.000Z</time>
      </trkpt>
      <trkpt lat="48.87393" lon="2.38804">
        <ele>155.2</ele>
        <time>2013-08-06T19:07:13.000Z</time>
      </trkpt>
      <trkpt lat="48.87389" lon="2.38807">
        <ele>154.5</ele>
        <time>2013-08-06T19:07:18.000Z</time>
      </trkpt>
      <trkpt lat="48.87389" lon="2.38808">
        <ele>153.8</ele>
        <time>2013-08-06T19:07:19.000Z</time>
      </trkpt>
      <trkpt lat="48.87386" lon="2.38812">
        <ele>152.2</ele>
        <time>2013-08-06T19:07:39.000Z</time>
      </trkpt>
      <trkpt lat="48.87386" lon="2.38815">
        <ele>153</ele>
        <time>2013-08-06T19:07:40.000Z</time>
      </trkpt>
      <trkpt lat="48.87385" lon="2.38818">
        <ele>151.9</ele>
        <time>2013-08-06T19:07:41.000Z</time>
      </trkpt>
      <trkpt lat="48.87384" lon="2.38823">
        <ele>151.6</ele>
        <time>2013-08-06T19:07:42.000Z</time>
      </trkpt>
      <trkpt lat="48.87383" lon="2.38827">
        <ele>152.5</ele>
        <time>2013-08-06T19:07:43.000Z</time>
      </trkpt>
      <trkpt lat="48.87382" lon="2.3883">
        <ele>152.4</ele>
        <time>2013-08-06T19:07:44.000Z</time>
      </trkpt>
      <trkpt lat="48.87381" lon="2.38834">
        <ele>151.9</ele>
        <time>2013-08-06T19:07:45.000Z</time>
      </trkpt>
      <trkpt lat="48.8738" lon="2.38837">
        <ele>152.6</ele>
        <time>2013-08-06T19:07:46.000Z</time>
      </trkpt>
      <trkpt lat="48.87379" lon="2.38843">
        <ele>153.8</ele>
        <time>2013-08-06T19:07:48.000Z</time>
      </trkpt>
      <trkpt lat="48.87378" lon="2.38846">
        <ele>154.3</ele>
        <time>2013-08-06T19:07:49.000Z</time>
      </trkpt>
      <trkpt lat="48.87378" lon="2.38852">
        <ele>155.2</ele>
        <time>2013-08-06T19:07:51.000Z</time>
      </trkpt>
      <trkpt lat="48.87378" lon="2.38855">
        <ele>154.5</ele>
        <time>2013-08-06T19:07:52.000Z</time>
      </trkpt>
      <trkpt lat="48.87378" lon="2.38859">
        <ele>154.7</ele>
        <time>2013-08-06T19:07:53.000Z</time>
      </trkpt>
      <trkpt lat="48.87378" lon="2.38863">
        <ele>153.3</ele>
        <time>2013-08-06T19:07:54.000Z</time>
      </trkpt>
      <trkpt lat="48.87379" lon="2.38869">
        <ele>153.2</ele>
        <time>2013-08-06T19:07:55.000Z</time>
      </trkpt>
      <trkpt lat="48.87379" lon="2.38875">
        <ele>153.5</ele>
        <time>2013-08-06T19:07:56.000Z</time>
      </trkpt>
      <trkpt lat="48.87379" lon="2.38881">
        <ele>153.7</ele>
        <time>2013-08-06T19:07:57.000Z</time>
      </trkpt>
      <trkpt lat="48.87379" lon="2.38887">
        <ele>153.9</ele>
        <time>2013-08-06T19:07:58.000Z</time>
      </trkpt>
      <trkpt lat="48.87378" lon="2.38892">
        <ele>153.1</ele>
        <time>2013-08-06T19:07:59.000Z</time>
      </trkpt>
      <trkpt lat="48.87378" lon="2.38897">
        <ele>152.7</ele>
        <time>2013-08-06T19:08:00.000Z</time>
      </trkpt>
      <trkpt lat="48.87378" lon="2.38903">
        <ele>152.6</ele>
        <time>2013-08-06T19:08:01.000Z</time>
      </trkpt>
      <trkpt lat="48.87378" lon="2.38908">
        <ele>150</ele>
        <time>2013-08-06T19:08:02.000Z</time>
      </trkpt>
      <trkpt lat="48.8738" lon="2.38914">
        <ele>148.4</ele>
        <time>2013-08-06T19:08:03.000Z</time>
      </trkpt>
      <trkpt lat="48.87381" lon="2.3892">
        <ele>147.8</ele>
        <time>2013-08-06T19:08:04.000Z</time>
      </trkpt>
      <trkpt lat="48.87382" lon="2.38925">
        <ele>148</ele>
        <time>2013-08-06T19:08:05.000Z</time>
      </trkpt>
      <trkpt lat="48.87384" lon="2.3893">
        <ele>147.8</ele>
        <time>2013-08-06T19:08:06.000Z</time>
      </trkpt>
      <trkpt lat="48.87386" lon="2.38934">
        <ele>148.1</ele>
        <time>2013-08-06T19:08:07.000Z</time>
      </trkpt>
      <trkpt lat="48.87387" lon="2.38937">
        <ele>148.1</ele>
        <time>2013-08-06T19:08:08.000Z</time>
      </trkpt>
      <trkpt lat="48.87388" lon="2.3894">
        <ele>148.9</ele>
        <time>2013-08-06T19:08:09.000Z</time>
      </trkpt>
      <trkpt lat="48.87389" lon="2.38943">
        <ele>150.8</ele>
        <time>2013-08-06T19:08:10.000Z</time>
      </trkpt>
      <trkpt lat="48.87389" lon="2.38947">
        <ele>150.9</ele>
        <time>2013-08-06T19:08:11.000Z</time>
      </trkpt>
      <trkpt lat="48.87389" lon="2.38951">
        <ele>150.6</ele>
        <time>2013-08-06T19:08:12.000Z</time>
      </trkpt>
      <trkpt lat="48.87389" lon="2.38954">
        <ele>150.4</ele>
        <time>2013-08-06T19:08:13.000Z</time>
      </trkpt>
      <trkpt lat="48.87388" lon="2.38957">
        <ele>151.3</ele>
        <time>2013-08-06T19:08:14.000Z</time>
      </trkpt>
      <trkpt lat="48.87387" lon="2.38961">
        <ele>150.2</ele>
        <time>2013-08-06T19:08:15.000Z</time>
      </trkpt>
      <trkpt lat="48.87384" lon="2.38965">
        <ele>149.3</ele>
        <time>2013-08-06T19:08:16.000Z</time>
      </trkpt>
      <trkpt lat="48.87382" lon="2.38968">
        <ele>152.5</ele>
        <time>2013-08-06T19:08:17.000Z</time>
      </trkpt>
      <trkpt lat="48.87379" lon="2.38971">
        <ele>153</ele>
        <time>2013-08-06T19:08:18.000Z</time>
      </trkpt>
      <trkpt lat="48.87376" lon="2.38974">
        <ele>154.3</ele>
        <time>2013-08-06T19:08:19.000Z</time>
      </trkpt>
      <trkpt lat="48.87373" lon="2.38977">
        <ele>153.4</ele>
        <time>2013-08-06T19:08:20.000Z</time>
      </trkpt>
      <trkpt lat="48.87369" lon="2.3898">
        <ele>151.9</ele>
        <time>2013-08-06T19:08:21.000Z</time>
      </trkpt>
      <trkpt lat="48.87364" lon="2.38984">
        <ele>151.1</ele>
        <time>2013-08-06T19:08:22.000Z</time>
      </trkpt>
      <trkpt lat="48.8736" lon="2.38987">
        <ele>152.3</ele>
        <time>2013-08-06T19:08:23.000Z</time>
      </trkpt>
      <trkpt lat="48.87356" lon="2.3899">
        <ele>152.5</ele>
        <time>2013-08-06T19:08:24.000Z</time>
      </trkpt>
      <trkpt lat="48.87353" lon="2.38994">
        <ele>154.4</ele>
        <time>2013-08-06T19:08:25.000Z</time>
      </trkpt>
      <trkpt lat="48.8735" lon="2.38998">
        <ele>156</ele>
        <time>2013-08-06T19:08:26.000Z</time>
      </trkpt>
      <trkpt lat="48.87347" lon="2.39002">
        <ele>158.2</ele>
        <time>2013-08-06T19:08:27.000Z</time>
      </trkpt>
      <trkpt lat="48.87344" lon="2.39005">
        <ele>158.7</ele>
        <time>2013-08-06T19:08:28.000Z</time>
      </trkpt>
      <trkpt lat="48.87341" lon="2.39009">
        <ele>158.7</ele>
        <time>2013-08-06T19:08:29.000Z</time>
      </trkpt>
      <trkpt lat="48.87337" lon="2.39013">
        <ele>158.3</ele>
        <time>2013-08-06T19:08:30.000Z</time>
      </trkpt>
      <trkpt lat="48.87334" lon="2.39017">
        <ele>157.2</ele>
        <time>2013-08-06T19:08:31.000Z</time>
      </trkpt>
      <trkpt lat="48.8733" lon="2.39023">
        <ele>156.2</ele>
        <time>2013-08-06T19:08:32.000Z</time>
      </trkpt>
      <trkpt lat="48.87326" lon="2.39027">
        <ele>156.9</ele>
        <time>2013-08-06T19:08:33.000Z</time>
      </trkpt>
      <trkpt lat="48.87323" lon="2.39032">
        <ele>161.2</ele>
        <time>2013-08-06T19:08:34.000Z</time>
      </trkpt>
      <trkpt lat="48.87321" lon="2.39036">
        <ele>161.4</ele>
        <time>2013-08-06T19:08:35.000Z</time>
      </trkpt>
      <trkpt lat="48.87318" lon="2.3904">
        <ele>162.2</ele>
        <time>2013-08-06T19:08:36.000Z</time>
      </trkpt>
      <trkpt lat="48.87317" lon="2.39045">
        <ele>163.9</ele>
        <time>2013-08-06T19:08:37.000Z</time>
      </trkpt>
      <trkpt lat="48.87317" lon="2.39051">
        <ele>165.6</ele>
        <time>2013-08-06T19:08:38.000Z</time>
      </trkpt>
      <trkpt lat="48.87316" lon="2.39056">
        <ele>167</ele>
        <time>2013-08-06T19:08:39.000Z</time>
      </trkpt>
      <trkpt lat="48.87314" lon="2.39061">
        <ele>169.7</ele>
        <time>2013-08-06T19:08:40.000Z</time>
      </trkpt>
      <trkpt lat="48.87312" lon="2.39065">
        <ele>170</ele>
        <time>2013-08-06T19:08:41.000Z</time>
      </trkpt>
      <trkpt lat="48.8731" lon="2.39069">
        <ele>169.4</ele>
        <time>2013-08-06T19:08:42.000Z</time>
      </trkpt>
      <trkpt lat="48.87306" lon="2.39072">
        <ele>171.3</ele>
        <time>2013-08-06T19:08:43.000Z</time>
      </trkpt>
      <trkpt lat="48.87303" lon="2.39076">
        <ele>170.9</ele>
        <time>2013-08-06T19:08:44.000Z</time>
      </trkpt>
      <trkpt lat="48.87301" lon="2.39079">
        <ele>171.3</ele>
        <time>2013-08-06T19:08:45.000Z</time>
      </trkpt>
      <trkpt lat="48.87298" lon="2.39082">
        <ele>172.4</ele>
        <time>2013-08-06T19:08:46.000Z</time>
      </trkpt>
      <trkpt lat="48.87295" lon="2.39086">
        <ele>173.3</ele>
        <time>2013-08-06T19:08:47.000Z</time>
      </trkpt>
      <trkpt lat="48.87293" lon="2.39088">
        <ele>173.7</ele>
        <time>2013-08-06T19:08:48.000Z</time>
      </trkpt>
      <trkpt lat="48.8729" lon="2.3909">
        <ele>173.5</ele>
        <time>2013-08-06T19:08:49.000Z</time>
      </trkpt>
      <trkpt lat="48.87287" lon="2.39092">
        <ele>174.2</ele>
        <time>2013-08-06T19:08:50.000Z</time>
      </trkpt>
      <trkpt lat="48.87285" lon="2.39095">
        <ele>175</ele>
        <time>2013-08-06T19:08:51.000Z</time>
      </trkpt>
      <trkpt lat="48.87282" lon="2.39097">
        <ele>172.9</ele>
        <time>2013-08-06T19:08:52.000Z</time>
      </trkpt>
      <trkpt lat="48.87279" lon="2.391">
        <ele>170.2</ele>
        <time>2013-08-06T19:08:53.000Z</time>
      </trkpt>
      <trkpt lat="48.87276" lon="2.39104">
        <ele>166.7</ele>
        <time>2013-08-06T19:08:54.000Z</time>
      </trkpt>
      <trkpt lat="48.87272" lon="2.39108">
        <ele>165.6</ele>
        <time>2013-08-06T19:08:55.000Z</time>
      </trkpt>
      <trkpt lat="48.87269" lon="2.39112">
        <ele>164.4</ele>
        <time>2013-08-06T19:08:56.000Z</time>
      </trkpt>
      <trkpt lat="48.87267" lon="2.39117">
        <ele>164.8</ele>
        <time>2013-08-06T19:08:57.000Z</time>
      </trkpt>
      <trkpt lat="48.87264" lon="2.39122">
        <ele>165.6</ele>
        <time>2013-08-06T19:08:58.000Z</time>
      </trkpt>
      <trkpt lat="48.87262" lon="2.39126">
        <ele>166.1</ele>
        <time>2013-08-06T19:08:59.000Z</time>
      </trkpt>
      <trkpt lat="48.87259" lon="2.3913">
        <ele>166</ele>
        <time>2013-08-06T19:09:00.000Z</time>
      </trkpt>
      <trkpt lat="48.87255" lon="2.39134">
        <ele>165.4</ele>
        <time>2013-08-06T19:09:01.000Z</time>
      </trkpt>
      <trkpt lat="48.87252" lon="2.39138">
        <ele>164.9</ele>
        <time>2013-08-06T19:09:02.000Z</time>
      </trkpt>
      <trkpt lat="48.87249" lon="2.39144">
        <ele>164.4</ele>
        <time>2013-08-06T19:09:03.000Z</time>
      </trkpt>
      <trkpt lat="48.87245" lon="2.3915">
        <ele>163.7</ele>
        <time>2013-08-06T19:09:04.000Z</time>
      </trkpt>
      <trkpt lat="48.87242" lon="2.39156">
        <ele>163.9</ele>
        <time>2013-08-06T19:09:05.000Z</time>
      </trkpt>
      <trkpt lat="48.87239" lon="2.39161">
        <ele>163</ele>
        <time>2013-08-06T19:09:06.000Z</time>
      </trkpt>
      <trkpt lat="48.87235" lon="2.39166">
        <ele>164.2</ele>
        <time>2013-08-06T19:09:07.000Z</time>
      </trkpt>
      <trkpt lat="48.87232" lon="2.39171">
        <ele>165</ele>
        <time>2013-08-06T19:09:08.000Z</time>
      </trkpt>
      <trkpt lat="48.87228" lon="2.39176">
        <ele>164.8</ele>
        <time>2013-08-06T19:09:09.000Z</time>
      </trkpt>
      <trkpt lat="48.87225" lon="2.3918">
        <ele>165.2</ele>
        <time>2013-08-06T19:09:10.000Z</time>
      </trkpt>
      <trkpt lat="48.87222" lon="2.39184">
        <ele>166.2</ele>
        <time>2013-08-06T19:09:11.000Z</time>
      </trkpt>
      <trkpt lat="48.87218" lon="2.39188">
        <ele>166.3</ele>
        <time>2013-08-06T19:09:12.000Z</time>
      </trkpt>
      <trkpt lat="48.87215" lon="2.39192">
        <ele>168</ele>
        <time>2013-08-06T19:09:13.000Z</time>
      </trkpt>
      <trkpt lat="48.87211" lon="2.39195">
        <ele>168.2</ele>
        <time>2013-08-06T19:09:14.000Z</time>
      </trkpt>
      <trkpt lat="48.87207" lon="2.39199">
        <ele>167</ele>
        <time>2013-08-06T19:09:15.000Z</time>
      </trkpt>
      <trkpt lat="48.87204" lon="2.39202">
        <ele>166.5</ele>
        <time>2013-08-06T19:09:16.000Z</time>
      </trkpt>
      <trkpt lat="48.87201" lon="2.39206">
        <ele>164.4</ele>
        <time>2013-08-06T19:09:17.000Z</time>
      </trkpt>
      <trkpt lat="48.87197" lon="2.39209">
        <ele>163.1</ele>
        <time>2013-08-06T19:09:18.000Z</time>
      </trkpt>
      <trkpt lat="48.87193" lon="2.39213">
        <ele>164.4</ele>
        <time>2013-08-06T19:09:19.000Z</time>
      </trkpt>
      <trkpt lat="48.87189" lon="2.39217">
        <ele>164</ele>
        <time>2013-08-06T19:09:20.000Z</time>
      </trkpt>
      <trkpt lat="48.87186" lon="2.3922">
        <ele>164.1</ele>
        <time>2013-08-06T19:09:21.000Z</time>
      </trkpt>
      <trkpt lat="48.87182" lon="2.39223">
        <ele>163.9</ele>
        <time>2013-08-06T19:09:22.000Z</time>
      </trkpt>
      <trkpt lat="48.87179" lon="2.39226">
        <ele>164.7</ele>
        <time>2013-08-06T19:09:23.000Z</time>
      </trkpt>
      <trkpt lat="48.87176" lon="2.39229">
        <ele>162.8</ele>
        <time>2013-08-06T19:09:24.000Z</time>
      </trkpt>
      <trkpt lat="48.87173" lon="2.39233">
        <ele>161.5</ele>
        <time>2013-08-06T19:09:25.000Z</time>
      </trkpt>
      <trkpt lat="48.8717" lon="2.39237">
        <ele>163</ele>
        <time>2013-08-06T19:09:26.000Z</time>
      </trkpt>
      <trkpt lat="48.87167" lon="2.39241">
        <ele>158.8</ele>
        <time>2013-08-06T19:09:27.000Z</time>
      </trkpt>
      <trkpt lat="48.87164" lon="2.39245">
        <ele>159.2</ele>
        <time>2013-08-06T19:09:28.000Z</time>
      </trkpt>
      <trkpt lat="48.87161" lon="2.39248">
        <ele>159.3</ele>
        <time>2013-08-06T19:09:29.000Z</time>
      </trkpt>
      <trkpt lat="48.87159" lon="2.39251">
        <ele>158.3</ele>
        <time>2013-08-06T19:09:30.000Z</time>
      </trkpt>
      <trkpt lat="48.87158" lon="2.39255">
        <ele>158.1</ele>
        <time>2013-08-06T19:09:31.000Z</time>
      </trkpt>
      <trkpt lat="48.87156" lon="2.39258">
        <ele>159.9</ele>
        <time>2013-08-06T19:09:32.000Z</time>
      </trkpt>
      <trkpt lat="48.87154" lon="2.39263">
        <ele>162.2</ele>
        <time>2013-08-06T19:09:34.000Z</time>
      </trkpt>
      <trkpt lat="48.87153" lon="2.39265">
        <ele>163.5</ele>
        <time>2013-08-06T19:09:35.000Z</time>
      </trkpt>
      <trkpt lat="48.87152" lon="2.39271">
        <ele>164.6</ele>
        <time>2013-08-06T19:09:37.000Z</time>
      </trkpt>
      <trkpt lat="48.87151" lon="2.39273">
        <ele>164.7</ele>
        <time>2013-08-06T19:09:38.000Z</time>
      </trkpt>
      <trkpt lat="48.87148" lon="2.39277">
        <ele>163.5</ele>
        <time>2013-08-06T19:09:41.000Z</time>
      </trkpt>
      <trkpt lat="48.87147" lon="2.39278">
        <ele>163.7</ele>
        <time>2013-08-06T19:09:42.000Z</time>
      </trkpt>
      <trkpt lat="48.87144" lon="2.3928">
        <ele>162.5</ele>
        <time>2013-08-06T19:09:44.000Z</time>
      </trkpt>
      <trkpt lat="48.87143" lon="2.39281">
        <ele>162.2</ele>
        <time>2013-08-06T19:09:45.000Z</time>
      </trkpt>
      <trkpt lat="48.87139" lon="2.39283">
        <ele>161.2</ele>
        <time>2013-08-06T19:09:47.000Z</time>
      </trkpt>
      <trkpt lat="48.87137" lon="2.39285">
        <ele>161.2</ele>
        <time>2013-08-06T19:09:48.000Z</time>
      </trkpt>
      <trkpt lat="48.87134" lon="2.39288">
        <ele>158.6</ele>
        <time>2013-08-06T19:09:50.000Z</time>
      </trkpt>
      <trkpt lat="48.87132" lon="2.39289">
        <ele>157.7</ele>
        <time>2013-08-06T19:09:51.000Z</time>
      </trkpt>
      <trkpt lat="48.87129" lon="2.39293">
        <ele>157.3</ele>
        <time>2013-08-06T19:09:53.000Z</time>
      </trkpt>
      <trkpt lat="48.87127" lon="2.39296">
        <ele>156.9</ele>
        <time>2013-08-06T19:09:54.000Z</time>
      </trkpt>
      <trkpt lat="48.87124" lon="2.39301">
        <ele>157.3</ele>
        <time>2013-08-06T19:09:56.000Z</time>
      </trkpt>
      <trkpt lat="48.87123" lon="2.39303">
        <ele>156.9</ele>
        <time>2013-08-06T19:09:57.000Z</time>
      </trkpt>
      <trkpt lat="48.87121" lon="2.39308">
        <ele>157.9</ele>
        <time>2013-08-06T19:09:59.000Z</time>
      </trkpt>
      <trkpt lat="48.87119" lon="2.3931">
        <ele>159.2</ele>
        <time>2013-08-06T19:10:00.000Z</time>
      </trkpt>
      <trkpt lat="48.87117" lon="2.39315">
        <ele>159.3</ele>
        <time>2013-08-06T19:10:02.000Z</time>
      </trkpt>
      <trkpt lat="48.87116" lon="2.39317">
        <ele>159.1</ele>
        <time>2013-08-06T19:10:03.000Z</time>
      </trkpt>
      <trkpt lat="48.87114" lon="2.39322">
        <ele>157.4</ele>
        <time>2013-08-06T19:10:58.000Z</time>
      </trkpt>
      <trkpt lat="48.87114" lon="2.39323">
        <ele>156.5</ele>
        <time>2013-08-06T19:10:59.000Z</time>
      </trkpt>
      <trkpt lat="48.87113" lon="2.39328">
        <ele>155.2</ele>
        <time>2013-08-06T19:11:03.000Z</time>
      </trkpt>
      <trkpt lat="48.87114" lon="2.3933">
        <ele>155.3</ele>
        <time>2013-08-06T19:11:04.000Z</time>
      </trkpt>
      <trkpt lat="48.87113" lon="2.39335">
        <ele>155.2</ele>
        <time>2013-08-06T19:11:06.000Z</time>
      </trkpt>
      <trkpt lat="48.87113" lon="2.39339">
        <ele>155.4</ele>
        <time>2013-08-06T19:11:07.000Z</time>
      </trkpt>
      <trkpt lat="48.87111" lon="2.39345">
        <ele>155.2</ele>
        <time>2013-08-06T19:11:09.000Z</time>
      </trkpt>
      <trkpt lat="48.87111" lon="2.39348">
        <ele>154.1</ele>
        <time>2013-08-06T19:11:10.000Z</time>
      </trkpt>
      <trkpt lat="48.8711" lon="2.39355">
        <ele>152.8</ele>
        <time>2013-08-06T19:11:12.000Z</time>
      </trkpt>
      <trkpt lat="48.8711" lon="2.39358">
        <ele>152.2</ele>
        <time>2013-08-06T19:11:13.000Z</time>
      </trkpt>
      <trkpt lat="48.87109" lon="2.39362">
        <ele>151.8</ele>
        <time>2013-08-06T19:11:14.000Z</time>
      </trkpt>
      <trkpt lat="48.87109" lon="2.39366">
        <ele>151.8</ele>
        <time>2013-08-06T19:11:15.000Z</time>
      </trkpt>
      <trkpt lat="48.87109" lon="2.3937">
        <ele>151.2</ele>
        <time>2013-08-06T19:11:16.000Z</time>
      </trkpt>
      <trkpt lat="48.87109" lon="2.39374">
        <ele>150.6</ele>
        <time>2013-08-06T19:11:17.000Z</time>
      </trkpt>
      <trkpt lat="48.87109" lon="2.39379">
        <ele>150</ele>
        <time>2013-08-06T19:11:18.000Z</time>
      </trkpt>
      <trkpt lat="48.87109" lon="2.39383">
        <ele>149.3</ele>
        <time>2013-08-06T19:11:19.000Z</time>
      </trkpt>
      <trkpt lat="48.87108" lon="2.39386">
        <ele>149.3</ele>
        <time>2013-08-06T19:11:20.000Z</time>
      </trkpt>
      <trkpt lat="48.87108" lon="2.3939">
        <ele>148.1</ele>
        <time>2013-08-06T19:11:21.000Z</time>
      </trkpt>
      <trkpt lat="48.87108" lon="2.39394">
        <ele>146</ele>
        <time>2013-08-06T19:11:23.000Z</time>
      </trkpt>
      <trkpt lat="48.87108" lon="2.39397">
        <ele>145.8</ele>
        <time>2013-08-06T19:11:24.000Z</time>
      </trkpt>
      <trkpt lat="48.87107" lon="2.39401">
        <ele>145.4</ele>
        <time>2013-08-06T19:11:25.000Z</time>
      </trkpt>
      <trkpt lat="48.87106" lon="2.39405">
        <ele>145</ele>
        <time>2013-08-06T19:11:26.000Z</time>
      </trkpt>
      <trkpt lat="48.87105" lon="2.3941">
        <ele>145.6</ele>
        <time>2013-08-06T19:11:27.000Z</time>
      </trkpt>
      <trkpt lat="48.87105" lon="2.39415">
        <ele>145.5</ele>
        <time>2013-08-06T19:11:28.000Z</time>
      </trkpt>
      <trkpt lat="48.87104" lon="2.3942">
        <ele>145.4</ele>
        <time>2013-08-06T19:11:29.000Z</time>
      </trkpt>
      <trkpt lat="48.87104" lon="2.39424">
        <ele>145.5</ele>
        <time>2013-08-06T19:11:30.000Z</time>
      </trkpt>
      <trkpt lat="48.87103" lon="2.39429">
        <ele>145.8</ele>
        <time>2013-08-06T19:11:31.000Z</time>
      </trkpt>
      <trkpt lat="48.87103" lon="2.39433">
        <ele>144.3</ele>
        <time>2013-08-06T19:11:32.000Z</time>
      </trkpt>
      <trkpt lat="48.87103" lon="2.39438">
        <ele>143.5</ele>
        <time>2013-08-06T19:11:33.000Z</time>
      </trkpt>
      <trkpt lat="48.87103" lon="2.39442">
        <ele>143.2</ele>
        <time>2013-08-06T19:11:34.000Z</time>
      </trkpt>
      <trkpt lat="48.87103" lon="2.39448">
        <ele>142.9</ele>
        <time>2013-08-06T19:11:36.000Z</time>
      </trkpt>
      <trkpt lat="48.87104" lon="2.39451">
        <ele>143</ele>
        <time>2013-08-06T19:11:37.000Z</time>
      </trkpt>
      <trkpt lat="48.87105" lon="2.39456">
        <ele>142.5</ele>
        <time>2013-08-06T19:11:39.000Z</time>
      </trkpt>
      <trkpt lat="48.87104" lon="2.39461">
        <ele>143.3</ele>
        <time>2013-08-06T19:11:40.000Z</time>
      </trkpt>
      <trkpt lat="48.87103" lon="2.39465">
        <ele>142.9</ele>
        <time>2013-08-06T19:11:41.000Z</time>
      </trkpt>
      <trkpt lat="48.87103" lon="2.39469">
        <ele>142.1</ele>
        <time>2013-08-06T19:11:42.000Z</time>
      </trkpt>
      <trkpt lat="48.87102" lon="2.39473">
        <ele>142.6</ele>
        <time>2013-08-06T19:11:43.000Z</time>
      </trkpt>
      <trkpt lat="48.87101" lon="2.39478">
        <ele>143.8</ele>
        <time>2013-08-06T19:11:44.000Z</time>
      </trkpt>
      <trkpt lat="48.871" lon="2.39482">
        <ele>143.1</ele>
        <time>2013-08-06T19:11:45.000Z</time>
      </trkpt>
      <trkpt lat="48.87099" lon="2.39486">
        <ele>143</ele>
        <time>2013-08-06T19:11:46.000Z</time>
      </trkpt>
      <trkpt lat="48.87099" lon="2.3949">
        <ele>143.4</ele>
        <time>2013-08-06T19:11:47.000Z</time>
      </trkpt>
      <trkpt lat="48.87098" lon="2.39494">
        <ele>143.3</ele>
        <time>2013-08-06T19:11:48.000Z</time>
      </trkpt>
      <trkpt lat="48.87097" lon="2.39498">
        <ele>142.9</ele>
        <time>2013-08-06T19:11:49.000Z</time>
      </trkpt>
      <trkpt lat="48.87096" lon="2.39502">
        <ele>143.7</ele>
        <time>2013-08-06T19:11:50.000Z</time>
      </trkpt>
      <trkpt lat="48.87096" lon="2.39506">
        <ele>142.4</ele>
        <time>2013-08-06T19:11:51.000Z</time>
      </trkpt>
      <trkpt lat="48.87095" lon="2.3951">
        <ele>142.5</ele>
        <time>2013-08-06T19:11:52.000Z</time>
      </trkpt>
      <trkpt lat="48.87094" lon="2.39516">
        <ele>144.1</ele>
        <time>2013-08-06T19:11:54.000Z</time>
      </trkpt>
      <trkpt lat="48.87094" lon="2.39519">
        <ele>144.9</ele>
        <time>2013-08-06T19:11:55.000Z</time>
      </trkpt>
      <trkpt lat="48.87093" lon="2.39524">
        <ele>147</ele>
        <time>2013-08-06T19:11:57.000Z</time>
      </trkpt>
      <trkpt lat="48.87092" lon="2.39526">
        <ele>148.2</ele>
        <time>2013-08-06T19:11:58.000Z</time>
      </trkpt>
      <trkpt lat="48.87088" lon="2.3953">
        <ele>153.9</ele>
        <time>2013-08-06T19:12:02.000Z</time>
      </trkpt>
      <trkpt lat="48.87088" lon="2.39531">
        <ele>154.4</ele>
        <time>2013-08-06T19:12:03.000Z</time>
      </trkpt>
      <trkpt lat="48.87085" lon="2.39533">
        <ele>163.2</ele>
        <time>2013-08-06T19:13:36.000Z</time>
      </trkpt>
      <trkpt lat="48.87084" lon="2.39533">
        <ele>162.1</ele>
        <time>2013-08-06T19:13:37.000Z</time>
      </trkpt>
      <trkpt lat="48.87082" lon="2.39533">
        <ele>159.9</ele>
        <time>2013-08-06T19:13:38.000Z</time>
      </trkpt>
      <trkpt lat="48.87079" lon="2.39534">
        <ele>158.9</ele>
        <time>2013-08-06T19:13:39.000Z</time>
      </trkpt>
      <trkpt lat="48.87076" lon="2.39534">
        <ele>159.2</ele>
        <time>2013-08-06T19:13:40.000Z</time>
      </trkpt>
      <trkpt lat="48.87073" lon="2.39534">
        <ele>159.5</ele>
        <time>2013-08-06T19:13:41.000Z</time>
      </trkpt>
      <trkpt lat="48.87071" lon="2.39534">
        <ele>158.7</ele>
        <time>2013-08-06T19:13:42.000Z</time>
      </trkpt>
      <trkpt lat="48.87068" lon="2.39534">
        <ele>157.8</ele>
        <time>2013-08-06T19:13:43.000Z</time>
      </trkpt>
      <trkpt lat="48.87065" lon="2.39535">
        <ele>158.9</ele>
        <time>2013-08-06T19:13:44.000Z</time>
      </trkpt>
      <trkpt lat="48.87062" lon="2.39536">
        <ele>158.9</ele>
        <time>2013-08-06T19:13:45.000Z</time>
      </trkpt>
      <trkpt lat="48.8706" lon="2.39538">
        <ele>159.7</ele>
        <time>2013-08-06T19:13:46.000Z</time>
      </trkpt>
      <trkpt lat="48.87057" lon="2.39539">
        <ele>161.4</ele>
        <time>2013-08-06T19:13:47.000Z</time>
      </trkpt>
      <trkpt lat="48.87055" lon="2.39542">
        <ele>162.2</ele>
        <time>2013-08-06T19:13:48.000Z</time>
      </trkpt>
      <trkpt lat="48.87052" lon="2.39544">
        <ele>162.1</ele>
        <time>2013-08-06T19:13:49.000Z</time>
      </trkpt>
      <trkpt lat="48.8705" lon="2.39547">
        <ele>163.3</ele>
        <time>2013-08-06T19:13:50.000Z</time>
      </trkpt>
      <trkpt lat="48.87047" lon="2.39549">
        <ele>163.6</ele>
        <time>2013-08-06T19:13:51.000Z</time>
      </trkpt>
      <trkpt lat="48.87045" lon="2.39551">
        <ele>164.8</ele>
        <time>2013-08-06T19:13:52.000Z</time>
      </trkpt>
      <trkpt lat="48.87042" lon="2.39553">
        <ele>165.3</ele>
        <time>2013-08-06T19:13:53.000Z</time>
      </trkpt>
      <trkpt lat="48.87039" lon="2.39555">
        <ele>165.1</ele>
        <time>2013-08-06T19:13:54.000Z</time>
      </trkpt>
      <trkpt lat="48.87037" lon="2.39556">
        <ele>165</ele>
        <time>2013-08-06T19:13:55.000Z</time>
      </trkpt>
      <trkpt lat="48.87034" lon="2.39558">
        <ele>165.3</ele>
        <time>2013-08-06T19:13:56.000Z</time>
      </trkpt>
      <trkpt lat="48.87032" lon="2.39559">
        <ele>165.2</ele>
        <time>2013-08-06T19:13:57.000Z</time>
      </trkpt>
      <trkpt lat="48.87029" lon="2.39561">
        <ele>164.2</ele>
        <time>2013-08-06T19:13:58.000Z</time>
      </trkpt>
      <trkpt lat="48.87027" lon="2.39562">
        <ele>164.3</ele>
        <time>2013-08-06T19:13:59.000Z</time>
      </trkpt>
      <trkpt lat="48.87024" lon="2.39563">
        <ele>164.1</ele>
        <time>2013-08-06T19:14:00.000Z</time>
      </trkpt>
      <trkpt lat="48.87022" lon="2.39564">
        <ele>164.4</ele>
        <time>2013-08-06T19:14:01.000Z</time>
      </trkpt>
      <trkpt lat="48.87018" lon="2.39567">
        <ele>163.3</ele>
        <time>2013-08-06T19:14:04.000Z</time>
      </trkpt>
      <trkpt lat="48.87017" lon="2.39568">
        <ele>164.4</ele>
        <time>2013-08-06T19:14:05.000Z</time>
      </trkpt>
      <trkpt lat="48.87014" lon="2.39571">
        <ele>163.8</ele>
        <time>2013-08-06T19:14:07.000Z</time>
      </trkpt>
      <trkpt lat="48.87013" lon="2.39573">
        <ele>163.7</ele>
        <time>2013-08-06T19:14:08.000Z</time>
      </trkpt>
      <trkpt lat="48.87012" lon="2.39576">
        <ele>164.2</ele>
        <time>2013-08-06T19:14:09.000Z</time>
      </trkpt>
      <trkpt lat="48.8701" lon="2.39579">
        <ele>162.4</ele>
        <time>2013-08-06T19:14:10.000Z</time>
      </trkpt>
      <trkpt lat="48.87009" lon="2.39581">
        <ele>161.7</ele>
        <time>2013-08-06T19:14:11.000Z</time>
      </trkpt>
      <trkpt lat="48.87007" lon="2.39584">
        <ele>162.3</ele>
        <time>2013-08-06T19:14:12.000Z</time>
      </trkpt>
      <trkpt lat="48.87004" lon="2.39589">
        <ele>161.9</ele>
        <time>2013-08-06T19:14:14.000Z</time>
      </trkpt>
      <trkpt lat="48.87001" lon="2.39592">
        <ele>161.5</ele>
        <time>2013-08-06T19:14:15.000Z</time>
      </trkpt>
      <trkpt lat="48.86998" lon="2.39596">
        <ele>162.4</ele>
        <time>2013-08-06T19:14:16.000Z</time>
      </trkpt>
      <trkpt lat="48.86995" lon="2.39599">
        <ele>162.6</ele>
        <time>2013-08-06T19:14:17.000Z</time>
      </trkpt>
      <trkpt lat="48.86992" lon="2.39602">
        <ele>160.9</ele>
        <time>2013-08-06T19:14:18.000Z</time>
      </trkpt>
      <trkpt lat="48.86989" lon="2.39605">
        <ele>160.6</ele>
        <time>2013-08-06T19:14:19.000Z</time>
      </trkpt>
      <trkpt lat="48.86986" lon="2.3961">
        <ele>160.4</ele>
        <time>2013-08-06T19:14:20.000Z</time>
      </trkpt>
      <trkpt lat="48.86982" lon="2.39614">
        <ele>159.9</ele>
        <time>2013-08-06T19:14:21.000Z</time>
      </trkpt>
      <trkpt lat="48.86978" lon="2.39618">
        <ele>159.5</ele>
        <time>2013-08-06T19:14:22.000Z</time>
      </trkpt>
      <trkpt lat="48.86975" lon="2.39624">
        <ele>159.2</ele>
        <time>2013-08-06T19:14:23.000Z</time>
      </trkpt>
      <trkpt lat="48.86971" lon="2.39629">
        <ele>158.4</ele>
        <time>2013-08-06T19:14:24.000Z</time>
      </trkpt>
      <trkpt lat="48.86968" lon="2.39633">
        <ele>157.8</ele>
        <time>2013-08-06T19:14:25.000Z</time>
      </trkpt>
      <trkpt lat="48.86962" lon="2.39644">
        <ele>158.7</ele>
        <time>2013-08-06T19:14:26.000Z</time>
      </trkpt>
      <trkpt lat="48.86956" lon="2.39648">
        <ele>157.2</ele>
        <time>2013-08-06T19:14:27.000Z</time>
      </trkpt>
      <trkpt lat="48.86953" lon="2.39653">
        <ele>156.3</ele>
        <time>2013-08-06T19:14:28.000Z</time>
      </trkpt>
      <trkpt lat="48.86948" lon="2.39659">
        <ele>156.3</ele>
        <time>2013-08-06T19:14:29.000Z</time>
      </trkpt>
      <trkpt lat="48.86944" lon="2.39663">
        <ele>155.6</ele>
        <time>2013-08-06T19:14:30.000Z</time>
      </trkpt>
      <trkpt lat="48.86939" lon="2.39667">
        <ele>155</ele>
        <time>2013-08-06T19:14:31.000Z</time>
      </trkpt>
      <trkpt lat="48.86934" lon="2.39673">
        <ele>155.1</ele>
        <time>2013-08-06T19:14:32.000Z</time>
      </trkpt>
      <trkpt lat="48.8693" lon="2.39679">
        <ele>154.7</ele>
        <time>2013-08-06T19:14:33.000Z</time>
      </trkpt>
      <trkpt lat="48.86925" lon="2.39684">
        <ele>154.3</ele>
        <time>2013-08-06T19:14:34.000Z</time>
      </trkpt>
      <trkpt lat="48.86922" lon="2.39689">
        <ele>152.9</ele>
        <time>2013-08-06T19:14:35.000Z</time>
      </trkpt>
      <trkpt lat="48.86918" lon="2.39695">
        <ele>152.7</ele>
        <time>2013-08-06T19:14:36.000Z</time>
      </trkpt>
      <trkpt lat="48.86915" lon="2.39704">
        <ele>151.9</ele>
        <time>2013-08-06T19:14:37.000Z</time>
      </trkpt>
      <trkpt lat="48.86911" lon="2.39712">
        <ele>151.4</ele>
        <time>2013-08-06T19:14:38.000Z</time>
      </trkpt>
      <trkpt lat="48.86905" lon="2.39714">
        <ele>153.7</ele>
        <time>2013-08-06T19:14:39.000Z</time>
      </trkpt>
      <trkpt lat="48.869" lon="2.39718">
        <ele>153.3</ele>
        <time>2013-08-06T19:14:40.000Z</time>
      </trkpt>
      <trkpt lat="48.86894" lon="2.39722">
        <ele>152.9</ele>
        <time>2013-08-06T19:14:41.000Z</time>
      </trkpt>
      <trkpt lat="48.8689" lon="2.39725">
        <ele>152.2</ele>
        <time>2013-08-06T19:14:42.000Z</time>
      </trkpt>
      <trkpt lat="48.86885" lon="2.3973">
        <ele>153.1</ele>
        <time>2013-08-06T19:14:43.000Z</time>
      </trkpt>
      <trkpt lat="48.86882" lon="2.39735">
        <ele>152.7</ele>
        <time>2013-08-06T19:14:44.000Z</time>
      </trkpt>
      <trkpt lat="48.86878" lon="2.3974">
        <ele>152.3</ele>
        <time>2013-08-06T19:14:45.000Z</time>
      </trkpt>
      <trkpt lat="48.86875" lon="2.39746">
        <ele>152.1</ele>
        <time>2013-08-06T19:14:46.000Z</time>
      </trkpt>
      <trkpt lat="48.86871" lon="2.39753">
        <ele>151.6</ele>
        <time>2013-08-06T19:14:47.000Z</time>
      </trkpt>
      <trkpt lat="48.86868" lon="2.39759">
        <ele>152.1</ele>
        <time>2013-08-06T19:14:48.000Z</time>
      </trkpt>
      <trkpt lat="48.86865" lon="2.39765">
        <ele>152.9</ele>
        <time>2013-08-06T19:14:49.000Z</time>
      </trkpt>
      <trkpt lat="48.86863" lon="2.39771">
        <ele>153.2</ele>
        <time>2013-08-06T19:14:50.000Z</time>
      </trkpt>
      <trkpt lat="48.86858" lon="2.39776">
        <ele>153.5</ele>
        <time>2013-08-06T19:14:51.000Z</time>
      </trkpt>
      <trkpt lat="48.86854" lon="2.3978">
        <ele>152.4</ele>
        <time>2013-08-06T19:14:52.000Z</time>
      </trkpt>
      <trkpt lat="48.86849" lon="2.39785">
        <ele>151.4</ele>
        <time>2013-08-06T19:14:53.000Z</time>
      </trkpt>
      <trkpt lat="48.86845" lon="2.39787">
        <ele>151.9</ele>
        <time>2013-08-06T19:14:54.000Z</time>
      </trkpt>
      <trkpt lat="48.8684" lon="2.3979">
        <ele>151.6</ele>
        <time>2013-08-06T19:14:55.000Z</time>
      </trkpt>
      <trkpt lat="48.86835" lon="2.39794">
        <ele>151.8</ele>
        <time>2013-08-06T19:14:56.000Z</time>
      </trkpt>
      <trkpt lat="48.86832" lon="2.39797">
        <ele>151.8</ele>
        <time>2013-08-06T19:14:57.000Z</time>
      </trkpt>
      <trkpt lat="48.8683" lon="2.39802">
        <ele>151.2</ele>
        <time>2013-08-06T19:14:58.000Z</time>
      </trkpt>
      <trkpt lat="48.86827" lon="2.3981">
        <ele>150.8</ele>
        <time>2013-08-06T19:14:59.000Z</time>
      </trkpt>
      <trkpt lat="48.86825" lon="2.39815">
        <ele>149.6</ele>
        <time>2013-08-06T19:15:00.000Z</time>
      </trkpt>
      <trkpt lat="48.8682" lon="2.39817">
        <ele>149.8</ele>
        <time>2013-08-06T19:15:01.000Z</time>
      </trkpt>
      <trkpt lat="48.86816" lon="2.3982">
        <ele>149.2</ele>
        <time>2013-08-06T19:15:02.000Z</time>
      </trkpt>
      <trkpt lat="48.86812" lon="2.39826">
        <ele>148.6</ele>
        <time>2013-08-06T19:15:03.000Z</time>
      </trkpt>
      <trkpt lat="48.86809" lon="2.39832">
        <ele>148</ele>
        <time>2013-08-06T19:15:04.000Z</time>
      </trkpt>
      <trkpt lat="48.86804" lon="2.39834">
        <ele>148.6</ele>
        <time>2013-08-06T19:15:05.000Z</time>
      </trkpt>
      <trkpt lat="48.868" lon="2.39837">
        <ele>146.5</ele>
        <time>2013-08-06T19:15:06.000Z</time>
      </trkpt>
      <trkpt lat="48.86795" lon="2.39841">
        <ele>146.3</ele>
        <time>2013-08-06T19:15:07.000Z</time>
      </trkpt>
      <trkpt lat="48.86791" lon="2.39845">
        <ele>145.9</ele>
        <time>2013-08-06T19:15:08.000Z</time>
      </trkpt>
      <trkpt lat="48.86786" lon="2.39848">
        <ele>145.9</ele>
        <time>2013-08-06T19:15:09.000Z</time>
      </trkpt>
      <trkpt lat="48.86782" lon="2.39852">
        <ele>146.1</ele>
        <time>2013-08-06T19:15:10.000Z</time>
      </trkpt>
      <trkpt lat="48.86779" lon="2.39856">
        <ele>146.7</ele>
        <time>2013-08-06T19:15:11.000Z</time>
      </trkpt>
      <trkpt lat="48.86776" lon="2.39858">
        <ele>147.5</ele>
        <time>2013-08-06T19:15:12.000Z</time>
      </trkpt>
      <trkpt lat="48.86771" lon="2.39861">
        <ele>147</ele>
        <time>2013-08-06T19:15:13.000Z</time>
      </trkpt>
      <trkpt lat="48.86767" lon="2.39863">
        <ele>147.1</ele>
        <time>2013-08-06T19:15:14.000Z</time>
      </trkpt>
      <trkpt lat="48.86764" lon="2.39866">
        <ele>146.9</ele>
        <time>2013-08-06T19:15:15.000Z</time>
      </trkpt>
      <trkpt lat="48.86761" lon="2.39866">
        <ele>148.5</ele>
        <time>2013-08-06T19:15:16.000Z</time>
      </trkpt>
      <trkpt lat="48.86757" lon="2.39868">
        <ele>149.2</ele>
        <time>2013-08-06T19:15:17.000Z</time>
      </trkpt>
      <trkpt lat="48.86755" lon="2.39869">
        <ele>150</ele>
        <time>2013-08-06T19:15:18.000Z</time>
      </trkpt>
      <trkpt lat="48.86753" lon="2.39871">
        <ele>150.8</ele>
        <time>2013-08-06T19:15:19.000Z</time>
      </trkpt>
      <trkpt lat="48.8675" lon="2.39874">
        <ele>151.1</ele>
        <time>2013-08-06T19:15:21.000Z</time>
      </trkpt>
      <trkpt lat="48.86749" lon="2.39875">
        <ele>151.5</ele>
        <time>2013-08-06T19:15:22.000Z</time>
      </trkpt>
      <trkpt lat="48.86746" lon="2.39876">
        <ele>149.7</ele>
        <time>2013-08-06T19:17:14.000Z</time>
      </trkpt>
      <trkpt lat="48.86745" lon="2.39877">
        <ele>148.8</ele>
        <time>2013-08-06T19:17:15.000Z</time>
      </trkpt>
      <trkpt lat="48.86742" lon="2.3988">
        <ele>148.6</ele>
        <time>2013-08-06T19:17:16.000Z</time>
      </trkpt>
      <trkpt lat="48.86738" lon="2.39883">
        <ele>150</ele>
        <time>2013-08-06T19:17:17.000Z</time>
      </trkpt>
      <trkpt lat="48.86735" lon="2.39888">
        <ele>150.7</ele>
        <time>2013-08-06T19:17:18.000Z</time>
      </trkpt>
      <trkpt lat="48.86732" lon="2.39893">
        <ele>150.5</ele>
        <time>2013-08-06T19:17:19.000Z</time>
      </trkpt>
      <trkpt lat="48.86729" lon="2.39898">
        <ele>149.7</ele>
        <time>2013-08-06T19:17:20.000Z</time>
      </trkpt>
      <trkpt lat="48.86726" lon="2.39904">
        <ele>150.5</ele>
        <time>2013-08-06T19:17:21.000Z</time>
      </trkpt>
      <trkpt lat="48.86724" lon="2.39909">
        <ele>149.9</ele>
        <time>2013-08-06T19:17:22.000Z</time>
      </trkpt>
      <trkpt lat="48.86721" lon="2.39913">
        <ele>150.7</ele>
        <time>2013-08-06T19:17:23.000Z</time>
      </trkpt>
      <trkpt lat="48.86718" lon="2.39918">
        <ele>149.3</ele>
        <time>2013-08-06T19:17:24.000Z</time>
      </trkpt>
      <trkpt lat="48.86715" lon="2.39922">
        <ele>148.5</ele>
        <time>2013-08-06T19:17:25.000Z</time>
      </trkpt>
      <trkpt lat="48.86711" lon="2.39926">
        <ele>148.6</ele>
        <time>2013-08-06T19:17:26.000Z</time>
      </trkpt>
      <trkpt lat="48.86708" lon="2.3993">
        <ele>148</ele>
        <time>2013-08-06T19:17:27.000Z</time>
      </trkpt>
      <trkpt lat="48.86704" lon="2.39933">
        <ele>148.7</ele>
        <time>2013-08-06T19:17:28.000Z</time>
      </trkpt>
      <trkpt lat="48.86698" lon="2.39936">
        <ele>147.1</ele>
        <time>2013-08-06T19:17:29.000Z</time>
      </trkpt>
      <trkpt lat="48.86693" lon="2.39938">
        <ele>146</ele>
        <time>2013-08-06T19:17:30.000Z</time>
      </trkpt>
      <trkpt lat="48.86689" lon="2.3994">
        <ele>145.3</ele>
        <time>2013-08-06T19:17:31.000Z</time>
      </trkpt>
      <trkpt lat="48.86687" lon="2.39944">
        <ele>147.5</ele>
        <time>2013-08-06T19:17:32.000Z</time>
      </trkpt>
      <trkpt lat="48.86683" lon="2.39948">
        <ele>146.9</ele>
        <time>2013-08-06T19:17:33.000Z</time>
      </trkpt>
      <trkpt lat="48.8668" lon="2.39952">
        <ele>146.7</ele>
        <time>2013-08-06T19:17:34.000Z</time>
      </trkpt>
      <trkpt lat="48.86677" lon="2.39956">
        <ele>146</ele>
        <time>2013-08-06T19:17:35.000Z</time>
      </trkpt>
      <trkpt lat="48.86675" lon="2.39958">
        <ele>146.2</ele>
        <time>2013-08-06T19:17:36.000Z</time>
      </trkpt>
      <trkpt lat="48.86671" lon="2.39959">
        <ele>145.9</ele>
        <time>2013-08-06T19:17:37.000Z</time>
      </trkpt>
      <trkpt lat="48.86669" lon="2.39965">
        <ele>144.8</ele>
        <time>2013-08-06T19:17:38.000Z</time>
      </trkpt>
      <trkpt lat="48.86668" lon="2.39968">
        <ele>145.7</ele>
        <time>2013-08-06T19:17:39.000Z</time>
      </trkpt>
      <trkpt lat="48.86665" lon="2.39972">
        <ele>146.5</ele>
        <time>2013-08-06T19:17:41.000Z</time>
      </trkpt>
      <trkpt lat="48.86663" lon="2.39974">
        <ele>147.4</ele>
        <time>2013-08-06T19:17:42.000Z</time>
      </trkpt>
      <trkpt lat="48.86664" lon="2.3998">
        <ele>148.1</ele>
        <time>2013-08-06T19:17:50.000Z</time>
      </trkpt>
      <trkpt lat="48.86664" lon="2.39981">
        <ele>147.4</ele>
        <time>2013-08-06T19:17:51.000Z</time>
      </trkpt>
      <trkpt lat="48.86661" lon="2.3998">
        <ele>141.5</ele>
        <time>2013-08-06T19:18:22.000Z</time>
      </trkpt>
      <trkpt lat="48.86659" lon="2.39981">
        <ele>142.3</ele>
        <time>2013-08-06T19:18:23.000Z</time>
      </trkpt>
      <trkpt lat="48.86656" lon="2.39982">
        <ele>142.6</ele>
        <time>2013-08-06T19:18:24.000Z</time>
      </trkpt>
      <trkpt lat="48.86653" lon="2.39982">
        <ele>142.6</ele>
        <time>2013-08-06T19:18:25.000Z</time>
      </trkpt>
      <trkpt lat="48.8665" lon="2.39982">
        <ele>142.4</ele>
        <time>2013-08-06T19:18:26.000Z</time>
      </trkpt>
      <trkpt lat="48.86647" lon="2.3998">
        <ele>142.5</ele>
        <time>2013-08-06T19:18:27.000Z</time>
      </trkpt>
      <trkpt lat="48.86644" lon="2.39978">
        <ele>143.6</ele>
        <time>2013-08-06T19:18:28.000Z</time>
      </trkpt>
      <trkpt lat="48.8664" lon="2.39975">
        <ele>143.2</ele>
        <time>2013-08-06T19:18:29.000Z</time>
      </trkpt>
      <trkpt lat="48.86637" lon="2.39973">
        <ele>144</ele>
        <time>2013-08-06T19:18:30.000Z</time>
      </trkpt>
      <trkpt lat="48.86633" lon="2.39969">
        <ele>143.8</ele>
        <time>2013-08-06T19:18:31.000Z</time>
      </trkpt>
      <trkpt lat="48.8663" lon="2.39966">
        <ele>144</ele>
        <time>2013-08-06T19:18:32.000Z</time>
      </trkpt>
      <trkpt lat="48.86627" lon="2.39962">
        <ele>143.6</ele>
        <time>2013-08-06T19:18:33.000Z</time>
      </trkpt>
      <trkpt lat="48.86624" lon="2.39958">
        <ele>143.7</ele>
        <time>2013-08-06T19:18:34.000Z</time>
      </trkpt>
      <trkpt lat="48.86622" lon="2.39954">
        <ele>145.1</ele>
        <time>2013-08-06T19:18:35.000Z</time>
      </trkpt>
      <trkpt lat="48.86621" lon="2.3995">
        <ele>144.8</ele>
        <time>2013-08-06T19:18:36.000Z</time>
      </trkpt>
      <trkpt lat="48.86619" lon="2.39947">
        <ele>144.8</ele>
        <time>2013-08-06T19:18:37.000Z</time>
      </trkpt>
      <trkpt lat="48.86618" lon="2.39943">
        <ele>144.7</ele>
        <time>2013-08-06T19:18:38.000Z</time>
      </trkpt>
      <trkpt lat="48.86616" lon="2.39939">
        <ele>145.1</ele>
        <time>2013-08-06T19:18:39.000Z</time>
      </trkpt>
      <trkpt lat="48.86615" lon="2.39935">
        <ele>145.1</ele>
        <time>2013-08-06T19:18:40.000Z</time>
      </trkpt>
      <trkpt lat="48.86613" lon="2.3993">
        <ele>144.8</ele>
        <time>2013-08-06T19:18:41.000Z</time>
      </trkpt>
      <trkpt lat="48.86611" lon="2.39925">
        <ele>145.4</ele>
        <time>2013-08-06T19:18:42.000Z</time>
      </trkpt>
      <trkpt lat="48.8661" lon="2.39918">
        <ele>146.4</ele>
        <time>2013-08-06T19:18:43.000Z</time>
      </trkpt>
      <trkpt lat="48.86609" lon="2.39911">
        <ele>146.9</ele>
        <time>2013-08-06T19:18:44.000Z</time>
      </trkpt>
      <trkpt lat="48.86608" lon="2.39905">
        <ele>149.1</ele>
        <time>2013-08-06T19:18:45.000Z</time>
      </trkpt>
      <trkpt lat="48.86606" lon="2.39899">
        <ele>149.5</ele>
        <time>2013-08-06T19:18:46.000Z</time>
      </trkpt>
      <trkpt lat="48.86604" lon="2.39894">
        <ele>150.9</ele>
        <time>2013-08-06T19:18:47.000Z</time>
      </trkpt>
      <trkpt lat="48.86602" lon="2.3989">
        <ele>151.5</ele>
        <time>2013-08-06T19:18:48.000Z</time>
      </trkpt>
      <trkpt lat="48.866" lon="2.39886">
        <ele>151.7</ele>
        <time>2013-08-06T19:18:49.000Z</time>
      </trkpt>
      <trkpt lat="48.86598" lon="2.39882">
        <ele>150.3</ele>
        <time>2013-08-06T19:18:50.000Z</time>
      </trkpt>
      <trkpt lat="48.86595" lon="2.39877">
        <ele>147.7</ele>
        <time>2013-08-06T19:18:51.000Z</time>
      </trkpt>
      <trkpt lat="48.86593" lon="2.39871">
        <ele>140.2</ele>
        <time>2013-08-06T19:18:52.000Z</time>
      </trkpt>
      <trkpt lat="48.86589" lon="2.39866">
        <ele>140.4</ele>
        <time>2013-08-06T19:18:53.000Z</time>
      </trkpt>
      <trkpt lat="48.86585" lon="2.3986">
        <ele>141.6</ele>
        <time>2013-08-06T19:18:54.000Z</time>
      </trkpt>
      <trkpt lat="48.86581" lon="2.39855">
        <ele>139.4</ele>
        <time>2013-08-06T19:18:55.000Z</time>
      </trkpt>
      <trkpt lat="48.86578" lon="2.39849">
        <ele>140.3</ele>
        <time>2013-08-06T19:18:56.000Z</time>
      </trkpt>
      <trkpt lat="48.86575" lon="2.39844">
        <ele>140.7</ele>
        <time>2013-08-06T19:18:57.000Z</time>
      </trkpt>
      <trkpt lat="48.86572" lon="2.3984">
        <ele>140</ele>
        <time>2013-08-06T19:18:58.000Z</time>
      </trkpt>
      <trkpt lat="48.86568" lon="2.39836">
        <ele>138.4</ele>
        <time>2013-08-06T19:18:59.000Z</time>
      </trkpt>
      <trkpt lat="48.86565" lon="2.39832">
        <ele>136.2</ele>
        <time>2013-08-06T19:19:00.000Z</time>
      </trkpt>
      <trkpt lat="48.86562" lon="2.39827">
        <ele>135.6</ele>
        <time>2013-08-06T19:19:01.000Z</time>
      </trkpt>
      <trkpt lat="48.86559" lon="2.39823">
        <ele>134.6</ele>
        <time>2013-08-06T19:19:02.000Z</time>
      </trkpt>
      <trkpt lat="48.86557" lon="2.3982">
        <ele>132.5</ele>
        <time>2013-08-06T19:19:03.000Z</time>
      </trkpt>
      <trkpt lat="48.86554" lon="2.39817">
        <ele>132.5</ele>
        <time>2013-08-06T19:19:07.000Z</time>
      </trkpt>
      <trkpt lat="48.86554" lon="2.39816">
        <ele>133</ele>
        <time>2013-08-06T19:19:08.000Z</time>
      </trkpt>
      <trkpt lat="48.86554" lon="2.39809">
        <ele>131.4</ele>
        <time>2013-08-06T19:19:48.000Z</time>
      </trkpt>
      <trkpt lat="48.86553" lon="2.39808">
        <ele>131.2</ele>
        <time>2013-08-06T19:19:49.000Z</time>
      </trkpt>
      <trkpt lat="48.8655" lon="2.39806">
        <ele>133.1</ele>
        <time>2013-08-06T19:19:51.000Z</time>
      </trkpt>
      <trkpt lat="48.86547" lon="2.39804">
        <ele>134</ele>
        <time>2013-08-06T19:19:52.000Z</time>
      </trkpt>
      <trkpt lat="48.86544" lon="2.39802">
        <ele>133.2</ele>
        <time>2013-08-06T19:19:53.000Z</time>
      </trkpt>
      <trkpt lat="48.86541" lon="2.398">
        <ele>133.3</ele>
        <time>2013-08-06T19:19:54.000Z</time>
      </trkpt>
      <trkpt lat="48.86539" lon="2.39797">
        <ele>133.3</ele>
        <time>2013-08-06T19:19:55.000Z</time>
      </trkpt>
      <trkpt lat="48.86536" lon="2.39793">
        <ele>133</ele>
        <time>2013-08-06T19:19:56.000Z</time>
      </trkpt>
      <trkpt lat="48.86534" lon="2.39789">
        <ele>131.7</ele>
        <time>2013-08-06T19:19:57.000Z</time>
      </trkpt>
      <trkpt lat="48.86533" lon="2.39785">
        <ele>132.1</ele>
        <time>2013-08-06T19:19:58.000Z</time>
      </trkpt>
      <trkpt lat="48.86531" lon="2.39781">
        <ele>132.5</ele>
        <time>2013-08-06T19:19:59.000Z</time>
      </trkpt>
      <trkpt lat="48.86529" lon="2.39777">
        <ele>133.2</ele>
        <time>2013-08-06T19:20:00.000Z</time>
      </trkpt>
      <trkpt lat="48.86527" lon="2.39773">
        <ele>133.5</ele>
        <time>2013-08-06T19:20:01.000Z</time>
      </trkpt>
      <trkpt lat="48.86525" lon="2.39769">
        <ele>133.9</ele>
        <time>2013-08-06T19:20:02.000Z</time>
      </trkpt>
      <trkpt lat="48.86522" lon="2.39763">
        <ele>134.2</ele>
        <time>2013-08-06T19:20:03.000Z</time>
      </trkpt>
      <trkpt lat="48.86518" lon="2.39759">
        <ele>134.9</ele>
        <time>2013-08-06T19:20:04.000Z</time>
      </trkpt>
      <trkpt lat="48.86515" lon="2.39754">
        <ele>135.8</ele>
        <time>2013-08-06T19:20:05.000Z</time>
      </trkpt>
      <trkpt lat="48.86511" lon="2.39748">
        <ele>135.9</ele>
        <time>2013-08-06T19:20:06.000Z</time>
      </trkpt>
      <trkpt lat="48.86507" lon="2.39743">
        <ele>138.3</ele>
        <time>2013-08-06T19:20:07.000Z</time>
      </trkpt>
      <trkpt lat="48.86504" lon="2.39738">
        <ele>138.9</ele>
        <time>2013-08-06T19:20:08.000Z</time>
      </trkpt>
      <trkpt lat="48.865" lon="2.39734">
        <ele>138.7</ele>
        <time>2013-08-06T19:20:09.000Z</time>
      </trkpt>
      <trkpt lat="48.86498" lon="2.39729">
        <ele>140</ele>
        <time>2013-08-06T19:20:10.000Z</time>
      </trkpt>
      <trkpt lat="48.86497" lon="2.39725">
        <ele>139.5</ele>
        <time>2013-08-06T19:20:11.000Z</time>
      </trkpt>
      <trkpt lat="48.86496" lon="2.39721">
        <ele>139</ele>
        <time>2013-08-06T19:20:12.000Z</time>
      </trkpt>
      <trkpt lat="48.86497" lon="2.39716">
        <ele>138.3</ele>
        <time>2013-08-06T19:20:13.000Z</time>
      </trkpt>
      <trkpt lat="48.86498" lon="2.39712">
        <ele>139.3</ele>
        <time>2013-08-06T19:20:14.000Z</time>
      </trkpt>
      <trkpt lat="48.865" lon="2.39708">
        <ele>139.2</ele>
        <time>2013-08-06T19:20:15.000Z</time>
      </trkpt>
      <trkpt lat="48.86501" lon="2.39704">
        <ele>139.2</ele>
        <time>2013-08-06T19:20:16.000Z</time>
      </trkpt>
      <trkpt lat="48.86502" lon="2.397">
        <ele>140.3</ele>
        <time>2013-08-06T19:20:17.000Z</time>
      </trkpt>
      <trkpt lat="48.86502" lon="2.39696">
        <ele>141.1</ele>
        <time>2013-08-06T19:20:18.000Z</time>
      </trkpt>
      <trkpt lat="48.86502" lon="2.39692">
        <ele>141.4</ele>
        <time>2013-08-06T19:20:19.000Z</time>
      </trkpt>
      <trkpt lat="48.86502" lon="2.39688">
        <ele>144</ele>
        <time>2013-08-06T19:20:20.000Z</time>
      </trkpt>
      <trkpt lat="48.86501" lon="2.39685">
        <ele>145.9</ele>
        <time>2013-08-06T19:20:21.000Z</time>
      </trkpt>
      <trkpt lat="48.865" lon="2.39682">
        <ele>146.7</ele>
        <time>2013-08-06T19:20:22.000Z</time>
      </trkpt>
      <trkpt lat="48.86498" lon="2.39677">
        <ele>147.7</ele>
        <time>2013-08-06T19:20:24.000Z</time>
      </trkpt>
      <trkpt lat="48.86498" lon="2.39674">
        <ele>148.2</ele>
        <time>2013-08-06T19:20:25.000Z</time>
      </trkpt>
      <trkpt lat="48.86497" lon="2.39668">
        <ele>149.4</ele>
        <time>2013-08-06T19:20:27.000Z</time>
      </trkpt>
      <trkpt lat="48.86497" lon="2.39665">
        <ele>149.3</ele>
        <time>2013-08-06T19:20:28.000Z</time>
      </trkpt>
      <trkpt lat="48.86497" lon="2.39661">
        <ele>149</ele>
        <time>2013-08-06T19:20:29.000Z</time>
      </trkpt>
      <trkpt lat="48.86497" lon="2.39657">
        <ele>149.4</ele>
        <time>2013-08-06T19:20:30.000Z</time>
      </trkpt>
      <trkpt lat="48.86497" lon="2.39653">
        <ele>148.9</ele>
        <time>2013-08-06T19:20:31.000Z</time>
      </trkpt>
      <trkpt lat="48.86497" lon="2.39648">
        <ele>148.5</ele>
        <time>2013-08-06T19:20:32.000Z</time>
      </trkpt>
      <trkpt lat="48.86497" lon="2.39643">
        <ele>147.2</ele>
        <time>2013-08-06T19:20:33.000Z</time>
      </trkpt>
      <trkpt lat="48.86497" lon="2.39638">
        <ele>145.7</ele>
        <time>2013-08-06T19:20:34.000Z</time>
      </trkpt>
      <trkpt lat="48.86496" lon="2.39632">
        <ele>144.7</ele>
        <time>2013-08-06T19:20:35.000Z</time>
      </trkpt>
      <trkpt lat="48.86495" lon="2.39627">
        <ele>143.9</ele>
        <time>2013-08-06T19:20:36.000Z</time>
      </trkpt>
      <trkpt lat="48.86494" lon="2.39623">
        <ele>144.4</ele>
        <time>2013-08-06T19:20:37.000Z</time>
      </trkpt>
      <trkpt lat="48.86492" lon="2.39618">
        <ele>147.2</ele>
        <time>2013-08-06T19:20:38.000Z</time>
      </trkpt>
      <trkpt lat="48.8649" lon="2.39613">
        <ele>148.3</ele>
        <time>2013-08-06T19:20:39.000Z</time>
      </trkpt>
      <trkpt lat="48.86489" lon="2.39608">
        <ele>148.9</ele>
        <time>2013-08-06T19:20:40.000Z</time>
      </trkpt>
      <trkpt lat="48.86487" lon="2.39602">
        <ele>149.7</ele>
        <time>2013-08-06T19:20:41.000Z</time>
      </trkpt>
      <trkpt lat="48.86485" lon="2.39597">
        <ele>151.3</ele>
        <time>2013-08-06T19:20:42.000Z</time>
      </trkpt>
      <trkpt lat="48.86484" lon="2.39592">
        <ele>153.5</ele>
        <time>2013-08-06T19:20:43.000Z</time>
      </trkpt>
      <trkpt lat="48.86483" lon="2.39587">
        <ele>154.4</ele>
        <time>2013-08-06T19:20:44.000Z</time>
      </trkpt>
      <trkpt lat="48.86483" lon="2.39581">
        <ele>153.2</ele>
        <time>2013-08-06T19:20:45.000Z</time>
      </trkpt>
      <trkpt lat="48.86484" lon="2.39576">
        <ele>151.3</ele>
        <time>2013-08-06T19:20:46.000Z</time>
      </trkpt>
      <trkpt lat="48.86486" lon="2.3957">
        <ele>151</ele>
        <time>2013-08-06T19:20:47.000Z</time>
      </trkpt>
      <trkpt lat="48.86487" lon="2.39564">
        <ele>150.1</ele>
        <time>2013-08-06T19:20:48.000Z</time>
      </trkpt>
      <trkpt lat="48.86487" lon="2.39558">
        <ele>150.3</ele>
        <time>2013-08-06T19:20:49.000Z</time>
      </trkpt>
      <trkpt lat="48.86487" lon="2.39554">
        <ele>149.7</ele>
        <time>2013-08-06T19:20:50.000Z</time>
      </trkpt>
      <trkpt lat="48.86487" lon="2.39548">
        <ele>146.3</ele>
        <time>2013-08-06T19:20:52.000Z</time>
      </trkpt>
      <trkpt lat="48.86487" lon="2.39545">
        <ele>144</ele>
        <time>2013-08-06T19:20:53.000Z</time>
      </trkpt>
      <trkpt lat="48.86487" lon="2.3954">
        <ele>145.4</ele>
        <time>2013-08-06T19:20:55.000Z</time>
      </trkpt>
      <trkpt lat="48.86486" lon="2.39537">
        <ele>146.1</ele>
        <time>2013-08-06T19:20:56.000Z</time>
      </trkpt>
      <trkpt lat="48.86486" lon="2.39532">
        <ele>145.8</ele>
        <time>2013-08-06T19:20:58.000Z</time>
      </trkpt>
      <trkpt lat="48.86488" lon="2.39531">
        <ele>143.4</ele>
        <time>2013-08-06T19:20:59.000Z</time>
      </trkpt>
      <trkpt lat="48.86491" lon="2.39527">
        <ele>141.5</ele>
        <time>2013-08-06T19:21:03.000Z</time>
      </trkpt>
      <trkpt lat="48.86492" lon="2.39524">
        <ele>140.9</ele>
        <time>2013-08-06T19:21:04.000Z</time>
      </trkpt>
      <trkpt lat="48.86492" lon="2.39519">
        <ele>141.4</ele>
        <time>2013-08-06T19:21:06.000Z</time>
      </trkpt>
      <trkpt lat="48.86492" lon="2.39517">
        <ele>141</ele>
        <time>2013-08-06T19:21:07.000Z</time>
      </trkpt>
      <trkpt lat="48.86492" lon="2.39511">
        <ele>142.3</ele>
        <time>2013-08-06T19:21:09.000Z</time>
      </trkpt>
      <trkpt lat="48.86492" lon="2.39509">
        <ele>141.9</ele>
        <time>2013-08-06T19:21:10.000Z</time>
      </trkpt>
      <trkpt lat="48.86493" lon="2.39503">
        <ele>140.3</ele>
        <time>2013-08-06T19:21:12.000Z</time>
      </trkpt>
      <trkpt lat="48.86493" lon="2.395">
        <ele>140.1</ele>
        <time>2013-08-06T19:21:13.000Z</time>
      </trkpt>
      <trkpt lat="48.86494" lon="2.39495">
        <ele>140.8</ele>
        <time>2013-08-06T19:21:15.000Z</time>
      </trkpt>
      <trkpt lat="48.86495" lon="2.39492">
        <ele>140.8</ele>
        <time>2013-08-06T19:21:16.000Z</time>
      </trkpt>
      <trkpt lat="48.86496" lon="2.39485">
        <ele>140.6</ele>
        <time>2013-08-06T19:21:18.000Z</time>
      </trkpt>
      <trkpt lat="48.86496" lon="2.39483">
        <ele>140.6</ele>
        <time>2013-08-06T19:21:19.000Z</time>
      </trkpt>
      <trkpt lat="48.86497" lon="2.39477">
        <ele>140.9</ele>
        <time>2013-08-06T19:21:21.000Z</time>
      </trkpt>
      <trkpt lat="48.86497" lon="2.39473">
        <ele>140.7</ele>
        <time>2013-08-06T19:21:22.000Z</time>
      </trkpt>
      <trkpt lat="48.86498" lon="2.39467">
        <ele>141.8</ele>
        <time>2013-08-06T19:21:24.000Z</time>
      </trkpt>
      <trkpt lat="48.86498" lon="2.39463">
        <ele>140.9</ele>
        <time>2013-08-06T19:21:25.000Z</time>
      </trkpt>
      <trkpt lat="48.86498" lon="2.3946">
        <ele>141.4</ele>
        <time>2013-08-06T19:21:26.000Z</time>
      </trkpt>
      <trkpt lat="48.86499" lon="2.39456">
        <ele>140.8</ele>
        <time>2013-08-06T19:21:27.000Z</time>
      </trkpt>
      <trkpt lat="48.865" lon="2.3945">
        <ele>141.2</ele>
        <time>2013-08-06T19:21:29.000Z</time>
      </trkpt>
      <trkpt lat="48.865" lon="2.39446">
        <ele>140.5</ele>
        <time>2013-08-06T19:21:30.000Z</time>
      </trkpt>
      <trkpt lat="48.86501" lon="2.39442">
        <ele>140.5</ele>
        <time>2013-08-06T19:21:31.000Z</time>
      </trkpt>
      <trkpt lat="48.86502" lon="2.39439">
        <ele>139.8</ele>
        <time>2013-08-06T19:21:32.000Z</time>
      </trkpt>
      <trkpt lat="48.86502" lon="2.39435">
        <ele>140</ele>
        <time>2013-08-06T19:21:33.000Z</time>
      </trkpt>
      <trkpt lat="48.86502" lon="2.39431">
        <ele>139.1</ele>
        <time>2013-08-06T19:21:34.000Z</time>
      </trkpt>
      <trkpt lat="48.86502" lon="2.39427">
        <ele>139</ele>
        <time>2013-08-06T19:21:35.000Z</time>
      </trkpt>
      <trkpt lat="48.86503" lon="2.39423">
        <ele>138.9</ele>
        <time>2013-08-06T19:21:36.000Z</time>
      </trkpt>
      <trkpt lat="48.86503" lon="2.39419">
        <ele>138.7</ele>
        <time>2013-08-06T19:21:37.000Z</time>
      </trkpt>
      <trkpt lat="48.86504" lon="2.39413">
        <ele>137.6</ele>
        <time>2013-08-06T19:21:38.000Z</time>
      </trkpt>
      <trkpt lat="48.86505" lon="2.39407">
        <ele>138.4</ele>
        <time>2013-08-06T19:21:39.000Z</time>
      </trkpt>
      <trkpt lat="48.86506" lon="2.39401">
        <ele>138.4</ele>
        <time>2013-08-06T19:21:40.000Z</time>
      </trkpt>
      <trkpt lat="48.86508" lon="2.39394">
        <ele>138.3</ele>
        <time>2013-08-06T19:21:41.000Z</time>
      </trkpt>
      <trkpt lat="48.86512" lon="2.39387">
        <ele>138.5</ele>
        <time>2013-08-06T19:21:42.000Z</time>
      </trkpt>
      <trkpt lat="48.86514" lon="2.39382">
        <ele>137.9</ele>
        <time>2013-08-06T19:21:43.000Z</time>
      </trkpt>
      <trkpt lat="48.86517" lon="2.39375">
        <ele>137.1</ele>
        <time>2013-08-06T19:21:44.000Z</time>
      </trkpt>
      <trkpt lat="48.86521" lon="2.3937">
        <ele>136.6</ele>
        <time>2013-08-06T19:21:45.000Z</time>
      </trkpt>
      <trkpt lat="48.86524" lon="2.39364">
        <ele>136.7</ele>
        <time>2013-08-06T19:21:46.000Z</time>
      </trkpt>
      <trkpt lat="48.86528" lon="2.39358">
        <ele>137.3</ele>
        <time>2013-08-06T19:21:47.000Z</time>
      </trkpt>
      <trkpt lat="48.86531" lon="2.39351">
        <ele>137.1</ele>
        <time>2013-08-06T19:21:48.000Z</time>
      </trkpt>
      <trkpt lat="48.86535" lon="2.39343">
        <ele>136.6</ele>
        <time>2013-08-06T19:21:49.000Z</time>
      </trkpt>
      <trkpt lat="48.86538" lon="2.39336">
        <ele>136.6</ele>
        <time>2013-08-06T19:21:50.000Z</time>
      </trkpt>
      <trkpt lat="48.86542" lon="2.39327">
        <ele>135.9</ele>
        <time>2013-08-06T19:21:51.000Z</time>
      </trkpt>
      <trkpt lat="48.86546" lon="2.39322">
        <ele>135.3</ele>
        <time>2013-08-06T19:21:52.000Z</time>
      </trkpt>
      <trkpt lat="48.8655" lon="2.39317">
        <ele>135.2</ele>
        <time>2013-08-06T19:21:53.000Z</time>
      </trkpt>
      <trkpt lat="48.86553" lon="2.3931">
        <ele>134.7</ele>
        <time>2013-08-06T19:21:54.000Z</time>
      </trkpt>
      <trkpt lat="48.86556" lon="2.39302">
        <ele>134.6</ele>
        <time>2013-08-06T19:21:55.000Z</time>
      </trkpt>
      <trkpt lat="48.86561" lon="2.39295">
        <ele>135.2</ele>
        <time>2013-08-06T19:21:56.000Z</time>
      </trkpt>
      <trkpt lat="48.86566" lon="2.39288">
        <ele>135.4</ele>
        <time>2013-08-06T19:21:57.000Z</time>
      </trkpt>
      <trkpt lat="48.86569" lon="2.39283">
        <ele>134.5</ele>
        <time>2013-08-06T19:21:58.000Z</time>
      </trkpt>
      <trkpt lat="48.86574" lon="2.39275">
        <ele>134.6</ele>
        <time>2013-08-06T19:21:59.000Z</time>
      </trkpt>
      <trkpt lat="48.86578" lon="2.39268">
        <ele>134.3</ele>
        <time>2013-08-06T19:22:00.000Z</time>
      </trkpt>
      <trkpt lat="48.86583" lon="2.39261">
        <ele>133.7</ele>
        <time>2013-08-06T19:22:01.000Z</time>
      </trkpt>
      <trkpt lat="48.86588" lon="2.39253">
        <ele>134.4</ele>
        <time>2013-08-06T19:22:02.000Z</time>
      </trkpt>
      <trkpt lat="48.86591" lon="2.39244">
        <ele>133.8</ele>
        <time>2013-08-06T19:22:03.000Z</time>
      </trkpt>
      <trkpt lat="48.86596" lon="2.39239">
        <ele>133.6</ele>
        <time>2013-08-06T19:22:04.000Z</time>
      </trkpt>
      <trkpt lat="48.86601" lon="2.39232">
        <ele>133.2</ele>
        <time>2013-08-06T19:22:05.000Z</time>
      </trkpt>
      <trkpt lat="48.86606" lon="2.39225">
        <ele>132.9</ele>
        <time>2013-08-06T19:22:06.000Z</time>
      </trkpt>
      <trkpt lat="48.8661" lon="2.39218">
        <ele>133.5</ele>
        <time>2013-08-06T19:22:07.000Z</time>
      </trkpt>
      <trkpt lat="48.86614" lon="2.39212">
        <ele>132.7</ele>
        <time>2013-08-06T19:22:08.000Z</time>
      </trkpt>
      <trkpt lat="48.86618" lon="2.39205">
        <ele>132.1</ele>
        <time>2013-08-06T19:22:09.000Z</time>
      </trkpt>
      <trkpt lat="48.86622" lon="2.392">
        <ele>131.9</ele>
        <time>2013-08-06T19:22:10.000Z</time>
      </trkpt>
      <trkpt lat="48.86626" lon="2.39194">
        <ele>131.5</ele>
        <time>2013-08-06T19:22:11.000Z</time>
      </trkpt>
      <trkpt lat="48.8663" lon="2.39188">
        <ele>130.9</ele>
        <time>2013-08-06T19:22:12.000Z</time>
      </trkpt>
      <trkpt lat="48.86634" lon="2.39183">
        <ele>130.3</ele>
        <time>2013-08-06T19:22:13.000Z</time>
      </trkpt>
      <trkpt lat="48.86639" lon="2.39177">
        <ele>129.8</ele>
        <time>2013-08-06T19:22:14.000Z</time>
      </trkpt>
      <trkpt lat="48.86643" lon="2.39173">
        <ele>129.7</ele>
        <time>2013-08-06T19:22:15.000Z</time>
      </trkpt>
      <trkpt lat="48.86646" lon="2.39167">
        <ele>130</ele>
        <time>2013-08-06T19:22:16.000Z</time>
      </trkpt>
      <trkpt lat="48.86649" lon="2.3916">
        <ele>131.4</ele>
        <time>2013-08-06T19:22:17.000Z</time>
      </trkpt>
      <trkpt lat="48.86653" lon="2.39153">
        <ele>131.1</ele>
        <time>2013-08-06T19:22:18.000Z</time>
      </trkpt>
      <trkpt lat="48.86658" lon="2.39148">
        <ele>131.4</ele>
        <time>2013-08-06T19:22:19.000Z</time>
      </trkpt>
      <trkpt lat="48.86663" lon="2.39143">
        <ele>131.3</ele>
        <time>2013-08-06T19:22:20.000Z</time>
      </trkpt>
      <trkpt lat="48.86666" lon="2.39136">
        <ele>132.1</ele>
        <time>2013-08-06T19:22:21.000Z</time>
      </trkpt>
      <trkpt lat="48.8667" lon="2.3913">
        <ele>131.6</ele>
        <time>2013-08-06T19:22:22.000Z</time>
      </trkpt>
      <trkpt lat="48.86675" lon="2.39123">
        <ele>129.7</ele>
        <time>2013-08-06T19:22:23.000Z</time>
      </trkpt>
      <trkpt lat="48.86678" lon="2.39116">
        <ele>129.8</ele>
        <time>2013-08-06T19:22:24.000Z</time>
      </trkpt>
      <trkpt lat="48.86682" lon="2.3911">
        <ele>128.9</ele>
        <time>2013-08-06T19:22:25.000Z</time>
      </trkpt>
      <trkpt lat="48.86687" lon="2.39105">
        <ele>128.8</ele>
        <time>2013-08-06T19:22:26.000Z</time>
      </trkpt>
      <trkpt lat="48.86693" lon="2.39099">
        <ele>128</ele>
        <time>2013-08-06T19:22:27.000Z</time>
      </trkpt>
      <trkpt lat="48.86697" lon="2.39093">
        <ele>127.7</ele>
        <time>2013-08-06T19:22:28.000Z</time>
      </trkpt>
      <trkpt lat="48.86701" lon="2.39089">
        <ele>126.6</ele>
        <time>2013-08-06T19:22:29.000Z</time>
      </trkpt>
      <trkpt lat="48.86705" lon="2.39086">
        <ele>125.6</ele>
        <time>2013-08-06T19:22:30.000Z</time>
      </trkpt>
      <trkpt lat="48.86708" lon="2.39083">
        <ele>125.7</ele>
        <time>2013-08-06T19:22:31.000Z</time>
      </trkpt>
      <trkpt lat="48.8671" lon="2.39079">
        <ele>126.1</ele>
        <time>2013-08-06T19:22:32.000Z</time>
      </trkpt>
      <trkpt lat="48.86712" lon="2.39074">
        <ele>126.8</ele>
        <time>2013-08-06T19:22:33.000Z</time>
      </trkpt>
      <trkpt lat="48.86714" lon="2.3907">
        <ele>127.6</ele>
        <time>2013-08-06T19:22:34.000Z</time>
      </trkpt>
      <trkpt lat="48.86715" lon="2.39066">
        <ele>128.5</ele>
        <time>2013-08-06T19:22:35.000Z</time>
      </trkpt>
      <trkpt lat="48.86717" lon="2.39064">
        <ele>129.4</ele>
        <time>2013-08-06T19:22:36.000Z</time>
      </trkpt>
      <trkpt lat="48.86718" lon="2.3906">
        <ele>129.6</ele>
        <time>2013-08-06T19:22:37.000Z</time>
      </trkpt>
      <trkpt lat="48.8672" lon="2.39055">
        <ele>128.5</ele>
        <time>2013-08-06T19:22:40.000Z</time>
      </trkpt>
      <trkpt lat="48.8672" lon="2.39053">
        <ele>127.5</ele>
        <time>2013-08-06T19:22:41.000Z</time>
      </trkpt>
      <trkpt lat="48.86721" lon="2.39046">
        <ele>125.6</ele>
        <time>2013-08-06T19:22:45.000Z</time>
      </trkpt>
      <trkpt lat="48.86722" lon="2.39042">
        <ele>124.3</ele>
        <time>2013-08-06T19:22:46.000Z</time>
      </trkpt>
      <trkpt lat="48.86725" lon="2.39039">
        <ele>123.4</ele>
        <time>2013-08-06T19:22:47.000Z</time>
      </trkpt>
      <trkpt lat="48.86727" lon="2.39037">
        <ele>123.4</ele>
        <time>2013-08-06T19:22:48.000Z</time>
      </trkpt>
      <trkpt lat="48.8673" lon="2.39035">
        <ele>122.2</ele>
        <time>2013-08-06T19:22:49.000Z</time>
      </trkpt>
      <trkpt lat="48.86732" lon="2.39033">
        <ele>120.8</ele>
        <time>2013-08-06T19:22:50.000Z</time>
      </trkpt>
      <trkpt lat="48.86735" lon="2.39032">
        <ele>120.4</ele>
        <time>2013-08-06T19:22:51.000Z</time>
      </trkpt>
      <trkpt lat="48.86739" lon="2.39029">
        <ele>119.9</ele>
        <time>2013-08-06T19:22:52.000Z</time>
      </trkpt>
      <trkpt lat="48.86743" lon="2.39028">
        <ele>119.3</ele>
        <time>2013-08-06T19:22:53.000Z</time>
      </trkpt>
      <trkpt lat="48.86747" lon="2.39026">
        <ele>120.6</ele>
        <time>2013-08-06T19:22:54.000Z</time>
      </trkpt>
      <trkpt lat="48.86752" lon="2.39024">
        <ele>120.4</ele>
        <time>2013-08-06T19:22:55.000Z</time>
      </trkpt>
      <trkpt lat="48.86758" lon="2.39022">
        <ele>120.1</ele>
        <time>2013-08-06T19:22:56.000Z</time>
      </trkpt>
      <trkpt lat="48.8677" lon="2.39016">
        <ele>119.8</ele>
        <time>2013-08-06T19:22:57.000Z</time>
      </trkpt>
      <trkpt lat="48.86775" lon="2.39014">
        <ele>119.8</ele>
        <time>2013-08-06T19:22:58.000Z</time>
      </trkpt>
      <trkpt lat="48.8678" lon="2.39011">
        <ele>120.4</ele>
        <time>2013-08-06T19:22:59.000Z</time>
      </trkpt>
      <trkpt lat="48.86785" lon="2.39007">
        <ele>119.9</ele>
        <time>2013-08-06T19:23:00.000Z</time>
      </trkpt>
      <trkpt lat="48.86789" lon="2.39003">
        <ele>119.9</ele>
        <time>2013-08-06T19:23:01.000Z</time>
      </trkpt>
      <trkpt lat="48.86794" lon="2.38997">
        <ele>120.1</ele>
        <time>2013-08-06T19:23:02.000Z</time>
      </trkpt>
      <trkpt lat="48.86789" lon="2.38986">
        <ele>121.6</ele>
        <time>2013-08-06T19:23:03.000Z</time>
      </trkpt>
      <trkpt lat="48.8679" lon="2.3898">
        <ele>123.5</ele>
        <time>2013-08-06T19:23:04.000Z</time>
      </trkpt>
      <trkpt lat="48.8679" lon="2.38973">
        <ele>124.8</ele>
        <time>2013-08-06T19:23:05.000Z</time>
      </trkpt>
      <trkpt lat="48.8679" lon="2.38967">
        <ele>124.9</ele>
        <time>2013-08-06T19:23:06.000Z</time>
      </trkpt>
      <trkpt lat="48.8679" lon="2.38962">
        <ele>125</ele>
        <time>2013-08-06T19:23:07.000Z</time>
      </trkpt>
      <trkpt lat="48.86789" lon="2.38955">
        <ele>125.9</ele>
        <time>2013-08-06T19:23:08.000Z</time>
      </trkpt>
      <trkpt lat="48.86785" lon="2.38948">
        <ele>126.4</ele>
        <time>2013-08-06T19:23:09.000Z</time>
      </trkpt>
      <trkpt lat="48.86783" lon="2.3894">
        <ele>127</ele>
        <time>2013-08-06T19:23:10.000Z</time>
      </trkpt>
      <trkpt lat="48.86781" lon="2.38934">
        <ele>127</ele>
        <time>2013-08-06T19:23:11.000Z</time>
      </trkpt>
      <trkpt lat="48.8678" lon="2.38927">
        <ele>126.7</ele>
        <time>2013-08-06T19:23:12.000Z</time>
      </trkpt>
      <trkpt lat="48.86778" lon="2.3892">
        <ele>127</ele>
        <time>2013-08-06T19:23:13.000Z</time>
      </trkpt>
      <trkpt lat="48.86778" lon="2.38912">
        <ele>126.8</ele>
        <time>2013-08-06T19:23:14.000Z</time>
      </trkpt>
      <trkpt lat="48.86774" lon="2.38905">
        <ele>126.1</ele>
        <time>2013-08-06T19:23:15.000Z</time>
      </trkpt>
      <trkpt lat="48.86772" lon="2.38899">
        <ele>125.4</ele>
        <time>2013-08-06T19:23:16.000Z</time>
      </trkpt>
      <trkpt lat="48.86772" lon="2.38895">
        <ele>125.2</ele>
        <time>2013-08-06T19:23:17.000Z</time>
      </trkpt>
      <trkpt lat="48.86767" lon="2.3889">
        <ele>123.4</ele>
        <time>2013-08-06T19:23:18.000Z</time>
      </trkpt>
      <trkpt lat="48.86765" lon="2.38884">
        <ele>122.8</ele>
        <time>2013-08-06T19:23:19.000Z</time>
      </trkpt>
      <trkpt lat="48.86768" lon="2.3888">
        <ele>123.2</ele>
        <time>2013-08-06T19:23:20.000Z</time>
      </trkpt>
      <trkpt lat="48.86771" lon="2.3888">
        <ele>115.3</ele>
        <time>2013-08-06T19:25:38.000Z</time>
      </trkpt>
      <trkpt lat="48.86773" lon="2.3888">
        <ele>113</ele>
        <time>2013-08-06T19:25:39.000Z</time>
      </trkpt>
      <trkpt lat="48.86775" lon="2.38879">
        <ele>111</ele>
        <time>2013-08-06T19:25:40.000Z</time>
      </trkpt>
      <trkpt lat="48.86778" lon="2.38876">
        <ele>111.2</ele>
        <time>2013-08-06T19:25:41.000Z</time>
      </trkpt>
      <trkpt lat="48.8678" lon="2.38874">
        <ele>113.9</ele>
        <time>2013-08-06T19:25:42.000Z</time>
      </trkpt>
      <trkpt lat="48.86782" lon="2.38871">
        <ele>112.4</ele>
        <time>2013-08-06T19:25:43.000Z</time>
      </trkpt>
      <trkpt lat="48.86784" lon="2.38869">
        <ele>112.4</ele>
        <time>2013-08-06T19:25:44.000Z</time>
      </trkpt>
      <trkpt lat="48.86786" lon="2.38866">
        <ele>112.1</ele>
        <time>2013-08-06T19:25:45.000Z</time>
      </trkpt>
      <trkpt lat="48.86788" lon="2.38863">
        <ele>112.9</ele>
        <time>2013-08-06T19:25:46.000Z</time>
      </trkpt>
      <trkpt lat="48.8679" lon="2.38861">
        <ele>112.8</ele>
        <time>2013-08-06T19:25:47.000Z</time>
      </trkpt>
      <trkpt lat="48.86792" lon="2.38858">
        <ele>112.1</ele>
        <time>2013-08-06T19:25:48.000Z</time>
      </trkpt>
      <trkpt lat="48.86794" lon="2.38856">
        <ele>112.8</ele>
        <time>2013-08-06T19:25:49.000Z</time>
      </trkpt>
      <trkpt lat="48.86797" lon="2.38852">
        <ele>118.9</ele>
        <time>2013-08-06T19:25:52.000Z</time>
      </trkpt>
      <trkpt lat="48.86798" lon="2.3885">
        <ele>119.9</ele>
        <time>2013-08-06T19:25:53.000Z</time>
      </trkpt>
      <trkpt lat="48.86801" lon="2.38847">
        <ele>119.8</ele>
        <time>2013-08-06T19:25:55.000Z</time>
      </trkpt>
      <trkpt lat="48.86802" lon="2.38846">
        <ele>119.1</ele>
        <time>2013-08-06T19:25:56.000Z</time>
      </trkpt>
      <trkpt lat="48.86805" lon="2.38841">
        <ele>119.1</ele>
        <time>2013-08-06T19:25:58.000Z</time>
      </trkpt>
      <trkpt lat="48.86807" lon="2.38839">
        <ele>119.8</ele>
        <time>2013-08-06T19:25:59.000Z</time>
      </trkpt>
      <trkpt lat="48.86808" lon="2.38837">
        <ele>120.2</ele>
        <time>2013-08-06T19:26:00.000Z</time>
      </trkpt>
      <trkpt lat="48.8681" lon="2.38834">
        <ele>121.7</ele>
        <time>2013-08-06T19:26:01.000Z</time>
      </trkpt>
      <trkpt lat="48.86813" lon="2.3883">
        <ele>122.1</ele>
        <time>2013-08-06T19:26:03.000Z</time>
      </trkpt>
      <trkpt lat="48.86815" lon="2.38828">
        <ele>124.1</ele>
        <time>2013-08-06T19:26:04.000Z</time>
      </trkpt>
      <trkpt lat="48.86817" lon="2.38823">
        <ele>123.4</ele>
        <time>2013-08-06T19:26:07.000Z</time>
      </trkpt>
      <trkpt lat="48.86817" lon="2.38821">
        <ele>122.5</ele>
        <time>2013-08-06T19:26:08.000Z</time>
      </trkpt>
      <trkpt lat="48.86821" lon="2.38821">
        <ele>122.3</ele>
        <time>2013-08-06T19:26:32.000Z</time>
      </trkpt>
      <trkpt lat="48.86822" lon="2.38822">
        <ele>122.1</ele>
        <time>2013-08-06T19:26:33.000Z</time>
      </trkpt>
      <trkpt lat="48.86825" lon="2.3882">
        <ele>124.5</ele>
        <time>2013-08-06T19:26:41.000Z</time>
      </trkpt>
      <trkpt lat="48.86826" lon="2.38818">
        <ele>124.8</ele>
        <time>2013-08-06T19:26:42.000Z</time>
      </trkpt>
      <trkpt lat="48.86826" lon="2.38813">
        <ele>122.2</ele>
        <time>2013-08-06T19:26:43.000Z</time>
      </trkpt>
      <trkpt lat="48.86826" lon="2.38808">
        <ele>121.5</ele>
        <time>2013-08-06T19:26:44.000Z</time>
      </trkpt>
      <trkpt lat="48.86825" lon="2.38804">
        <ele>120.8</ele>
        <time>2013-08-06T19:26:45.000Z</time>
      </trkpt>
      <trkpt lat="48.86825" lon="2.388">
        <ele>120.3</ele>
        <time>2013-08-06T19:26:46.000Z</time>
      </trkpt>
      <trkpt lat="48.86825" lon="2.38796">
        <ele>120.4</ele>
        <time>2013-08-06T19:26:47.000Z</time>
      </trkpt>
      <trkpt lat="48.86824" lon="2.38792">
        <ele>120.4</ele>
        <time>2013-08-06T19:26:48.000Z</time>
      </trkpt>
      <trkpt lat="48.86822" lon="2.38787">
        <ele>120.7</ele>
        <time>2013-08-06T19:26:49.000Z</time>
      </trkpt>
      <trkpt lat="48.86821" lon="2.3878">
        <ele>120</ele>
        <time>2013-08-06T19:26:50.000Z</time>
      </trkpt>
      <trkpt lat="48.8682" lon="2.38774">
        <ele>119.6</ele>
        <time>2013-08-06T19:26:51.000Z</time>
      </trkpt>
      <trkpt lat="48.86819" lon="2.38767">
        <ele>119.4</ele>
        <time>2013-08-06T19:26:52.000Z</time>
      </trkpt>
      <trkpt lat="48.8682" lon="2.38759">
        <ele>119.9</ele>
        <time>2013-08-06T19:26:53.000Z</time>
      </trkpt>
      <trkpt lat="48.86818" lon="2.38753">
        <ele>120.2</ele>
        <time>2013-08-06T19:26:54.000Z</time>
      </trkpt>
      <trkpt lat="48.86817" lon="2.38747">
        <ele>120.1</ele>
        <time>2013-08-06T19:26:55.000Z</time>
      </trkpt>
      <trkpt lat="48.86817" lon="2.38738">
        <ele>120.4</ele>
        <time>2013-08-06T19:26:56.000Z</time>
      </trkpt>
      <trkpt lat="48.86815" lon="2.38732">
        <ele>121.1</ele>
        <time>2013-08-06T19:26:57.000Z</time>
      </trkpt>
      <trkpt lat="48.86815" lon="2.38725">
        <ele>121.5</ele>
        <time>2013-08-06T19:26:58.000Z</time>
      </trkpt>
      <trkpt lat="48.86812" lon="2.3872">
        <ele>121.7</ele>
        <time>2013-08-06T19:26:59.000Z</time>
      </trkpt>
      <trkpt lat="48.86809" lon="2.38714">
        <ele>121.9</ele>
        <time>2013-08-06T19:27:00.000Z</time>
      </trkpt>
      <trkpt lat="48.86807" lon="2.38709">
        <ele>121.9</ele>
        <time>2013-08-06T19:27:01.000Z</time>
      </trkpt>
      <trkpt lat="48.86806" lon="2.38703">
        <ele>119.6</ele>
        <time>2013-08-06T19:27:02.000Z</time>
      </trkpt>
      <trkpt lat="48.86805" lon="2.38697">
        <ele>119</ele>
        <time>2013-08-06T19:27:03.000Z</time>
      </trkpt>
      <trkpt lat="48.86805" lon="2.3869">
        <ele>120.3</ele>
        <time>2013-08-06T19:27:04.000Z</time>
      </trkpt>
      <trkpt lat="48.86804" lon="2.38685">
        <ele>120.5</ele>
        <time>2013-08-06T19:27:05.000Z</time>
      </trkpt>
      <trkpt lat="48.86804" lon="2.3868">
        <ele>122</ele>
        <time>2013-08-06T19:27:06.000Z</time>
      </trkpt>
      <trkpt lat="48.86804" lon="2.38673">
        <ele>122.8</ele>
        <time>2013-08-06T19:27:07.000Z</time>
      </trkpt>
      <trkpt lat="48.86804" lon="2.38666">
        <ele>126.2</ele>
        <time>2013-08-06T19:27:08.000Z</time>
      </trkpt>
      <trkpt lat="48.86802" lon="2.38661">
        <ele>127.8</ele>
        <time>2013-08-06T19:27:09.000Z</time>
      </trkpt>
      <trkpt lat="48.86801" lon="2.38655">
        <ele>129.4</ele>
        <time>2013-08-06T19:27:10.000Z</time>
      </trkpt>
      <trkpt lat="48.86799" lon="2.3865">
        <ele>131.5</ele>
        <time>2013-08-06T19:27:11.000Z</time>
      </trkpt>
      <trkpt lat="48.86796" lon="2.38644">
        <ele>132.8</ele>
        <time>2013-08-06T19:27:12.000Z</time>
      </trkpt>
      <trkpt lat="48.86791" lon="2.3863">
        <ele>132.6</ele>
        <time>2013-08-06T19:27:13.000Z</time>
      </trkpt>
      <trkpt lat="48.86789" lon="2.38621">
        <ele>133.3</ele>
        <time>2013-08-06T19:27:14.000Z</time>
      </trkpt>
      <trkpt lat="48.86787" lon="2.38612">
        <ele>135.8</ele>
        <time>2013-08-06T19:27:15.000Z</time>
      </trkpt>
      <trkpt lat="48.86785" lon="2.386">
        <ele>137.2</ele>
        <time>2013-08-06T19:27:16.000Z</time>
      </trkpt>
      <trkpt lat="48.86783" lon="2.38586">
        <ele>138</ele>
        <time>2013-08-06T19:27:17.000Z</time>
      </trkpt>
      <trkpt lat="48.86782" lon="2.38573">
        <ele>137.5</ele>
        <time>2013-08-06T19:27:18.000Z</time>
      </trkpt>
      <trkpt lat="48.8678" lon="2.38561">
        <ele>137.4</ele>
        <time>2013-08-06T19:27:19.000Z</time>
      </trkpt>
      <trkpt lat="48.86777" lon="2.38551">
        <ele>136.9</ele>
        <time>2013-08-06T19:27:20.000Z</time>
      </trkpt>
      <trkpt lat="48.86775" lon="2.38542">
        <ele>137.6</ele>
        <time>2013-08-06T19:27:21.000Z</time>
      </trkpt>
      <trkpt lat="48.86773" lon="2.38533">
        <ele>137.8</ele>
        <time>2013-08-06T19:27:22.000Z</time>
      </trkpt>
      <trkpt lat="48.86768" lon="2.38525">
        <ele>137.1</ele>
        <time>2013-08-06T19:27:23.000Z</time>
      </trkpt>
      <trkpt lat="48.8676" lon="2.38516">
        <ele>133.9</ele>
        <time>2013-08-06T19:27:24.000Z</time>
      </trkpt>
      <trkpt lat="48.86756" lon="2.38503">
        <ele>134.4</ele>
        <time>2013-08-06T19:27:25.000Z</time>
      </trkpt>
      <trkpt lat="48.86754" lon="2.38494">
        <ele>133.9</ele>
        <time>2013-08-06T19:27:26.000Z</time>
      </trkpt>
      <trkpt lat="48.86754" lon="2.38484">
        <ele>133.5</ele>
        <time>2013-08-06T19:27:27.000Z</time>
      </trkpt>
      <trkpt lat="48.86752" lon="2.38475">
        <ele>133</ele>
        <time>2013-08-06T19:27:28.000Z</time>
      </trkpt>
      <trkpt lat="48.86752" lon="2.38465">
        <ele>132.7</ele>
        <time>2013-08-06T19:27:29.000Z</time>
      </trkpt>
      <trkpt lat="48.86752" lon="2.38454">
        <ele>132.6</ele>
        <time>2013-08-06T19:27:30.000Z</time>
      </trkpt>
      <trkpt lat="48.86751" lon="2.38443">
        <ele>131.8</ele>
        <time>2013-08-06T19:27:31.000Z</time>
      </trkpt>
      <trkpt lat="48.8675" lon="2.38434">
        <ele>131.4</ele>
        <time>2013-08-06T19:27:32.000Z</time>
      </trkpt>
      <trkpt lat="48.86745" lon="2.38422">
        <ele>132</ele>
        <time>2013-08-06T19:27:33.000Z</time>
      </trkpt>
      <trkpt lat="48.86738" lon="2.38411">
        <ele>130.6</ele>
        <time>2013-08-06T19:27:34.000Z</time>
      </trkpt>
      <trkpt lat="48.86734" lon="2.38402">
        <ele>130.5</ele>
        <time>2013-08-06T19:27:35.000Z</time>
      </trkpt>
      <trkpt lat="48.86733" lon="2.38393">
        <ele>132.4</ele>
        <time>2013-08-06T19:27:36.000Z</time>
      </trkpt>
      <trkpt lat="48.86731" lon="2.38385">
        <ele>132.2</ele>
        <time>2013-08-06T19:27:37.000Z</time>
      </trkpt>
      <trkpt lat="48.86729" lon="2.38379">
        <ele>130.3</ele>
        <time>2013-08-06T19:27:38.000Z</time>
      </trkpt>
      <trkpt lat="48.86727" lon="2.38372">
        <ele>128.6</ele>
        <time>2013-08-06T19:27:39.000Z</time>
      </trkpt>
      <trkpt lat="48.86725" lon="2.38366">
        <ele>126.7</ele>
        <time>2013-08-06T19:27:40.000Z</time>
      </trkpt>
      <trkpt lat="48.86723" lon="2.38361">
        <ele>126.4</ele>
        <time>2013-08-06T19:27:41.000Z</time>
      </trkpt>
      <trkpt lat="48.86722" lon="2.38357">
        <ele>125.5</ele>
        <time>2013-08-06T19:27:42.000Z</time>
      </trkpt>
      <trkpt lat="48.8672" lon="2.38354">
        <ele>126.1</ele>
        <time>2013-08-06T19:27:43.000Z</time>
      </trkpt>
      <trkpt lat="48.86719" lon="2.3835">
        <ele>126.3</ele>
        <time>2013-08-06T19:27:44.000Z</time>
      </trkpt>
      <trkpt lat="48.86718" lon="2.38347">
        <ele>125.6</ele>
        <time>2013-08-06T19:27:45.000Z</time>
      </trkpt>
      <trkpt lat="48.86719" lon="2.38341">
        <ele>121.7</ele>
        <time>2013-08-06T19:27:46.000Z</time>
      </trkpt>
      <trkpt lat="48.8672" lon="2.38337">
        <ele>119.5</ele>
        <time>2013-08-06T19:27:47.000Z</time>
      </trkpt>
      <trkpt lat="48.86724" lon="2.38337">
        <ele>115.2</ele>
        <time>2013-08-06T19:27:50.000Z</time>
      </trkpt>
      <trkpt lat="48.86724" lon="2.38338">
        <ele>115.4</ele>
        <time>2013-08-06T19:27:51.000Z</time>
      </trkpt>
      <trkpt lat="48.86721" lon="2.38334">
        <ele>113.8</ele>
        <time>2013-08-06T19:28:18.000Z</time>
      </trkpt>
      <trkpt lat="48.86722" lon="2.38331">
        <ele>110.5</ele>
        <time>2013-08-06T19:28:19.000Z</time>
      </trkpt>
      <trkpt lat="48.86724" lon="2.38326">
        <ele>108.3</ele>
        <time>2013-08-06T19:28:21.000Z</time>
      </trkpt>
      <trkpt lat="48.86726" lon="2.38323">
        <ele>108.9</ele>
        <time>2013-08-06T19:28:22.000Z</time>
      </trkpt>
      <trkpt lat="48.86728" lon="2.38319">
        <ele>108.5</ele>
        <time>2013-08-06T19:28:23.000Z</time>
      </trkpt>
      <trkpt lat="48.8673" lon="2.38315">
        <ele>107.8</ele>
        <time>2013-08-06T19:28:24.000Z</time>
      </trkpt>
      <trkpt lat="48.86731" lon="2.38311">
        <ele>107.4</ele>
        <time>2013-08-06T19:28:25.000Z</time>
      </trkpt>
      <trkpt lat="48.86733" lon="2.38308">
        <ele>106.9</ele>
        <time>2013-08-06T19:28:26.000Z</time>
      </trkpt>
      <trkpt lat="48.86735" lon="2.38305">
        <ele>106.2</ele>
        <time>2013-08-06T19:28:27.000Z</time>
      </trkpt>
      <trkpt lat="48.86737" lon="2.38302">
        <ele>106.6</ele>
        <time>2013-08-06T19:28:28.000Z</time>
      </trkpt>
      <trkpt lat="48.86739" lon="2.38299">
        <ele>106.4</ele>
        <time>2013-08-06T19:28:29.000Z</time>
      </trkpt>
      <trkpt lat="48.86741" lon="2.38296">
        <ele>107.4</ele>
        <time>2013-08-06T19:28:30.000Z</time>
      </trkpt>
      <trkpt lat="48.86743" lon="2.38293">
        <ele>107.4</ele>
        <time>2013-08-06T19:28:31.000Z</time>
      </trkpt>
      <trkpt lat="48.86745" lon="2.3829">
        <ele>108.4</ele>
        <time>2013-08-06T19:28:32.000Z</time>
      </trkpt>
      <trkpt lat="48.86746" lon="2.38287">
        <ele>108.5</ele>
        <time>2013-08-06T19:28:33.000Z</time>
      </trkpt>
      <trkpt lat="48.86749" lon="2.38284">
        <ele>108.6</ele>
        <time>2013-08-06T19:28:34.000Z</time>
      </trkpt>
      <trkpt lat="48.86751" lon="2.38282">
        <ele>108</ele>
        <time>2013-08-06T19:28:35.000Z</time>
      </trkpt>
      <trkpt lat="48.86754" lon="2.38279">
        <ele>107.2</ele>
        <time>2013-08-06T19:28:36.000Z</time>
      </trkpt>
      <trkpt lat="48.86757" lon="2.38276">
        <ele>107.9</ele>
        <time>2013-08-06T19:28:37.000Z</time>
      </trkpt>
      <trkpt lat="48.86759" lon="2.38272">
        <ele>108.3</ele>
        <time>2013-08-06T19:28:38.000Z</time>
      </trkpt>
      <trkpt lat="48.86762" lon="2.38269">
        <ele>107.2</ele>
        <time>2013-08-06T19:28:39.000Z</time>
      </trkpt>
      <trkpt lat="48.86764" lon="2.38265">
        <ele>106.6</ele>
        <time>2013-08-06T19:28:40.000Z</time>
      </trkpt>
      <trkpt lat="48.86766" lon="2.38262">
        <ele>106.4</ele>
        <time>2013-08-06T19:28:41.000Z</time>
      </trkpt>
      <trkpt lat="48.86769" lon="2.38259">
        <ele>105.9</ele>
        <time>2013-08-06T19:28:42.000Z</time>
      </trkpt>
      <trkpt lat="48.86771" lon="2.38256">
        <ele>105.8</ele>
        <time>2013-08-06T19:28:43.000Z</time>
      </trkpt>
      <trkpt lat="48.86772" lon="2.38252">
        <ele>104.3</ele>
        <time>2013-08-06T19:28:44.000Z</time>
      </trkpt>
      <trkpt lat="48.86775" lon="2.38248">
        <ele>104.9</ele>
        <time>2013-08-06T19:28:46.000Z</time>
      </trkpt>
      <trkpt lat="48.86776" lon="2.38245">
        <ele>104.7</ele>
        <time>2013-08-06T19:28:47.000Z</time>
      </trkpt>
      <trkpt lat="48.86777" lon="2.38243">
        <ele>105</ele>
        <time>2013-08-06T19:28:48.000Z</time>
      </trkpt>
      <trkpt lat="48.86779" lon="2.3824">
        <ele>103.4</ele>
        <time>2013-08-06T19:28:49.000Z</time>
      </trkpt>
      <trkpt lat="48.86782" lon="2.38236">
        <ele>103.9</ele>
        <time>2013-08-06T19:28:50.000Z</time>
      </trkpt>
      <trkpt lat="48.86784" lon="2.38233">
        <ele>104.3</ele>
        <time>2013-08-06T19:28:51.000Z</time>
      </trkpt>
      <trkpt lat="48.86787" lon="2.38229">
        <ele>104.4</ele>
        <time>2013-08-06T19:28:52.000Z</time>
      </trkpt>
      <trkpt lat="48.8679" lon="2.38226">
        <ele>106.9</ele>
        <time>2013-08-06T19:28:53.000Z</time>
      </trkpt>
      <trkpt lat="48.86792" lon="2.38223">
        <ele>107.3</ele>
        <time>2013-08-06T19:28:54.000Z</time>
      </trkpt>
      <trkpt lat="48.86795" lon="2.3822">
        <ele>106.4</ele>
        <time>2013-08-06T19:28:55.000Z</time>
      </trkpt>
      <trkpt lat="48.86798" lon="2.38217">
        <ele>106.8</ele>
        <time>2013-08-06T19:28:56.000Z</time>
      </trkpt>
      <trkpt lat="48.86801" lon="2.38214">
        <ele>106.8</ele>
        <time>2013-08-06T19:28:57.000Z</time>
      </trkpt>
      <trkpt lat="48.86804" lon="2.38211">
        <ele>106.7</ele>
        <time>2013-08-06T19:28:58.000Z</time>
      </trkpt>
      <trkpt lat="48.86807" lon="2.38207">
        <ele>107.4</ele>
        <time>2013-08-06T19:28:59.000Z</time>
      </trkpt>
      <trkpt lat="48.8681" lon="2.38203">
        <ele>105</ele>
        <time>2013-08-06T19:29:00.000Z</time>
      </trkpt>
      <trkpt lat="48.86813" lon="2.38198">
        <ele>104.5</ele>
        <time>2013-08-06T19:29:01.000Z</time>
      </trkpt>
      <trkpt lat="48.86816" lon="2.38194">
        <ele>104</ele>
        <time>2013-08-06T19:29:02.000Z</time>
      </trkpt>
      <trkpt lat="48.86818" lon="2.3819">
        <ele>104</ele>
        <time>2013-08-06T19:29:03.000Z</time>
      </trkpt>
      <trkpt lat="48.86821" lon="2.38187">
        <ele>103.5</ele>
        <time>2013-08-06T19:29:04.000Z</time>
      </trkpt>
      <trkpt lat="48.86823" lon="2.38183">
        <ele>104.6</ele>
        <time>2013-08-06T19:29:05.000Z</time>
      </trkpt>
      <trkpt lat="48.86825" lon="2.38179">
        <ele>103.7</ele>
        <time>2013-08-06T19:29:06.000Z</time>
      </trkpt>
      <trkpt lat="48.86826" lon="2.38175">
        <ele>104</ele>
        <time>2013-08-06T19:29:07.000Z</time>
      </trkpt>
      <trkpt lat="48.86828" lon="2.38172">
        <ele>106.4</ele>
        <time>2013-08-06T19:29:08.000Z</time>
      </trkpt>
      <trkpt lat="48.8683" lon="2.38169">
        <ele>106.8</ele>
        <time>2013-08-06T19:29:09.000Z</time>
      </trkpt>
      <trkpt lat="48.86832" lon="2.38167">
        <ele>108.1</ele>
        <time>2013-08-06T19:29:10.000Z</time>
      </trkpt>
      <trkpt lat="48.86834" lon="2.38164">
        <ele>108.6</ele>
        <time>2013-08-06T19:29:11.000Z</time>
      </trkpt>
      <trkpt lat="48.86836" lon="2.38161">
        <ele>109.6</ele>
        <time>2013-08-06T19:29:12.000Z</time>
      </trkpt>
      <trkpt lat="48.86838" lon="2.38157">
        <ele>110</ele>
        <time>2013-08-06T19:29:13.000Z</time>
      </trkpt>
      <trkpt lat="48.8684" lon="2.38153">
        <ele>109.4</ele>
        <time>2013-08-06T19:29:14.000Z</time>
      </trkpt>
      <trkpt lat="48.86843" lon="2.3815">
        <ele>108.2</ele>
        <time>2013-08-06T19:29:15.000Z</time>
      </trkpt>
      <trkpt lat="48.86845" lon="2.38147">
        <ele>108.2</ele>
        <time>2013-08-06T19:29:16.000Z</time>
      </trkpt>
      <trkpt lat="48.86848" lon="2.38144">
        <ele>107.7</ele>
        <time>2013-08-06T19:29:17.000Z</time>
      </trkpt>
      <trkpt lat="48.86851" lon="2.3814">
        <ele>106.7</ele>
        <time>2013-08-06T19:29:18.000Z</time>
      </trkpt>
      <trkpt lat="48.86854" lon="2.38137">
        <ele>107.8</ele>
        <time>2013-08-06T19:29:19.000Z</time>
      </trkpt>
      <trkpt lat="48.86857" lon="2.38134">
        <ele>107.2</ele>
        <time>2013-08-06T19:29:20.000Z</time>
      </trkpt>
      <trkpt lat="48.86861" lon="2.38131">
        <ele>108.3</ele>
        <time>2013-08-06T19:29:21.000Z</time>
      </trkpt>
      <trkpt lat="48.86864" lon="2.38129">
        <ele>108.4</ele>
        <time>2013-08-06T19:29:22.000Z</time>
      </trkpt>
      <trkpt lat="48.86867" lon="2.38126">
        <ele>108.2</ele>
        <time>2013-08-06T19:29:23.000Z</time>
      </trkpt>
      <trkpt lat="48.8687" lon="2.38123">
        <ele>111.2</ele>
        <time>2013-08-06T19:29:24.000Z</time>
      </trkpt>
      <trkpt lat="48.86872" lon="2.3812">
        <ele>112.1</ele>
        <time>2013-08-06T19:29:25.000Z</time>
      </trkpt>
      <trkpt lat="48.86875" lon="2.38117">
        <ele>111.1</ele>
        <time>2013-08-06T19:29:26.000Z</time>
      </trkpt>
      <trkpt lat="48.86878" lon="2.38113">
        <ele>111.5</ele>
        <time>2013-08-06T19:29:27.000Z</time>
      </trkpt>
      <trkpt lat="48.8688" lon="2.38109">
        <ele>109.3</ele>
        <time>2013-08-06T19:29:28.000Z</time>
      </trkpt>
      <trkpt lat="48.86883" lon="2.38106">
        <ele>108.5</ele>
        <time>2013-08-06T19:29:29.000Z</time>
      </trkpt>
      <trkpt lat="48.86885" lon="2.38103">
        <ele>108.8</ele>
        <time>2013-08-06T19:29:30.000Z</time>
      </trkpt>
      <trkpt lat="48.86888" lon="2.381">
        <ele>109.3</ele>
        <time>2013-08-06T19:29:31.000Z</time>
      </trkpt>
      <trkpt lat="48.8689" lon="2.38097">
        <ele>108.3</ele>
        <time>2013-08-06T19:29:32.000Z</time>
      </trkpt>
      <trkpt lat="48.86891" lon="2.38095">
        <ele>108</ele>
        <time>2013-08-06T19:29:33.000Z</time>
      </trkpt>
      <trkpt lat="48.86894" lon="2.38089">
        <ele>107.4</ele>
        <time>2013-08-06T19:29:35.000Z</time>
      </trkpt>
      <trkpt lat="48.86896" lon="2.38087">
        <ele>107.4</ele>
        <time>2013-08-06T19:29:36.000Z</time>
      </trkpt>
      <trkpt lat="48.869" lon="2.3808">
        <ele>107.4</ele>
        <time>2013-08-06T19:29:38.278Z</time>
      </trkpt>
      <trkpt lat="48.86901" lon="2.38078">
        <ele>107.1</ele>
        <time>2013-08-06T19:29:39.000Z</time>
      </trkpt>
      <trkpt lat="48.86904" lon="2.38075">
        <ele>107.2</ele>
        <time>2013-08-06T19:29:40.000Z</time>
      </trkpt>
      <trkpt lat="48.86906" lon="2.38073">
        <ele>107.4</ele>
        <time>2013-08-06T19:29:41.000Z</time>
      </trkpt>
      <trkpt lat="48.86908" lon="2.3807">
        <ele>107.5</ele>
        <time>2013-08-06T19:29:42.000Z</time>
      </trkpt>
      <trkpt lat="48.8691" lon="2.38067">
        <ele>109.1</ele>
        <time>2013-08-06T19:29:43.000Z</time>
      </trkpt>
      <trkpt lat="48.86912" lon="2.38064">
        <ele>108.9</ele>
        <time>2013-08-06T19:29:44.000Z</time>
      </trkpt>
      <trkpt lat="48.86914" lon="2.38061">
        <ele>109.2</ele>
        <time>2013-08-06T19:29:45.000Z</time>
      </trkpt>
      <trkpt lat="48.86916" lon="2.38059">
        <ele>109.8</ele>
        <time>2013-08-06T19:29:46.000Z</time>
      </trkpt>
      <trkpt lat="48.86918" lon="2.38056">
        <ele>110.5</ele>
        <time>2013-08-06T19:29:47.000Z</time>
      </trkpt>
      <trkpt lat="48.8692" lon="2.38053">
        <ele>109.6</ele>
        <time>2013-08-06T19:29:48.000Z</time>
      </trkpt>
      <trkpt lat="48.86921" lon="2.3805">
        <ele>109.4</ele>
        <time>2013-08-06T19:29:49.000Z</time>
      </trkpt>
      <trkpt lat="48.86923" lon="2.38047">
        <ele>111.8</ele>
        <time>2013-08-06T19:29:50.000Z</time>
      </trkpt>
      <trkpt lat="48.86925" lon="2.38045">
        <ele>113.2</ele>
        <time>2013-08-06T19:29:51.000Z</time>
      </trkpt>
      <trkpt lat="48.86927" lon="2.38043">
        <ele>115</ele>
        <time>2013-08-06T19:29:52.000Z</time>
      </trkpt>
      <trkpt lat="48.86929" lon="2.38041">
        <ele>115.3</ele>
        <time>2013-08-06T19:29:53.000Z</time>
      </trkpt>
      <trkpt lat="48.86931" lon="2.38038">
        <ele>115.2</ele>
        <time>2013-08-06T19:29:54.000Z</time>
      </trkpt>
      <trkpt lat="48.86933" lon="2.38035">
        <ele>114.6</ele>
        <time>2013-08-06T19:29:55.000Z</time>
      </trkpt>
      <trkpt lat="48.86935" lon="2.38032">
        <ele>113.5</ele>
        <time>2013-08-06T19:29:56.000Z</time>
      </trkpt>
      <trkpt lat="48.86937" lon="2.38028">
        <ele>114.5</ele>
        <time>2013-08-06T19:29:57.000Z</time>
      </trkpt>
      <trkpt lat="48.8694" lon="2.38025">
        <ele>112.3</ele>
        <time>2013-08-06T19:29:58.000Z</time>
      </trkpt>
      <trkpt lat="48.86943" lon="2.38022">
        <ele>109</ele>
        <time>2013-08-06T19:29:59.000Z</time>
      </trkpt>
      <trkpt lat="48.86945" lon="2.38019">
        <ele>108.8</ele>
        <time>2013-08-06T19:30:00.000Z</time>
      </trkpt>
      <trkpt lat="48.86948" lon="2.38015">
        <ele>109.3</ele>
        <time>2013-08-06T19:30:01.000Z</time>
      </trkpt>
      <trkpt lat="48.8695" lon="2.38011">
        <ele>109.3</ele>
        <time>2013-08-06T19:30:02.000Z</time>
      </trkpt>
      <trkpt lat="48.86953" lon="2.38008">
        <ele>109.4</ele>
        <time>2013-08-06T19:30:03.000Z</time>
      </trkpt>
      <trkpt lat="48.86956" lon="2.38004">
        <ele>109.7</ele>
        <time>2013-08-06T19:30:04.000Z</time>
      </trkpt>
      <trkpt lat="48.86959" lon="2.38">
        <ele>110.1</ele>
        <time>2013-08-06T19:30:05.000Z</time>
      </trkpt>
      <trkpt lat="48.86961" lon="2.37997">
        <ele>110.1</ele>
        <time>2013-08-06T19:30:06.000Z</time>
      </trkpt>
      <trkpt lat="48.86964" lon="2.37994">
        <ele>110.5</ele>
        <time>2013-08-06T19:30:07.000Z</time>
      </trkpt>
      <trkpt lat="48.86967" lon="2.37991">
        <ele>110.8</ele>
        <time>2013-08-06T19:30:08.000Z</time>
      </trkpt>
      <trkpt lat="48.86969" lon="2.37987">
        <ele>111.2</ele>
        <time>2013-08-06T19:30:09.000Z</time>
      </trkpt>
      <trkpt lat="48.86972" lon="2.37983">
        <ele>110.8</ele>
        <time>2013-08-06T19:30:10.000Z</time>
      </trkpt>
      <trkpt lat="48.86975" lon="2.37979">
        <ele>109</ele>
        <time>2013-08-06T19:30:11.000Z</time>
      </trkpt>
      <trkpt lat="48.86978" lon="2.37974">
        <ele>108.4</ele>
        <time>2013-08-06T19:30:12.000Z</time>
      </trkpt>
      <trkpt lat="48.86981" lon="2.3797">
        <ele>107.9</ele>
        <time>2013-08-06T19:30:13.000Z</time>
      </trkpt>
      <trkpt lat="48.86984" lon="2.37966">
        <ele>108</ele>
        <time>2013-08-06T19:30:14.000Z</time>
      </trkpt>
      <trkpt lat="48.86988" lon="2.37962">
        <ele>108.2</ele>
        <time>2013-08-06T19:30:15.000Z</time>
      </trkpt>
      <trkpt lat="48.86991" lon="2.37958">
        <ele>109</ele>
        <time>2013-08-06T19:30:16.000Z</time>
      </trkpt>
      <trkpt lat="48.86994" lon="2.37955">
        <ele>107</ele>
        <time>2013-08-06T19:30:17.000Z</time>
      </trkpt>
      <trkpt lat="48.86997" lon="2.37951">
        <ele>105.6</ele>
        <time>2013-08-06T19:30:18.000Z</time>
      </trkpt>
      <trkpt lat="48.87" lon="2.37948">
        <ele>104.4</ele>
        <time>2013-08-06T19:30:19.000Z</time>
      </trkpt>
      <trkpt lat="48.87002" lon="2.37945">
        <ele>102.2</ele>
        <time>2013-08-06T19:30:20.000Z</time>
      </trkpt>
      <trkpt lat="48.87005" lon="2.37942">
        <ele>101.8</ele>
        <time>2013-08-06T19:30:21.000Z</time>
      </trkpt>
      <trkpt lat="48.87007" lon="2.37938">
        <ele>103</ele>
        <time>2013-08-06T19:30:22.000Z</time>
      </trkpt>
      <trkpt lat="48.87008" lon="2.37935">
        <ele>103.6</ele>
        <time>2013-08-06T19:30:23.000Z</time>
      </trkpt>
      <trkpt lat="48.8701" lon="2.37931">
        <ele>105.1</ele>
        <time>2013-08-06T19:30:24.000Z</time>
      </trkpt>
      <trkpt lat="48.87012" lon="2.37928">
        <ele>104.2</ele>
        <time>2013-08-06T19:30:25.000Z</time>
      </trkpt>
      <trkpt lat="48.87014" lon="2.37925">
        <ele>103.7</ele>
        <time>2013-08-06T19:30:26.000Z</time>
      </trkpt>
      <trkpt lat="48.87016" lon="2.37923">
        <ele>103.8</ele>
        <time>2013-08-06T19:30:27.000Z</time>
      </trkpt>
      <trkpt lat="48.87018" lon="2.3792">
        <ele>104.1</ele>
        <time>2013-08-06T19:30:28.000Z</time>
      </trkpt>
      <trkpt lat="48.8702" lon="2.37918">
        <ele>103.8</ele>
        <time>2013-08-06T19:30:29.000Z</time>
      </trkpt>
      <trkpt lat="48.87021" lon="2.37915">
        <ele>104.7</ele>
        <time>2013-08-06T19:30:30.000Z</time>
      </trkpt>
      <trkpt lat="48.87023" lon="2.37912">
        <ele>105.4</ele>
        <time>2013-08-06T19:30:31.000Z</time>
      </trkpt>
      <trkpt lat="48.87025" lon="2.3791">
        <ele>105.6</ele>
        <time>2013-08-06T19:30:32.000Z</time>
      </trkpt>
      <trkpt lat="48.87027" lon="2.37907">
        <ele>105.6</ele>
        <time>2013-08-06T19:30:33.000Z</time>
      </trkpt>
      <trkpt lat="48.87029" lon="2.37905">
        <ele>105.6</ele>
        <time>2013-08-06T19:30:34.000Z</time>
      </trkpt>
      <trkpt lat="48.87032" lon="2.37903">
        <ele>105.2</ele>
        <time>2013-08-06T19:30:35.000Z</time>
      </trkpt>
      <trkpt lat="48.87034" lon="2.379">
        <ele>104.9</ele>
        <time>2013-08-06T19:30:36.000Z</time>
      </trkpt>
      <trkpt lat="48.87039" lon="2.37893">
        <ele>105.4</ele>
        <time>2013-08-06T19:30:38.426Z</time>
      </trkpt>
      <trkpt lat="48.8704" lon="2.37891">
        <ele>105.3</ele>
        <time>2013-08-06T19:30:39.000Z</time>
      </trkpt>
      <trkpt lat="48.87043" lon="2.37887">
        <ele>105.3</ele>
        <time>2013-08-06T19:30:40.000Z</time>
      </trkpt>
      <trkpt lat="48.87046" lon="2.37883">
        <ele>105.3</ele>
        <time>2013-08-06T19:30:41.000Z</time>
      </trkpt>
      <trkpt lat="48.87049" lon="2.3788">
        <ele>105.4</ele>
        <time>2013-08-06T19:30:42.000Z</time>
      </trkpt>
      <trkpt lat="48.87052" lon="2.37877">
        <ele>104.5</ele>
        <time>2013-08-06T19:30:43.000Z</time>
      </trkpt>
      <trkpt lat="48.87054" lon="2.37874">
        <ele>104.2</ele>
        <time>2013-08-06T19:30:44.000Z</time>
      </trkpt>
      <trkpt lat="48.87057" lon="2.37871">
        <ele>104.4</ele>
        <time>2013-08-06T19:30:45.000Z</time>
      </trkpt>
      <trkpt lat="48.87059" lon="2.37869">
        <ele>106.2</ele>
        <time>2013-08-06T19:30:46.000Z</time>
      </trkpt>
      <trkpt lat="48.87061" lon="2.37866">
        <ele>106.3</ele>
        <time>2013-08-06T19:30:47.000Z</time>
      </trkpt>
      <trkpt lat="48.87063" lon="2.37863">
        <ele>106.7</ele>
        <time>2013-08-06T19:30:48.000Z</time>
      </trkpt>
      <trkpt lat="48.87065" lon="2.37861">
        <ele>106.7</ele>
        <time>2013-08-06T19:30:49.000Z</time>
      </trkpt>
      <trkpt lat="48.87066" lon="2.37859">
        <ele>107.3</ele>
        <time>2013-08-06T19:30:50.000Z</time>
      </trkpt>
      <trkpt lat="48.87069" lon="2.37855">
        <ele>106.1</ele>
        <time>2013-08-06T19:30:52.000Z</time>
      </trkpt>
      <trkpt lat="48.8707" lon="2.37853">
        <ele>107.2</ele>
        <time>2013-08-06T19:30:53.000Z</time>
      </trkpt>
      <trkpt lat="48.87073" lon="2.37849">
        <ele>106.9</ele>
        <time>2013-08-06T19:30:55.000Z</time>
      </trkpt>
      <trkpt lat="48.87074" lon="2.37846">
        <ele>104.6</ele>
        <time>2013-08-06T19:30:56.000Z</time>
      </trkpt>
      <trkpt lat="48.87075" lon="2.37843">
        <ele>102.9</ele>
        <time>2013-08-06T19:30:57.000Z</time>
      </trkpt>
      <trkpt lat="48.87075" lon="2.3784">
        <ele>100.9</ele>
        <time>2013-08-06T19:30:58.000Z</time>
      </trkpt>
      <trkpt lat="48.87076" lon="2.37836">
        <ele>101.5</ele>
        <time>2013-08-06T19:30:59.000Z</time>
      </trkpt>
      <trkpt lat="48.87076" lon="2.37833">
        <ele>101.1</ele>
        <time>2013-08-06T19:31:00.000Z</time>
      </trkpt>
      <trkpt lat="48.87076" lon="2.37829">
        <ele>100.3</ele>
        <time>2013-08-06T19:31:01.000Z</time>
      </trkpt>
      <trkpt lat="48.87075" lon="2.37824">
        <ele>99</ele>
        <time>2013-08-06T19:31:02.000Z</time>
      </trkpt>
      <trkpt lat="48.87074" lon="2.37819">
        <ele>100.7</ele>
        <time>2013-08-06T19:31:45.000Z</time>
      </trkpt>
      <trkpt lat="48.87073" lon="2.37817">
        <ele>100.6</ele>
        <time>2013-08-06T19:31:46.000Z</time>
      </trkpt>
      <trkpt lat="48.87073" lon="2.37812">
        <ele>102.3</ele>
        <time>2013-08-06T19:31:48.000Z</time>
      </trkpt>
      <trkpt lat="48.87073" lon="2.37809">
        <ele>103</ele>
        <time>2013-08-06T19:31:49.000Z</time>
      </trkpt>
      <trkpt lat="48.87072" lon="2.37804">
        <ele>103.8</ele>
        <time>2013-08-06T19:31:51.000Z</time>
      </trkpt>
      <trkpt lat="48.87071" lon="2.378">
        <ele>102.5</ele>
        <time>2013-08-06T19:31:52.000Z</time>
      </trkpt>
      <trkpt lat="48.8707" lon="2.37797">
        <ele>103.1</ele>
        <time>2013-08-06T19:31:53.000Z</time>
      </trkpt>
      <trkpt lat="48.87069" lon="2.37793">
        <ele>103.1</ele>
        <time>2013-08-06T19:31:54.000Z</time>
      </trkpt>
      <trkpt lat="48.87068" lon="2.3779">
        <ele>103.4</ele>
        <time>2013-08-06T19:31:55.000Z</time>
      </trkpt>
      <trkpt lat="48.87067" lon="2.37786">
        <ele>102.1</ele>
        <time>2013-08-06T19:31:56.000Z</time>
      </trkpt>
      <trkpt lat="48.87065" lon="2.37781">
        <ele>101.6</ele>
        <time>2013-08-06T19:31:57.000Z</time>
      </trkpt>
      <trkpt lat="48.87064" lon="2.37777">
        <ele>101.8</ele>
        <time>2013-08-06T19:31:58.000Z</time>
      </trkpt>
      <trkpt lat="48.87062" lon="2.37774">
        <ele>101.9</ele>
        <time>2013-08-06T19:31:59.000Z</time>
      </trkpt>
      <trkpt lat="48.8706" lon="2.37771">
        <ele>102.1</ele>
        <time>2013-08-06T19:32:00.000Z</time>
      </trkpt>
      <trkpt lat="48.87056" lon="2.37768">
        <ele>104.2</ele>
        <time>2013-08-06T19:32:20.000Z</time>
      </trkpt>
      <trkpt lat="48.87056" lon="2.37765">
        <ele>105.6</ele>
        <time>2013-08-06T19:32:21.000Z</time>
      </trkpt>
      <trkpt lat="48.87054" lon="2.37761">
        <ele>104.4</ele>
        <time>2013-08-06T19:32:22.000Z</time>
      </trkpt>
      <trkpt lat="48.87053" lon="2.37757">
        <ele>103.4</ele>
        <time>2013-08-06T19:32:23.000Z</time>
      </trkpt>
      <trkpt lat="48.87052" lon="2.37753">
        <ele>103.4</ele>
        <time>2013-08-06T19:32:24.000Z</time>
      </trkpt>
      <trkpt lat="48.87051" lon="2.37749">
        <ele>102.9</ele>
        <time>2013-08-06T19:32:25.000Z</time>
      </trkpt>
      <trkpt lat="48.8705" lon="2.37744">
        <ele>103</ele>
        <time>2013-08-06T19:32:26.000Z</time>
      </trkpt>
      <trkpt lat="48.87049" lon="2.3774">
        <ele>103</ele>
        <time>2013-08-06T19:32:27.000Z</time>
      </trkpt>
      <trkpt lat="48.87047" lon="2.37735">
        <ele>102.4</ele>
        <time>2013-08-06T19:32:28.000Z</time>
      </trkpt>
      <trkpt lat="48.87044" lon="2.37731">
        <ele>102.3</ele>
        <time>2013-08-06T19:32:29.000Z</time>
      </trkpt>
      <trkpt lat="48.87042" lon="2.37727">
        <ele>102</ele>
        <time>2013-08-06T19:32:30.000Z</time>
      </trkpt>
      <trkpt lat="48.8704" lon="2.37722">
        <ele>100.1</ele>
        <time>2013-08-06T19:32:31.000Z</time>
      </trkpt>
      <trkpt lat="48.87039" lon="2.37717">
        <ele>99.1</ele>
        <time>2013-08-06T19:32:32.000Z</time>
      </trkpt>
      <trkpt lat="48.87038" lon="2.3771">
        <ele>98.9</ele>
        <time>2013-08-06T19:32:33.000Z</time>
      </trkpt>
      <trkpt lat="48.87036" lon="2.37704">
        <ele>100.7</ele>
        <time>2013-08-06T19:32:34.000Z</time>
      </trkpt>
      <trkpt lat="48.87034" lon="2.37699">
        <ele>103.2</ele>
        <time>2013-08-06T19:32:35.000Z</time>
      </trkpt>
      <trkpt lat="48.87031" lon="2.37694">
        <ele>102.9</ele>
        <time>2013-08-06T19:32:36.000Z</time>
      </trkpt>
      <trkpt lat="48.87029" lon="2.37688">
        <ele>101.8</ele>
        <time>2013-08-06T19:32:37.000Z</time>
      </trkpt>
      <trkpt lat="48.87028" lon="2.37682">
        <ele>102.2</ele>
        <time>2013-08-06T19:32:38.000Z</time>
      </trkpt>
      <trkpt lat="48.87026" lon="2.37676">
        <ele>102.7</ele>
        <time>2013-08-06T19:32:39.000Z</time>
      </trkpt>
      <trkpt lat="48.87024" lon="2.3767">
        <ele>103.1</ele>
        <time>2013-08-06T19:32:40.000Z</time>
      </trkpt>
      <trkpt lat="48.87022" lon="2.37664">
        <ele>102.4</ele>
        <time>2013-08-06T19:32:41.000Z</time>
      </trkpt>
      <trkpt lat="48.87021" lon="2.37658">
        <ele>102.1</ele>
        <time>2013-08-06T19:32:42.000Z</time>
      </trkpt>
      <trkpt lat="48.87019" lon="2.37652">
        <ele>102.6</ele>
        <time>2013-08-06T19:32:43.000Z</time>
      </trkpt>
      <trkpt lat="48.87018" lon="2.37645">
        <ele>102.9</ele>
        <time>2013-08-06T19:32:44.000Z</time>
      </trkpt>
      <trkpt lat="48.87017" lon="2.37641">
        <ele>102.8</ele>
        <time>2013-08-06T19:32:45.000Z</time>
      </trkpt>
      <trkpt lat="48.87014" lon="2.37631">
        <ele>105.6</ele>
        <time>2013-08-06T19:32:46.000Z</time>
      </trkpt>
      <trkpt lat="48.87012" lon="2.37624">
        <ele>107.7</ele>
        <time>2013-08-06T19:32:47.000Z</time>
      </trkpt>
      <trkpt lat="48.87011" lon="2.37616">
        <ele>109.4</ele>
        <time>2013-08-06T19:32:48.000Z</time>
      </trkpt>
      <trkpt lat="48.87009" lon="2.37609">
        <ele>109.4</ele>
        <time>2013-08-06T19:32:49.000Z</time>
      </trkpt>
      <trkpt lat="48.87007" lon="2.37603">
        <ele>107.9</ele>
        <time>2013-08-06T19:32:50.000Z</time>
      </trkpt>
      <trkpt lat="48.87004" lon="2.37597">
        <ele>108</ele>
        <time>2013-08-06T19:32:51.000Z</time>
      </trkpt>
      <trkpt lat="48.87002" lon="2.37591">
        <ele>108.9</ele>
        <time>2013-08-06T19:32:52.000Z</time>
      </trkpt>
      <trkpt lat="48.86999" lon="2.37585">
        <ele>109.3</ele>
        <time>2013-08-06T19:32:53.000Z</time>
      </trkpt>
      <trkpt lat="48.86997" lon="2.37578">
        <ele>108.9</ele>
        <time>2013-08-06T19:32:54.000Z</time>
      </trkpt>
      <trkpt lat="48.86995" lon="2.37568">
        <ele>109.2</ele>
        <time>2013-08-06T19:32:55.000Z</time>
      </trkpt>
      <trkpt lat="48.86995" lon="2.37562">
        <ele>109.5</ele>
        <time>2013-08-06T19:32:56.000Z</time>
      </trkpt>
      <trkpt lat="48.86992" lon="2.37554">
        <ele>107.1</ele>
        <time>2013-08-06T19:32:57.000Z</time>
      </trkpt>
      <trkpt lat="48.86991" lon="2.37547">
        <ele>107.2</ele>
        <time>2013-08-06T19:32:58.000Z</time>
      </trkpt>
      <trkpt lat="48.86989" lon="2.3754">
        <ele>106.6</ele>
        <time>2013-08-06T19:32:59.000Z</time>
      </trkpt>
      <trkpt lat="48.8699" lon="2.37532">
        <ele>106.2</ele>
        <time>2013-08-06T19:33:00.000Z</time>
      </trkpt>
      <trkpt lat="48.86989" lon="2.37525">
        <ele>106.6</ele>
        <time>2013-08-06T19:33:01.000Z</time>
      </trkpt>
      <trkpt lat="48.86986" lon="2.37518">
        <ele>107.3</ele>
        <time>2013-08-06T19:33:02.000Z</time>
      </trkpt>
      <trkpt lat="48.86984" lon="2.37511">
        <ele>107.7</ele>
        <time>2013-08-06T19:33:03.000Z</time>
      </trkpt>
      <trkpt lat="48.86982" lon="2.37505">
        <ele>107.8</ele>
        <time>2013-08-06T19:33:04.000Z</time>
      </trkpt>
      <trkpt lat="48.86981" lon="2.375">
        <ele>107.9</ele>
        <time>2013-08-06T19:33:05.000Z</time>
      </trkpt>
      <trkpt lat="48.86979" lon="2.37493">
        <ele>108.3</ele>
        <time>2013-08-06T19:33:06.000Z</time>
      </trkpt>
      <trkpt lat="48.86978" lon="2.37487">
        <ele>108.2</ele>
        <time>2013-08-06T19:33:07.000Z</time>
      </trkpt>
      <trkpt lat="48.86975" lon="2.37482">
        <ele>108.3</ele>
        <time>2013-08-06T19:33:08.000Z</time>
      </trkpt>
      <trkpt lat="48.86974" lon="2.37475">
        <ele>108.4</ele>
        <time>2013-08-06T19:33:09.000Z</time>
      </trkpt>
      <trkpt lat="48.86973" lon="2.3747">
        <ele>107.5</ele>
        <time>2013-08-06T19:33:10.000Z</time>
      </trkpt>
      <trkpt lat="48.86971" lon="2.37465">
        <ele>106.5</ele>
        <time>2013-08-06T19:33:11.000Z</time>
      </trkpt>
      <trkpt lat="48.8697" lon="2.3746">
        <ele>106.9</ele>
        <time>2013-08-06T19:33:12.000Z</time>
      </trkpt>
      <trkpt lat="48.86969" lon="2.37455">
        <ele>106.8</ele>
        <time>2013-08-06T19:33:13.000Z</time>
      </trkpt>
      <trkpt lat="48.86966" lon="2.37449">
        <ele>107.9</ele>
        <time>2013-08-06T19:33:14.000Z</time>
      </trkpt>
      <trkpt lat="48.86964" lon="2.37444">
        <ele>108.4</ele>
        <time>2013-08-06T19:33:15.000Z</time>
      </trkpt>
      <trkpt lat="48.86962" lon="2.37438">
        <ele>107.3</ele>
        <time>2013-08-06T19:33:16.000Z</time>
      </trkpt>
      <trkpt lat="48.8696" lon="2.37432">
        <ele>107.6</ele>
        <time>2013-08-06T19:33:17.000Z</time>
      </trkpt>
      <trkpt lat="48.86958" lon="2.37426">
        <ele>103.7</ele>
        <time>2013-08-06T19:33:18.000Z</time>
      </trkpt>
      <trkpt lat="48.86957" lon="2.37419">
        <ele>102.4</ele>
        <time>2013-08-06T19:33:19.000Z</time>
      </trkpt>
      <trkpt lat="48.86955" lon="2.37413">
        <ele>100.2</ele>
        <time>2013-08-06T19:33:20.000Z</time>
      </trkpt>
      <trkpt lat="48.86953" lon="2.37407">
        <ele>96</ele>
        <time>2013-08-06T19:33:21.000Z</time>
      </trkpt>
      <trkpt lat="48.86952" lon="2.37402">
        <ele>94.7</ele>
        <time>2013-08-06T19:33:22.000Z</time>
      </trkpt>
      <trkpt lat="48.86952" lon="2.37399">
        <ele>94.5</ele>
        <time>2013-08-06T19:33:23.000Z</time>
      </trkpt>
      <trkpt lat="48.86954" lon="2.37393">
        <ele>94.1</ele>
        <time>2013-08-06T19:33:25.000Z</time>
      </trkpt>
      <trkpt lat="48.86954" lon="2.37392">
        <ele>93.7</ele>
        <time>2013-08-06T19:33:26.000Z</time>
      </trkpt>
      <trkpt lat="48.86953" lon="2.37386">
        <ele>90.8</ele>
        <time>2013-08-06T19:33:43.000Z</time>
      </trkpt>
      <trkpt lat="48.86954" lon="2.37383">
        <ele>94.1</ele>
        <time>2013-08-06T19:33:44.000Z</time>
      </trkpt>
      <trkpt lat="48.86957" lon="2.37379">
        <ele>94.9</ele>
        <time>2013-08-06T19:33:46.000Z</time>
      </trkpt>
      <trkpt lat="48.86958" lon="2.37378">
        <ele>95.6</ele>
        <time>2013-08-06T19:33:47.000Z</time>
      </trkpt>
      <trkpt lat="48.86962" lon="2.37376">
        <ele>98.4</ele>
        <time>2013-08-06T19:33:49.000Z</time>
      </trkpt>
      <trkpt lat="48.86964" lon="2.37373">
        <ele>100</ele>
        <time>2013-08-06T19:33:50.000Z</time>
      </trkpt>
      <trkpt lat="48.86967" lon="2.3737">
        <ele>100</ele>
        <time>2013-08-06T19:33:51.000Z</time>
      </trkpt>
      <trkpt lat="48.8697" lon="2.37367">
        <ele>100.1</ele>
        <time>2013-08-06T19:33:52.000Z</time>
      </trkpt>
      <trkpt lat="48.86973" lon="2.37364">
        <ele>100.4</ele>
        <time>2013-08-06T19:33:53.000Z</time>
      </trkpt>
      <trkpt lat="48.86976" lon="2.37361">
        <ele>101.7</ele>
        <time>2013-08-06T19:33:54.000Z</time>
      </trkpt>
      <trkpt lat="48.86979" lon="2.37358">
        <ele>102.8</ele>
        <time>2013-08-06T19:33:55.000Z</time>
      </trkpt>
      <trkpt lat="48.86982" lon="2.37355">
        <ele>102.9</ele>
        <time>2013-08-06T19:33:56.000Z</time>
      </trkpt>
      <trkpt lat="48.86985" lon="2.37351">
        <ele>102.8</ele>
        <time>2013-08-06T19:33:57.000Z</time>
      </trkpt>
      <trkpt lat="48.86988" lon="2.37346">
        <ele>102.4</ele>
        <time>2013-08-06T19:33:58.000Z</time>
      </trkpt>
      <trkpt lat="48.86994" lon="2.3734">
        <ele>102.5</ele>
        <time>2013-08-06T19:33:59.000Z</time>
      </trkpt>
      <trkpt lat="48.86998" lon="2.37336">
        <ele>102.8</ele>
        <time>2013-08-06T19:34:00.000Z</time>
      </trkpt>
      <trkpt lat="48.87001" lon="2.37331">
        <ele>102.9</ele>
        <time>2013-08-06T19:34:01.000Z</time>
      </trkpt>
      <trkpt lat="48.87005" lon="2.37326">
        <ele>103.1</ele>
        <time>2013-08-06T19:34:02.000Z</time>
      </trkpt>
      <trkpt lat="48.87008" lon="2.37323">
        <ele>103.4</ele>
        <time>2013-08-06T19:34:03.000Z</time>
      </trkpt>
      <trkpt lat="48.87012" lon="2.37317">
        <ele>103.7</ele>
        <time>2013-08-06T19:34:04.000Z</time>
      </trkpt>
      <trkpt lat="48.87015" lon="2.37312">
        <ele>104.8</ele>
        <time>2013-08-06T19:34:05.000Z</time>
      </trkpt>
      <trkpt lat="48.87019" lon="2.37307">
        <ele>104.2</ele>
        <time>2013-08-06T19:34:06.000Z</time>
      </trkpt>
      <trkpt lat="48.87022" lon="2.37302">
        <ele>103.4</ele>
        <time>2013-08-06T19:34:07.000Z</time>
      </trkpt>
      <trkpt lat="48.87026" lon="2.37299">
        <ele>103.9</ele>
        <time>2013-08-06T19:34:08.000Z</time>
      </trkpt>
      <trkpt lat="48.87031" lon="2.37295">
        <ele>104.9</ele>
        <time>2013-08-06T19:34:09.000Z</time>
      </trkpt>
      <trkpt lat="48.87034" lon="2.3729">
        <ele>104.9</ele>
        <time>2013-08-06T19:34:10.000Z</time>
      </trkpt>
      <trkpt lat="48.87038" lon="2.37286">
        <ele>104.4</ele>
        <time>2013-08-06T19:34:11.000Z</time>
      </trkpt>
      <trkpt lat="48.87042" lon="2.37283">
        <ele>103.8</ele>
        <time>2013-08-06T19:34:12.000Z</time>
      </trkpt>
      <trkpt lat="48.87045" lon="2.3728">
        <ele>104.5</ele>
        <time>2013-08-06T19:34:13.000Z</time>
      </trkpt>
      <trkpt lat="48.87047" lon="2.37276">
        <ele>105.2</ele>
        <time>2013-08-06T19:34:14.000Z</time>
      </trkpt>
      <trkpt lat="48.8705" lon="2.37277">
        <ele>107.4</ele>
        <time>2013-08-06T19:34:15.000Z</time>
      </trkpt>
      <trkpt lat="48.87054" lon="2.37275">
        <ele>108.2</ele>
        <time>2013-08-06T19:34:16.000Z</time>
      </trkpt>
      <trkpt lat="48.87056" lon="2.37274">
        <ele>110</ele>
        <time>2013-08-06T19:34:17.000Z</time>
      </trkpt>
      <trkpt lat="48.8706" lon="2.37272">
        <ele>109.3</ele>
        <time>2013-08-06T19:34:18.000Z</time>
      </trkpt>
      <trkpt lat="48.87064" lon="2.37269">
        <ele>109.7</ele>
        <time>2013-08-06T19:34:19.000Z</time>
      </trkpt>
      <trkpt lat="48.87067" lon="2.37267">
        <ele>110.1</ele>
        <time>2013-08-06T19:34:20.000Z</time>
      </trkpt>
      <trkpt lat="48.87072" lon="2.37263">
        <ele>109.3</ele>
        <time>2013-08-06T19:34:21.000Z</time>
      </trkpt>
      <trkpt lat="48.87076" lon="2.3726">
        <ele>109.4</ele>
        <time>2013-08-06T19:34:22.000Z</time>
      </trkpt>
      <trkpt lat="48.87079" lon="2.37257">
        <ele>109</ele>
        <time>2013-08-06T19:34:23.000Z</time>
      </trkpt>
      <trkpt lat="48.87083" lon="2.37254">
        <ele>109.2</ele>
        <time>2013-08-06T19:34:24.000Z</time>
      </trkpt>
      <trkpt lat="48.87086" lon="2.37251">
        <ele>110.3</ele>
        <time>2013-08-06T19:34:25.000Z</time>
      </trkpt>
      <trkpt lat="48.8709" lon="2.37248">
        <ele>111.2</ele>
        <time>2013-08-06T19:34:26.000Z</time>
      </trkpt>
      <trkpt lat="48.87094" lon="2.37246">
        <ele>112.2</ele>
        <time>2013-08-06T19:34:27.000Z</time>
      </trkpt>
      <trkpt lat="48.87097" lon="2.37243">
        <ele>112.5</ele>
        <time>2013-08-06T19:34:28.000Z</time>
      </trkpt>
      <trkpt lat="48.87101" lon="2.37241">
        <ele>110.4</ele>
        <time>2013-08-06T19:34:29.000Z</time>
      </trkpt>
      <trkpt lat="48.87105" lon="2.37238">
        <ele>110.5</ele>
        <time>2013-08-06T19:34:30.000Z</time>
      </trkpt>
      <trkpt lat="48.87109" lon="2.37235">
        <ele>110.9</ele>
        <time>2013-08-06T19:34:31.000Z</time>
      </trkpt>
      <trkpt lat="48.87113" lon="2.37232">
        <ele>110.7</ele>
        <time>2013-08-06T19:34:32.000Z</time>
      </trkpt>
      <trkpt lat="48.87117" lon="2.37229">
        <ele>110.1</ele>
        <time>2013-08-06T19:34:33.000Z</time>
      </trkpt>
      <trkpt lat="48.87121" lon="2.37225">
        <ele>109.5</ele>
        <time>2013-08-06T19:34:34.000Z</time>
      </trkpt>
      <trkpt lat="48.87124" lon="2.37222">
        <ele>110.2</ele>
        <time>2013-08-06T19:34:35.000Z</time>
      </trkpt>
      <trkpt lat="48.87128" lon="2.37219">
        <ele>110.4</ele>
        <time>2013-08-06T19:34:36.000Z</time>
      </trkpt>
      <trkpt lat="48.87132" lon="2.37217">
        <ele>109.6</ele>
        <time>2013-08-06T19:34:37.000Z</time>
      </trkpt>
      <trkpt lat="48.87136" lon="2.37214">
        <ele>109.3</ele>
        <time>2013-08-06T19:34:38.000Z</time>
      </trkpt>
      <trkpt lat="48.8714" lon="2.37212">
        <ele>107.8</ele>
        <time>2013-08-06T19:34:39.000Z</time>
      </trkpt>
      <trkpt lat="48.87145" lon="2.37209">
        <ele>107.4</ele>
        <time>2013-08-06T19:34:40.000Z</time>
      </trkpt>
      <trkpt lat="48.87149" lon="2.37208">
        <ele>106.9</ele>
        <time>2013-08-06T19:34:41.000Z</time>
      </trkpt>
      <trkpt lat="48.87153" lon="2.37206">
        <ele>106.2</ele>
        <time>2013-08-06T19:34:42.000Z</time>
      </trkpt>
      <trkpt lat="48.87156" lon="2.37203">
        <ele>106.2</ele>
        <time>2013-08-06T19:34:43.000Z</time>
      </trkpt>
      <trkpt lat="48.87162" lon="2.37201">
        <ele>102.2</ele>
        <time>2013-08-06T19:34:44.000Z</time>
      </trkpt>
      <trkpt lat="48.87164" lon="2.37199">
        <ele>102.1</ele>
        <time>2013-08-06T19:34:45.000Z</time>
      </trkpt>
      <trkpt lat="48.87168" lon="2.37196">
        <ele>101.8</ele>
        <time>2013-08-06T19:34:46.000Z</time>
      </trkpt>
      <trkpt lat="48.8717" lon="2.37191">
        <ele>102</ele>
        <time>2013-08-06T19:34:47.000Z</time>
      </trkpt>
      <trkpt lat="48.87171" lon="2.37186">
        <ele>102.6</ele>
        <time>2013-08-06T19:34:48.000Z</time>
      </trkpt>
      <trkpt lat="48.87175" lon="2.37183">
        <ele>102.2</ele>
        <time>2013-08-06T19:34:49.000Z</time>
      </trkpt>
      <trkpt lat="48.87178" lon="2.3718">
        <ele>101.8</ele>
        <time>2013-08-06T19:34:50.000Z</time>
      </trkpt>
      <trkpt lat="48.87179" lon="2.37176">
        <ele>103.7</ele>
        <time>2013-08-06T19:34:51.000Z</time>
      </trkpt>
      <trkpt lat="48.87181" lon="2.37173">
        <ele>104.5</ele>
        <time>2013-08-06T19:34:52.000Z</time>
      </trkpt>
      <trkpt lat="48.87184" lon="2.37169">
        <ele>105.2</ele>
        <time>2013-08-06T19:34:53.000Z</time>
      </trkpt>
      <trkpt lat="48.87187" lon="2.37166">
        <ele>105.9</ele>
        <time>2013-08-06T19:34:54.000Z</time>
      </trkpt>
      <trkpt lat="48.8719" lon="2.37162">
        <ele>106.6</ele>
        <time>2013-08-06T19:34:55.000Z</time>
      </trkpt>
      <trkpt lat="48.87194" lon="2.37159">
        <ele>107.4</ele>
        <time>2013-08-06T19:34:56.000Z</time>
      </trkpt>
      <trkpt lat="48.87198" lon="2.37157">
        <ele>108.3</ele>
        <time>2013-08-06T19:34:57.000Z</time>
      </trkpt>
      <trkpt lat="48.87202" lon="2.37155">
        <ele>108.5</ele>
        <time>2013-08-06T19:34:58.000Z</time>
      </trkpt>
      <trkpt lat="48.87206" lon="2.37151">
        <ele>108.8</ele>
        <time>2013-08-06T19:34:59.000Z</time>
      </trkpt>
      <trkpt lat="48.87211" lon="2.37147">
        <ele>109</ele>
        <time>2013-08-06T19:35:00.000Z</time>
      </trkpt>
      <trkpt lat="48.87216" lon="2.37144">
        <ele>109.5</ele>
        <time>2013-08-06T19:35:01.000Z</time>
      </trkpt>
      <trkpt lat="48.87221" lon="2.37141">
        <ele>109.3</ele>
        <time>2013-08-06T19:35:02.000Z</time>
      </trkpt>
      <trkpt lat="48.87224" lon="2.37137">
        <ele>109.5</ele>
        <time>2013-08-06T19:35:03.000Z</time>
      </trkpt>
      <trkpt lat="48.87229" lon="2.37132">
        <ele>109.5</ele>
        <time>2013-08-06T19:35:04.000Z</time>
      </trkpt>
      <trkpt lat="48.87233" lon="2.37129">
        <ele>109</ele>
        <time>2013-08-06T19:35:05.000Z</time>
      </trkpt>
      <trkpt lat="48.8724" lon="2.37128">
        <ele>108.3</ele>
        <time>2013-08-06T19:35:06.000Z</time>
      </trkpt>
      <trkpt lat="48.87245" lon="2.37127">
        <ele>108.8</ele>
        <time>2013-08-06T19:35:07.000Z</time>
      </trkpt>
      <trkpt lat="48.87248" lon="2.37126">
        <ele>109.6</ele>
        <time>2013-08-06T19:35:08.000Z</time>
      </trkpt>
      <trkpt lat="48.87253" lon="2.37121">
        <ele>109.7</ele>
        <time>2013-08-06T19:35:09.000Z</time>
      </trkpt>
      <trkpt lat="48.87257" lon="2.37116">
        <ele>109.5</ele>
        <time>2013-08-06T19:35:10.000Z</time>
      </trkpt>
      <trkpt lat="48.8726" lon="2.37113">
        <ele>109.4</ele>
        <time>2013-08-06T19:35:11.000Z</time>
      </trkpt>
      <trkpt lat="48.87263" lon="2.3711">
        <ele>110</ele>
        <time>2013-08-06T19:35:12.000Z</time>
      </trkpt>
      <trkpt lat="48.87268" lon="2.37106">
        <ele>110.1</ele>
        <time>2013-08-06T19:35:13.000Z</time>
      </trkpt>
      <trkpt lat="48.87272" lon="2.37104">
        <ele>110.3</ele>
        <time>2013-08-06T19:35:14.000Z</time>
      </trkpt>
      <trkpt lat="48.87276" lon="2.37101">
        <ele>110.3</ele>
        <time>2013-08-06T19:35:15.000Z</time>
      </trkpt>
      <trkpt lat="48.8728" lon="2.37098">
        <ele>110.8</ele>
        <time>2013-08-06T19:35:16.000Z</time>
      </trkpt>
      <trkpt lat="48.87285" lon="2.37096">
        <ele>110.6</ele>
        <time>2013-08-06T19:35:17.000Z</time>
      </trkpt>
      <trkpt lat="48.87289" lon="2.37093">
        <ele>110.4</ele>
        <time>2013-08-06T19:35:18.000Z</time>
      </trkpt>
      <trkpt lat="48.87293" lon="2.3709">
        <ele>110.5</ele>
        <time>2013-08-06T19:35:19.000Z</time>
      </trkpt>
      <trkpt lat="48.87297" lon="2.37087">
        <ele>110.6</ele>
        <time>2013-08-06T19:35:20.000Z</time>
      </trkpt>
      <trkpt lat="48.87301" lon="2.37085">
        <ele>111.2</ele>
        <time>2013-08-06T19:35:21.000Z</time>
      </trkpt>
      <trkpt lat="48.87305" lon="2.37081">
        <ele>110.8</ele>
        <time>2013-08-06T19:35:22.000Z</time>
      </trkpt>
      <trkpt lat="48.87309" lon="2.37079">
        <ele>110.9</ele>
        <time>2013-08-06T19:35:23.000Z</time>
      </trkpt>
      <trkpt lat="48.87313" lon="2.37076">
        <ele>110.9</ele>
        <time>2013-08-06T19:35:24.000Z</time>
      </trkpt>
      <trkpt lat="48.87316" lon="2.37074">
        <ele>110.1</ele>
        <time>2013-08-06T19:35:25.000Z</time>
      </trkpt>
      <trkpt lat="48.8732" lon="2.37071">
        <ele>109.8</ele>
        <time>2013-08-06T19:35:26.000Z</time>
      </trkpt>
      <trkpt lat="48.87324" lon="2.37068">
        <ele>109.1</ele>
        <time>2013-08-06T19:35:27.000Z</time>
      </trkpt>
      <trkpt lat="48.87328" lon="2.37065">
        <ele>108.7</ele>
        <time>2013-08-06T19:35:28.000Z</time>
      </trkpt>
      <trkpt lat="48.87332" lon="2.37062">
        <ele>108.4</ele>
        <time>2013-08-06T19:35:29.000Z</time>
      </trkpt>
      <trkpt lat="48.87335" lon="2.37059">
        <ele>107.8</ele>
        <time>2013-08-06T19:35:30.000Z</time>
      </trkpt>
      <trkpt lat="48.87339" lon="2.37055">
        <ele>103.6</ele>
        <time>2013-08-06T19:35:31.000Z</time>
      </trkpt>
      <trkpt lat="48.87343" lon="2.37052">
        <ele>101.9</ele>
        <time>2013-08-06T19:35:32.000Z</time>
      </trkpt>
      <trkpt lat="48.87346" lon="2.37048">
        <ele>100.8</ele>
        <time>2013-08-06T19:35:33.000Z</time>
      </trkpt>
      <trkpt lat="48.87349" lon="2.37044">
        <ele>101.2</ele>
        <time>2013-08-06T19:35:34.000Z</time>
      </trkpt>
      <trkpt lat="48.87351" lon="2.37041">
        <ele>101.7</ele>
        <time>2013-08-06T19:35:35.000Z</time>
      </trkpt>
      <trkpt lat="48.87353" lon="2.37038">
        <ele>101.1</ele>
        <time>2013-08-06T19:35:36.000Z</time>
      </trkpt>
      <trkpt lat="48.87355" lon="2.37035">
        <ele>101</ele>
        <time>2013-08-06T19:35:37.000Z</time>
      </trkpt>
      <trkpt lat="48.87357" lon="2.37031">
        <ele>100.5</ele>
        <time>2013-08-06T19:35:39.000Z</time>
      </trkpt>
      <trkpt lat="48.87359" lon="2.37029">
        <ele>99.9</ele>
        <time>2013-08-06T19:35:40.000Z</time>
      </trkpt>
      <trkpt lat="48.87362" lon="2.37028">
        <ele>96.8</ele>
        <time>2013-08-06T19:35:42.000Z</time>
      </trkpt>
      <trkpt lat="48.87364" lon="2.37029">
        <ele>95.5</ele>
        <time>2013-08-06T19:35:43.000Z</time>
      </trkpt>
      <trkpt lat="48.87367" lon="2.37032">
        <ele>95.3</ele>
        <time>2013-08-06T19:35:46.000Z</time>
      </trkpt>
      <trkpt lat="48.87368" lon="2.37032">
        <ele>95.5</ele>
        <time>2013-08-06T19:35:47.000Z</time>
      </trkpt>
      <trkpt lat="48.87372" lon="2.37031">
        <ele>97</ele>
        <time>2013-08-06T19:36:14.000Z</time>
      </trkpt>
      <trkpt lat="48.87373" lon="2.37031">
        <ele>96.9</ele>
        <time>2013-08-06T19:36:15.000Z</time>
      </trkpt>
      <trkpt lat="48.87376" lon="2.3703">
        <ele>96.1</ele>
        <time>2013-08-06T19:36:17.000Z</time>
      </trkpt>
      <trkpt lat="48.87378" lon="2.3703">
        <ele>96</ele>
        <time>2013-08-06T19:36:18.000Z</time>
      </trkpt>
      <trkpt lat="48.87381" lon="2.3703">
        <ele>96.7</ele>
        <time>2013-08-06T19:36:19.000Z</time>
      </trkpt>
      <trkpt lat="48.87384" lon="2.37031">
        <ele>96.5</ele>
        <time>2013-08-06T19:36:20.000Z</time>
      </trkpt>
      <trkpt lat="48.87388" lon="2.37032">
        <ele>95.4</ele>
        <time>2013-08-06T19:36:21.000Z</time>
      </trkpt>
      <trkpt lat="48.87391" lon="2.37033">
        <ele>94.3</ele>
        <time>2013-08-06T19:36:22.000Z</time>
      </trkpt>
      <trkpt lat="48.87395" lon="2.37034">
        <ele>93.8</ele>
        <time>2013-08-06T19:36:23.000Z</time>
      </trkpt>
      <trkpt lat="48.87398" lon="2.37035">
        <ele>93.5</ele>
        <time>2013-08-06T19:36:24.000Z</time>
      </trkpt>
      <trkpt lat="48.87402" lon="2.37034">
        <ele>94.7</ele>
        <time>2013-08-06T19:36:25.000Z</time>
      </trkpt>
      <trkpt lat="48.87405" lon="2.37034">
        <ele>94.9</ele>
        <time>2013-08-06T19:36:26.000Z</time>
      </trkpt>
      <trkpt lat="48.87409" lon="2.37034">
        <ele>95</ele>
        <time>2013-08-06T19:36:27.000Z</time>
      </trkpt>
      <trkpt lat="48.87413" lon="2.37034">
        <ele>94.7</ele>
        <time>2013-08-06T19:36:28.000Z</time>
      </trkpt>
      <trkpt lat="48.87417" lon="2.37034">
        <ele>94.3</ele>
        <time>2013-08-06T19:36:29.000Z</time>
      </trkpt>
      <trkpt lat="48.87421" lon="2.37034">
        <ele>95.3</ele>
        <time>2013-08-06T19:36:30.000Z</time>
      </trkpt>
      <trkpt lat="48.87426" lon="2.37033">
        <ele>94.7</ele>
        <time>2013-08-06T19:36:31.000Z</time>
      </trkpt>
      <trkpt lat="48.8743" lon="2.37032">
        <ele>94.5</ele>
        <time>2013-08-06T19:36:32.000Z</time>
      </trkpt>
      <trkpt lat="48.87434" lon="2.37032">
        <ele>95.2</ele>
        <time>2013-08-06T19:36:33.000Z</time>
      </trkpt>
      <trkpt lat="48.87439" lon="2.37032">
        <ele>95.1</ele>
        <time>2013-08-06T19:36:34.000Z</time>
      </trkpt>
      <trkpt lat="48.87444" lon="2.37031">
        <ele>95.3</ele>
        <time>2013-08-06T19:36:35.000Z</time>
      </trkpt>
      <trkpt lat="48.87448" lon="2.37032">
        <ele>95.4</ele>
        <time>2013-08-06T19:36:36.000Z</time>
      </trkpt>
      <trkpt lat="48.87455" lon="2.37026">
        <ele>98</ele>
        <time>2013-08-06T19:36:37.900Z</time>
      </trkpt>
      <trkpt lat="48.87458" lon="2.37023">
        <ele>99.6</ele>
        <time>2013-08-06T19:36:39.000Z</time>
      </trkpt>
      <trkpt lat="48.87462" lon="2.37023">
        <ele>100.3</ele>
        <time>2013-08-06T19:36:40.000Z</time>
      </trkpt>
      <trkpt lat="48.87464" lon="2.37018">
        <ele>105.1</ele>
        <time>2013-08-06T19:36:41.000Z</time>
      </trkpt>
      <trkpt lat="48.87467" lon="2.37016">
        <ele>108.6</ele>
        <time>2013-08-06T19:36:42.000Z</time>
      </trkpt>
      <trkpt lat="48.8747" lon="2.37014">
        <ele>110.5</ele>
        <time>2013-08-06T19:36:43.000Z</time>
      </trkpt>
      <trkpt lat="48.87473" lon="2.37012">
        <ele>111.4</ele>
        <time>2013-08-06T19:36:44.000Z</time>
      </trkpt>
      <trkpt lat="48.87478" lon="2.37011">
        <ele>111.8</ele>
        <time>2013-08-06T19:36:45.000Z</time>
      </trkpt>
      <trkpt lat="48.87482" lon="2.37012">
        <ele>111.5</ele>
        <time>2013-08-06T19:36:46.000Z</time>
      </trkpt>
      <trkpt lat="48.87487" lon="2.37012">
        <ele>111</ele>
        <time>2013-08-06T19:36:47.000Z</time>
      </trkpt>
      <trkpt lat="48.87492" lon="2.37013">
        <ele>111.1</ele>
        <time>2013-08-06T19:36:48.000Z</time>
      </trkpt>
      <trkpt lat="48.87496" lon="2.37012">
        <ele>111</ele>
        <time>2013-08-06T19:36:49.000Z</time>
      </trkpt>
      <trkpt lat="48.87503" lon="2.37013">
        <ele>109.1</ele>
        <time>2013-08-06T19:36:50.000Z</time>
      </trkpt>
      <trkpt lat="48.87508" lon="2.37013">
        <ele>109.3</ele>
        <time>2013-08-06T19:36:51.000Z</time>
      </trkpt>
      <trkpt lat="48.87512" lon="2.37014">
        <ele>109.3</ele>
        <time>2013-08-06T19:36:52.000Z</time>
      </trkpt>
      <trkpt lat="48.87515" lon="2.37014">
        <ele>109.2</ele>
        <time>2013-08-06T19:36:53.000Z</time>
      </trkpt>
      <trkpt lat="48.87518" lon="2.37014">
        <ele>109.4</ele>
        <time>2013-08-06T19:36:54.000Z</time>
      </trkpt>
      <trkpt lat="48.87522" lon="2.37014">
        <ele>108.9</ele>
        <time>2013-08-06T19:36:55.000Z</time>
      </trkpt>
      <trkpt lat="48.87527" lon="2.37015">
        <ele>109.3</ele>
        <time>2013-08-06T19:36:56.000Z</time>
      </trkpt>
      <trkpt lat="48.87531" lon="2.37015">
        <ele>110.8</ele>
        <time>2013-08-06T19:36:57.000Z</time>
      </trkpt>
      <trkpt lat="48.87535" lon="2.37015">
        <ele>111.5</ele>
        <time>2013-08-06T19:36:58.000Z</time>
      </trkpt>
      <trkpt lat="48.87538" lon="2.37016">
        <ele>111.4</ele>
        <time>2013-08-06T19:36:59.000Z</time>
      </trkpt>
      <trkpt lat="48.87543" lon="2.37016">
        <ele>111.9</ele>
        <time>2013-08-06T19:37:00.000Z</time>
      </trkpt>
      <trkpt lat="48.87547" lon="2.37017">
        <ele>113.7</ele>
        <time>2013-08-06T19:37:01.000Z</time>
      </trkpt>
      <trkpt lat="48.87552" lon="2.37018">
        <ele>114.2</ele>
        <time>2013-08-06T19:37:02.000Z</time>
      </trkpt>
      <trkpt lat="48.87556" lon="2.37018">
        <ele>114.6</ele>
        <time>2013-08-06T19:37:03.000Z</time>
      </trkpt>
      <trkpt lat="48.8756" lon="2.37019">
        <ele>115.5</ele>
        <time>2013-08-06T19:37:04.000Z</time>
      </trkpt>
      <trkpt lat="48.87564" lon="2.37019">
        <ele>116.3</ele>
        <time>2013-08-06T19:37:05.000Z</time>
      </trkpt>
      <trkpt lat="48.87568" lon="2.37019">
        <ele>119.3</ele>
        <time>2013-08-06T19:37:06.000Z</time>
      </trkpt>
      <trkpt lat="48.87571" lon="2.37019">
        <ele>120.4</ele>
        <time>2013-08-06T19:37:07.000Z</time>
      </trkpt>
      <trkpt lat="48.87575" lon="2.37019">
        <ele>121.6</ele>
        <time>2013-08-06T19:37:08.000Z</time>
      </trkpt>
      <trkpt lat="48.87579" lon="2.37019">
        <ele>122</ele>
        <time>2013-08-06T19:37:09.000Z</time>
      </trkpt>
      <trkpt lat="48.87583" lon="2.3702">
        <ele>122.5</ele>
        <time>2013-08-06T19:37:10.000Z</time>
      </trkpt>
      <trkpt lat="48.87588" lon="2.3702">
        <ele>122.4</ele>
        <time>2013-08-06T19:37:11.000Z</time>
      </trkpt>
      <trkpt lat="48.87592" lon="2.37019">
        <ele>120</ele>
        <time>2013-08-06T19:37:12.000Z</time>
      </trkpt>
      <trkpt lat="48.87596" lon="2.37019">
        <ele>121.5</ele>
        <time>2013-08-06T19:37:13.000Z</time>
      </trkpt>
      <trkpt lat="48.876" lon="2.37018">
        <ele>121.6</ele>
        <time>2013-08-06T19:37:14.000Z</time>
      </trkpt>
      <trkpt lat="48.87605" lon="2.37018">
        <ele>123</ele>
        <time>2013-08-06T19:37:15.000Z</time>
      </trkpt>
      <trkpt lat="48.87609" lon="2.37017">
        <ele>122.7</ele>
        <time>2013-08-06T19:37:16.000Z</time>
      </trkpt>
      <trkpt lat="48.87613" lon="2.37017">
        <ele>123.7</ele>
        <time>2013-08-06T19:37:17.000Z</time>
      </trkpt>
      <trkpt lat="48.87618" lon="2.37016">
        <ele>123.6</ele>
        <time>2013-08-06T19:37:18.000Z</time>
      </trkpt>
      <trkpt lat="48.87622" lon="2.37016">
        <ele>121.2</ele>
        <time>2013-08-06T19:37:19.000Z</time>
      </trkpt>
      <trkpt lat="48.87626" lon="2.37015">
        <ele>122.8</ele>
        <time>2013-08-06T19:37:20.000Z</time>
      </trkpt>
      <trkpt lat="48.87631" lon="2.37015">
        <ele>123.7</ele>
        <time>2013-08-06T19:37:21.000Z</time>
      </trkpt>
      <trkpt lat="48.87638" lon="2.37017">
        <ele>122</ele>
        <time>2013-08-06T19:37:22.000Z</time>
      </trkpt>
      <trkpt lat="48.87643" lon="2.37016">
        <ele>121.3</ele>
        <time>2013-08-06T19:37:23.000Z</time>
      </trkpt>
      <trkpt lat="48.87649" lon="2.37016">
        <ele>121.7</ele>
        <time>2013-08-06T19:37:24.000Z</time>
      </trkpt>
      <trkpt lat="48.87654" lon="2.37013">
        <ele>121.8</ele>
        <time>2013-08-06T19:37:25.000Z</time>
      </trkpt>
      <trkpt lat="48.87659" lon="2.37014">
        <ele>122.5</ele>
        <time>2013-08-06T19:37:26.000Z</time>
      </trkpt>
      <trkpt lat="48.87664" lon="2.37014">
        <ele>122.5</ele>
        <time>2013-08-06T19:37:27.000Z</time>
      </trkpt>
      <trkpt lat="48.87669" lon="2.37014">
        <ele>122.4</ele>
        <time>2013-08-06T19:37:28.000Z</time>
      </trkpt>
      <trkpt lat="48.87674" lon="2.37014">
        <ele>122.3</ele>
        <time>2013-08-06T19:37:29.000Z</time>
      </trkpt>
      <trkpt lat="48.87678" lon="2.37014">
        <ele>121.8</ele>
        <time>2013-08-06T19:37:30.000Z</time>
      </trkpt>
      <trkpt lat="48.87683" lon="2.37015">
        <ele>121</ele>
        <time>2013-08-06T19:37:31.000Z</time>
      </trkpt>
      <trkpt lat="48.87688" lon="2.37017">
        <ele>120.2</ele>
        <time>2013-08-06T19:37:32.000Z</time>
      </trkpt>
      <trkpt lat="48.87692" lon="2.37017">
        <ele>120.9</ele>
        <time>2013-08-06T19:37:33.000Z</time>
      </trkpt>
      <trkpt lat="48.87697" lon="2.37017">
        <ele>120.9</ele>
        <time>2013-08-06T19:37:34.000Z</time>
      </trkpt>
      <trkpt lat="48.87701" lon="2.37016">
        <ele>121.2</ele>
        <time>2013-08-06T19:37:35.000Z</time>
      </trkpt>
      <trkpt lat="48.87705" lon="2.37016">
        <ele>122.7</ele>
        <time>2013-08-06T19:37:36.000Z</time>
      </trkpt>
      <trkpt lat="48.87712" lon="2.37011">
        <ele>124.3</ele>
        <time>2013-08-06T19:37:37.871Z</time>
      </trkpt>
      <trkpt lat="48.87714" lon="2.37011">
        <ele>124.1</ele>
        <time>2013-08-06T19:37:39.000Z</time>
      </trkpt>
      <trkpt lat="48.87718" lon="2.3701">
        <ele>124</ele>
        <time>2013-08-06T19:37:40.000Z</time>
      </trkpt>
      <trkpt lat="48.87721" lon="2.37009">
        <ele>124.2</ele>
        <time>2013-08-06T19:37:41.000Z</time>
      </trkpt>
      <trkpt lat="48.87724" lon="2.3701">
        <ele>124.7</ele>
        <time>2013-08-06T19:37:42.000Z</time>
      </trkpt>
      <trkpt lat="48.87728" lon="2.37011">
        <ele>124.6</ele>
        <time>2013-08-06T19:37:43.000Z</time>
      </trkpt>
      <trkpt lat="48.87731" lon="2.37012">
        <ele>124.5</ele>
        <time>2013-08-06T19:37:44.000Z</time>
      </trkpt>
      <trkpt lat="48.87734" lon="2.37011">
        <ele>122.9</ele>
        <time>2013-08-06T19:37:45.000Z</time>
      </trkpt>
      <trkpt lat="48.87737" lon="2.37011">
        <ele>122.4</ele>
        <time>2013-08-06T19:37:46.000Z</time>
      </trkpt>
      <trkpt lat="48.8774" lon="2.37012">
        <ele>121.7</ele>
        <time>2013-08-06T19:37:47.000Z</time>
      </trkpt>
      <trkpt lat="48.87743" lon="2.37014">
        <ele>119.5</ele>
        <time>2013-08-06T19:37:48.000Z</time>
      </trkpt>
      <trkpt lat="48.87746" lon="2.37018">
        <ele>118.3</ele>
        <time>2013-08-06T19:37:49.000Z</time>
      </trkpt>
      <trkpt lat="48.87748" lon="2.37021">
        <ele>118</ele>
        <time>2013-08-06T19:37:50.000Z</time>
      </trkpt>
      <trkpt lat="48.8775" lon="2.37025">
        <ele>117.6</ele>
        <time>2013-08-06T19:37:51.000Z</time>
      </trkpt>
      <trkpt lat="48.87751" lon="2.37026">
        <ele>117.9</ele>
        <time>2013-08-06T19:37:52.000Z</time>
      </trkpt>
      <trkpt lat="48.87753" lon="2.3703">
        <ele>118.7</ele>
        <time>2013-08-06T19:37:53.000Z</time>
      </trkpt>
      <trkpt lat="48.87755" lon="2.37032">
        <ele>117.9</ele>
        <time>2013-08-06T19:37:54.000Z</time>
      </trkpt>
      <trkpt lat="48.87758" lon="2.37037">
        <ele>118</ele>
        <time>2013-08-06T19:38:48.000Z</time>
      </trkpt>
      <trkpt lat="48.87758" lon="2.37037">
        <ele>118.8</ele>
        <time>2013-08-06T19:38:49.000Z</time>
      </trkpt>
      <trkpt lat="48.87761" lon="2.37041">
        <ele>120.2</ele>
        <time>2013-08-06T19:38:53.000Z</time>
      </trkpt>
      <trkpt lat="48.87762" lon="2.37045">
        <ele>116.1</ele>
        <time>2013-08-06T19:38:54.000Z</time>
      </trkpt>
      <trkpt lat="48.87764" lon="2.37048">
        <ele>116.8</ele>
        <time>2013-08-06T19:38:55.000Z</time>
      </trkpt>
      <trkpt lat="48.87767" lon="2.37053">
        <ele>116</ele>
        <time>2013-08-06T19:38:56.000Z</time>
      </trkpt>
      <trkpt lat="48.87769" lon="2.37056">
        <ele>116.4</ele>
        <time>2013-08-06T19:38:57.000Z</time>
      </trkpt>
      <trkpt lat="48.87771" lon="2.3706">
        <ele>115.5</ele>
        <time>2013-08-06T19:38:58.000Z</time>
      </trkpt>
      <trkpt lat="48.87773" lon="2.37063">
        <ele>115.8</ele>
        <time>2013-08-06T19:38:59.000Z</time>
      </trkpt>
      <trkpt lat="48.87776" lon="2.37067">
        <ele>114.7</ele>
        <time>2013-08-06T19:39:00.000Z</time>
      </trkpt>
      <trkpt lat="48.87778" lon="2.3707">
        <ele>115.1</ele>
        <time>2013-08-06T19:39:01.000Z</time>
      </trkpt>
      <trkpt lat="48.87779" lon="2.37073">
        <ele>113.1</ele>
        <time>2013-08-06T19:39:02.000Z</time>
      </trkpt>
      <trkpt lat="48.87781" lon="2.37077">
        <ele>111.9</ele>
        <time>2013-08-06T19:39:04.000Z</time>
      </trkpt>
      <trkpt lat="48.87782" lon="2.37079">
        <ele>110.5</ele>
        <time>2013-08-06T19:39:05.000Z</time>
      </trkpt>
      <trkpt lat="48.87785" lon="2.37082">
        <ele>110.6</ele>
        <time>2013-08-06T19:39:07.000Z</time>
      </trkpt>
      <trkpt lat="48.87786" lon="2.37083">
        <ele>109.7</ele>
        <time>2013-08-06T19:39:08.000Z</time>
      </trkpt>
      <trkpt lat="48.8779" lon="2.37085">
        <ele>108.1</ele>
        <time>2013-08-06T19:39:11.000Z</time>
      </trkpt>
      <trkpt lat="48.87791" lon="2.37086">
        <ele>108.5</ele>
        <time>2013-08-06T19:39:12.000Z</time>
      </trkpt>
      <trkpt lat="48.87795" lon="2.37084">
        <ele>106</ele>
        <time>2013-08-06T19:39:17.000Z</time>
      </trkpt>
      <trkpt lat="48.87796" lon="2.37083">
        <ele>105.9</ele>
        <time>2013-08-06T19:39:18.000Z</time>
      </trkpt>
      <trkpt lat="48.87799" lon="2.3708">
        <ele>107.1</ele>
        <time>2013-08-06T19:39:21.000Z</time>
      </trkpt>
      <trkpt lat="48.878" lon="2.37079">
        <ele>106.8</ele>
        <time>2013-08-06T19:39:22.000Z</time>
      </trkpt>
      <trkpt lat="48.87804" lon="2.37076">
        <ele>107.4</ele>
        <time>2013-08-06T19:39:25.000Z</time>
      </trkpt>
      <trkpt lat="48.87806" lon="2.37074">
        <ele>107</ele>
        <time>2013-08-06T19:39:26.000Z</time>
      </trkpt>
      <trkpt lat="48.87809" lon="2.37071">
        <ele>106.4</ele>
        <time>2013-08-06T19:39:28.000Z</time>
      </trkpt>
      <trkpt lat="48.87811" lon="2.37069">
        <ele>106.5</ele>
        <time>2013-08-06T19:39:29.000Z</time>
      </trkpt>
      <trkpt lat="48.87815" lon="2.37067">
        <ele>104.7</ele>
        <time>2013-08-06T19:39:31.000Z</time>
      </trkpt>
      <trkpt lat="48.87817" lon="2.37066">
        <ele>104.8</ele>
        <time>2013-08-06T19:39:32.000Z</time>
      </trkpt>
      <trkpt lat="48.87821" lon="2.37064">
        <ele>104</ele>
        <time>2013-08-06T19:39:34.000Z</time>
      </trkpt>
      <trkpt lat="48.87823" lon="2.37063">
        <ele>104.1</ele>
        <time>2013-08-06T19:39:35.000Z</time>
      </trkpt>
      <trkpt lat="48.87825" lon="2.37061">
        <ele>104.5</ele>
        <time>2013-08-06T19:39:36.000Z</time>
      </trkpt>
      <trkpt lat="48.8783" lon="2.37059">
        <ele>104.4</ele>
        <time>2013-08-06T19:39:37.851Z</time>
      </trkpt>
      <trkpt lat="48.87832" lon="2.37057">
        <ele>104.2</ele>
        <time>2013-08-06T19:39:39.000Z</time>
      </trkpt>
      <trkpt lat="48.87834" lon="2.37057">
        <ele>102.3</ele>
        <time>2013-08-06T19:39:40.000Z</time>
      </trkpt>
      <trkpt lat="48.87838" lon="2.37058">
        <ele>100.1</ele>
        <time>2013-08-06T19:39:42.000Z</time>
      </trkpt>
      <trkpt lat="48.8784" lon="2.37058">
        <ele>99.2</ele>
        <time>2013-08-06T19:39:43.000Z</time>
      </trkpt>
      <trkpt lat="48.87844" lon="2.37057">
        <ele>99.8</ele>
        <time>2013-08-06T19:39:45.000Z</time>
      </trkpt>
      <trkpt lat="48.87846" lon="2.37056">
        <ele>100.2</ele>
        <time>2013-08-06T19:39:46.000Z</time>
      </trkpt>
      <trkpt lat="48.87849" lon="2.37052">
        <ele>100.5</ele>
        <time>2013-08-06T19:39:49.000Z</time>
      </trkpt>
      <trkpt lat="48.87851" lon="2.3705">
        <ele>101.3</ele>
        <time>2013-08-06T19:39:50.000Z</time>
      </trkpt>
      <trkpt lat="48.87853" lon="2.37049">
        <ele>101.4</ele>
        <time>2013-08-06T19:39:51.000Z</time>
      </trkpt>
      <trkpt lat="48.87855" lon="2.37047">
        <ele>101.3</ele>
        <time>2013-08-06T19:39:52.000Z</time>
      </trkpt>
      <trkpt lat="48.87859" lon="2.37045">
        <ele>101.2</ele>
        <time>2013-08-06T19:39:53.000Z</time>
      </trkpt>
      <trkpt lat="48.87862" lon="2.37043">
        <ele>101.1</ele>
        <time>2013-08-06T19:39:54.000Z</time>
      </trkpt>
      <trkpt lat="48.87865" lon="2.37043">
        <ele>101.5</ele>
        <time>2013-08-06T19:39:55.000Z</time>
      </trkpt>
      <trkpt lat="48.87869" lon="2.37042">
        <ele>102</ele>
        <time>2013-08-06T19:39:56.000Z</time>
      </trkpt>
      <trkpt lat="48.87873" lon="2.37041">
        <ele>103.4</ele>
        <time>2013-08-06T19:39:57.000Z</time>
      </trkpt>
      <trkpt lat="48.87877" lon="2.3704">
        <ele>104.4</ele>
        <time>2013-08-06T19:39:58.000Z</time>
      </trkpt>
      <trkpt lat="48.8788" lon="2.37039">
        <ele>105.2</ele>
        <time>2013-08-06T19:39:59.000Z</time>
      </trkpt>
      <trkpt lat="48.87884" lon="2.37038">
        <ele>104.9</ele>
        <time>2013-08-06T19:40:00.000Z</time>
      </trkpt>
      <trkpt lat="48.87888" lon="2.37037">
        <ele>104.5</ele>
        <time>2013-08-06T19:40:01.000Z</time>
      </trkpt>
      <trkpt lat="48.87892" lon="2.37036">
        <ele>104</ele>
        <time>2013-08-06T19:40:02.000Z</time>
      </trkpt>
      <trkpt lat="48.87897" lon="2.37035">
        <ele>104.5</ele>
        <time>2013-08-06T19:40:03.000Z</time>
      </trkpt>
      <trkpt lat="48.87903" lon="2.37035">
        <ele>104.7</ele>
        <time>2013-08-06T19:40:04.000Z</time>
      </trkpt>
      <trkpt lat="48.8791" lon="2.37034">
        <ele>104.7</ele>
        <time>2013-08-06T19:40:05.000Z</time>
      </trkpt>
      <trkpt lat="48.87915" lon="2.3703">
        <ele>106.1</ele>
        <time>2013-08-06T19:40:06.000Z</time>
      </trkpt>
      <trkpt lat="48.87919" lon="2.37026">
        <ele>108.7</ele>
        <time>2013-08-06T19:40:07.000Z</time>
      </trkpt>
      <trkpt lat="48.87923" lon="2.37026">
        <ele>110.1</ele>
        <time>2013-08-06T19:40:08.000Z</time>
      </trkpt>
      <trkpt lat="48.87928" lon="2.37024">
        <ele>111</ele>
        <time>2013-08-06T19:40:09.000Z</time>
      </trkpt>
      <trkpt lat="48.87932" lon="2.37023">
        <ele>111.9</ele>
        <time>2013-08-06T19:40:10.000Z</time>
      </trkpt>
      <trkpt lat="48.87937" lon="2.37022">
        <ele>112.4</ele>
        <time>2013-08-06T19:40:11.000Z</time>
      </trkpt>
      <trkpt lat="48.87941" lon="2.37021">
        <ele>114.1</ele>
        <time>2013-08-06T19:40:12.000Z</time>
      </trkpt>
      <trkpt lat="48.87944" lon="2.37022">
        <ele>115.7</ele>
        <time>2013-08-06T19:40:13.000Z</time>
      </trkpt>
      <trkpt lat="48.87948" lon="2.37023">
        <ele>116.7</ele>
        <time>2013-08-06T19:40:14.000Z</time>
      </trkpt>
      <trkpt lat="48.87952" lon="2.37023">
        <ele>117.1</ele>
        <time>2013-08-06T19:40:15.000Z</time>
      </trkpt>
      <trkpt lat="48.87955" lon="2.37024">
        <ele>117.4</ele>
        <time>2013-08-06T19:40:16.000Z</time>
      </trkpt>
      <trkpt lat="48.87959" lon="2.37024">
        <ele>116.6</ele>
        <time>2013-08-06T19:40:17.000Z</time>
      </trkpt>
      <trkpt lat="48.87964" lon="2.37024">
        <ele>116.4</ele>
        <time>2013-08-06T19:40:18.000Z</time>
      </trkpt>
      <trkpt lat="48.87968" lon="2.37025">
        <ele>116.2</ele>
        <time>2013-08-06T19:40:19.000Z</time>
      </trkpt>
      <trkpt lat="48.87971" lon="2.37026">
        <ele>117.5</ele>
        <time>2013-08-06T19:40:20.000Z</time>
      </trkpt>
      <trkpt lat="48.87976" lon="2.37027">
        <ele>118.8</ele>
        <time>2013-08-06T19:40:21.000Z</time>
      </trkpt>
      <trkpt lat="48.87981" lon="2.37029">
        <ele>118.6</ele>
        <time>2013-08-06T19:40:22.000Z</time>
      </trkpt>
      <trkpt lat="48.87986" lon="2.37034">
        <ele>110.8</ele>
        <time>2013-08-06T19:40:23.000Z</time>
      </trkpt>
      <trkpt lat="48.87991" lon="2.37037">
        <ele>109.8</ele>
        <time>2013-08-06T19:40:24.000Z</time>
      </trkpt>
      <trkpt lat="48.87995" lon="2.37039">
        <ele>110.2</ele>
        <time>2013-08-06T19:40:25.000Z</time>
      </trkpt>
      <trkpt lat="48.88" lon="2.3704">
        <ele>108.9</ele>
        <time>2013-08-06T19:40:26.000Z</time>
      </trkpt>
      <trkpt lat="48.88005" lon="2.37042">
        <ele>109.2</ele>
        <time>2013-08-06T19:40:27.000Z</time>
      </trkpt>
      <trkpt lat="48.88009" lon="2.37044">
        <ele>110.4</ele>
        <time>2013-08-06T19:40:28.000Z</time>
      </trkpt>
      <trkpt lat="48.88013" lon="2.37046">
        <ele>111.3</ele>
        <time>2013-08-06T19:40:29.000Z</time>
      </trkpt>
      <trkpt lat="48.88017" lon="2.37049">
        <ele>112.3</ele>
        <time>2013-08-06T19:40:30.000Z</time>
      </trkpt>
      <trkpt lat="48.8802" lon="2.3705">
        <ele>113.6</ele>
        <time>2013-08-06T19:40:31.000Z</time>
      </trkpt>
      <trkpt lat="48.88023" lon="2.37051">
        <ele>114.8</ele>
        <time>2013-08-06T19:40:32.000Z</time>
      </trkpt>
      <trkpt lat="48.88027" lon="2.37048">
        <ele>114.2</ele>
        <time>2013-08-06T19:40:33.000Z</time>
      </trkpt>
      <trkpt lat="48.88032" lon="2.37045">
        <ele>115.4</ele>
        <time>2013-08-06T19:40:34.000Z</time>
      </trkpt>
      <trkpt lat="48.88037" lon="2.37042">
        <ele>116.1</ele>
        <time>2013-08-06T19:40:35.000Z</time>
      </trkpt>
      <trkpt lat="48.88042" lon="2.37041">
        <ele>119.6</ele>
        <time>2013-08-06T19:40:36.000Z</time>
      </trkpt>
      <trkpt lat="48.88055" lon="2.37034">
        <ele>123.5</ele>
        <time>2013-08-06T19:40:37.891Z</time>
      </trkpt>
      <trkpt lat="48.88059" lon="2.37034">
        <ele>122.5</ele>
        <time>2013-08-06T19:40:39.000Z</time>
      </trkpt>
      <trkpt lat="48.88064" lon="2.37031">
        <ele>124.5</ele>
        <time>2013-08-06T19:40:40.000Z</time>
      </trkpt>
      <trkpt lat="48.88069" lon="2.3703">
        <ele>124.6</ele>
        <time>2013-08-06T19:40:41.000Z</time>
      </trkpt>
      <trkpt lat="48.88075" lon="2.37028">
        <ele>125.6</ele>
        <time>2013-08-06T19:40:42.000Z</time>
      </trkpt>
      <trkpt lat="48.88081" lon="2.37026">
        <ele>127.3</ele>
        <time>2013-08-06T19:40:43.000Z</time>
      </trkpt>
      <trkpt lat="48.88086" lon="2.37024">
        <ele>128.7</ele>
        <time>2013-08-06T19:40:44.000Z</time>
      </trkpt>
      <trkpt lat="48.88091" lon="2.37022">
        <ele>131</ele>
        <time>2013-08-06T19:40:45.000Z</time>
      </trkpt>
      <trkpt lat="48.88096" lon="2.37019">
        <ele>131.6</ele>
        <time>2013-08-06T19:40:46.000Z</time>
      </trkpt>
      <trkpt lat="48.881" lon="2.37018">
        <ele>132.9</ele>
        <time>2013-08-06T19:40:47.000Z</time>
      </trkpt>
      <trkpt lat="48.88106" lon="2.37016">
        <ele>134.3</ele>
        <time>2013-08-06T19:40:48.000Z</time>
      </trkpt>
      <trkpt lat="48.88113" lon="2.37015">
        <ele>133.8</ele>
        <time>2013-08-06T19:40:49.000Z</time>
      </trkpt>
      <trkpt lat="48.88116" lon="2.37016">
        <ele>132.7</ele>
        <time>2013-08-06T19:40:50.000Z</time>
      </trkpt>
      <trkpt lat="48.8812" lon="2.37016">
        <ele>133</ele>
        <time>2013-08-06T19:40:51.000Z</time>
      </trkpt>
      <trkpt lat="48.88123" lon="2.37018">
        <ele>133.3</ele>
        <time>2013-08-06T19:40:52.000Z</time>
      </trkpt>
      <trkpt lat="48.88127" lon="2.37018">
        <ele>134.7</ele>
        <time>2013-08-06T19:40:53.000Z</time>
      </trkpt>
      <trkpt lat="48.88133" lon="2.37018">
        <ele>136.8</ele>
        <time>2013-08-06T19:40:54.000Z</time>
      </trkpt>
      <trkpt lat="48.88137" lon="2.37019">
        <ele>136.1</ele>
        <time>2013-08-06T19:40:55.000Z</time>
      </trkpt>
      <trkpt lat="48.88141" lon="2.37019">
        <ele>136.6</ele>
        <time>2013-08-06T19:40:56.000Z</time>
      </trkpt>
      <trkpt lat="48.88147" lon="2.37019">
        <ele>136.8</ele>
        <time>2013-08-06T19:40:57.000Z</time>
      </trkpt>
      <trkpt lat="48.88153" lon="2.37023">
        <ele>136.8</ele>
        <time>2013-08-06T19:40:58.000Z</time>
      </trkpt>
      <trkpt lat="48.88157" lon="2.37026">
        <ele>136.9</ele>
        <time>2013-08-06T19:40:59.000Z</time>
      </trkpt>
      <trkpt lat="48.88163" lon="2.37026">
        <ele>136.7</ele>
        <time>2013-08-06T19:41:00.000Z</time>
      </trkpt>
      <trkpt lat="48.88167" lon="2.37026">
        <ele>136.4</ele>
        <time>2013-08-06T19:41:01.000Z</time>
      </trkpt>
      <trkpt lat="48.88172" lon="2.37027">
        <ele>137.3</ele>
        <time>2013-08-06T19:41:02.000Z</time>
      </trkpt>
      <trkpt lat="48.88176" lon="2.3703">
        <ele>138.9</ele>
        <time>2013-08-06T19:41:03.000Z</time>
      </trkpt>
      <trkpt lat="48.8818" lon="2.3703">
        <ele>138.8</ele>
        <time>2013-08-06T19:41:04.000Z</time>
      </trkpt>
      <trkpt lat="48.88185" lon="2.37028">
        <ele>138.8</ele>
        <time>2013-08-06T19:41:05.000Z</time>
      </trkpt>
      <trkpt lat="48.8819" lon="2.37029">
        <ele>138.7</ele>
        <time>2013-08-06T19:41:06.000Z</time>
      </trkpt>
      <trkpt lat="48.88193" lon="2.37031">
        <ele>139</ele>
        <time>2013-08-06T19:41:07.000Z</time>
      </trkpt>
      <trkpt lat="48.88198" lon="2.3703">
        <ele>137.3</ele>
        <time>2013-08-06T19:41:08.000Z</time>
      </trkpt>
      <trkpt lat="48.88202" lon="2.3703">
        <ele>137</ele>
        <time>2013-08-06T19:41:09.000Z</time>
      </trkpt>
      <trkpt lat="48.88206" lon="2.3703">
        <ele>137.1</ele>
        <time>2013-08-06T19:41:10.000Z</time>
      </trkpt>
      <trkpt lat="48.88208" lon="2.37031">
        <ele>136.5</ele>
        <time>2013-08-06T19:41:11.000Z</time>
      </trkpt>
      <trkpt lat="48.88212" lon="2.37031">
        <ele>133.5</ele>
        <time>2013-08-06T19:41:12.000Z</time>
      </trkpt>
      <trkpt lat="48.88215" lon="2.37031">
        <ele>133.2</ele>
        <time>2013-08-06T19:41:13.000Z</time>
      </trkpt>
      <trkpt lat="48.88219" lon="2.3703">
        <ele>131.2</ele>
        <time>2013-08-06T19:41:14.000Z</time>
      </trkpt>
      <trkpt lat="48.88222" lon="2.3703">
        <ele>131.3</ele>
        <time>2013-08-06T19:41:15.000Z</time>
      </trkpt>
      <trkpt lat="48.88226" lon="2.3703">
        <ele>132.1</ele>
        <time>2013-08-06T19:41:16.000Z</time>
      </trkpt>
      <trkpt lat="48.8823" lon="2.3703">
        <ele>130.3</ele>
        <time>2013-08-06T19:41:17.000Z</time>
      </trkpt>
      <trkpt lat="48.88233" lon="2.37029">
        <ele>129.3</ele>
        <time>2013-08-06T19:41:18.000Z</time>
      </trkpt>
      <trkpt lat="48.88237" lon="2.37029">
        <ele>127.9</ele>
        <time>2013-08-06T19:41:19.000Z</time>
      </trkpt>
      <trkpt lat="48.8824" lon="2.37028">
        <ele>127.9</ele>
        <time>2013-08-06T19:41:20.000Z</time>
      </trkpt>
      <trkpt lat="48.88244" lon="2.37027">
        <ele>127.9</ele>
        <time>2013-08-06T19:41:21.000Z</time>
      </trkpt>
      <trkpt lat="48.88247" lon="2.37024">
        <ele>127.6</ele>
        <time>2013-08-06T19:41:22.000Z</time>
      </trkpt>
      <trkpt lat="48.8825" lon="2.37023">
        <ele>126.5</ele>
        <time>2013-08-06T19:41:23.000Z</time>
      </trkpt>
      <trkpt lat="48.88253" lon="2.37023">
        <ele>125</ele>
        <time>2013-08-06T19:41:24.000Z</time>
      </trkpt>
      <trkpt lat="48.88255" lon="2.37022">
        <ele>123.7</ele>
        <time>2013-08-06T19:41:25.000Z</time>
      </trkpt>
      <trkpt lat="48.88258" lon="2.37022">
        <ele>123.3</ele>
        <time>2013-08-06T19:41:26.000Z</time>
      </trkpt>
      <trkpt lat="48.88261" lon="2.37022">
        <ele>123.7</ele>
        <time>2013-08-06T19:41:27.000Z</time>
      </trkpt>
      <trkpt lat="48.88264" lon="2.37022">
        <ele>121.6</ele>
        <time>2013-08-06T19:41:28.000Z</time>
      </trkpt>
      <trkpt lat="48.88267" lon="2.37022">
        <ele>119.7</ele>
        <time>2013-08-06T19:41:29.000Z</time>
      </trkpt>
      <trkpt lat="48.8827" lon="2.37022">
        <ele>117.8</ele>
        <time>2013-08-06T19:41:30.000Z</time>
      </trkpt>
      <trkpt lat="48.88273" lon="2.37022">
        <ele>116.5</ele>
        <time>2013-08-06T19:41:31.000Z</time>
      </trkpt>
      <trkpt lat="48.88276" lon="2.37022">
        <ele>115.4</ele>
        <time>2013-08-06T19:41:32.000Z</time>
      </trkpt>
      <trkpt lat="48.8828" lon="2.37022">
        <ele>115.2</ele>
        <time>2013-08-06T19:41:33.000Z</time>
      </trkpt>
      <trkpt lat="48.88283" lon="2.37024">
        <ele>116.5</ele>
        <time>2013-08-06T19:41:34.000Z</time>
      </trkpt>
      <trkpt lat="48.88285" lon="2.37026">
        <ele>116.2</ele>
        <time>2013-08-06T19:41:35.000Z</time>
      </trkpt>
      <trkpt lat="48.88288" lon="2.37028">
        <ele>115.1</ele>
        <time>2013-08-06T19:41:36.000Z</time>
      </trkpt>
      <trkpt lat="48.88292" lon="2.37027">
        <ele>113.9</ele>
        <time>2013-08-06T19:41:37.933Z</time>
      </trkpt>
      <trkpt lat="48.88294" lon="2.37025">
        <ele>112.3</ele>
        <time>2013-08-06T19:41:39.000Z</time>
      </trkpt>
      <trkpt lat="48.88297" lon="2.3703">
        <ele>107.4</ele>
        <time>2013-08-06T19:41:48.000Z</time>
      </trkpt>
      <trkpt lat="48.88297" lon="2.3703">
        <ele>106.8</ele>
        <time>2013-08-06T19:41:49.000Z</time>
      </trkpt>
      <trkpt lat="48.883" lon="2.37025">
        <ele>98.3</ele>
        <time>2013-08-06T19:43:25.000Z</time>
      </trkpt>
      <trkpt lat="48.88301" lon="2.37023">
        <ele>99.2</ele>
        <time>2013-08-06T19:43:26.000Z</time>
      </trkpt>
      <trkpt lat="48.88302" lon="2.3702">
        <ele>99.7</ele>
        <time>2013-08-06T19:43:27.000Z</time>
      </trkpt>
      <trkpt lat="48.88305" lon="2.37017">
        <ele>99.7</ele>
        <time>2013-08-06T19:43:28.000Z</time>
      </trkpt>
      <trkpt lat="48.88307" lon="2.37013">
        <ele>100.2</ele>
        <time>2013-08-06T19:43:29.000Z</time>
      </trkpt>
      <trkpt lat="48.88309" lon="2.3701">
        <ele>100</ele>
        <time>2013-08-06T19:43:30.000Z</time>
      </trkpt>
      <trkpt lat="48.88311" lon="2.37007">
        <ele>99.8</ele>
        <time>2013-08-06T19:43:31.000Z</time>
      </trkpt>
      <trkpt lat="48.88314" lon="2.37005">
        <ele>100.2</ele>
        <time>2013-08-06T19:43:32.000Z</time>
      </trkpt>
      <trkpt lat="48.88316" lon="2.37002">
        <ele>100.7</ele>
        <time>2013-08-06T19:43:33.000Z</time>
      </trkpt>
      <trkpt lat="48.88318" lon="2.36999">
        <ele>101.2</ele>
        <time>2013-08-06T19:43:34.000Z</time>
      </trkpt>
      <trkpt lat="48.8832" lon="2.36996">
        <ele>101.9</ele>
        <time>2013-08-06T19:43:35.000Z</time>
      </trkpt>
      <trkpt lat="48.88323" lon="2.36993">
        <ele>102.6</ele>
        <time>2013-08-06T19:43:36.000Z</time>
      </trkpt>
      <trkpt lat="48.88326" lon="2.36991">
        <ele>102.5</ele>
        <time>2013-08-06T19:43:37.000Z</time>
      </trkpt>
      <trkpt lat="48.88329" lon="2.3699">
        <ele>102.2</ele>
        <time>2013-08-06T19:43:38.000Z</time>
      </trkpt>
      <trkpt lat="48.88332" lon="2.36988">
        <ele>102.5</ele>
        <time>2013-08-06T19:43:39.000Z</time>
      </trkpt>
      <trkpt lat="48.88334" lon="2.36987">
        <ele>102</ele>
        <time>2013-08-06T19:43:40.000Z</time>
      </trkpt>
      <trkpt lat="48.88338" lon="2.36987">
        <ele>101.4</ele>
        <time>2013-08-06T19:43:41.000Z</time>
      </trkpt>
      <trkpt lat="48.88341" lon="2.36986">
        <ele>101</ele>
        <time>2013-08-06T19:43:42.000Z</time>
      </trkpt>
      <trkpt lat="48.88344" lon="2.36986">
        <ele>100.4</ele>
        <time>2013-08-06T19:43:43.000Z</time>
      </trkpt>
      <trkpt lat="48.88347" lon="2.36985">
        <ele>100.9</ele>
        <time>2013-08-06T19:43:44.000Z</time>
      </trkpt>
      <trkpt lat="48.8835" lon="2.36984">
        <ele>101.7</ele>
        <time>2013-08-06T19:43:45.000Z</time>
      </trkpt>
      <trkpt lat="48.88352" lon="2.36983">
        <ele>100.9</ele>
        <time>2013-08-06T19:43:46.000Z</time>
      </trkpt>
      <trkpt lat="48.88355" lon="2.36982">
        <ele>101</ele>
        <time>2013-08-06T19:43:47.000Z</time>
      </trkpt>
      <trkpt lat="48.88358" lon="2.36981">
        <ele>99.8</ele>
        <time>2013-08-06T19:43:48.000Z</time>
      </trkpt>
      <trkpt lat="48.8836" lon="2.3698">
        <ele>99.8</ele>
        <time>2013-08-06T19:43:49.000Z</time>
      </trkpt>
      <trkpt lat="48.88363" lon="2.36978">
        <ele>99.6</ele>
        <time>2013-08-06T19:43:50.000Z</time>
      </trkpt>
      <trkpt lat="48.88365" lon="2.36976">
        <ele>99.5</ele>
        <time>2013-08-06T19:43:51.000Z</time>
      </trkpt>
      <trkpt lat="48.88367" lon="2.36973">
        <ele>98.8</ele>
        <time>2013-08-06T19:43:52.000Z</time>
      </trkpt>
      <trkpt lat="48.88369" lon="2.3697">
        <ele>98.9</ele>
        <time>2013-08-06T19:43:53.000Z</time>
      </trkpt>
      <trkpt lat="48.8837" lon="2.36966">
        <ele>99.1</ele>
        <time>2013-08-06T19:43:54.000Z</time>
      </trkpt>
      <trkpt lat="48.88371" lon="2.36963">
        <ele>98.9</ele>
        <time>2013-08-06T19:43:55.000Z</time>
      </trkpt>
      <trkpt lat="48.88372" lon="2.36959">
        <ele>98.4</ele>
        <time>2013-08-06T19:43:56.000Z</time>
      </trkpt>
      <trkpt lat="48.88374" lon="2.36955">
        <ele>98.5</ele>
        <time>2013-08-06T19:43:57.000Z</time>
      </trkpt>
      <trkpt lat="48.88375" lon="2.36951">
        <ele>99.6</ele>
        <time>2013-08-06T19:43:58.000Z</time>
      </trkpt>
      <trkpt lat="48.88376" lon="2.36947">
        <ele>99.1</ele>
        <time>2013-08-06T19:43:59.000Z</time>
      </trkpt>
      <trkpt lat="48.88378" lon="2.36943">
        <ele>98.5</ele>
        <time>2013-08-06T19:44:00.000Z</time>
      </trkpt>
      <trkpt lat="48.88379" lon="2.36938">
        <ele>98</ele>
        <time>2013-08-06T19:44:01.000Z</time>
      </trkpt>
      <trkpt lat="48.88381" lon="2.36933">
        <ele>97.7</ele>
        <time>2013-08-06T19:44:02.000Z</time>
      </trkpt>
      <trkpt lat="48.88383" lon="2.36929">
        <ele>97.8</ele>
        <time>2013-08-06T19:44:03.000Z</time>
      </trkpt>
      <trkpt lat="48.88385" lon="2.36925">
        <ele>97.9</ele>
        <time>2013-08-06T19:44:04.000Z</time>
      </trkpt>
      <trkpt lat="48.88387" lon="2.36921">
        <ele>98.3</ele>
        <time>2013-08-06T19:44:05.000Z</time>
      </trkpt>
      <trkpt lat="48.88389" lon="2.36917">
        <ele>98.5</ele>
        <time>2013-08-06T19:44:06.000Z</time>
      </trkpt>
      <trkpt lat="48.88391" lon="2.36913">
        <ele>98.9</ele>
        <time>2013-08-06T19:44:07.000Z</time>
      </trkpt>
      <trkpt lat="48.88393" lon="2.3691">
        <ele>97.3</ele>
        <time>2013-08-06T19:44:08.000Z</time>
      </trkpt>
      <trkpt lat="48.88395" lon="2.36907">
        <ele>97.3</ele>
        <time>2013-08-06T19:44:09.000Z</time>
      </trkpt>
      <trkpt lat="48.88398" lon="2.36905">
        <ele>96.5</ele>
        <time>2013-08-06T19:44:10.000Z</time>
      </trkpt>
      <trkpt lat="48.88401" lon="2.36903">
        <ele>96.9</ele>
        <time>2013-08-06T19:44:11.000Z</time>
      </trkpt>
      <trkpt lat="48.88403" lon="2.36902">
        <ele>97</ele>
        <time>2013-08-06T19:44:12.000Z</time>
      </trkpt>
      <trkpt lat="48.88407" lon="2.36903">
        <ele>96.8</ele>
        <time>2013-08-06T19:44:14.000Z</time>
      </trkpt>
      <trkpt lat="48.88408" lon="2.36904">
        <ele>96.7</ele>
        <time>2013-08-06T19:44:15.000Z</time>
      </trkpt>
      <trkpt lat="48.88411" lon="2.36902">
        <ele>98.1</ele>
        <time>2013-08-06T19:45:15.000Z</time>
      </trkpt>
      <trkpt lat="48.88412" lon="2.36899">
        <ele>98.1</ele>
        <time>2013-08-06T19:45:16.000Z</time>
      </trkpt>
      <trkpt lat="48.88415" lon="2.36894">
        <ele>97.5</ele>
        <time>2013-08-06T19:45:18.000Z</time>
      </trkpt>
      <trkpt lat="48.88416" lon="2.3689">
        <ele>95.7</ele>
        <time>2013-08-06T19:45:19.000Z</time>
      </trkpt>
      <trkpt lat="48.88417" lon="2.36887">
        <ele>96.3</ele>
        <time>2013-08-06T19:45:20.000Z</time>
      </trkpt>
      <trkpt lat="48.88419" lon="2.36884">
        <ele>94.7</ele>
        <time>2013-08-06T19:45:21.000Z</time>
      </trkpt>
      <trkpt lat="48.8842" lon="2.36882">
        <ele>94.2</ele>
        <time>2013-08-06T19:45:22.000Z</time>
      </trkpt>
      <trkpt lat="48.88422" lon="2.36879">
        <ele>95.1</ele>
        <time>2013-08-06T19:45:23.000Z</time>
      </trkpt>
      <trkpt lat="48.88425" lon="2.36875">
        <ele>94.1</ele>
        <time>2013-08-06T19:45:25.000Z</time>
      </trkpt>
      <trkpt lat="48.88428" lon="2.36872">
        <ele>93</ele>
        <time>2013-08-06T19:45:26.000Z</time>
      </trkpt>
      <trkpt lat="48.8843" lon="2.3687">
        <ele>92.5</ele>
        <time>2013-08-06T19:45:27.000Z</time>
      </trkpt>
      <trkpt lat="48.88432" lon="2.36868">
        <ele>93.6</ele>
        <time>2013-08-06T19:45:28.000Z</time>
      </trkpt>
      <trkpt lat="48.88434" lon="2.36863">
        <ele>93.9</ele>
        <time>2013-08-06T19:45:30.000Z</time>
      </trkpt>
      <trkpt lat="48.88434" lon="2.3686">
        <ele>93.2</ele>
        <time>2013-08-06T19:45:31.000Z</time>
      </trkpt>
      <trkpt lat="48.88433" lon="2.36856">
        <ele>95.1</ele>
        <time>2013-08-06T19:45:32.000Z</time>
      </trkpt>
      <trkpt lat="48.88433" lon="2.36852">
        <ele>94.2</ele>
        <time>2013-08-06T19:45:33.000Z</time>
      </trkpt>
      <trkpt lat="48.88433" lon="2.36848">
        <ele>93.6</ele>
        <time>2013-08-06T19:45:34.000Z</time>
      </trkpt>
      <trkpt lat="48.88434" lon="2.36844">
        <ele>93.2</ele>
        <time>2013-08-06T19:45:35.000Z</time>
      </trkpt>
      <trkpt lat="48.88434" lon="2.36839">
        <ele>93.3</ele>
        <time>2013-08-06T19:45:36.000Z</time>
      </trkpt>
      <trkpt lat="48.88436" lon="2.3683">
        <ele>93</ele>
        <time>2013-08-06T19:45:37.988Z</time>
      </trkpt>
      <trkpt lat="48.88436" lon="2.36825">
        <ele>93.3</ele>
        <time>2013-08-06T19:45:39.000Z</time>
      </trkpt>
      <trkpt lat="48.88436" lon="2.36819">
        <ele>93.7</ele>
        <time>2013-08-06T19:45:40.000Z</time>
      </trkpt>
      <trkpt lat="48.88436" lon="2.36812">
        <ele>93.8</ele>
        <time>2013-08-06T19:45:41.000Z</time>
      </trkpt>
      <trkpt lat="48.88436" lon="2.36806">
        <ele>93.9</ele>
        <time>2013-08-06T19:45:42.000Z</time>
      </trkpt>
      <trkpt lat="48.88437" lon="2.36802">
        <ele>94</ele>
        <time>2013-08-06T19:45:43.000Z</time>
      </trkpt>
      <trkpt lat="48.88436" lon="2.36796">
        <ele>96.2</ele>
        <time>2013-08-06T19:45:44.000Z</time>
      </trkpt>
      <trkpt lat="48.88436" lon="2.36791">
        <ele>96.5</ele>
        <time>2013-08-06T19:45:45.000Z</time>
      </trkpt>
      <trkpt lat="48.88437" lon="2.36786">
        <ele>94.6</ele>
        <time>2013-08-06T19:45:46.000Z</time>
      </trkpt>
      <trkpt lat="48.88437" lon="2.36782">
        <ele>94.2</ele>
        <time>2013-08-06T19:45:47.000Z</time>
      </trkpt>
      <trkpt lat="48.8844" lon="2.36778">
        <ele>92.7</ele>
        <time>2013-08-06T19:45:50.000Z</time>
      </trkpt>
      <trkpt lat="48.8844" lon="2.36775">
        <ele>91.6</ele>
        <time>2013-08-06T19:45:51.000Z</time>
      </trkpt>
      <trkpt lat="48.88441" lon="2.36772">
        <ele>91.4</ele>
        <time>2013-08-06T19:45:52.000Z</time>
      </trkpt>
      <trkpt lat="48.88442" lon="2.36768">
        <ele>92.2</ele>
        <time>2013-08-06T19:45:53.000Z</time>
      </trkpt>
      <trkpt lat="48.88441" lon="2.36764">
        <ele>93.9</ele>
        <time>2013-08-06T19:45:54.000Z</time>
      </trkpt>
      <trkpt lat="48.88441" lon="2.3676">
        <ele>95.3</ele>
        <time>2013-08-06T19:45:55.000Z</time>
      </trkpt>
      <trkpt lat="48.8844" lon="2.36756">
        <ele>96.3</ele>
        <time>2013-08-06T19:45:56.000Z</time>
      </trkpt>
      <trkpt lat="48.8844" lon="2.36754">
        <ele>96.2</ele>
        <time>2013-08-06T19:45:57.000Z</time>
      </trkpt>
      <trkpt lat="48.88439" lon="2.36748">
        <ele>96.2</ele>
        <time>2013-08-06T19:45:58.000Z</time>
      </trkpt>
      <trkpt lat="48.88439" lon="2.36743">
        <ele>96.2</ele>
        <time>2013-08-06T19:45:59.000Z</time>
      </trkpt>
      <trkpt lat="48.88439" lon="2.36736">
        <ele>96.2</ele>
        <time>2013-08-06T19:46:00.000Z</time>
      </trkpt>
      <trkpt lat="48.8844" lon="2.36729">
        <ele>99</ele>
        <time>2013-08-06T19:46:01.000Z</time>
      </trkpt>
      <trkpt lat="48.8844" lon="2.36722">
        <ele>98.1</ele>
        <time>2013-08-06T19:46:02.000Z</time>
      </trkpt>
      <trkpt lat="48.8844" lon="2.36715">
        <ele>98.2</ele>
        <time>2013-08-06T19:46:03.000Z</time>
      </trkpt>
      <trkpt lat="48.8844" lon="2.36707">
        <ele>97.3</ele>
        <time>2013-08-06T19:46:04.000Z</time>
      </trkpt>
      <trkpt lat="48.8844" lon="2.367">
        <ele>97.5</ele>
        <time>2013-08-06T19:46:05.000Z</time>
      </trkpt>
      <trkpt lat="48.88439" lon="2.36692">
        <ele>98</ele>
        <time>2013-08-06T19:46:06.000Z</time>
      </trkpt>
      <trkpt lat="48.88439" lon="2.36685">
        <ele>98.4</ele>
        <time>2013-08-06T19:46:07.000Z</time>
      </trkpt>
      <trkpt lat="48.88439" lon="2.36678">
        <ele>98</ele>
        <time>2013-08-06T19:46:08.000Z</time>
      </trkpt>
      <trkpt lat="48.88439" lon="2.36671">
        <ele>99.1</ele>
        <time>2013-08-06T19:46:09.000Z</time>
      </trkpt>
      <trkpt lat="48.88439" lon="2.36664">
        <ele>100.8</ele>
        <time>2013-08-06T19:46:10.000Z</time>
      </trkpt>
      <trkpt lat="48.88439" lon="2.36658">
        <ele>102.5</ele>
        <time>2013-08-06T19:46:11.000Z</time>
      </trkpt>
      <trkpt lat="48.88439" lon="2.36652">
        <ele>103.2</ele>
        <time>2013-08-06T19:46:12.000Z</time>
      </trkpt>
      <trkpt lat="48.8844" lon="2.36645">
        <ele>102.7</ele>
        <time>2013-08-06T19:46:13.000Z</time>
      </trkpt>
      <trkpt lat="48.88441" lon="2.36639">
        <ele>102.8</ele>
        <time>2013-08-06T19:46:14.000Z</time>
      </trkpt>
      <trkpt lat="48.88442" lon="2.36632">
        <ele>102.2</ele>
        <time>2013-08-06T19:46:15.000Z</time>
      </trkpt>
      <trkpt lat="48.88443" lon="2.36626">
        <ele>101.7</ele>
        <time>2013-08-06T19:46:16.000Z</time>
      </trkpt>
      <trkpt lat="48.88443" lon="2.36619">
        <ele>101.6</ele>
        <time>2013-08-06T19:46:17.000Z</time>
      </trkpt>
      <trkpt lat="48.88444" lon="2.36613">
        <ele>101.4</ele>
        <time>2013-08-06T19:46:18.000Z</time>
      </trkpt>
      <trkpt lat="48.88445" lon="2.36602">
        <ele>102.8</ele>
        <time>2013-08-06T19:46:19.000Z</time>
      </trkpt>
      <trkpt lat="48.88446" lon="2.36594">
        <ele>102.6</ele>
        <time>2013-08-06T19:46:20.000Z</time>
      </trkpt>
      <trkpt lat="48.88446" lon="2.36586">
        <ele>102.5</ele>
        <time>2013-08-06T19:46:21.000Z</time>
      </trkpt>
      <trkpt lat="48.88448" lon="2.36579">
        <ele>103</ele>
        <time>2013-08-06T19:46:22.000Z</time>
      </trkpt>
      <trkpt lat="48.88447" lon="2.36572">
        <ele>104.5</ele>
        <time>2013-08-06T19:46:23.000Z</time>
      </trkpt>
      <trkpt lat="48.88446" lon="2.36566">
        <ele>105.4</ele>
        <time>2013-08-06T19:46:24.000Z</time>
      </trkpt>
      <trkpt lat="48.88446" lon="2.36558">
        <ele>105.2</ele>
        <time>2013-08-06T19:46:25.000Z</time>
      </trkpt>
      <trkpt lat="48.88448" lon="2.36551">
        <ele>104.7</ele>
        <time>2013-08-06T19:46:26.000Z</time>
      </trkpt>
      <trkpt lat="48.88448" lon="2.36545">
        <ele>105</ele>
        <time>2013-08-06T19:46:27.000Z</time>
      </trkpt>
      <trkpt lat="48.88447" lon="2.36538">
        <ele>104.7</ele>
        <time>2013-08-06T19:46:28.000Z</time>
      </trkpt>
      <trkpt lat="48.88448" lon="2.36531">
        <ele>104</ele>
        <time>2013-08-06T19:46:29.000Z</time>
      </trkpt>
      <trkpt lat="48.88448" lon="2.36525">
        <ele>103.5</ele>
        <time>2013-08-06T19:46:30.000Z</time>
      </trkpt>
      <trkpt lat="48.88449" lon="2.36519">
        <ele>103.9</ele>
        <time>2013-08-06T19:46:31.000Z</time>
      </trkpt>
      <trkpt lat="48.88449" lon="2.36512">
        <ele>105.6</ele>
        <time>2013-08-06T19:46:32.000Z</time>
      </trkpt>
      <trkpt lat="48.8845" lon="2.36507">
        <ele>108</ele>
        <time>2013-08-06T19:46:33.000Z</time>
      </trkpt>
      <trkpt lat="48.8845" lon="2.36502">
        <ele>109.2</ele>
        <time>2013-08-06T19:46:34.000Z</time>
      </trkpt>
      <trkpt lat="48.8845" lon="2.36496">
        <ele>109.5</ele>
        <time>2013-08-06T19:46:35.000Z</time>
      </trkpt>
      <trkpt lat="48.88449" lon="2.3649">
        <ele>109.6</ele>
        <time>2013-08-06T19:46:36.000Z</time>
      </trkpt>
      <trkpt lat="48.88448" lon="2.36477">
        <ele>109.8</ele>
        <time>2013-08-06T19:46:37.850Z</time>
      </trkpt>
      <trkpt lat="48.88449" lon="2.36469">
        <ele>105.9</ele>
        <time>2013-08-06T19:46:39.000Z</time>
      </trkpt>
      <trkpt lat="48.8845" lon="2.36463">
        <ele>103.7</ele>
        <time>2013-08-06T19:46:40.000Z</time>
      </trkpt>
      <trkpt lat="48.88451" lon="2.36456">
        <ele>104</ele>
        <time>2013-08-06T19:46:41.000Z</time>
      </trkpt>
      <trkpt lat="48.88451" lon="2.36449">
        <ele>102.9</ele>
        <time>2013-08-06T19:46:42.000Z</time>
      </trkpt>
      <trkpt lat="48.88451" lon="2.36442">
        <ele>103.4</ele>
        <time>2013-08-06T19:46:43.000Z</time>
      </trkpt>
      <trkpt lat="48.88452" lon="2.36436">
        <ele>102.6</ele>
        <time>2013-08-06T19:46:44.000Z</time>
      </trkpt>
      <trkpt lat="48.88453" lon="2.3643">
        <ele>102.9</ele>
        <time>2013-08-06T19:46:45.000Z</time>
      </trkpt>
      <trkpt lat="48.88454" lon="2.36424">
        <ele>102.9</ele>
        <time>2013-08-06T19:46:46.000Z</time>
      </trkpt>
      <trkpt lat="48.88455" lon="2.36418">
        <ele>102.5</ele>
        <time>2013-08-06T19:46:47.000Z</time>
      </trkpt>
      <trkpt lat="48.88456" lon="2.36413">
        <ele>102.6</ele>
        <time>2013-08-06T19:46:48.000Z</time>
      </trkpt>
      <trkpt lat="48.88456" lon="2.36409">
        <ele>103.4</ele>
        <time>2013-08-06T19:46:49.000Z</time>
      </trkpt>
      <trkpt lat="48.88457" lon="2.36404">
        <ele>103.7</ele>
        <time>2013-08-06T19:46:50.000Z</time>
      </trkpt>
      <trkpt lat="48.88458" lon="2.36399">
        <ele>104</ele>
        <time>2013-08-06T19:46:51.000Z</time>
      </trkpt>
      <trkpt lat="48.88458" lon="2.36394">
        <ele>104.3</ele>
        <time>2013-08-06T19:46:52.000Z</time>
      </trkpt>
      <trkpt lat="48.88457" lon="2.3639">
        <ele>104.6</ele>
        <time>2013-08-06T19:46:53.000Z</time>
      </trkpt>
      <trkpt lat="48.88457" lon="2.36385">
        <ele>103.8</ele>
        <time>2013-08-06T19:46:54.000Z</time>
      </trkpt>
      <trkpt lat="48.88457" lon="2.3638">
        <ele>102.9</ele>
        <time>2013-08-06T19:46:55.000Z</time>
      </trkpt>
      <trkpt lat="48.88457" lon="2.36375">
        <ele>102</ele>
        <time>2013-08-06T19:46:56.000Z</time>
      </trkpt>
      <trkpt lat="48.88457" lon="2.36369">
        <ele>103.4</ele>
        <time>2013-08-06T19:46:57.000Z</time>
      </trkpt>
      <trkpt lat="48.88457" lon="2.36364">
        <ele>102.8</ele>
        <time>2013-08-06T19:46:58.000Z</time>
      </trkpt>
      <trkpt lat="48.88457" lon="2.36358">
        <ele>100.9</ele>
        <time>2013-08-06T19:46:59.000Z</time>
      </trkpt>
      <trkpt lat="48.88457" lon="2.36352">
        <ele>98.9</ele>
        <time>2013-08-06T19:47:00.000Z</time>
      </trkpt>
      <trkpt lat="48.88457" lon="2.36347">
        <ele>98.6</ele>
        <time>2013-08-06T19:47:01.000Z</time>
      </trkpt>
      <trkpt lat="48.88457" lon="2.36342">
        <ele>99.1</ele>
        <time>2013-08-06T19:47:02.000Z</time>
      </trkpt>
      <trkpt lat="48.88457" lon="2.36337">
        <ele>101.1</ele>
        <time>2013-08-06T19:47:03.000Z</time>
      </trkpt>
      <trkpt lat="48.88456" lon="2.36333">
        <ele>102.4</ele>
        <time>2013-08-06T19:47:04.000Z</time>
      </trkpt>
      <trkpt lat="48.88456" lon="2.36328">
        <ele>101.6</ele>
        <time>2013-08-06T19:47:05.000Z</time>
      </trkpt>
      <trkpt lat="48.88456" lon="2.36323">
        <ele>102.1</ele>
        <time>2013-08-06T19:47:06.000Z</time>
      </trkpt>
      <trkpt lat="48.88456" lon="2.36317">
        <ele>102.8</ele>
        <time>2013-08-06T19:47:07.000Z</time>
      </trkpt>
      <trkpt lat="48.88456" lon="2.36311">
        <ele>103.4</ele>
        <time>2013-08-06T19:47:08.000Z</time>
      </trkpt>
      <trkpt lat="48.88455" lon="2.36304">
        <ele>104.4</ele>
        <time>2013-08-06T19:47:09.000Z</time>
      </trkpt>
      <trkpt lat="48.88455" lon="2.36298">
        <ele>104.2</ele>
        <time>2013-08-06T19:47:10.000Z</time>
      </trkpt>
      <trkpt lat="48.88455" lon="2.36291">
        <ele>104.9</ele>
        <time>2013-08-06T19:47:11.000Z</time>
      </trkpt>
      <trkpt lat="48.88455" lon="2.36285">
        <ele>105.9</ele>
        <time>2013-08-06T19:47:12.000Z</time>
      </trkpt>
      <trkpt lat="48.88455" lon="2.36278">
        <ele>108.3</ele>
        <time>2013-08-06T19:47:13.000Z</time>
      </trkpt>
      <trkpt lat="48.88454" lon="2.36272">
        <ele>107.9</ele>
        <time>2013-08-06T19:47:14.000Z</time>
      </trkpt>
      <trkpt lat="48.88454" lon="2.36266">
        <ele>107.7</ele>
        <time>2013-08-06T19:47:15.000Z</time>
      </trkpt>
      <trkpt lat="48.88453" lon="2.36261">
        <ele>108.3</ele>
        <time>2013-08-06T19:47:16.000Z</time>
      </trkpt>
      <trkpt lat="48.88452" lon="2.36256">
        <ele>109.8</ele>
        <time>2013-08-06T19:47:17.000Z</time>
      </trkpt>
      <trkpt lat="48.88451" lon="2.36251">
        <ele>110.7</ele>
        <time>2013-08-06T19:47:18.000Z</time>
      </trkpt>
      <trkpt lat="48.8845" lon="2.36246">
        <ele>111.4</ele>
        <time>2013-08-06T19:47:19.000Z</time>
      </trkpt>
      <trkpt lat="48.8845" lon="2.3624">
        <ele>110.5</ele>
        <time>2013-08-06T19:47:20.000Z</time>
      </trkpt>
      <trkpt lat="48.8845" lon="2.36235">
        <ele>108.9</ele>
        <time>2013-08-06T19:47:21.000Z</time>
      </trkpt>
      <trkpt lat="48.88451" lon="2.36229">
        <ele>110.5</ele>
        <time>2013-08-06T19:47:22.000Z</time>
      </trkpt>
      <trkpt lat="48.88452" lon="2.36223">
        <ele>110.5</ele>
        <time>2013-08-06T19:47:23.000Z</time>
      </trkpt>
      <trkpt lat="48.88452" lon="2.36215">
        <ele>109.4</ele>
        <time>2013-08-06T19:47:24.000Z</time>
      </trkpt>
      <trkpt lat="48.88453" lon="2.36208">
        <ele>109.4</ele>
        <time>2013-08-06T19:47:25.000Z</time>
      </trkpt>
      <trkpt lat="48.88452" lon="2.36201">
        <ele>110.6</ele>
        <time>2013-08-06T19:47:26.000Z</time>
      </trkpt>
      <trkpt lat="48.88452" lon="2.36194">
        <ele>110.2</ele>
        <time>2013-08-06T19:47:27.000Z</time>
      </trkpt>
      <trkpt lat="48.88452" lon="2.36188">
        <ele>110.9</ele>
        <time>2013-08-06T19:47:28.000Z</time>
      </trkpt>
      <trkpt lat="48.88453" lon="2.36182">
        <ele>111.2</ele>
        <time>2013-08-06T19:47:29.000Z</time>
      </trkpt>
      <trkpt lat="48.88453" lon="2.36177">
        <ele>112</ele>
        <time>2013-08-06T19:47:30.000Z</time>
      </trkpt>
      <trkpt lat="48.88453" lon="2.36172">
        <ele>112</ele>
        <time>2013-08-06T19:47:31.000Z</time>
      </trkpt>
      <trkpt lat="48.88453" lon="2.36167">
        <ele>112.1</ele>
        <time>2013-08-06T19:47:32.000Z</time>
      </trkpt>
      <trkpt lat="48.88453" lon="2.36162">
        <ele>112</ele>
        <time>2013-08-06T19:47:33.000Z</time>
      </trkpt>
      <trkpt lat="48.88454" lon="2.36157">
        <ele>111.9</ele>
        <time>2013-08-06T19:47:34.000Z</time>
      </trkpt>
      <trkpt lat="48.88454" lon="2.36152">
        <ele>111.9</ele>
        <time>2013-08-06T19:47:35.000Z</time>
      </trkpt>
      <trkpt lat="48.88454" lon="2.36147">
        <ele>113.2</ele>
        <time>2013-08-06T19:47:36.000Z</time>
      </trkpt>
      <trkpt lat="48.88453" lon="2.36138">
        <ele>115</ele>
        <time>2013-08-06T19:47:37.921Z</time>
      </trkpt>
      <trkpt lat="48.88452" lon="2.36133">
        <ele>114.7</ele>
        <time>2013-08-06T19:47:39.000Z</time>
      </trkpt>
      <trkpt lat="48.88452" lon="2.36127">
        <ele>114.4</ele>
        <time>2013-08-06T19:47:40.000Z</time>
      </trkpt>
      <trkpt lat="48.88452" lon="2.36122">
        <ele>114.4</ele>
        <time>2013-08-06T19:47:41.000Z</time>
      </trkpt>
      <trkpt lat="48.88451" lon="2.36116">
        <ele>114.4</ele>
        <time>2013-08-06T19:47:42.000Z</time>
      </trkpt>
      <trkpt lat="48.88451" lon="2.36108">
        <ele>114.4</ele>
        <time>2013-08-06T19:47:43.000Z</time>
      </trkpt>
      <trkpt lat="48.88452" lon="2.36101">
        <ele>114</ele>
        <time>2013-08-06T19:47:44.000Z</time>
      </trkpt>
      <trkpt lat="48.88452" lon="2.36095">
        <ele>114</ele>
        <time>2013-08-06T19:47:45.000Z</time>
      </trkpt>
      <trkpt lat="48.88452" lon="2.36088">
        <ele>114.1</ele>
        <time>2013-08-06T19:47:46.000Z</time>
      </trkpt>
      <trkpt lat="48.88452" lon="2.36082">
        <ele>114.5</ele>
        <time>2013-08-06T19:47:47.000Z</time>
      </trkpt>
      <trkpt lat="48.88452" lon="2.36075">
        <ele>114.4</ele>
        <time>2013-08-06T19:47:48.000Z</time>
      </trkpt>
      <trkpt lat="48.88452" lon="2.36068">
        <ele>114.2</ele>
        <time>2013-08-06T19:47:49.000Z</time>
      </trkpt>
      <trkpt lat="48.88452" lon="2.36062">
        <ele>114.1</ele>
        <time>2013-08-06T19:47:50.000Z</time>
      </trkpt>
      <trkpt lat="48.88453" lon="2.36056">
        <ele>112.3</ele>
        <time>2013-08-06T19:47:51.000Z</time>
      </trkpt>
      <trkpt lat="48.88454" lon="2.3605">
        <ele>114.2</ele>
        <time>2013-08-06T19:47:52.000Z</time>
      </trkpt>
      <trkpt lat="48.88454" lon="2.36045">
        <ele>114.9</ele>
        <time>2013-08-06T19:47:53.000Z</time>
      </trkpt>
      <trkpt lat="48.88455" lon="2.3604">
        <ele>112.7</ele>
        <time>2013-08-06T19:47:54.000Z</time>
      </trkpt>
      <trkpt lat="48.88456" lon="2.36035">
        <ele>112.6</ele>
        <time>2013-08-06T19:47:55.000Z</time>
      </trkpt>
      <trkpt lat="48.88457" lon="2.3603">
        <ele>112.6</ele>
        <time>2013-08-06T19:47:56.000Z</time>
      </trkpt>
      <trkpt lat="48.88456" lon="2.36023">
        <ele>114.5</ele>
        <time>2013-08-06T19:47:57.000Z</time>
      </trkpt>
      <trkpt lat="48.88455" lon="2.36017">
        <ele>113.8</ele>
        <time>2013-08-06T19:47:58.000Z</time>
      </trkpt>
      <trkpt lat="48.88453" lon="2.36012">
        <ele>115.6</ele>
        <time>2013-08-06T19:47:59.000Z</time>
      </trkpt>
      <trkpt lat="48.88452" lon="2.36007">
        <ele>115.8</ele>
        <time>2013-08-06T19:48:00.000Z</time>
      </trkpt>
      <trkpt lat="48.8845" lon="2.36">
        <ele>111.2</ele>
        <time>2013-08-06T19:48:01.000Z</time>
      </trkpt>
      <trkpt lat="48.88448" lon="2.35994">
        <ele>110.4</ele>
        <time>2013-08-06T19:48:02.000Z</time>
      </trkpt>
      <trkpt lat="48.88447" lon="2.35987">
        <ele>107.4</ele>
        <time>2013-08-06T19:48:03.000Z</time>
      </trkpt>
      <trkpt lat="48.88447" lon="2.3598">
        <ele>104.8</ele>
        <time>2013-08-06T19:48:04.000Z</time>
      </trkpt>
      <trkpt lat="48.88447" lon="2.35974">
        <ele>102.3</ele>
        <time>2013-08-06T19:48:05.000Z</time>
      </trkpt>
      <trkpt lat="48.88448" lon="2.35968">
        <ele>100.5</ele>
        <time>2013-08-06T19:48:06.000Z</time>
      </trkpt>
      <trkpt lat="48.88449" lon="2.35963">
        <ele>99.3</ele>
        <time>2013-08-06T19:48:07.000Z</time>
      </trkpt>
      <trkpt lat="48.88449" lon="2.35958">
        <ele>97.1</ele>
        <time>2013-08-06T19:48:08.000Z</time>
      </trkpt>
      <trkpt lat="48.88449" lon="2.35954">
        <ele>97.8</ele>
        <time>2013-08-06T19:48:09.000Z</time>
      </trkpt>
      <trkpt lat="48.8845" lon="2.3595">
        <ele>99.4</ele>
        <time>2013-08-06T19:48:10.000Z</time>
      </trkpt>
      <trkpt lat="48.88451" lon="2.35946">
        <ele>99.1</ele>
        <time>2013-08-06T19:48:12.000Z</time>
      </trkpt>
      <trkpt lat="48.88452" lon="2.35944">
        <ele>96.9</ele>
        <time>2013-08-06T19:48:13.000Z</time>
      </trkpt>
      <trkpt lat="48.88455" lon="2.35938">
        <ele>96.9</ele>
        <time>2013-08-06T19:48:15.000Z</time>
      </trkpt>
      <trkpt lat="48.88456" lon="2.35936">
        <ele>97.8</ele>
        <time>2013-08-06T19:48:16.000Z</time>
      </trkpt>
      <trkpt lat="48.88459" lon="2.35933">
        <ele>97.7</ele>
        <time>2013-08-06T19:48:20.000Z</time>
      </trkpt>
      <trkpt lat="48.8846" lon="2.35931">
        <ele>98.5</ele>
        <time>2013-08-06T19:48:21.000Z</time>
      </trkpt>
      <trkpt lat="48.88459" lon="2.35925">
        <ele>98.5</ele>
        <time>2013-08-06T19:48:23.000Z</time>
      </trkpt>
      <trkpt lat="48.88458" lon="2.3592">
        <ele>98.7</ele>
        <time>2013-08-06T19:48:24.000Z</time>
      </trkpt>
      <trkpt lat="48.88458" lon="2.35916">
        <ele>98.7</ele>
        <time>2013-08-06T19:48:25.000Z</time>
      </trkpt>
      <trkpt lat="48.88457" lon="2.35912">
        <ele>98.1</ele>
        <time>2013-08-06T19:48:26.000Z</time>
      </trkpt>
      <trkpt lat="48.88457" lon="2.35908">
        <ele>99.7</ele>
        <time>2013-08-06T19:48:27.000Z</time>
      </trkpt>
      <trkpt lat="48.88457" lon="2.35905">
        <ele>102.6</ele>
        <time>2013-08-06T19:48:28.000Z</time>
      </trkpt>
      <trkpt lat="48.88456" lon="2.35899">
        <ele>102.7</ele>
        <time>2013-08-06T19:48:30.000Z</time>
      </trkpt>
      <trkpt lat="48.88455" lon="2.35896">
        <ele>101.1</ele>
        <time>2013-08-06T19:48:31.000Z</time>
      </trkpt>
      <trkpt lat="48.88454" lon="2.35902">
        <ele>103</ele>
        <time>2013-08-06T19:48:41.000Z</time>
      </trkpt>
      <trkpt lat="48.88454" lon="2.35904">
        <ele>103.2</ele>
        <time>2013-08-06T19:48:42.000Z</time>
      </trkpt>
      <trkpt lat="48.88457" lon="2.35908">
        <ele>100.9</ele>
        <time>2013-08-06T19:48:46.000Z</time>
      </trkpt>
      <trkpt lat="48.88458" lon="2.35908">
        <ele>100.9</ele>
        <time>2013-08-06T19:48:47.000Z</time>
      </trkpt>
      <trkpt lat="48.88459" lon="2.35902">
        <ele>103.2</ele>
        <time>2013-08-06T19:48:56.000Z</time>
      </trkpt>
      <trkpt lat="48.88459" lon="2.35899">
        <ele>105.2</ele>
        <time>2013-08-06T19:48:57.000Z</time>
      </trkpt>
      <trkpt lat="48.88459" lon="2.35895">
        <ele>108.1</ele>
        <time>2013-08-06T19:48:59.000Z</time>
      </trkpt>
      <trkpt lat="48.88459" lon="2.35891">
        <ele>109.6</ele>
        <time>2013-08-06T19:49:00.000Z</time>
      </trkpt>
      <trkpt lat="48.88459" lon="2.35887">
        <ele>109.8</ele>
        <time>2013-08-06T19:49:01.000Z</time>
      </trkpt>
      <trkpt lat="48.88458" lon="2.35883">
        <ele>110.1</ele>
        <time>2013-08-06T19:49:02.000Z</time>
      </trkpt>
      <trkpt lat="48.88458" lon="2.35878">
        <ele>111.3</ele>
        <time>2013-08-06T19:49:03.000Z</time>
      </trkpt>
      <trkpt lat="48.88457" lon="2.35873">
        <ele>109.6</ele>
        <time>2013-08-06T19:49:04.000Z</time>
      </trkpt>
      <trkpt lat="48.88457" lon="2.35869">
        <ele>108.7</ele>
        <time>2013-08-06T19:49:05.000Z</time>
      </trkpt>
      <trkpt lat="48.88457" lon="2.35865">
        <ele>110.1</ele>
        <time>2013-08-06T19:49:06.000Z</time>
      </trkpt>
      <trkpt lat="48.88457" lon="2.35858">
        <ele>111.9</ele>
        <time>2013-08-06T19:49:08.000Z</time>
      </trkpt>
      <trkpt lat="48.88456" lon="2.35855">
        <ele>112</ele>
        <time>2013-08-06T19:49:09.000Z</time>
      </trkpt>
      <trkpt lat="48.88456" lon="2.35852">
        <ele>111.7</ele>
        <time>2013-08-06T19:49:10.000Z</time>
      </trkpt>
      <trkpt lat="48.88456" lon="2.35848">
        <ele>113.8</ele>
        <time>2013-08-06T19:49:11.000Z</time>
      </trkpt>
      <trkpt lat="48.88456" lon="2.35842">
        <ele>112.9</ele>
        <time>2013-08-06T19:49:13.000Z</time>
      </trkpt>
      <trkpt lat="48.88456" lon="2.35839">
        <ele>112.5</ele>
        <time>2013-08-06T19:49:14.000Z</time>
      </trkpt>
      <trkpt lat="48.88457" lon="2.35833">
        <ele>109.6</ele>
        <time>2013-08-06T19:49:17.000Z</time>
      </trkpt>
      <trkpt lat="48.88457" lon="2.35832">
        <ele>109.3</ele>
        <time>2013-08-06T19:49:18.000Z</time>
      </trkpt>
      <trkpt lat="48.88455" lon="2.35825">
        <ele>106.4</ele>
        <time>2013-08-06T19:50:07.000Z</time>
      </trkpt>
      <trkpt lat="48.88455" lon="2.35825">
        <ele>106.3</ele>
        <time>2013-08-06T19:50:08.000Z</time>
      </trkpt>
      <trkpt lat="48.88453" lon="2.35822">
        <ele>108.8</ele>
        <time>2013-08-06T19:50:34.000Z</time>
      </trkpt>
      <trkpt lat="48.88453" lon="2.35819">
        <ele>109.6</ele>
        <time>2013-08-06T19:50:35.000Z</time>
      </trkpt>
      <trkpt lat="48.88452" lon="2.35815">
        <ele>108.1</ele>
        <time>2013-08-06T19:50:36.000Z</time>
      </trkpt>
      <trkpt lat="48.8845" lon="2.35808">
        <ele>108.1</ele>
        <time>2013-08-06T19:50:38.214Z</time>
      </trkpt>
      <trkpt lat="48.88449" lon="2.35803">
        <ele>109.5</ele>
        <time>2013-08-06T19:50:40.000Z</time>
      </trkpt>
      <trkpt lat="48.88449" lon="2.358">
        <ele>109.4</ele>
        <time>2013-08-06T19:50:41.000Z</time>
      </trkpt>
      <trkpt lat="48.88448" lon="2.35795">
        <ele>108.4</ele>
        <time>2013-08-06T19:50:42.000Z</time>
      </trkpt>
      <trkpt lat="48.88448" lon="2.35792">
        <ele>108.5</ele>
        <time>2013-08-06T19:50:43.000Z</time>
      </trkpt>
      <trkpt lat="48.88448" lon="2.35787">
        <ele>108.5</ele>
        <time>2013-08-06T19:50:44.000Z</time>
      </trkpt>
      <trkpt lat="48.88447" lon="2.35782">
        <ele>108.9</ele>
        <time>2013-08-06T19:50:45.000Z</time>
      </trkpt>
      <trkpt lat="48.88447" lon="2.35778">
        <ele>107.8</ele>
        <time>2013-08-06T19:50:46.000Z</time>
      </trkpt>
      <trkpt lat="48.88447" lon="2.35774">
        <ele>108.4</ele>
        <time>2013-08-06T19:50:47.000Z</time>
      </trkpt>
      <trkpt lat="48.88447" lon="2.3577">
        <ele>108.7</ele>
        <time>2013-08-06T19:50:48.000Z</time>
      </trkpt>
      <trkpt lat="48.88447" lon="2.35766">
        <ele>109.4</ele>
        <time>2013-08-06T19:50:49.000Z</time>
      </trkpt>
      <trkpt lat="48.88447" lon="2.35761">
        <ele>109.1</ele>
        <time>2013-08-06T19:50:50.000Z</time>
      </trkpt>
      <trkpt lat="48.88447" lon="2.35756">
        <ele>109.5</ele>
        <time>2013-08-06T19:50:51.000Z</time>
      </trkpt>
      <trkpt lat="48.88446" lon="2.35751">
        <ele>109.2</ele>
        <time>2013-08-06T19:50:52.000Z</time>
      </trkpt>
      <trkpt lat="48.88446" lon="2.35745">
        <ele>110</ele>
        <time>2013-08-06T19:50:53.000Z</time>
      </trkpt>
      <trkpt lat="48.88445" lon="2.3574">
        <ele>110.5</ele>
        <time>2013-08-06T19:50:54.000Z</time>
      </trkpt>
      <trkpt lat="48.88445" lon="2.35736">
        <ele>110.4</ele>
        <time>2013-08-06T19:50:55.000Z</time>
      </trkpt>
      <trkpt lat="48.88444" lon="2.3573">
        <ele>110.3</ele>
        <time>2013-08-06T19:50:56.000Z</time>
      </trkpt>
      <trkpt lat="48.88444" lon="2.35725">
        <ele>110.8</ele>
        <time>2013-08-06T19:50:57.000Z</time>
      </trkpt>
      <trkpt lat="48.88443" lon="2.35721">
        <ele>110.5</ele>
        <time>2013-08-06T19:50:58.000Z</time>
      </trkpt>
      <trkpt lat="48.88443" lon="2.35716">
        <ele>110.1</ele>
        <time>2013-08-06T19:50:59.000Z</time>
      </trkpt>
      <trkpt lat="48.88443" lon="2.35711">
        <ele>110</ele>
        <time>2013-08-06T19:51:00.000Z</time>
      </trkpt>
      <trkpt lat="48.88443" lon="2.35707">
        <ele>110.7</ele>
        <time>2013-08-06T19:51:01.000Z</time>
      </trkpt>
      <trkpt lat="48.88443" lon="2.35702">
        <ele>109.6</ele>
        <time>2013-08-06T19:51:02.000Z</time>
      </trkpt>
      <trkpt lat="48.88443" lon="2.35697">
        <ele>109.9</ele>
        <time>2013-08-06T19:51:03.000Z</time>
      </trkpt>
      <trkpt lat="48.88442" lon="2.35692">
        <ele>110.5</ele>
        <time>2013-08-06T19:51:04.000Z</time>
      </trkpt>
      <trkpt lat="48.88442" lon="2.35687">
        <ele>110.2</ele>
        <time>2013-08-06T19:51:05.000Z</time>
      </trkpt>
      <trkpt lat="48.88441" lon="2.35682">
        <ele>109.8</ele>
        <time>2013-08-06T19:51:06.000Z</time>
      </trkpt>
      <trkpt lat="48.88441" lon="2.35678">
        <ele>108.9</ele>
        <time>2013-08-06T19:51:07.000Z</time>
      </trkpt>
      <trkpt lat="48.88441" lon="2.35673">
        <ele>107.6</ele>
        <time>2013-08-06T19:51:08.000Z</time>
      </trkpt>
      <trkpt lat="48.88442" lon="2.35669">
        <ele>107</ele>
        <time>2013-08-06T19:51:09.000Z</time>
      </trkpt>
      <trkpt lat="48.88441" lon="2.35663">
        <ele>108.4</ele>
        <time>2013-08-06T19:51:11.000Z</time>
      </trkpt>
      <trkpt lat="48.88439" lon="2.3566">
        <ele>108.8</ele>
        <time>2013-08-06T19:51:12.000Z</time>
      </trkpt>
      <trkpt lat="48.88438" lon="2.35656">
        <ele>109.1</ele>
        <time>2013-08-06T19:51:14.000Z</time>
      </trkpt>
      <trkpt lat="48.88438" lon="2.35652">
        <ele>109.4</ele>
        <time>2013-08-06T19:51:15.000Z</time>
      </trkpt>
      <trkpt lat="48.88438" lon="2.35647">
        <ele>109.1</ele>
        <time>2013-08-06T19:51:16.000Z</time>
      </trkpt>
      <trkpt lat="48.88438" lon="2.35642">
        <ele>109</ele>
        <time>2013-08-06T19:51:17.000Z</time>
      </trkpt>
      <trkpt lat="48.88438" lon="2.35637">
        <ele>109.8</ele>
        <time>2013-08-06T19:51:18.000Z</time>
      </trkpt>
      <trkpt lat="48.88438" lon="2.35632">
        <ele>109.6</ele>
        <time>2013-08-06T19:51:19.000Z</time>
      </trkpt>
      <trkpt lat="48.88437" lon="2.35627">
        <ele>111.1</ele>
        <time>2013-08-06T19:51:20.000Z</time>
      </trkpt>
      <trkpt lat="48.88436" lon="2.35619">
        <ele>108.8</ele>
        <time>2013-08-06T19:51:21.000Z</time>
      </trkpt>
      <trkpt lat="48.88435" lon="2.35612">
        <ele>107.4</ele>
        <time>2013-08-06T19:51:22.000Z</time>
      </trkpt>
      <trkpt lat="48.88435" lon="2.35608">
        <ele>107</ele>
        <time>2013-08-06T19:51:23.000Z</time>
      </trkpt>
      <trkpt lat="48.88435" lon="2.35598">
        <ele>107</ele>
        <time>2013-08-06T19:51:24.000Z</time>
      </trkpt>
      <trkpt lat="48.88434" lon="2.3559">
        <ele>107.1</ele>
        <time>2013-08-06T19:51:25.000Z</time>
      </trkpt>
      <trkpt lat="48.88432" lon="2.35578">
        <ele>106.3</ele>
        <time>2013-08-06T19:51:26.000Z</time>
      </trkpt>
      <trkpt lat="48.88432" lon="2.3557">
        <ele>105.4</ele>
        <time>2013-08-06T19:51:27.000Z</time>
      </trkpt>
      <trkpt lat="48.88431" lon="2.35562">
        <ele>106.1</ele>
        <time>2013-08-06T19:51:28.000Z</time>
      </trkpt>
      <trkpt lat="48.8843" lon="2.35555">
        <ele>107.1</ele>
        <time>2013-08-06T19:51:29.000Z</time>
      </trkpt>
      <trkpt lat="48.88431" lon="2.35549">
        <ele>106.1</ele>
        <time>2013-08-06T19:51:30.000Z</time>
      </trkpt>
      <trkpt lat="48.8843" lon="2.35541">
        <ele>106.3</ele>
        <time>2013-08-06T19:51:31.000Z</time>
      </trkpt>
      <trkpt lat="48.88429" lon="2.35536">
        <ele>107.6</ele>
        <time>2013-08-06T19:51:32.000Z</time>
      </trkpt>
      <trkpt lat="48.88429" lon="2.3553">
        <ele>108.1</ele>
        <time>2013-08-06T19:51:33.000Z</time>
      </trkpt>
      <trkpt lat="48.88427" lon="2.35522">
        <ele>108.7</ele>
        <time>2013-08-06T19:51:34.000Z</time>
      </trkpt>
      <trkpt lat="48.88426" lon="2.35516">
        <ele>107.8</ele>
        <time>2013-08-06T19:51:35.000Z</time>
      </trkpt>
      <trkpt lat="48.88426" lon="2.35506">
        <ele>106.8</ele>
        <time>2013-08-06T19:51:36.000Z</time>
      </trkpt>
      <trkpt lat="48.88424" lon="2.35489">
        <ele>104.9</ele>
        <time>2013-08-06T19:51:37.912Z</time>
      </trkpt>
      <trkpt lat="48.88424" lon="2.35479">
        <ele>106.6</ele>
        <time>2013-08-06T19:51:39.000Z</time>
      </trkpt>
      <trkpt lat="48.88424" lon="2.35471">
        <ele>106.1</ele>
        <time>2013-08-06T19:51:40.000Z</time>
      </trkpt>
      <trkpt lat="48.88423" lon="2.3546">
        <ele>107.8</ele>
        <time>2013-08-06T19:51:41.000Z</time>
      </trkpt>
      <trkpt lat="48.88423" lon="2.35451">
        <ele>105.9</ele>
        <time>2013-08-06T19:51:42.000Z</time>
      </trkpt>
      <trkpt lat="48.88421" lon="2.35443">
        <ele>106.4</ele>
        <time>2013-08-06T19:51:43.000Z</time>
      </trkpt>
      <trkpt lat="48.8842" lon="2.35434">
        <ele>106.5</ele>
        <time>2013-08-06T19:51:44.000Z</time>
      </trkpt>
      <trkpt lat="48.8842" lon="2.35426">
        <ele>105.7</ele>
        <time>2013-08-06T19:51:45.000Z</time>
      </trkpt>
      <trkpt lat="48.8842" lon="2.35415">
        <ele>104.5</ele>
        <time>2013-08-06T19:51:46.000Z</time>
      </trkpt>
      <trkpt lat="48.88418" lon="2.35406">
        <ele>105.4</ele>
        <time>2013-08-06T19:51:47.000Z</time>
      </trkpt>
      <trkpt lat="48.88418" lon="2.35398">
        <ele>106.7</ele>
        <time>2013-08-06T19:51:48.000Z</time>
      </trkpt>
      <trkpt lat="48.88418" lon="2.35389">
        <ele>106.9</ele>
        <time>2013-08-06T19:51:49.000Z</time>
      </trkpt>
      <trkpt lat="48.88417" lon="2.35377">
        <ele>105.4</ele>
        <time>2013-08-06T19:51:50.000Z</time>
      </trkpt>
      <trkpt lat="48.88417" lon="2.35369">
        <ele>106</ele>
        <time>2013-08-06T19:51:51.000Z</time>
      </trkpt>
      <trkpt lat="48.88416" lon="2.35361">
        <ele>106.2</ele>
        <time>2013-08-06T19:51:52.000Z</time>
      </trkpt>
      <trkpt lat="48.88414" lon="2.35351">
        <ele>104.6</ele>
        <time>2013-08-06T19:51:53.000Z</time>
      </trkpt>
      <trkpt lat="48.88415" lon="2.35345">
        <ele>102.1</ele>
        <time>2013-08-06T19:51:54.000Z</time>
      </trkpt>
      <trkpt lat="48.88415" lon="2.35338">
        <ele>101.7</ele>
        <time>2013-08-06T19:51:55.000Z</time>
      </trkpt>
      <trkpt lat="48.88414" lon="2.35331">
        <ele>101.8</ele>
        <time>2013-08-06T19:51:56.000Z</time>
      </trkpt>
      <trkpt lat="48.88413" lon="2.3532">
        <ele>101.7</ele>
        <time>2013-08-06T19:51:57.000Z</time>
      </trkpt>
      <trkpt lat="48.88412" lon="2.35311">
        <ele>102</ele>
        <time>2013-08-06T19:51:58.000Z</time>
      </trkpt>
      <trkpt lat="48.88412" lon="2.35302">
        <ele>101.8</ele>
        <time>2013-08-06T19:51:59.000Z</time>
      </trkpt>
      <trkpt lat="48.8841" lon="2.35295">
        <ele>100.4</ele>
        <time>2013-08-06T19:52:00.000Z</time>
      </trkpt>
      <trkpt lat="48.88408" lon="2.35287">
        <ele>100.3</ele>
        <time>2013-08-06T19:52:01.000Z</time>
      </trkpt>
      <trkpt lat="48.88408" lon="2.35279">
        <ele>100.2</ele>
        <time>2013-08-06T19:52:02.000Z</time>
      </trkpt>
      <trkpt lat="48.88407" lon="2.35271">
        <ele>99.9</ele>
        <time>2013-08-06T19:52:03.000Z</time>
      </trkpt>
      <trkpt lat="48.88407" lon="2.35264">
        <ele>100.7</ele>
        <time>2013-08-06T19:52:04.000Z</time>
      </trkpt>
      <trkpt lat="48.88405" lon="2.35259">
        <ele>102.7</ele>
        <time>2013-08-06T19:52:05.000Z</time>
      </trkpt>
      <trkpt lat="48.88404" lon="2.35252">
        <ele>103.8</ele>
        <time>2013-08-06T19:52:06.000Z</time>
      </trkpt>
      <trkpt lat="48.88403" lon="2.35245">
        <ele>103.5</ele>
        <time>2013-08-06T19:52:07.000Z</time>
      </trkpt>
      <trkpt lat="48.88403" lon="2.35237">
        <ele>103.1</ele>
        <time>2013-08-06T19:52:08.000Z</time>
      </trkpt>
      <trkpt lat="48.88401" lon="2.35232">
        <ele>104</ele>
        <time>2013-08-06T19:52:09.000Z</time>
      </trkpt>
      <trkpt lat="48.88401" lon="2.35226">
        <ele>104.2</ele>
        <time>2013-08-06T19:52:10.000Z</time>
      </trkpt>
      <trkpt lat="48.88404" lon="2.3522">
        <ele>106</ele>
        <time>2013-08-06T19:52:11.000Z</time>
      </trkpt>
      <trkpt lat="48.88404" lon="2.35213">
        <ele>107.7</ele>
        <time>2013-08-06T19:52:12.000Z</time>
      </trkpt>
      <trkpt lat="48.88404" lon="2.35206">
        <ele>106.2</ele>
        <time>2013-08-06T19:52:13.000Z</time>
      </trkpt>
      <trkpt lat="48.88403" lon="2.352">
        <ele>106.1</ele>
        <time>2013-08-06T19:52:14.000Z</time>
      </trkpt>
      <trkpt lat="48.88402" lon="2.35196">
        <ele>108.1</ele>
        <time>2013-08-06T19:52:15.000Z</time>
      </trkpt>
      <trkpt lat="48.88401" lon="2.35191">
        <ele>108.8</ele>
        <time>2013-08-06T19:52:16.000Z</time>
      </trkpt>
      <trkpt lat="48.88404" lon="2.35181">
        <ele>106.3</ele>
        <time>2013-08-06T19:52:17.000Z</time>
      </trkpt>
      <trkpt lat="48.88404" lon="2.35175">
        <ele>107.1</ele>
        <time>2013-08-06T19:52:18.000Z</time>
      </trkpt>
      <trkpt lat="48.88403" lon="2.35168">
        <ele>106.4</ele>
        <time>2013-08-06T19:52:19.000Z</time>
      </trkpt>
      <trkpt lat="48.88403" lon="2.35162">
        <ele>106.3</ele>
        <time>2013-08-06T19:52:20.000Z</time>
      </trkpt>
      <trkpt lat="48.88402" lon="2.35156">
        <ele>105.5</ele>
        <time>2013-08-06T19:52:21.000Z</time>
      </trkpt>
      <trkpt lat="48.88402" lon="2.35149">
        <ele>105.5</ele>
        <time>2013-08-06T19:52:22.000Z</time>
      </trkpt>
      <trkpt lat="48.88402" lon="2.35143">
        <ele>104.9</ele>
        <time>2013-08-06T19:52:23.000Z</time>
      </trkpt>
      <trkpt lat="48.88401" lon="2.35137">
        <ele>104.3</ele>
        <time>2013-08-06T19:52:24.000Z</time>
      </trkpt>
      <trkpt lat="48.88401" lon="2.35131">
        <ele>104.5</ele>
        <time>2013-08-06T19:52:25.000Z</time>
      </trkpt>
      <trkpt lat="48.88401" lon="2.35126">
        <ele>105.3</ele>
        <time>2013-08-06T19:52:26.000Z</time>
      </trkpt>
      <trkpt lat="48.884" lon="2.3512">
        <ele>105.3</ele>
        <time>2013-08-06T19:52:27.000Z</time>
      </trkpt>
      <trkpt lat="48.884" lon="2.35115">
        <ele>105.9</ele>
        <time>2013-08-06T19:52:28.000Z</time>
      </trkpt>
      <trkpt lat="48.884" lon="2.35112">
        <ele>106.8</ele>
        <time>2013-08-06T19:52:29.000Z</time>
      </trkpt>
      <trkpt lat="48.88399" lon="2.35108">
        <ele>106.1</ele>
        <time>2013-08-06T19:52:30.000Z</time>
      </trkpt>
      <trkpt lat="48.88399" lon="2.35104">
        <ele>106.3</ele>
        <time>2013-08-06T19:52:31.000Z</time>
      </trkpt>
      <trkpt lat="48.884" lon="2.35098">
        <ele>107.2</ele>
        <time>2013-08-06T19:52:34.000Z</time>
      </trkpt>
      <trkpt lat="48.884" lon="2.35095">
        <ele>107.6</ele>
        <time>2013-08-06T19:52:35.000Z</time>
      </trkpt>
      <trkpt lat="48.884" lon="2.35092">
        <ele>107.8</ele>
        <time>2013-08-06T19:52:36.000Z</time>
      </trkpt>
      <trkpt lat="48.88401" lon="2.35086">
        <ele>106.7</ele>
        <time>2013-08-06T19:52:37.884Z</time>
      </trkpt>
      <trkpt lat="48.88401" lon="2.35082">
        <ele>108.3</ele>
        <time>2013-08-06T19:52:39.000Z</time>
      </trkpt>
      <trkpt lat="48.88401" lon="2.35079">
        <ele>108.8</ele>
        <time>2013-08-06T19:52:40.000Z</time>
      </trkpt>
      <trkpt lat="48.88401" lon="2.35073">
        <ele>110.2</ele>
        <time>2013-08-06T19:52:42.000Z</time>
      </trkpt>
      <trkpt lat="48.884" lon="2.3507">
        <ele>111.9</ele>
        <time>2013-08-06T19:52:43.000Z</time>
      </trkpt>
      <trkpt lat="48.884" lon="2.35065">
        <ele>112.9</ele>
        <time>2013-08-06T19:52:45.000Z</time>
      </trkpt>
      <trkpt lat="48.88399" lon="2.35062">
        <ele>113.6</ele>
        <time>2013-08-06T19:52:46.000Z</time>
      </trkpt>
      <trkpt lat="48.88397" lon="2.35057">
        <ele>113.4</ele>
        <time>2013-08-06T19:52:48.000Z</time>
      </trkpt>
      <trkpt lat="48.88396" lon="2.35054">
        <ele>117.4</ele>
        <time>2013-08-06T19:52:49.000Z</time>
      </trkpt>
      <trkpt lat="48.88396" lon="2.35048">
        <ele>122.4</ele>
        <time>2013-08-06T19:52:51.000Z</time>
      </trkpt>
      <trkpt lat="48.88395" lon="2.35045">
        <ele>125.4</ele>
        <time>2013-08-06T19:52:52.000Z</time>
      </trkpt>
      <trkpt lat="48.88395" lon="2.35039">
        <ele>125.5</ele>
        <time>2013-08-06T19:52:54.000Z</time>
      </trkpt>
      <trkpt lat="48.88395" lon="2.35036">
        <ele>126.4</ele>
        <time>2013-08-06T19:52:55.000Z</time>
      </trkpt>
      <trkpt lat="48.88393" lon="2.35031">
        <ele>125.9</ele>
        <time>2013-08-06T19:52:57.000Z</time>
      </trkpt>
      <trkpt lat="48.88392" lon="2.35029">
        <ele>127.4</ele>
        <time>2013-08-06T19:52:58.000Z</time>
      </trkpt>
      <trkpt lat="48.88392" lon="2.35023">
        <ele>124.6</ele>
        <time>2013-08-06T19:53:00.000Z</time>
      </trkpt>
      <trkpt lat="48.88391" lon="2.3502">
        <ele>125.6</ele>
        <time>2013-08-06T19:53:01.000Z</time>
      </trkpt>
      <trkpt lat="48.8839" lon="2.35015">
        <ele>125.2</ele>
        <time>2013-08-06T19:53:03.000Z</time>
      </trkpt>
      <trkpt lat="48.8839" lon="2.35011">
        <ele>125.2</ele>
        <time>2013-08-06T19:53:04.000Z</time>
      </trkpt>
      <trkpt lat="48.8839" lon="2.35007">
        <ele>121.6</ele>
        <time>2013-08-06T19:53:05.000Z</time>
      </trkpt>
      <trkpt lat="48.88389" lon="2.35004">
        <ele>121.1</ele>
        <time>2013-08-06T19:53:06.000Z</time>
      </trkpt>
      <trkpt lat="48.88389" lon="2.35">
        <ele>121.2</ele>
        <time>2013-08-06T19:53:07.000Z</time>
      </trkpt>
      <trkpt lat="48.88388" lon="2.34997">
        <ele>120.7</ele>
        <time>2013-08-06T19:53:08.000Z</time>
      </trkpt>
      <trkpt lat="48.88388" lon="2.34991">
        <ele>120.3</ele>
        <time>2013-08-06T19:53:10.000Z</time>
      </trkpt>
      <trkpt lat="48.88388" lon="2.34989">
        <ele>119.9</ele>
        <time>2013-08-06T19:53:11.000Z</time>
      </trkpt>
      <trkpt lat="48.88388" lon="2.34984">
        <ele>119.4</ele>
        <time>2013-08-06T19:53:13.000Z</time>
      </trkpt>
      <trkpt lat="48.88389" lon="2.3498">
        <ele>119.7</ele>
        <time>2013-08-06T19:53:14.000Z</time>
      </trkpt>
      <trkpt lat="48.8839" lon="2.34975">
        <ele>120.1</ele>
        <time>2013-08-06T19:53:17.000Z</time>
      </trkpt>
      <trkpt lat="48.88391" lon="2.34974">
        <ele>120.1</ele>
        <time>2013-08-06T19:53:18.000Z</time>
      </trkpt>
      <trkpt lat="48.8839" lon="2.34968">
        <ele>113.6</ele>
        <time>2013-08-06T19:54:29.000Z</time>
      </trkpt>
      <trkpt lat="48.8839" lon="2.34966">
        <ele>113.1</ele>
        <time>2013-08-06T19:54:30.000Z</time>
      </trkpt>
      <trkpt lat="48.88391" lon="2.34961">
        <ele>110.2</ele>
        <time>2013-08-06T19:54:32.000Z</time>
      </trkpt>
      <trkpt lat="48.8839" lon="2.34958">
        <ele>110.1</ele>
        <time>2013-08-06T19:54:33.000Z</time>
      </trkpt>
      <trkpt lat="48.8839" lon="2.34955">
        <ele>108.8</ele>
        <time>2013-08-06T19:54:34.000Z</time>
      </trkpt>
      <trkpt lat="48.8839" lon="2.34951">
        <ele>108.6</ele>
        <time>2013-08-06T19:54:35.000Z</time>
      </trkpt>
      <trkpt lat="48.88389" lon="2.34947">
        <ele>109.1</ele>
        <time>2013-08-06T19:54:36.000Z</time>
      </trkpt>
      <trkpt lat="48.88388" lon="2.34938">
        <ele>109.9</ele>
        <time>2013-08-06T19:54:38.022Z</time>
      </trkpt>
      <trkpt lat="48.88387" lon="2.34934">
        <ele>113.3</ele>
        <time>2013-08-06T19:54:39.000Z</time>
      </trkpt>
      <trkpt lat="48.88385" lon="2.34927">
        <ele>111.6</ele>
        <time>2013-08-06T19:54:40.000Z</time>
      </trkpt>
      <trkpt lat="48.88385" lon="2.3492">
        <ele>112.9</ele>
        <time>2013-08-06T19:54:41.000Z</time>
      </trkpt>
      <trkpt lat="48.88384" lon="2.34915">
        <ele>113.2</ele>
        <time>2013-08-06T19:54:42.000Z</time>
      </trkpt>
      <trkpt lat="48.88384" lon="2.34908">
        <ele>113.6</ele>
        <time>2013-08-06T19:54:43.000Z</time>
      </trkpt>
      <trkpt lat="48.88383" lon="2.34902">
        <ele>113.5</ele>
        <time>2013-08-06T19:54:44.000Z</time>
      </trkpt>
      <trkpt lat="48.88383" lon="2.34898">
        <ele>113.5</ele>
        <time>2013-08-06T19:54:45.000Z</time>
      </trkpt>
      <trkpt lat="48.88382" lon="2.34891">
        <ele>112.3</ele>
        <time>2013-08-06T19:54:46.000Z</time>
      </trkpt>
      <trkpt lat="48.88381" lon="2.34885">
        <ele>112.6</ele>
        <time>2013-08-06T19:54:47.000Z</time>
      </trkpt>
      <trkpt lat="48.88381" lon="2.34879">
        <ele>112.9</ele>
        <time>2013-08-06T19:54:48.000Z</time>
      </trkpt>
      <trkpt lat="48.88381" lon="2.34874">
        <ele>112.9</ele>
        <time>2013-08-06T19:54:49.000Z</time>
      </trkpt>
      <trkpt lat="48.8838" lon="2.34868">
        <ele>112.1</ele>
        <time>2013-08-06T19:54:50.000Z</time>
      </trkpt>
      <trkpt lat="48.88379" lon="2.34863">
        <ele>112.2</ele>
        <time>2013-08-06T19:54:51.000Z</time>
      </trkpt>
      <trkpt lat="48.88378" lon="2.34858">
        <ele>112.8</ele>
        <time>2013-08-06T19:54:52.000Z</time>
      </trkpt>
      <trkpt lat="48.88377" lon="2.34852">
        <ele>112</ele>
        <time>2013-08-06T19:54:53.000Z</time>
      </trkpt>
      <trkpt lat="48.88377" lon="2.34848">
        <ele>112.2</ele>
        <time>2013-08-06T19:54:54.000Z</time>
      </trkpt>
      <trkpt lat="48.88376" lon="2.34843">
        <ele>112.1</ele>
        <time>2013-08-06T19:54:55.000Z</time>
      </trkpt>
      <trkpt lat="48.88375" lon="2.34838">
        <ele>114.4</ele>
        <time>2013-08-06T19:54:56.000Z</time>
      </trkpt>
      <trkpt lat="48.88373" lon="2.34834">
        <ele>115.7</ele>
        <time>2013-08-06T19:54:57.000Z</time>
      </trkpt>
      <trkpt lat="48.88371" lon="2.34829">
        <ele>116</ele>
        <time>2013-08-06T19:54:58.000Z</time>
      </trkpt>
      <trkpt lat="48.88369" lon="2.34825">
        <ele>116.2</ele>
        <time>2013-08-06T19:54:59.000Z</time>
      </trkpt>
      <trkpt lat="48.88367" lon="2.34821">
        <ele>114.8</ele>
        <time>2013-08-06T19:55:00.000Z</time>
      </trkpt>
      <trkpt lat="48.88365" lon="2.34817">
        <ele>114.9</ele>
        <time>2013-08-06T19:55:01.000Z</time>
      </trkpt>
      <trkpt lat="48.88362" lon="2.3481">
        <ele>110.7</ele>
        <time>2013-08-06T19:55:02.000Z</time>
      </trkpt>
      <trkpt lat="48.88361" lon="2.34804">
        <ele>109.2</ele>
        <time>2013-08-06T19:55:03.000Z</time>
      </trkpt>
      <trkpt lat="48.8836" lon="2.34797">
        <ele>108.3</ele>
        <time>2013-08-06T19:55:04.000Z</time>
      </trkpt>
      <trkpt lat="48.88359" lon="2.3479">
        <ele>107.9</ele>
        <time>2013-08-06T19:55:05.000Z</time>
      </trkpt>
      <trkpt lat="48.88358" lon="2.34785">
        <ele>108.7</ele>
        <time>2013-08-06T19:55:06.000Z</time>
      </trkpt>
      <trkpt lat="48.88357" lon="2.34779">
        <ele>108.1</ele>
        <time>2013-08-06T19:55:07.000Z</time>
      </trkpt>
      <trkpt lat="48.88356" lon="2.34773">
        <ele>108.2</ele>
        <time>2013-08-06T19:55:08.000Z</time>
      </trkpt>
      <trkpt lat="48.88355" lon="2.34768">
        <ele>107.4</ele>
        <time>2013-08-06T19:55:09.000Z</time>
      </trkpt>
      <trkpt lat="48.88354" lon="2.34762">
        <ele>108</ele>
        <time>2013-08-06T19:55:10.000Z</time>
      </trkpt>
      <trkpt lat="48.88353" lon="2.34756">
        <ele>109.1</ele>
        <time>2013-08-06T19:55:11.000Z</time>
      </trkpt>
      <trkpt lat="48.88353" lon="2.34749">
        <ele>110.3</ele>
        <time>2013-08-06T19:55:12.000Z</time>
      </trkpt>
      <trkpt lat="48.88352" lon="2.34744">
        <ele>112.3</ele>
        <time>2013-08-06T19:55:13.000Z</time>
      </trkpt>
      <trkpt lat="48.88352" lon="2.34739">
        <ele>113.2</ele>
        <time>2013-08-06T19:55:14.000Z</time>
      </trkpt>
      <trkpt lat="48.88351" lon="2.34735">
        <ele>113.2</ele>
        <time>2013-08-06T19:55:15.000Z</time>
      </trkpt>
      <trkpt lat="48.88351" lon="2.3473">
        <ele>112.1</ele>
        <time>2013-08-06T19:55:16.000Z</time>
      </trkpt>
      <trkpt lat="48.88351" lon="2.34726">
        <ele>111.9</ele>
        <time>2013-08-06T19:55:17.000Z</time>
      </trkpt>
      <trkpt lat="48.88351" lon="2.34722">
        <ele>111.1</ele>
        <time>2013-08-06T19:55:18.000Z</time>
      </trkpt>
      <trkpt lat="48.88351" lon="2.34718">
        <ele>111.8</ele>
        <time>2013-08-06T19:55:19.000Z</time>
      </trkpt>
      <trkpt lat="48.8835" lon="2.34714">
        <ele>111.4</ele>
        <time>2013-08-06T19:55:20.000Z</time>
      </trkpt>
      <trkpt lat="48.8835" lon="2.34711">
        <ele>111.4</ele>
        <time>2013-08-06T19:55:21.000Z</time>
      </trkpt>
      <trkpt lat="48.88349" lon="2.34707">
        <ele>110.9</ele>
        <time>2013-08-06T19:55:22.000Z</time>
      </trkpt>
      <trkpt lat="48.88348" lon="2.34701">
        <ele>111.7</ele>
        <time>2013-08-06T19:55:24.000Z</time>
      </trkpt>
      <trkpt lat="48.88346" lon="2.34699">
        <ele>111.4</ele>
        <time>2013-08-06T19:55:25.000Z</time>
      </trkpt>
      <trkpt lat="48.88343" lon="2.34694">
        <ele>112.1</ele>
        <time>2013-08-06T19:55:27.000Z</time>
      </trkpt>
      <trkpt lat="48.88341" lon="2.34692">
        <ele>113.8</ele>
        <time>2013-08-06T19:55:28.000Z</time>
      </trkpt>
      <trkpt lat="48.8834" lon="2.34686">
        <ele>112.7</ele>
        <time>2013-08-06T19:55:31.000Z</time>
      </trkpt>
      <trkpt lat="48.88339" lon="2.34685">
        <ele>112.3</ele>
        <time>2013-08-06T19:55:32.000Z</time>
      </trkpt>
      <trkpt lat="48.88338" lon="2.34679">
        <ele>112.9</ele>
        <time>2013-08-06T19:55:48.000Z</time>
      </trkpt>
      <trkpt lat="48.88338" lon="2.34677">
        <ele>112.8</ele>
        <time>2013-08-06T19:55:49.000Z</time>
      </trkpt>
      <trkpt lat="48.88336" lon="2.34672">
        <ele>112.5</ele>
        <time>2013-08-06T19:55:51.000Z</time>
      </trkpt>
      <trkpt lat="48.88336" lon="2.34668">
        <ele>113.4</ele>
        <time>2013-08-06T19:55:52.000Z</time>
      </trkpt>
      <trkpt lat="48.88334" lon="2.34662">
        <ele>114.5</ele>
        <time>2013-08-06T19:55:54.000Z</time>
      </trkpt>
      <trkpt lat="48.88333" lon="2.34658">
        <ele>116</ele>
        <time>2013-08-06T19:55:55.000Z</time>
      </trkpt>
      <trkpt lat="48.88332" lon="2.34655">
        <ele>116.3</ele>
        <time>2013-08-06T19:55:56.000Z</time>
      </trkpt>
      <trkpt lat="48.88331" lon="2.34652">
        <ele>117.1</ele>
        <time>2013-08-06T19:55:57.000Z</time>
      </trkpt>
      <trkpt lat="48.8833" lon="2.34649">
        <ele>117.5</ele>
        <time>2013-08-06T19:55:58.000Z</time>
      </trkpt>
      <trkpt lat="48.88329" lon="2.34644">
        <ele>116.9</ele>
        <time>2013-08-06T19:55:59.000Z</time>
      </trkpt>
      <trkpt lat="48.88328" lon="2.3464">
        <ele>116.4</ele>
        <time>2013-08-06T19:56:00.000Z</time>
      </trkpt>
      <trkpt lat="48.88328" lon="2.34636">
        <ele>117.1</ele>
        <time>2013-08-06T19:56:01.000Z</time>
      </trkpt>
      <trkpt lat="48.88328" lon="2.34631">
        <ele>117.7</ele>
        <time>2013-08-06T19:56:02.000Z</time>
      </trkpt>
      <trkpt lat="48.88327" lon="2.34627">
        <ele>118.7</ele>
        <time>2013-08-06T19:56:03.000Z</time>
      </trkpt>
      <trkpt lat="48.88326" lon="2.34623">
        <ele>119</ele>
        <time>2013-08-06T19:56:04.000Z</time>
      </trkpt>
      <trkpt lat="48.88325" lon="2.34618">
        <ele>117.2</ele>
        <time>2013-08-06T19:56:05.000Z</time>
      </trkpt>
      <trkpt lat="48.88324" lon="2.34612">
        <ele>116.6</ele>
        <time>2013-08-06T19:56:06.000Z</time>
      </trkpt>
      <trkpt lat="48.88324" lon="2.34606">
        <ele>117.3</ele>
        <time>2013-08-06T19:56:07.000Z</time>
      </trkpt>
      <trkpt lat="48.88323" lon="2.34599">
        <ele>118</ele>
        <time>2013-08-06T19:56:08.000Z</time>
      </trkpt>
      <trkpt lat="48.88321" lon="2.34593">
        <ele>117.9</ele>
        <time>2013-08-06T19:56:09.000Z</time>
      </trkpt>
      <trkpt lat="48.8832" lon="2.34587">
        <ele>117.3</ele>
        <time>2013-08-06T19:56:10.000Z</time>
      </trkpt>
      <trkpt lat="48.88318" lon="2.34582">
        <ele>116.6</ele>
        <time>2013-08-06T19:56:11.000Z</time>
      </trkpt>
      <trkpt lat="48.88317" lon="2.34576">
        <ele>116.7</ele>
        <time>2013-08-06T19:56:12.000Z</time>
      </trkpt>
      <trkpt lat="48.88316" lon="2.3457">
        <ele>115</ele>
        <time>2013-08-06T19:56:13.000Z</time>
      </trkpt>
      <trkpt lat="48.88315" lon="2.34565">
        <ele>114.9</ele>
        <time>2013-08-06T19:56:14.000Z</time>
      </trkpt>
      <trkpt lat="48.88314" lon="2.34559">
        <ele>114.8</ele>
        <time>2013-08-06T19:56:15.000Z</time>
      </trkpt>
      <trkpt lat="48.88313" lon="2.34554">
        <ele>115</ele>
        <time>2013-08-06T19:56:16.000Z</time>
      </trkpt>
      <trkpt lat="48.88312" lon="2.34548">
        <ele>116</ele>
        <time>2013-08-06T19:56:17.000Z</time>
      </trkpt>
      <trkpt lat="48.88312" lon="2.34543">
        <ele>114.5</ele>
        <time>2013-08-06T19:56:18.000Z</time>
      </trkpt>
      <trkpt lat="48.88311" lon="2.34537">
        <ele>114.1</ele>
        <time>2013-08-06T19:56:19.000Z</time>
      </trkpt>
      <trkpt lat="48.8831" lon="2.34532">
        <ele>115</ele>
        <time>2013-08-06T19:56:20.000Z</time>
      </trkpt>
      <trkpt lat="48.88308" lon="2.34527">
        <ele>118.3</ele>
        <time>2013-08-06T19:56:21.000Z</time>
      </trkpt>
      <trkpt lat="48.88306" lon="2.34522">
        <ele>119.3</ele>
        <time>2013-08-06T19:56:22.000Z</time>
      </trkpt>
      <trkpt lat="48.88305" lon="2.34516">
        <ele>119.5</ele>
        <time>2013-08-06T19:56:23.000Z</time>
      </trkpt>
      <trkpt lat="48.88303" lon="2.34511">
        <ele>119.8</ele>
        <time>2013-08-06T19:56:24.000Z</time>
      </trkpt>
      <trkpt lat="48.88302" lon="2.34506">
        <ele>120.2</ele>
        <time>2013-08-06T19:56:25.000Z</time>
      </trkpt>
      <trkpt lat="48.88301" lon="2.34501">
        <ele>121.2</ele>
        <time>2013-08-06T19:56:26.000Z</time>
      </trkpt>
      <trkpt lat="48.883" lon="2.34496">
        <ele>121.4</ele>
        <time>2013-08-06T19:56:27.000Z</time>
      </trkpt>
      <trkpt lat="48.88299" lon="2.34491">
        <ele>121.6</ele>
        <time>2013-08-06T19:56:28.000Z</time>
      </trkpt>
      <trkpt lat="48.88298" lon="2.34487">
        <ele>122.9</ele>
        <time>2013-08-06T19:56:29.000Z</time>
      </trkpt>
      <trkpt lat="48.88297" lon="2.34482">
        <ele>122.6</ele>
        <time>2013-08-06T19:56:30.000Z</time>
      </trkpt>
      <trkpt lat="48.88296" lon="2.34477">
        <ele>122.6</ele>
        <time>2013-08-06T19:56:31.000Z</time>
      </trkpt>
      <trkpt lat="48.88295" lon="2.34472">
        <ele>121.1</ele>
        <time>2013-08-06T19:56:32.000Z</time>
      </trkpt>
      <trkpt lat="48.88294" lon="2.34467">
        <ele>119.7</ele>
        <time>2013-08-06T19:56:33.000Z</time>
      </trkpt>
      <trkpt lat="48.88293" lon="2.34463">
        <ele>120.8</ele>
        <time>2013-08-06T19:56:34.000Z</time>
      </trkpt>
      <trkpt lat="48.88293" lon="2.34459">
        <ele>120.1</ele>
        <time>2013-08-06T19:56:35.000Z</time>
      </trkpt>
      <trkpt lat="48.88292" lon="2.34456">
        <ele>118.2</ele>
        <time>2013-08-06T19:56:36.000Z</time>
      </trkpt>
      <trkpt lat="48.88289" lon="2.34448">
        <ele>118.8</ele>
        <time>2013-08-06T19:56:37.874Z</time>
      </trkpt>
      <trkpt lat="48.88288" lon="2.34444">
        <ele>118.8</ele>
        <time>2013-08-06T19:56:39.000Z</time>
      </trkpt>
      <trkpt lat="48.88286" lon="2.3444">
        <ele>118.1</ele>
        <time>2013-08-06T19:56:40.000Z</time>
      </trkpt>
      <trkpt lat="48.88285" lon="2.34434">
        <ele>113.4</ele>
        <time>2013-08-06T19:56:41.000Z</time>
      </trkpt>
      <trkpt lat="48.88284" lon="2.3443">
        <ele>113.4</ele>
        <time>2013-08-06T19:56:42.000Z</time>
      </trkpt>
      <trkpt lat="48.88283" lon="2.34425">
        <ele>113.5</ele>
        <time>2013-08-06T19:56:43.000Z</time>
      </trkpt>
      <trkpt lat="48.88282" lon="2.3442">
        <ele>113.1</ele>
        <time>2013-08-06T19:56:44.000Z</time>
      </trkpt>
      <trkpt lat="48.88281" lon="2.34415">
        <ele>114.5</ele>
        <time>2013-08-06T19:56:45.000Z</time>
      </trkpt>
      <trkpt lat="48.8828" lon="2.3441">
        <ele>115</ele>
        <time>2013-08-06T19:56:46.000Z</time>
      </trkpt>
      <trkpt lat="48.88279" lon="2.34406">
        <ele>116.1</ele>
        <time>2013-08-06T19:56:47.000Z</time>
      </trkpt>
      <trkpt lat="48.88279" lon="2.34399">
        <ele>113.5</ele>
        <time>2013-08-06T19:56:48.000Z</time>
      </trkpt>
      <trkpt lat="48.88278" lon="2.34394">
        <ele>111.9</ele>
        <time>2013-08-06T19:56:49.000Z</time>
      </trkpt>
      <trkpt lat="48.88277" lon="2.34388">
        <ele>113.5</ele>
        <time>2013-08-06T19:56:50.000Z</time>
      </trkpt>
      <trkpt lat="48.88276" lon="2.34384">
        <ele>113.6</ele>
        <time>2013-08-06T19:56:51.000Z</time>
      </trkpt>
      <trkpt lat="48.88276" lon="2.34378">
        <ele>113.4</ele>
        <time>2013-08-06T19:56:52.000Z</time>
      </trkpt>
      <trkpt lat="48.88275" lon="2.34373">
        <ele>111.7</ele>
        <time>2013-08-06T19:56:53.000Z</time>
      </trkpt>
      <trkpt lat="48.88274" lon="2.34368">
        <ele>111.7</ele>
        <time>2013-08-06T19:56:54.000Z</time>
      </trkpt>
      <trkpt lat="48.88273" lon="2.34362">
        <ele>111.9</ele>
        <time>2013-08-06T19:56:55.000Z</time>
      </trkpt>
      <trkpt lat="48.88272" lon="2.34357">
        <ele>111.6</ele>
        <time>2013-08-06T19:56:56.000Z</time>
      </trkpt>
      <trkpt lat="48.88271" lon="2.34352">
        <ele>111.3</ele>
        <time>2013-08-06T19:56:57.000Z</time>
      </trkpt>
      <trkpt lat="48.8827" lon="2.34347">
        <ele>109.9</ele>
        <time>2013-08-06T19:56:58.000Z</time>
      </trkpt>
      <trkpt lat="48.88269" lon="2.34341">
        <ele>110.8</ele>
        <time>2013-08-06T19:56:59.000Z</time>
      </trkpt>
      <trkpt lat="48.88268" lon="2.34334">
        <ele>112.1</ele>
        <time>2013-08-06T19:57:00.000Z</time>
      </trkpt>
      <trkpt lat="48.88267" lon="2.34328">
        <ele>112.8</ele>
        <time>2013-08-06T19:57:01.000Z</time>
      </trkpt>
      <trkpt lat="48.88267" lon="2.34323">
        <ele>112.8</ele>
        <time>2013-08-06T19:57:02.000Z</time>
      </trkpt>
      <trkpt lat="48.88266" lon="2.34316">
        <ele>112.8</ele>
        <time>2013-08-06T19:57:03.000Z</time>
      </trkpt>
      <trkpt lat="48.88264" lon="2.34309">
        <ele>114.9</ele>
        <time>2013-08-06T19:57:04.000Z</time>
      </trkpt>
      <trkpt lat="48.88263" lon="2.34302">
        <ele>115.8</ele>
        <time>2013-08-06T19:57:05.000Z</time>
      </trkpt>
      <trkpt lat="48.88261" lon="2.34294">
        <ele>115.4</ele>
        <time>2013-08-06T19:57:06.000Z</time>
      </trkpt>
      <trkpt lat="48.8826" lon="2.34286">
        <ele>114.5</ele>
        <time>2013-08-06T19:57:07.000Z</time>
      </trkpt>
      <trkpt lat="48.88258" lon="2.34279">
        <ele>114.1</ele>
        <time>2013-08-06T19:57:08.000Z</time>
      </trkpt>
      <trkpt lat="48.88256" lon="2.34273">
        <ele>114.5</ele>
        <time>2013-08-06T19:57:09.000Z</time>
      </trkpt>
      <trkpt lat="48.88255" lon="2.34266">
        <ele>115.9</ele>
        <time>2013-08-06T19:57:10.000Z</time>
      </trkpt>
      <trkpt lat="48.88253" lon="2.34259">
        <ele>116</ele>
        <time>2013-08-06T19:57:11.000Z</time>
      </trkpt>
      <trkpt lat="48.88253" lon="2.34252">
        <ele>117.4</ele>
        <time>2013-08-06T19:57:12.000Z</time>
      </trkpt>
      <trkpt lat="48.8825" lon="2.34246">
        <ele>117.4</ele>
        <time>2013-08-06T19:57:13.000Z</time>
      </trkpt>
      <trkpt lat="48.88249" lon="2.3424">
        <ele>118.8</ele>
        <time>2013-08-06T19:57:14.000Z</time>
      </trkpt>
      <trkpt lat="48.88248" lon="2.34233">
        <ele>119.3</ele>
        <time>2013-08-06T19:57:15.000Z</time>
      </trkpt>
      <trkpt lat="48.88248" lon="2.34227">
        <ele>118.8</ele>
        <time>2013-08-06T19:57:16.000Z</time>
      </trkpt>
      <trkpt lat="48.88247" lon="2.34221">
        <ele>118.9</ele>
        <time>2013-08-06T19:57:17.000Z</time>
      </trkpt>
      <trkpt lat="48.88246" lon="2.34214">
        <ele>118.7</ele>
        <time>2013-08-06T19:57:18.000Z</time>
      </trkpt>
      <trkpt lat="48.88245" lon="2.34208">
        <ele>119.9</ele>
        <time>2013-08-06T19:57:19.000Z</time>
      </trkpt>
      <trkpt lat="48.88244" lon="2.34202">
        <ele>121.2</ele>
        <time>2013-08-06T19:57:20.000Z</time>
      </trkpt>
      <trkpt lat="48.88242" lon="2.34196">
        <ele>123.3</ele>
        <time>2013-08-06T19:57:21.000Z</time>
      </trkpt>
      <trkpt lat="48.88241" lon="2.3419">
        <ele>122.5</ele>
        <time>2013-08-06T19:57:22.000Z</time>
      </trkpt>
      <trkpt lat="48.8824" lon="2.34184">
        <ele>122.1</ele>
        <time>2013-08-06T19:57:23.000Z</time>
      </trkpt>
      <trkpt lat="48.88239" lon="2.34177">
        <ele>120.9</ele>
        <time>2013-08-06T19:57:24.000Z</time>
      </trkpt>
      <trkpt lat="48.88238" lon="2.34171">
        <ele>120.6</ele>
        <time>2013-08-06T19:57:25.000Z</time>
      </trkpt>
      <trkpt lat="48.88237" lon="2.34165">
        <ele>123.1</ele>
        <time>2013-08-06T19:57:26.000Z</time>
      </trkpt>
      <trkpt lat="48.88236" lon="2.34158">
        <ele>123</ele>
        <time>2013-08-06T19:57:27.000Z</time>
      </trkpt>
      <trkpt lat="48.88234" lon="2.34152">
        <ele>122</ele>
        <time>2013-08-06T19:57:28.000Z</time>
      </trkpt>
      <trkpt lat="48.88233" lon="2.34146">
        <ele>122</ele>
        <time>2013-08-06T19:57:29.000Z</time>
      </trkpt>
      <trkpt lat="48.88232" lon="2.34137">
        <ele>122.4</ele>
        <time>2013-08-06T19:57:30.000Z</time>
      </trkpt>
      <trkpt lat="48.8823" lon="2.34131">
        <ele>122.5</ele>
        <time>2013-08-06T19:57:31.000Z</time>
      </trkpt>
      <trkpt lat="48.88229" lon="2.34123">
        <ele>122.6</ele>
        <time>2013-08-06T19:57:32.000Z</time>
      </trkpt>
      <trkpt lat="48.88226" lon="2.34117">
        <ele>123.9</ele>
        <time>2013-08-06T19:57:33.000Z</time>
      </trkpt>
      <trkpt lat="48.88223" lon="2.34111">
        <ele>124.8</ele>
        <time>2013-08-06T19:57:34.000Z</time>
      </trkpt>
      <trkpt lat="48.88222" lon="2.34103">
        <ele>124.2</ele>
        <time>2013-08-06T19:57:35.000Z</time>
      </trkpt>
      <trkpt lat="48.88221" lon="2.34095">
        <ele>123.1</ele>
        <time>2013-08-06T19:57:36.000Z</time>
      </trkpt>
      <trkpt lat="48.8822" lon="2.34082">
        <ele>123.5</ele>
        <time>2013-08-06T19:57:37.962Z</time>
      </trkpt>
      <trkpt lat="48.88216" lon="2.34076">
        <ele>124.4</ele>
        <time>2013-08-06T19:57:39.000Z</time>
      </trkpt>
      <trkpt lat="48.88213" lon="2.3407">
        <ele>125.7</ele>
        <time>2013-08-06T19:57:40.000Z</time>
      </trkpt>
      <trkpt lat="48.88212" lon="2.34064">
        <ele>125.9</ele>
        <time>2013-08-06T19:57:41.000Z</time>
      </trkpt>
      <trkpt lat="48.88212" lon="2.34058">
        <ele>126.3</ele>
        <time>2013-08-06T19:57:42.000Z</time>
      </trkpt>
      <trkpt lat="48.8821" lon="2.34052">
        <ele>127.1</ele>
        <time>2013-08-06T19:57:43.000Z</time>
      </trkpt>
      <trkpt lat="48.88209" lon="2.34048">
        <ele>123.8</ele>
        <time>2013-08-06T19:57:44.000Z</time>
      </trkpt>
      <trkpt lat="48.88208" lon="2.34043">
        <ele>124.5</ele>
        <time>2013-08-06T19:57:45.000Z</time>
      </trkpt>
      <trkpt lat="48.88208" lon="2.34036">
        <ele>123.2</ele>
        <time>2013-08-06T19:57:46.000Z</time>
      </trkpt>
      <trkpt lat="48.88207" lon="2.34031">
        <ele>122.2</ele>
        <time>2013-08-06T19:57:47.000Z</time>
      </trkpt>
      <trkpt lat="48.88206" lon="2.34025">
        <ele>121.5</ele>
        <time>2013-08-06T19:57:48.000Z</time>
      </trkpt>
      <trkpt lat="48.88205" lon="2.34018">
        <ele>119.1</ele>
        <time>2013-08-06T19:57:49.000Z</time>
      </trkpt>
      <trkpt lat="48.88203" lon="2.34011">
        <ele>118.2</ele>
        <time>2013-08-06T19:57:50.000Z</time>
      </trkpt>
      <trkpt lat="48.88202" lon="2.34006">
        <ele>117.4</ele>
        <time>2013-08-06T19:57:51.000Z</time>
      </trkpt>
      <trkpt lat="48.88201" lon="2.34001">
        <ele>116.3</ele>
        <time>2013-08-06T19:57:52.000Z</time>
      </trkpt>
      <trkpt lat="48.88201" lon="2.33997">
        <ele>115.5</ele>
        <time>2013-08-06T19:57:53.000Z</time>
      </trkpt>
      <trkpt lat="48.882" lon="2.33992">
        <ele>115.4</ele>
        <time>2013-08-06T19:57:54.000Z</time>
      </trkpt>
      <trkpt lat="48.882" lon="2.33986">
        <ele>114.2</ele>
        <time>2013-08-06T19:57:55.000Z</time>
      </trkpt>
      <trkpt lat="48.882" lon="2.33981">
        <ele>113.8</ele>
        <time>2013-08-06T19:57:56.000Z</time>
      </trkpt>
      <trkpt lat="48.882" lon="2.33976">
        <ele>115.5</ele>
        <time>2013-08-06T19:57:57.000Z</time>
      </trkpt>
      <trkpt lat="48.88199" lon="2.33971">
        <ele>115.5</ele>
        <time>2013-08-06T19:57:58.000Z</time>
      </trkpt>
      <trkpt lat="48.88198" lon="2.33967">
        <ele>115.4</ele>
        <time>2013-08-06T19:57:59.000Z</time>
      </trkpt>
      <trkpt lat="48.88196" lon="2.33963">
        <ele>115.3</ele>
        <time>2013-08-06T19:58:00.000Z</time>
      </trkpt>
      <trkpt lat="48.88196" lon="2.33959">
        <ele>115</ele>
        <time>2013-08-06T19:58:01.000Z</time>
      </trkpt>
      <trkpt lat="48.88198" lon="2.33955">
        <ele>115.5</ele>
        <time>2013-08-06T19:58:02.000Z</time>
      </trkpt>
      <trkpt lat="48.88199" lon="2.33951">
        <ele>115.1</ele>
        <time>2013-08-06T19:58:03.000Z</time>
      </trkpt>
      <trkpt lat="48.882" lon="2.33949">
        <ele>114.6</ele>
        <time>2013-08-06T19:58:04.000Z</time>
      </trkpt>
      <trkpt lat="48.88203" lon="2.33944">
        <ele>114.8</ele>
        <time>2013-08-06T19:58:07.000Z</time>
      </trkpt>
      <trkpt lat="48.88204" lon="2.33943">
        <ele>114.6</ele>
        <time>2013-08-06T19:58:08.000Z</time>
      </trkpt>
      <trkpt lat="48.88208" lon="2.33939">
        <ele>113.5</ele>
        <time>2013-08-06T19:58:15.000Z</time>
      </trkpt>
      <trkpt lat="48.88209" lon="2.3394">
        <ele>113.8</ele>
        <time>2013-08-06T19:58:16.000Z</time>
      </trkpt>
      <trkpt lat="48.88212" lon="2.33938">
        <ele>114.4</ele>
        <time>2013-08-06T19:58:48.000Z</time>
      </trkpt>
      <trkpt lat="48.88213" lon="2.33936">
        <ele>113.8</ele>
        <time>2013-08-06T19:58:49.000Z</time>
      </trkpt>
      <trkpt lat="48.88213" lon="2.3393">
        <ele>117</ele>
        <time>2013-08-06T19:58:52.000Z</time>
      </trkpt>
      <trkpt lat="48.88213" lon="2.33928">
        <ele>119</ele>
        <time>2013-08-06T19:58:53.000Z</time>
      </trkpt>
      <trkpt lat="48.88215" lon="2.33923">
        <ele>120</ele>
        <time>2013-08-06T19:58:56.000Z</time>
      </trkpt>
      <trkpt lat="48.88215" lon="2.33921">
        <ele>120.5</ele>
        <time>2013-08-06T19:58:57.000Z</time>
      </trkpt>
      <trkpt lat="48.88215" lon="2.33917">
        <ele>119.6</ele>
        <time>2013-08-06T19:58:59.000Z</time>
      </trkpt>
      <trkpt lat="48.88215" lon="2.33914">
        <ele>120.5</ele>
        <time>2013-08-06T19:59:00.000Z</time>
      </trkpt>
      <trkpt lat="48.88216" lon="2.3391">
        <ele>121.1</ele>
        <time>2013-08-06T19:59:01.000Z</time>
      </trkpt>
      <trkpt lat="48.88216" lon="2.33905">
        <ele>121.8</ele>
        <time>2013-08-06T19:59:02.000Z</time>
      </trkpt>
      <trkpt lat="48.88217" lon="2.33901">
        <ele>121.1</ele>
        <time>2013-08-06T19:59:03.000Z</time>
      </trkpt>
      <trkpt lat="48.88217" lon="2.33897">
        <ele>120.7</ele>
        <time>2013-08-06T19:59:04.000Z</time>
      </trkpt>
      <trkpt lat="48.88218" lon="2.33893">
        <ele>121.8</ele>
        <time>2013-08-06T19:59:05.000Z</time>
      </trkpt>
      <trkpt lat="48.88219" lon="2.33888">
        <ele>121.6</ele>
        <time>2013-08-06T19:59:06.000Z</time>
      </trkpt>
      <trkpt lat="48.88219" lon="2.33883">
        <ele>122.6</ele>
        <time>2013-08-06T19:59:07.000Z</time>
      </trkpt>
      <trkpt lat="48.8822" lon="2.33876">
        <ele>121.8</ele>
        <time>2013-08-06T19:59:08.000Z</time>
      </trkpt>
      <trkpt lat="48.8822" lon="2.3387">
        <ele>122.4</ele>
        <time>2013-08-06T19:59:09.000Z</time>
      </trkpt>
      <trkpt lat="48.88221" lon="2.33864">
        <ele>122.6</ele>
        <time>2013-08-06T19:59:10.000Z</time>
      </trkpt>
      <trkpt lat="48.88221" lon="2.33859">
        <ele>122.8</ele>
        <time>2013-08-06T19:59:11.000Z</time>
      </trkpt>
      <trkpt lat="48.88221" lon="2.33854">
        <ele>123.5</ele>
        <time>2013-08-06T19:59:12.000Z</time>
      </trkpt>
      <trkpt lat="48.88222" lon="2.33849">
        <ele>122.8</ele>
        <time>2013-08-06T19:59:13.000Z</time>
      </trkpt>
      <trkpt lat="48.88223" lon="2.33843">
        <ele>122.8</ele>
        <time>2013-08-06T19:59:14.000Z</time>
      </trkpt>
      <trkpt lat="48.88223" lon="2.33838">
        <ele>122.9</ele>
        <time>2013-08-06T19:59:15.000Z</time>
      </trkpt>
      <trkpt lat="48.88223" lon="2.33832">
        <ele>121.3</ele>
        <time>2013-08-06T19:59:16.000Z</time>
      </trkpt>
      <trkpt lat="48.88224" lon="2.33827">
        <ele>119.5</ele>
        <time>2013-08-06T19:59:17.000Z</time>
      </trkpt>
      <trkpt lat="48.88224" lon="2.33821">
        <ele>118.9</ele>
        <time>2013-08-06T19:59:18.000Z</time>
      </trkpt>
      <trkpt lat="48.88224" lon="2.33816">
        <ele>118.5</ele>
        <time>2013-08-06T19:59:19.000Z</time>
      </trkpt>
      <trkpt lat="48.88225" lon="2.3381">
        <ele>116.9</ele>
        <time>2013-08-06T19:59:20.000Z</time>
      </trkpt>
      <trkpt lat="48.88225" lon="2.33805">
        <ele>116.2</ele>
        <time>2013-08-06T19:59:21.000Z</time>
      </trkpt>
      <trkpt lat="48.88226" lon="2.338">
        <ele>116.1</ele>
        <time>2013-08-06T19:59:22.000Z</time>
      </trkpt>
      <trkpt lat="48.88227" lon="2.33795">
        <ele>115.4</ele>
        <time>2013-08-06T19:59:23.000Z</time>
      </trkpt>
      <trkpt lat="48.88228" lon="2.3379">
        <ele>116.5</ele>
        <time>2013-08-06T19:59:24.000Z</time>
      </trkpt>
      <trkpt lat="48.88229" lon="2.33786">
        <ele>116.2</ele>
        <time>2013-08-06T19:59:25.000Z</time>
      </trkpt>
      <trkpt lat="48.8823" lon="2.33781">
        <ele>116.9</ele>
        <time>2013-08-06T19:59:26.000Z</time>
      </trkpt>
      <trkpt lat="48.88231" lon="2.33775">
        <ele>116.8</ele>
        <time>2013-08-06T19:59:28.000Z</time>
      </trkpt>
      <trkpt lat="48.88232" lon="2.33773">
        <ele>116.5</ele>
        <time>2013-08-06T19:59:29.000Z</time>
      </trkpt>
      <trkpt lat="48.88232" lon="2.33769">
        <ele>117.7</ele>
        <time>2013-08-06T19:59:31.000Z</time>
      </trkpt>
      <trkpt lat="48.88233" lon="2.33766">
        <ele>118.4</ele>
        <time>2013-08-06T19:59:32.000Z</time>
      </trkpt>
      <trkpt lat="48.88233" lon="2.33761">
        <ele>121.3</ele>
        <time>2013-08-06T19:59:34.000Z</time>
      </trkpt>
      <trkpt lat="48.88233" lon="2.33758">
        <ele>120.6</ele>
        <time>2013-08-06T19:59:35.000Z</time>
      </trkpt>
      <trkpt lat="48.88233" lon="2.33754">
        <ele>121.9</ele>
        <time>2013-08-06T19:59:36.000Z</time>
      </trkpt>
      <trkpt lat="48.88234" lon="2.33744">
        <ele>121.5</ele>
        <time>2013-08-06T19:59:37.786Z</time>
      </trkpt>
      <trkpt lat="48.88234" lon="2.33738">
        <ele>120.4</ele>
        <time>2013-08-06T19:59:39.000Z</time>
      </trkpt>
      <trkpt lat="48.88235" lon="2.33732">
        <ele>120.4</ele>
        <time>2013-08-06T19:59:40.000Z</time>
      </trkpt>
      <trkpt lat="48.88235" lon="2.33728">
        <ele>120.5</ele>
        <time>2013-08-06T19:59:41.000Z</time>
      </trkpt>
      <trkpt lat="48.88236" lon="2.33723">
        <ele>119.7</ele>
        <time>2013-08-06T19:59:42.000Z</time>
      </trkpt>
      <trkpt lat="48.88237" lon="2.33719">
        <ele>120.5</ele>
        <time>2013-08-06T19:59:43.000Z</time>
      </trkpt>
      <trkpt lat="48.88239" lon="2.33717">
        <ele>119.8</ele>
        <time>2013-08-06T19:59:44.000Z</time>
      </trkpt>
      <trkpt lat="48.88241" lon="2.33713">
        <ele>114.9</ele>
        <time>2013-08-06T19:59:54.000Z</time>
      </trkpt>
      <trkpt lat="48.88242" lon="2.33711">
        <ele>114.7</ele>
        <time>2013-08-06T19:59:55.000Z</time>
      </trkpt>
      <trkpt lat="48.88243" lon="2.33705">
        <ele>117.6</ele>
        <time>2013-08-06T19:59:58.000Z</time>
      </trkpt>
      <trkpt lat="48.88243" lon="2.33704">
        <ele>118</ele>
        <time>2013-08-06T19:59:59.000Z</time>
      </trkpt>
      <trkpt lat="48.88244" lon="2.33698">
        <ele>118</ele>
        <time>2013-08-06T20:00:01.000Z</time>
      </trkpt>
      <trkpt lat="48.88245" lon="2.33694">
        <ele>117.1</ele>
        <time>2013-08-06T20:00:02.000Z</time>
      </trkpt>
      <trkpt lat="48.88247" lon="2.33689">
        <ele>117.7</ele>
        <time>2013-08-06T20:00:03.000Z</time>
      </trkpt>
      <trkpt lat="48.88249" lon="2.33684">
        <ele>116.9</ele>
        <time>2013-08-06T20:00:04.000Z</time>
      </trkpt>
      <trkpt lat="48.88252" lon="2.33679">
        <ele>115.8</ele>
        <time>2013-08-06T20:00:05.000Z</time>
      </trkpt>
      <trkpt lat="48.88254" lon="2.33674">
        <ele>116.6</ele>
        <time>2013-08-06T20:00:06.000Z</time>
      </trkpt>
      <trkpt lat="48.88255" lon="2.33668">
        <ele>117.2</ele>
        <time>2013-08-06T20:00:07.000Z</time>
      </trkpt>
      <trkpt lat="48.88257" lon="2.33663">
        <ele>117</ele>
        <time>2013-08-06T20:00:08.000Z</time>
      </trkpt>
      <trkpt lat="48.88259" lon="2.33658">
        <ele>116.9</ele>
        <time>2013-08-06T20:00:09.000Z</time>
      </trkpt>
      <trkpt lat="48.88261" lon="2.33652">
        <ele>115.9</ele>
        <time>2013-08-06T20:00:10.000Z</time>
      </trkpt>
      <trkpt lat="48.88262" lon="2.33647">
        <ele>115.7</ele>
        <time>2013-08-06T20:00:11.000Z</time>
      </trkpt>
      <trkpt lat="48.88263" lon="2.33641">
        <ele>115.2</ele>
        <time>2013-08-06T20:00:12.000Z</time>
      </trkpt>
      <trkpt lat="48.88265" lon="2.33634">
        <ele>117</ele>
        <time>2013-08-06T20:00:13.000Z</time>
      </trkpt>
      <trkpt lat="48.88266" lon="2.33628">
        <ele>117.8</ele>
        <time>2013-08-06T20:00:14.000Z</time>
      </trkpt>
      <trkpt lat="48.88267" lon="2.33621">
        <ele>119.9</ele>
        <time>2013-08-06T20:00:15.000Z</time>
      </trkpt>
      <trkpt lat="48.88269" lon="2.33615">
        <ele>121.4</ele>
        <time>2013-08-06T20:00:16.000Z</time>
      </trkpt>
      <trkpt lat="48.8827" lon="2.33609">
        <ele>122.9</ele>
        <time>2013-08-06T20:00:17.000Z</time>
      </trkpt>
      <trkpt lat="48.88271" lon="2.33603">
        <ele>124.4</ele>
        <time>2013-08-06T20:00:18.000Z</time>
      </trkpt>
      <trkpt lat="48.88273" lon="2.33598">
        <ele>125</ele>
        <time>2013-08-06T20:00:19.000Z</time>
      </trkpt>
      <trkpt lat="48.88274" lon="2.33592">
        <ele>124.7</ele>
        <time>2013-08-06T20:00:20.000Z</time>
      </trkpt>
      <trkpt lat="48.88276" lon="2.33586">
        <ele>123.4</ele>
        <time>2013-08-06T20:00:21.000Z</time>
      </trkpt>
      <trkpt lat="48.88278" lon="2.3358">
        <ele>123.9</ele>
        <time>2013-08-06T20:00:22.000Z</time>
      </trkpt>
      <trkpt lat="48.88279" lon="2.33575">
        <ele>123.8</ele>
        <time>2013-08-06T20:00:23.000Z</time>
      </trkpt>
      <trkpt lat="48.88281" lon="2.33569">
        <ele>125.1</ele>
        <time>2013-08-06T20:00:24.000Z</time>
      </trkpt>
      <trkpt lat="48.88282" lon="2.33564">
        <ele>124.8</ele>
        <time>2013-08-06T20:00:25.000Z</time>
      </trkpt>
      <trkpt lat="48.88284" lon="2.33558">
        <ele>124.7</ele>
        <time>2013-08-06T20:00:26.000Z</time>
      </trkpt>
      <trkpt lat="48.88285" lon="2.33553">
        <ele>124.5</ele>
        <time>2013-08-06T20:00:27.000Z</time>
      </trkpt>
      <trkpt lat="48.88286" lon="2.33547">
        <ele>124.4</ele>
        <time>2013-08-06T20:00:28.000Z</time>
      </trkpt>
      <trkpt lat="48.88287" lon="2.33542">
        <ele>124.3</ele>
        <time>2013-08-06T20:00:29.000Z</time>
      </trkpt>
      <trkpt lat="48.88289" lon="2.33536">
        <ele>123.6</ele>
        <time>2013-08-06T20:00:30.000Z</time>
      </trkpt>
      <trkpt lat="48.8829" lon="2.33531">
        <ele>123.6</ele>
        <time>2013-08-06T20:00:31.000Z</time>
      </trkpt>
      <trkpt lat="48.88292" lon="2.33525">
        <ele>124.6</ele>
        <time>2013-08-06T20:00:32.000Z</time>
      </trkpt>
      <trkpt lat="48.88293" lon="2.3352">
        <ele>124.7</ele>
        <time>2013-08-06T20:00:33.000Z</time>
      </trkpt>
      <trkpt lat="48.88294" lon="2.33516">
        <ele>126.5</ele>
        <time>2013-08-06T20:00:34.000Z</time>
      </trkpt>
      <trkpt lat="48.88295" lon="2.33511">
        <ele>123.6</ele>
        <time>2013-08-06T20:00:35.000Z</time>
      </trkpt>
      <trkpt lat="48.88296" lon="2.33506">
        <ele>122.3</ele>
        <time>2013-08-06T20:00:36.000Z</time>
      </trkpt>
      <trkpt lat="48.88297" lon="2.33495">
        <ele>122.1</ele>
        <time>2013-08-06T20:00:37.974Z</time>
      </trkpt>
      <trkpt lat="48.88298" lon="2.3349">
        <ele>122.1</ele>
        <time>2013-08-06T20:00:39.000Z</time>
      </trkpt>
      <trkpt lat="48.88299" lon="2.33485">
        <ele>122.2</ele>
        <time>2013-08-06T20:00:40.000Z</time>
      </trkpt>
      <trkpt lat="48.88301" lon="2.3348">
        <ele>122</ele>
        <time>2013-08-06T20:00:41.000Z</time>
      </trkpt>
      <trkpt lat="48.88303" lon="2.33475">
        <ele>122.9</ele>
        <time>2013-08-06T20:00:42.000Z</time>
      </trkpt>
      <trkpt lat="48.88304" lon="2.3347">
        <ele>119.3</ele>
        <time>2013-08-06T20:00:43.000Z</time>
      </trkpt>
      <trkpt lat="48.88306" lon="2.33465">
        <ele>119</ele>
        <time>2013-08-06T20:00:44.000Z</time>
      </trkpt>
      <trkpt lat="48.88308" lon="2.33461">
        <ele>122.4</ele>
        <time>2013-08-06T20:00:45.000Z</time>
      </trkpt>
      <trkpt lat="48.8831" lon="2.33456">
        <ele>122.2</ele>
        <time>2013-08-06T20:00:46.000Z</time>
      </trkpt>
      <trkpt lat="48.88312" lon="2.33453">
        <ele>122.8</ele>
        <time>2013-08-06T20:00:47.000Z</time>
      </trkpt>
      <trkpt lat="48.88314" lon="2.33449">
        <ele>123.1</ele>
        <time>2013-08-06T20:00:48.000Z</time>
      </trkpt>
      <trkpt lat="48.88316" lon="2.33444">
        <ele>121.2</ele>
        <time>2013-08-06T20:00:49.000Z</time>
      </trkpt>
      <trkpt lat="48.88317" lon="2.33439">
        <ele>121.3</ele>
        <time>2013-08-06T20:00:50.000Z</time>
      </trkpt>
      <trkpt lat="48.88319" lon="2.33434">
        <ele>121.5</ele>
        <time>2013-08-06T20:00:51.000Z</time>
      </trkpt>
      <trkpt lat="48.8832" lon="2.3343">
        <ele>121.8</ele>
        <time>2013-08-06T20:00:52.000Z</time>
      </trkpt>
      <trkpt lat="48.88322" lon="2.33425">
        <ele>122</ele>
        <time>2013-08-06T20:00:53.000Z</time>
      </trkpt>
      <trkpt lat="48.88323" lon="2.3342">
        <ele>122.1</ele>
        <time>2013-08-06T20:00:54.000Z</time>
      </trkpt>
      <trkpt lat="48.88325" lon="2.33415">
        <ele>121.4</ele>
        <time>2013-08-06T20:00:55.000Z</time>
      </trkpt>
      <trkpt lat="48.88327" lon="2.3341">
        <ele>120.6</ele>
        <time>2013-08-06T20:00:56.000Z</time>
      </trkpt>
      <trkpt lat="48.88329" lon="2.33405">
        <ele>121.1</ele>
        <time>2013-08-06T20:00:57.000Z</time>
      </trkpt>
      <trkpt lat="48.8833" lon="2.33399">
        <ele>120.8</ele>
        <time>2013-08-06T20:00:58.000Z</time>
      </trkpt>
      <trkpt lat="48.88332" lon="2.33393">
        <ele>121.4</ele>
        <time>2013-08-06T20:00:59.000Z</time>
      </trkpt>
      <trkpt lat="48.88333" lon="2.33387">
        <ele>121.5</ele>
        <time>2013-08-06T20:01:00.000Z</time>
      </trkpt>
      <trkpt lat="48.88335" lon="2.33382">
        <ele>120.9</ele>
        <time>2013-08-06T20:01:01.000Z</time>
      </trkpt>
      <trkpt lat="48.88337" lon="2.33377">
        <ele>120.7</ele>
        <time>2013-08-06T20:01:02.000Z</time>
      </trkpt>
      <trkpt lat="48.88339" lon="2.33372">
        <ele>120.4</ele>
        <time>2013-08-06T20:01:03.000Z</time>
      </trkpt>
      <trkpt lat="48.8834" lon="2.33367">
        <ele>120.7</ele>
        <time>2013-08-06T20:01:04.000Z</time>
      </trkpt>
      <trkpt lat="48.88342" lon="2.33363">
        <ele>121.3</ele>
        <time>2013-08-06T20:01:05.000Z</time>
      </trkpt>
      <trkpt lat="48.88344" lon="2.33359">
        <ele>124.1</ele>
        <time>2013-08-06T20:01:06.000Z</time>
      </trkpt>
      <trkpt lat="48.88345" lon="2.33355">
        <ele>123.3</ele>
        <time>2013-08-06T20:01:07.000Z</time>
      </trkpt>
      <trkpt lat="48.88346" lon="2.33349">
        <ele>121.6</ele>
        <time>2013-08-06T20:01:08.000Z</time>
      </trkpt>
      <trkpt lat="48.88347" lon="2.33344">
        <ele>122</ele>
        <time>2013-08-06T20:01:09.000Z</time>
      </trkpt>
      <trkpt lat="48.88349" lon="2.33339">
        <ele>122.2</ele>
        <time>2013-08-06T20:01:10.000Z</time>
      </trkpt>
      <trkpt lat="48.8835" lon="2.33335">
        <ele>122.3</ele>
        <time>2013-08-06T20:01:11.000Z</time>
      </trkpt>
      <trkpt lat="48.88352" lon="2.33329">
        <ele>122.3</ele>
        <time>2013-08-06T20:01:12.000Z</time>
      </trkpt>
      <trkpt lat="48.88354" lon="2.33324">
        <ele>123.1</ele>
        <time>2013-08-06T20:01:13.000Z</time>
      </trkpt>
      <trkpt lat="48.88355" lon="2.33319">
        <ele>122.7</ele>
        <time>2013-08-06T20:01:14.000Z</time>
      </trkpt>
      <trkpt lat="48.88357" lon="2.33314">
        <ele>121.4</ele>
        <time>2013-08-06T20:01:15.000Z</time>
      </trkpt>
      <trkpt lat="48.88358" lon="2.33309">
        <ele>121.3</ele>
        <time>2013-08-06T20:01:16.000Z</time>
      </trkpt>
      <trkpt lat="48.88359" lon="2.33306">
        <ele>120.2</ele>
        <time>2013-08-06T20:01:17.000Z</time>
      </trkpt>
      <trkpt lat="48.88361" lon="2.33303">
        <ele>121.6</ele>
        <time>2013-08-06T20:01:18.000Z</time>
      </trkpt>
      <trkpt lat="48.88363" lon="2.333">
        <ele>121.4</ele>
        <time>2013-08-06T20:01:19.000Z</time>
      </trkpt>
      <trkpt lat="48.88364" lon="2.33297">
        <ele>120.8</ele>
        <time>2013-08-06T20:01:20.000Z</time>
      </trkpt>
      <trkpt lat="48.88366" lon="2.33293">
        <ele>120.9</ele>
        <time>2013-08-06T20:01:22.000Z</time>
      </trkpt>
      <trkpt lat="48.88367" lon="2.33291">
        <ele>120.9</ele>
        <time>2013-08-06T20:01:23.000Z</time>
      </trkpt>
      <trkpt lat="48.88369" lon="2.33285">
        <ele>120.2</ele>
        <time>2013-08-06T20:01:25.000Z</time>
      </trkpt>
      <trkpt lat="48.8837" lon="2.33283">
        <ele>120.1</ele>
        <time>2013-08-06T20:01:26.000Z</time>
      </trkpt>
      <trkpt lat="48.8837" lon="2.33279">
        <ele>120.3</ele>
        <time>2013-08-06T20:01:27.000Z</time>
      </trkpt>
      <trkpt lat="48.88371" lon="2.33276">
        <ele>120</ele>
        <time>2013-08-06T20:01:28.000Z</time>
      </trkpt>
      <trkpt lat="48.88372" lon="2.33273">
        <ele>120.7</ele>
        <time>2013-08-06T20:01:29.000Z</time>
      </trkpt>
      <trkpt lat="48.88373" lon="2.33268">
        <ele>119.9</ele>
        <time>2013-08-06T20:01:30.000Z</time>
      </trkpt>
      <trkpt lat="48.88375" lon="2.33265">
        <ele>120</ele>
        <time>2013-08-06T20:01:31.000Z</time>
      </trkpt>
      <trkpt lat="48.88376" lon="2.33261">
        <ele>119.5</ele>
        <time>2013-08-06T20:01:32.000Z</time>
      </trkpt>
      <trkpt lat="48.88378" lon="2.33258">
        <ele>119.3</ele>
        <time>2013-08-06T20:01:33.000Z</time>
      </trkpt>
      <trkpt lat="48.88379" lon="2.33254">
        <ele>119.6</ele>
        <time>2013-08-06T20:01:34.000Z</time>
      </trkpt>
      <trkpt lat="48.8838" lon="2.33251">
        <ele>119.6</ele>
        <time>2013-08-06T20:01:35.000Z</time>
      </trkpt>
      <trkpt lat="48.88382" lon="2.33248">
        <ele>119.6</ele>
        <time>2013-08-06T20:01:36.000Z</time>
      </trkpt>
      <trkpt lat="48.88384" lon="2.33241">
        <ele>119.1</ele>
        <time>2013-08-06T20:01:37.887Z</time>
      </trkpt>
      <trkpt lat="48.88384" lon="2.33238">
        <ele>118.1</ele>
        <time>2013-08-06T20:01:39.000Z</time>
      </trkpt>
      <trkpt lat="48.88384" lon="2.33234">
        <ele>118.9</ele>
        <time>2013-08-06T20:01:40.000Z</time>
      </trkpt>
      <trkpt lat="48.88383" lon="2.33231">
        <ele>119.8</ele>
        <time>2013-08-06T20:01:41.000Z</time>
      </trkpt>
      <trkpt lat="48.88381" lon="2.33227">
        <ele>117.6</ele>
        <time>2013-08-06T20:01:42.000Z</time>
      </trkpt>
      <trkpt lat="48.8838" lon="2.33224">
        <ele>117.5</ele>
        <time>2013-08-06T20:01:43.000Z</time>
      </trkpt>
      <trkpt lat="48.8838" lon="2.3322">
        <ele>118.3</ele>
        <time>2013-08-06T20:01:44.000Z</time>
      </trkpt>
      <trkpt lat="48.8838" lon="2.33216">
        <ele>118.7</ele>
        <time>2013-08-06T20:01:45.000Z</time>
      </trkpt>
      <trkpt lat="48.88381" lon="2.33212">
        <ele>119</ele>
        <time>2013-08-06T20:01:46.000Z</time>
      </trkpt>
      <trkpt lat="48.88382" lon="2.33209">
        <ele>118.8</ele>
        <time>2013-08-06T20:01:47.000Z</time>
      </trkpt>
      <trkpt lat="48.88384" lon="2.33206">
        <ele>119.5</ele>
        <time>2013-08-06T20:01:48.000Z</time>
      </trkpt>
      <trkpt lat="48.88386" lon="2.33204">
        <ele>119.7</ele>
        <time>2013-08-06T20:01:49.000Z</time>
      </trkpt>
      <trkpt lat="48.88387" lon="2.332">
        <ele>121.7</ele>
        <time>2013-08-06T20:01:50.000Z</time>
      </trkpt>
      <trkpt lat="48.88389" lon="2.33198">
        <ele>122.5</ele>
        <time>2013-08-06T20:01:51.000Z</time>
      </trkpt>
      <trkpt lat="48.8839" lon="2.33194">
        <ele>121.8</ele>
        <time>2013-08-06T20:01:52.000Z</time>
      </trkpt>
      <trkpt lat="48.88391" lon="2.33191">
        <ele>121.5</ele>
        <time>2013-08-06T20:01:53.000Z</time>
      </trkpt>
      <trkpt lat="48.88392" lon="2.33187">
        <ele>121.6</ele>
        <time>2013-08-06T20:01:54.000Z</time>
      </trkpt>
      <trkpt lat="48.88393" lon="2.33184">
        <ele>122</ele>
        <time>2013-08-06T20:01:55.000Z</time>
      </trkpt>
      <trkpt lat="48.88394" lon="2.3318">
        <ele>122.8</ele>
        <time>2013-08-06T20:01:56.000Z</time>
      </trkpt>
      <trkpt lat="48.88395" lon="2.33176">
        <ele>121.2</ele>
        <time>2013-08-06T20:01:57.000Z</time>
      </trkpt>
      <trkpt lat="48.88396" lon="2.33172">
        <ele>121.4</ele>
        <time>2013-08-06T20:01:58.000Z</time>
      </trkpt>
      <trkpt lat="48.88398" lon="2.33169">
        <ele>122.3</ele>
        <time>2013-08-06T20:01:59.000Z</time>
      </trkpt>
      <trkpt lat="48.88399" lon="2.33165">
        <ele>122.6</ele>
        <time>2013-08-06T20:02:00.000Z</time>
      </trkpt>
      <trkpt lat="48.884" lon="2.33161">
        <ele>122.8</ele>
        <time>2013-08-06T20:02:01.000Z</time>
      </trkpt>
      <trkpt lat="48.88401" lon="2.33156">
        <ele>123.7</ele>
        <time>2013-08-06T20:02:02.000Z</time>
      </trkpt>
      <trkpt lat="48.88402" lon="2.3315">
        <ele>123.9</ele>
        <time>2013-08-06T20:02:03.000Z</time>
      </trkpt>
      <trkpt lat="48.88402" lon="2.33144">
        <ele>124.7</ele>
        <time>2013-08-06T20:02:04.000Z</time>
      </trkpt>
      <trkpt lat="48.88403" lon="2.33138">
        <ele>125.1</ele>
        <time>2013-08-06T20:02:05.000Z</time>
      </trkpt>
      <trkpt lat="48.88404" lon="2.33134">
        <ele>125.1</ele>
        <time>2013-08-06T20:02:06.000Z</time>
      </trkpt>
      <trkpt lat="48.88406" lon="2.33129">
        <ele>126.1</ele>
        <time>2013-08-06T20:02:07.000Z</time>
      </trkpt>
      <trkpt lat="48.88407" lon="2.33124">
        <ele>126.3</ele>
        <time>2013-08-06T20:02:08.000Z</time>
      </trkpt>
      <trkpt lat="48.88408" lon="2.33119">
        <ele>128.7</ele>
        <time>2013-08-06T20:02:09.000Z</time>
      </trkpt>
      <trkpt lat="48.88409" lon="2.33114">
        <ele>129.2</ele>
        <time>2013-08-06T20:02:10.000Z</time>
      </trkpt>
      <trkpt lat="48.8841" lon="2.33108">
        <ele>129.2</ele>
        <time>2013-08-06T20:02:11.000Z</time>
      </trkpt>
      <trkpt lat="48.88412" lon="2.33102">
        <ele>124.8</ele>
        <time>2013-08-06T20:02:12.000Z</time>
      </trkpt>
      <trkpt lat="48.88413" lon="2.33097">
        <ele>125.7</ele>
        <time>2013-08-06T20:02:13.000Z</time>
      </trkpt>
      <trkpt lat="48.88414" lon="2.33091">
        <ele>126.4</ele>
        <time>2013-08-06T20:02:14.000Z</time>
      </trkpt>
      <trkpt lat="48.88415" lon="2.33085">
        <ele>126.3</ele>
        <time>2013-08-06T20:02:15.000Z</time>
      </trkpt>
      <trkpt lat="48.88416" lon="2.3308">
        <ele>126.7</ele>
        <time>2013-08-06T20:02:16.000Z</time>
      </trkpt>
      <trkpt lat="48.88417" lon="2.33075">
        <ele>127.5</ele>
        <time>2013-08-06T20:02:17.000Z</time>
      </trkpt>
      <trkpt lat="48.88419" lon="2.3307">
        <ele>127.2</ele>
        <time>2013-08-06T20:02:18.000Z</time>
      </trkpt>
      <trkpt lat="48.8842" lon="2.33065">
        <ele>127.2</ele>
        <time>2013-08-06T20:02:19.000Z</time>
      </trkpt>
      <trkpt lat="48.88421" lon="2.3306">
        <ele>126.9</ele>
        <time>2013-08-06T20:02:20.000Z</time>
      </trkpt>
      <trkpt lat="48.88422" lon="2.33056">
        <ele>126.1</ele>
        <time>2013-08-06T20:02:21.000Z</time>
      </trkpt>
      <trkpt lat="48.88423" lon="2.33051">
        <ele>126</ele>
        <time>2013-08-06T20:02:22.000Z</time>
      </trkpt>
      <trkpt lat="48.88424" lon="2.33048">
        <ele>126.3</ele>
        <time>2013-08-06T20:02:23.000Z</time>
      </trkpt>
      <trkpt lat="48.88425" lon="2.33044">
        <ele>124</ele>
        <time>2013-08-06T20:02:24.000Z</time>
      </trkpt>
      <trkpt lat="48.88426" lon="2.3304">
        <ele>122.7</ele>
        <time>2013-08-06T20:02:25.000Z</time>
      </trkpt>
      <trkpt lat="48.88427" lon="2.33036">
        <ele>123.2</ele>
        <time>2013-08-06T20:02:26.000Z</time>
      </trkpt>
      <trkpt lat="48.88429" lon="2.33032">
        <ele>125.1</ele>
        <time>2013-08-06T20:02:27.000Z</time>
      </trkpt>
      <trkpt lat="48.8843" lon="2.33027">
        <ele>125.7</ele>
        <time>2013-08-06T20:02:28.000Z</time>
      </trkpt>
      <trkpt lat="48.88431" lon="2.33023">
        <ele>125.6</ele>
        <time>2013-08-06T20:02:29.000Z</time>
      </trkpt>
      <trkpt lat="48.88431" lon="2.33018">
        <ele>125.9</ele>
        <time>2013-08-06T20:02:30.000Z</time>
      </trkpt>
      <trkpt lat="48.88432" lon="2.33014">
        <ele>125.5</ele>
        <time>2013-08-06T20:02:31.000Z</time>
      </trkpt>
      <trkpt lat="48.88433" lon="2.3301">
        <ele>127.4</ele>
        <time>2013-08-06T20:02:32.000Z</time>
      </trkpt>
      <trkpt lat="48.88434" lon="2.33005">
        <ele>127.4</ele>
        <time>2013-08-06T20:02:33.000Z</time>
      </trkpt>
      <trkpt lat="48.88435" lon="2.33001">
        <ele>127.7</ele>
        <time>2013-08-06T20:02:34.000Z</time>
      </trkpt>
      <trkpt lat="48.88436" lon="2.32997">
        <ele>128.5</ele>
        <time>2013-08-06T20:02:35.000Z</time>
      </trkpt>
      <trkpt lat="48.88437" lon="2.32993">
        <ele>129</ele>
        <time>2013-08-06T20:02:36.000Z</time>
      </trkpt>
      <trkpt lat="48.8844" lon="2.32987">
        <ele>128.6</ele>
        <time>2013-08-06T20:02:38.179Z</time>
      </trkpt>
      <trkpt lat="48.88441" lon="2.32982">
        <ele>123.7</ele>
        <time>2013-08-06T20:02:40.000Z</time>
      </trkpt>
      <trkpt lat="48.88442" lon="2.32979">
        <ele>124.4</ele>
        <time>2013-08-06T20:02:41.000Z</time>
      </trkpt>
      <trkpt lat="48.88444" lon="2.32976">
        <ele>121.9</ele>
        <time>2013-08-06T20:02:42.000Z</time>
      </trkpt>
      <trkpt lat="48.88446" lon="2.32973">
        <ele>121.9</ele>
        <time>2013-08-06T20:02:43.000Z</time>
      </trkpt>
      <trkpt lat="48.88447" lon="2.3297">
        <ele>122.7</ele>
        <time>2013-08-06T20:02:44.000Z</time>
      </trkpt>
      <trkpt lat="48.88449" lon="2.32967">
        <ele>123.9</ele>
        <time>2013-08-06T20:02:45.000Z</time>
      </trkpt>
      <trkpt lat="48.8845" lon="2.32965">
        <ele>123.8</ele>
        <time>2013-08-06T20:02:46.000Z</time>
      </trkpt>
      <trkpt lat="48.88452" lon="2.32962">
        <ele>124.1</ele>
        <time>2013-08-06T20:02:47.000Z</time>
      </trkpt>
      <trkpt lat="48.88454" lon="2.32956">
        <ele>124.1</ele>
        <time>2013-08-06T20:02:50.000Z</time>
      </trkpt>
      <trkpt lat="48.88454" lon="2.32954">
        <ele>124.2</ele>
        <time>2013-08-06T20:02:51.000Z</time>
      </trkpt>
      <trkpt lat="48.88455" lon="2.32948">
        <ele>121.6</ele>
        <time>2013-08-06T20:02:54.000Z</time>
      </trkpt>
      <trkpt lat="48.88455" lon="2.32947">
        <ele>119.4</ele>
        <time>2013-08-06T20:02:55.000Z</time>
      </trkpt>
      <trkpt lat="48.88452" lon="2.32942">
        <ele>116</ele>
        <time>2013-08-06T20:03:20.000Z</time>
      </trkpt>
      <trkpt lat="48.88452" lon="2.32942">
        <ele>116.2</ele>
        <time>2013-08-06T20:03:21.000Z</time>
      </trkpt>
      <trkpt lat="48.88455" lon="2.32937">
        <ele>118.7</ele>
        <time>2013-08-06T20:04:20.000Z</time>
      </trkpt>
      <trkpt lat="48.88457" lon="2.32937">
        <ele>118.8</ele>
        <time>2013-08-06T20:04:21.000Z</time>
      </trkpt>
      <trkpt lat="48.88461" lon="2.32937">
        <ele>117.7</ele>
        <time>2013-08-06T20:04:23.000Z</time>
      </trkpt>
      <trkpt lat="48.88464" lon="2.32939">
        <ele>116.4</ele>
        <time>2013-08-06T20:04:24.000Z</time>
      </trkpt>
      <trkpt lat="48.88466" lon="2.32939">
        <ele>117.4</ele>
        <time>2013-08-06T20:04:25.000Z</time>
      </trkpt>
      <trkpt lat="48.88469" lon="2.32939">
        <ele>117.5</ele>
        <time>2013-08-06T20:04:26.000Z</time>
      </trkpt>
      <trkpt lat="48.88471" lon="2.32938">
        <ele>116.5</ele>
        <time>2013-08-06T20:04:27.000Z</time>
      </trkpt>
      <trkpt lat="48.88473" lon="2.32936">
        <ele>116.5</ele>
        <time>2013-08-06T20:04:28.000Z</time>
      </trkpt>
      <trkpt lat="48.88475" lon="2.32935">
        <ele>115.5</ele>
        <time>2013-08-06T20:04:29.000Z</time>
      </trkpt>
      <trkpt lat="48.88478" lon="2.32933">
        <ele>111.2</ele>
        <time>2013-08-06T20:04:30.000Z</time>
      </trkpt>
      <trkpt lat="48.8848" lon="2.32933">
        <ele>110.6</ele>
        <time>2013-08-06T20:04:31.000Z</time>
      </trkpt>
      <trkpt lat="48.88483" lon="2.32932">
        <ele>109.5</ele>
        <time>2013-08-06T20:04:32.000Z</time>
      </trkpt>
      <trkpt lat="48.88486" lon="2.32933">
        <ele>110</ele>
        <time>2013-08-06T20:04:33.000Z</time>
      </trkpt>
      <trkpt lat="48.88489" lon="2.32933">
        <ele>111</ele>
        <time>2013-08-06T20:04:34.000Z</time>
      </trkpt>
      <trkpt lat="48.88492" lon="2.32933">
        <ele>111.7</ele>
        <time>2013-08-06T20:04:35.000Z</time>
      </trkpt>
      <trkpt lat="48.88495" lon="2.32932">
        <ele>113.1</ele>
        <time>2013-08-06T20:04:36.000Z</time>
      </trkpt>
      <trkpt lat="48.885" lon="2.32931">
        <ele>113.6</ele>
        <time>2013-08-06T20:04:37.805Z</time>
      </trkpt>
      <trkpt lat="48.88503" lon="2.32929">
        <ele>112.8</ele>
        <time>2013-08-06T20:04:39.000Z</time>
      </trkpt>
      <trkpt lat="48.88506" lon="2.32928">
        <ele>113.4</ele>
        <time>2013-08-06T20:04:40.000Z</time>
      </trkpt>
      <trkpt lat="48.88508" lon="2.32927">
        <ele>114.8</ele>
        <time>2013-08-06T20:04:41.000Z</time>
      </trkpt>
      <trkpt lat="48.88511" lon="2.32925">
        <ele>116</ele>
        <time>2013-08-06T20:04:42.000Z</time>
      </trkpt>
      <trkpt lat="48.88514" lon="2.32924">
        <ele>117.2</ele>
        <time>2013-08-06T20:04:43.000Z</time>
      </trkpt>
      <trkpt lat="48.88517" lon="2.32922">
        <ele>117.8</ele>
        <time>2013-08-06T20:04:44.000Z</time>
      </trkpt>
      <trkpt lat="48.8852" lon="2.32921">
        <ele>118.1</ele>
        <time>2013-08-06T20:04:45.000Z</time>
      </trkpt>
      <trkpt lat="48.88522" lon="2.3292">
        <ele>118.8</ele>
        <time>2013-08-06T20:04:46.000Z</time>
      </trkpt>
      <trkpt lat="48.88525" lon="2.3292">
        <ele>117.3</ele>
        <time>2013-08-06T20:04:47.000Z</time>
      </trkpt>
      <trkpt lat="48.88528" lon="2.3292">
        <ele>117.1</ele>
        <time>2013-08-06T20:04:48.000Z</time>
      </trkpt>
      <trkpt lat="48.88532" lon="2.3292">
        <ele>117.6</ele>
        <time>2013-08-06T20:04:49.000Z</time>
      </trkpt>
      <trkpt lat="48.88535" lon="2.32919">
        <ele>117.5</ele>
        <time>2013-08-06T20:04:50.000Z</time>
      </trkpt>
      <trkpt lat="48.88538" lon="2.32919">
        <ele>118.7</ele>
        <time>2013-08-06T20:04:51.000Z</time>
      </trkpt>
      <trkpt lat="48.88541" lon="2.32919">
        <ele>119.7</ele>
        <time>2013-08-06T20:04:52.000Z</time>
      </trkpt>
      <trkpt lat="48.88544" lon="2.32919">
        <ele>120.5</ele>
        <time>2013-08-06T20:04:53.000Z</time>
      </trkpt>
      <trkpt lat="48.88547" lon="2.32919">
        <ele>121.8</ele>
        <time>2013-08-06T20:04:54.000Z</time>
      </trkpt>
      <trkpt lat="48.8855" lon="2.32919">
        <ele>122.5</ele>
        <time>2013-08-06T20:04:55.000Z</time>
      </trkpt>
      <trkpt lat="48.88553" lon="2.32919">
        <ele>122.2</ele>
        <time>2013-08-06T20:04:56.000Z</time>
      </trkpt>
      <trkpt lat="48.88556" lon="2.32918">
        <ele>122.2</ele>
        <time>2013-08-06T20:04:57.000Z</time>
      </trkpt>
      <trkpt lat="48.88558" lon="2.32916">
        <ele>124.8</ele>
        <time>2013-08-06T20:04:58.000Z</time>
      </trkpt>
      <trkpt lat="48.88561" lon="2.32914">
        <ele>125.5</ele>
        <time>2013-08-06T20:04:59.000Z</time>
      </trkpt>
      <trkpt lat="48.88563" lon="2.32911">
        <ele>125.6</ele>
        <time>2013-08-06T20:05:00.000Z</time>
      </trkpt>
      <trkpt lat="48.88565" lon="2.32908">
        <ele>126.1</ele>
        <time>2013-08-06T20:05:01.000Z</time>
      </trkpt>
      <trkpt lat="48.88567" lon="2.32906">
        <ele>126.5</ele>
        <time>2013-08-06T20:05:02.000Z</time>
      </trkpt>
      <trkpt lat="48.88569" lon="2.32903">
        <ele>127</ele>
        <time>2013-08-06T20:05:03.000Z</time>
      </trkpt>
      <trkpt lat="48.88571" lon="2.329">
        <ele>126.5</ele>
        <time>2013-08-06T20:05:04.000Z</time>
      </trkpt>
      <trkpt lat="48.88573" lon="2.32897">
        <ele>126.6</ele>
        <time>2013-08-06T20:05:05.000Z</time>
      </trkpt>
      <trkpt lat="48.88575" lon="2.32894">
        <ele>127.3</ele>
        <time>2013-08-06T20:05:06.000Z</time>
      </trkpt>
      <trkpt lat="48.88576" lon="2.32891">
        <ele>125.1</ele>
        <time>2013-08-06T20:05:07.000Z</time>
      </trkpt>
      <trkpt lat="48.88578" lon="2.32887">
        <ele>124</ele>
        <time>2013-08-06T20:05:08.000Z</time>
      </trkpt>
      <trkpt lat="48.88579" lon="2.32883">
        <ele>124.1</ele>
        <time>2013-08-06T20:05:09.000Z</time>
      </trkpt>
      <trkpt lat="48.88581" lon="2.3288">
        <ele>123.9</ele>
        <time>2013-08-06T20:05:10.000Z</time>
      </trkpt>
      <trkpt lat="48.88583" lon="2.32876">
        <ele>124.3</ele>
        <time>2013-08-06T20:05:11.000Z</time>
      </trkpt>
      <trkpt lat="48.88584" lon="2.32873">
        <ele>124.1</ele>
        <time>2013-08-06T20:05:12.000Z</time>
      </trkpt>
      <trkpt lat="48.88586" lon="2.32869">
        <ele>124.5</ele>
        <time>2013-08-06T20:05:13.000Z</time>
      </trkpt>
      <trkpt lat="48.88588" lon="2.32866">
        <ele>124.6</ele>
        <time>2013-08-06T20:05:14.000Z</time>
      </trkpt>
      <trkpt lat="48.8859" lon="2.32863">
        <ele>125.2</ele>
        <time>2013-08-06T20:05:15.000Z</time>
      </trkpt>
      <trkpt lat="48.88592" lon="2.32859">
        <ele>125.8</ele>
        <time>2013-08-06T20:05:16.000Z</time>
      </trkpt>
      <trkpt lat="48.88593" lon="2.32856">
        <ele>126.1</ele>
        <time>2013-08-06T20:05:17.000Z</time>
      </trkpt>
      <trkpt lat="48.88595" lon="2.32853">
        <ele>126.6</ele>
        <time>2013-08-06T20:05:18.000Z</time>
      </trkpt>
      <trkpt lat="48.88597" lon="2.3285">
        <ele>126.9</ele>
        <time>2013-08-06T20:05:19.000Z</time>
      </trkpt>
      <trkpt lat="48.88599" lon="2.32847">
        <ele>127.6</ele>
        <time>2013-08-06T20:05:20.000Z</time>
      </trkpt>
      <trkpt lat="48.88602" lon="2.32844">
        <ele>127.9</ele>
        <time>2013-08-06T20:05:21.000Z</time>
      </trkpt>
      <trkpt lat="48.88605" lon="2.3284">
        <ele>128.2</ele>
        <time>2013-08-06T20:05:22.000Z</time>
      </trkpt>
      <trkpt lat="48.88608" lon="2.32837">
        <ele>129</ele>
        <time>2013-08-06T20:05:23.000Z</time>
      </trkpt>
      <trkpt lat="48.88611" lon="2.32834">
        <ele>129.4</ele>
        <time>2013-08-06T20:05:24.000Z</time>
      </trkpt>
      <trkpt lat="48.88614" lon="2.32831">
        <ele>129.3</ele>
        <time>2013-08-06T20:05:25.000Z</time>
      </trkpt>
      <trkpt lat="48.88618" lon="2.32829">
        <ele>130.1</ele>
        <time>2013-08-06T20:05:26.000Z</time>
      </trkpt>
      <trkpt lat="48.88621" lon="2.32825">
        <ele>130.6</ele>
        <time>2013-08-06T20:05:27.000Z</time>
      </trkpt>
      <trkpt lat="48.88624" lon="2.32822">
        <ele>129.8</ele>
        <time>2013-08-06T20:05:28.000Z</time>
      </trkpt>
      <trkpt lat="48.88626" lon="2.32818">
        <ele>129.9</ele>
        <time>2013-08-06T20:05:29.000Z</time>
      </trkpt>
      <trkpt lat="48.88629" lon="2.32815">
        <ele>130</ele>
        <time>2013-08-06T20:05:30.000Z</time>
      </trkpt>
      <trkpt lat="48.88632" lon="2.32811">
        <ele>130.3</ele>
        <time>2013-08-06T20:05:31.000Z</time>
      </trkpt>
      <trkpt lat="48.88635" lon="2.32807">
        <ele>130.4</ele>
        <time>2013-08-06T20:05:32.000Z</time>
      </trkpt>
      <trkpt lat="48.88637" lon="2.32803">
        <ele>129.8</ele>
        <time>2013-08-06T20:05:33.000Z</time>
      </trkpt>
      <trkpt lat="48.88639" lon="2.32799">
        <ele>127.3</ele>
        <time>2013-08-06T20:05:34.000Z</time>
      </trkpt>
      <trkpt lat="48.8864" lon="2.32794">
        <ele>127.7</ele>
        <time>2013-08-06T20:05:35.000Z</time>
      </trkpt>
      <trkpt lat="48.88642" lon="2.3279">
        <ele>127.3</ele>
        <time>2013-08-06T20:05:36.000Z</time>
      </trkpt>
      <trkpt lat="48.88646" lon="2.32779">
        <ele>126.1</ele>
        <time>2013-08-06T20:05:39.000Z</time>
      </trkpt>
      <trkpt lat="48.88647" lon="2.32774">
        <ele>126</ele>
        <time>2013-08-06T20:05:40.000Z</time>
      </trkpt>
      <trkpt lat="48.88649" lon="2.3277">
        <ele>125.6</ele>
        <time>2013-08-06T20:05:41.000Z</time>
      </trkpt>
      <trkpt lat="48.88651" lon="2.32767">
        <ele>126.9</ele>
        <time>2013-08-06T20:05:42.000Z</time>
      </trkpt>
      <trkpt lat="48.88654" lon="2.32765">
        <ele>125.5</ele>
        <time>2013-08-06T20:05:43.000Z</time>
      </trkpt>
      <trkpt lat="48.88658" lon="2.32763">
        <ele>123.3</ele>
        <time>2013-08-06T20:05:44.000Z</time>
      </trkpt>
      <trkpt lat="48.88662" lon="2.32763">
        <ele>121.5</ele>
        <time>2013-08-06T20:05:45.000Z</time>
      </trkpt>
      <trkpt lat="48.88666" lon="2.32762">
        <ele>120.5</ele>
        <time>2013-08-06T20:05:46.000Z</time>
      </trkpt>
      <trkpt lat="48.8867" lon="2.32761">
        <ele>120.6</ele>
        <time>2013-08-06T20:05:47.000Z</time>
      </trkpt>
      <trkpt lat="48.88674" lon="2.3276">
        <ele>120.7</ele>
        <time>2013-08-06T20:05:48.000Z</time>
      </trkpt>
      <trkpt lat="48.88677" lon="2.32758">
        <ele>121.4</ele>
        <time>2013-08-06T20:05:49.000Z</time>
      </trkpt>
      <trkpt lat="48.88679" lon="2.32755">
        <ele>120.9</ele>
        <time>2013-08-06T20:05:50.000Z</time>
      </trkpt>
      <trkpt lat="48.88681" lon="2.32751">
        <ele>120.5</ele>
        <time>2013-08-06T20:05:51.000Z</time>
      </trkpt>
      <trkpt lat="48.88682" lon="2.32748">
        <ele>120.4</ele>
        <time>2013-08-06T20:05:52.000Z</time>
      </trkpt>
      <trkpt lat="48.88683" lon="2.32745">
        <ele>120.2</ele>
        <time>2013-08-06T20:05:53.000Z</time>
      </trkpt>
      <trkpt lat="48.88685" lon="2.32742">
        <ele>119.1</ele>
        <time>2013-08-06T20:05:54.000Z</time>
      </trkpt>
      <trkpt lat="48.88686" lon="2.32739">
        <ele>119.3</ele>
        <time>2013-08-06T20:05:55.000Z</time>
      </trkpt>
      <trkpt lat="48.88688" lon="2.32736">
        <ele>119.1</ele>
        <time>2013-08-06T20:05:56.000Z</time>
      </trkpt>
      <trkpt lat="48.8869" lon="2.32734">
        <ele>118.7</ele>
        <time>2013-08-06T20:05:57.000Z</time>
      </trkpt>
      <trkpt lat="48.88692" lon="2.32731">
        <ele>119.1</ele>
        <time>2013-08-06T20:05:58.000Z</time>
      </trkpt>
      <trkpt lat="48.88694" lon="2.32729">
        <ele>120</ele>
        <time>2013-08-06T20:05:59.000Z</time>
      </trkpt>
      <trkpt lat="48.88697" lon="2.32727">
        <ele>120.4</ele>
        <time>2013-08-06T20:06:00.000Z</time>
      </trkpt>
      <trkpt lat="48.88699" lon="2.32725">
        <ele>119.4</ele>
        <time>2013-08-06T20:06:01.000Z</time>
      </trkpt>
      <trkpt lat="48.88701" lon="2.32723">
        <ele>119.4</ele>
        <time>2013-08-06T20:06:02.000Z</time>
      </trkpt>
      <trkpt lat="48.88703" lon="2.32722">
        <ele>120.5</ele>
        <time>2013-08-06T20:06:03.000Z</time>
      </trkpt>
      <trkpt lat="48.88706" lon="2.32718">
        <ele>124.1</ele>
        <time>2013-08-06T20:06:05.000Z</time>
      </trkpt>
      <trkpt lat="48.88707" lon="2.32716">
        <ele>124.7</ele>
        <time>2013-08-06T20:06:06.000Z</time>
      </trkpt>
      <trkpt lat="48.88709" lon="2.32714">
        <ele>123.8</ele>
        <time>2013-08-06T20:06:07.000Z</time>
      </trkpt>
      <trkpt lat="48.88711" lon="2.32712">
        <ele>121.7</ele>
        <time>2013-08-06T20:06:08.000Z</time>
      </trkpt>
      <trkpt lat="48.88713" lon="2.32709">
        <ele>120.3</ele>
        <time>2013-08-06T20:06:09.000Z</time>
      </trkpt>
      <trkpt lat="48.88716" lon="2.32706">
        <ele>119.5</ele>
        <time>2013-08-06T20:06:10.000Z</time>
      </trkpt>
      <trkpt lat="48.88719" lon="2.32704">
        <ele>119.8</ele>
        <time>2013-08-06T20:06:11.000Z</time>
      </trkpt>
      <trkpt lat="48.88721" lon="2.32704">
        <ele>120.2</ele>
        <time>2013-08-06T20:06:12.000Z</time>
      </trkpt>
      <trkpt lat="48.88725" lon="2.32705">
        <ele>122.2</ele>
        <time>2013-08-06T20:06:14.000Z</time>
      </trkpt>
      <trkpt lat="48.88726" lon="2.32706">
        <ele>121.8</ele>
        <time>2013-08-06T20:06:15.000Z</time>
      </trkpt>
      <trkpt lat="48.8873" lon="2.32706">
        <ele>122.8</ele>
        <time>2013-08-06T20:06:17.000Z</time>
      </trkpt>
      <trkpt lat="48.88731" lon="2.32706">
        <ele>124.3</ele>
        <time>2013-08-06T20:06:18.000Z</time>
      </trkpt>
      <trkpt lat="48.88735" lon="2.32703">
        <ele>125</ele>
        <time>2013-08-06T20:06:20.000Z</time>
      </trkpt>
      <trkpt lat="48.88736" lon="2.32703">
        <ele>126.1</ele>
        <time>2013-08-06T20:06:21.000Z</time>
      </trkpt>
      <trkpt lat="48.8874" lon="2.32702">
        <ele>125.4</ele>
        <time>2013-08-06T20:06:46.000Z</time>
      </trkpt>
      <trkpt lat="48.88742" lon="2.32705">
        <ele>122.3</ele>
        <time>2013-08-06T20:06:47.000Z</time>
      </trkpt>
      <trkpt lat="48.88744" lon="2.32707">
        <ele>122.8</ele>
        <time>2013-08-06T20:06:48.000Z</time>
      </trkpt>
      <trkpt lat="48.88746" lon="2.3271">
        <ele>122.4</ele>
        <time>2013-08-06T20:06:49.000Z</time>
      </trkpt>
      <trkpt lat="48.88748" lon="2.32713">
        <ele>122.8</ele>
        <time>2013-08-06T20:06:50.000Z</time>
      </trkpt>
      <trkpt lat="48.8875" lon="2.32715">
        <ele>121.3</ele>
        <time>2013-08-06T20:06:51.000Z</time>
      </trkpt>
      <trkpt lat="48.88752" lon="2.32719">
        <ele>119.6</ele>
        <time>2013-08-06T20:06:53.000Z</time>
      </trkpt>
      <trkpt lat="48.88751" lon="2.32722">
        <ele>120.8</ele>
        <time>2013-08-06T20:06:54.000Z</time>
      </trkpt>
      <trkpt lat="48.88751" lon="2.32726">
        <ele>115.1</ele>
        <time>2013-08-06T20:06:55.000Z</time>
      </trkpt>
      <trkpt lat="48.88752" lon="2.32731">
        <ele>111.3</ele>
        <time>2013-08-06T20:06:56.000Z</time>
      </trkpt>
      <trkpt lat="48.88752" lon="2.32735">
        <ele>110.4</ele>
        <time>2013-08-06T20:06:57.000Z</time>
      </trkpt>
      <trkpt lat="48.88752" lon="2.3274">
        <ele>110.7</ele>
        <time>2013-08-06T20:06:58.000Z</time>
      </trkpt>
      <trkpt lat="48.88752" lon="2.32744">
        <ele>110.9</ele>
        <time>2013-08-06T20:06:59.000Z</time>
      </trkpt>
      <trkpt lat="48.88753" lon="2.32748">
        <ele>110.2</ele>
        <time>2013-08-06T20:07:00.000Z</time>
      </trkpt>
      <trkpt lat="48.88754" lon="2.32752">
        <ele>109.2</ele>
        <time>2013-08-06T20:07:03.000Z</time>
      </trkpt>
      <trkpt lat="48.88755" lon="2.32753">
        <ele>109.5</ele>
        <time>2013-08-06T20:07:04.000Z</time>
      </trkpt>
      <trkpt lat="48.88759" lon="2.32754">
        <ele>108.3</ele>
        <time>2013-08-06T20:07:07.000Z</time>
      </trkpt>
      <trkpt lat="48.8876" lon="2.32755">
        <ele>108.3</ele>
        <time>2013-08-06T20:07:08.000Z</time>
      </trkpt>
      <trkpt lat="48.88763" lon="2.32756">
        <ele>112.3</ele>
        <time>2013-08-06T20:07:44.000Z</time>
      </trkpt>
      <trkpt lat="48.88763" lon="2.32759">
        <ele>112.6</ele>
        <time>2013-08-06T20:07:45.000Z</time>
      </trkpt>
      <trkpt lat="48.88763" lon="2.32762">
        <ele>114.1</ele>
        <time>2013-08-06T20:07:46.000Z</time>
      </trkpt>
      <trkpt lat="48.88764" lon="2.32766">
        <ele>114.3</ele>
        <time>2013-08-06T20:07:47.000Z</time>
      </trkpt>
      <trkpt lat="48.88764" lon="2.3277">
        <ele>114.3</ele>
        <time>2013-08-06T20:07:48.000Z</time>
      </trkpt>
      <trkpt lat="48.88765" lon="2.32774">
        <ele>114.1</ele>
        <time>2013-08-06T20:07:49.000Z</time>
      </trkpt>
      <trkpt lat="48.88766" lon="2.32778">
        <ele>115.8</ele>
        <time>2013-08-06T20:07:50.000Z</time>
      </trkpt>
      <trkpt lat="48.88768" lon="2.32781">
        <ele>116.2</ele>
        <time>2013-08-06T20:07:51.000Z</time>
      </trkpt>
      <trkpt lat="48.88769" lon="2.32785">
        <ele>115.9</ele>
        <time>2013-08-06T20:07:52.000Z</time>
      </trkpt>
      <trkpt lat="48.88771" lon="2.32788">
        <ele>113.3</ele>
        <time>2013-08-06T20:07:53.000Z</time>
      </trkpt>
      <trkpt lat="48.88773" lon="2.32792">
        <ele>113.3</ele>
        <time>2013-08-06T20:07:54.000Z</time>
      </trkpt>
      <trkpt lat="48.88774" lon="2.32795">
        <ele>113.6</ele>
        <time>2013-08-06T20:07:55.000Z</time>
      </trkpt>
      <trkpt lat="48.88776" lon="2.32798">
        <ele>113.3</ele>
        <time>2013-08-06T20:07:56.000Z</time>
      </trkpt>
      <trkpt lat="48.88777" lon="2.328">
        <ele>113.3</ele>
        <time>2013-08-06T20:07:57.000Z</time>
      </trkpt>
      <trkpt lat="48.88781" lon="2.32803">
        <ele>111.8</ele>
        <time>2013-08-06T20:08:00.000Z</time>
      </trkpt>
      <trkpt lat="48.88783" lon="2.32802">
        <ele>111.6</ele>
        <time>2013-08-06T20:08:01.000Z</time>
      </trkpt>
      <trkpt lat="48.88786" lon="2.32799">
        <ele>112.7</ele>
        <time>2013-08-06T20:08:02.000Z</time>
      </trkpt>
      <trkpt lat="48.88789" lon="2.32796">
        <ele>112.9</ele>
        <time>2013-08-06T20:08:03.000Z</time>
      </trkpt>
      <trkpt lat="48.88792" lon="2.32793">
        <ele>113.3</ele>
        <time>2013-08-06T20:08:04.000Z</time>
      </trkpt>
      <trkpt lat="48.88796" lon="2.3279">
        <ele>113.4</ele>
        <time>2013-08-06T20:08:05.000Z</time>
      </trkpt>
      <trkpt lat="48.88799" lon="2.32787">
        <ele>114</ele>
        <time>2013-08-06T20:08:06.000Z</time>
      </trkpt>
      <trkpt lat="48.88803" lon="2.32785">
        <ele>114.3</ele>
        <time>2013-08-06T20:08:07.000Z</time>
      </trkpt>
      <trkpt lat="48.88806" lon="2.32782">
        <ele>114.8</ele>
        <time>2013-08-06T20:08:08.000Z</time>
      </trkpt>
      <trkpt lat="48.8881" lon="2.3278">
        <ele>115.3</ele>
        <time>2013-08-06T20:08:09.000Z</time>
      </trkpt>
      <trkpt lat="48.88814" lon="2.32776">
        <ele>115.5</ele>
        <time>2013-08-06T20:08:10.000Z</time>
      </trkpt>
      <trkpt lat="48.88817" lon="2.32772">
        <ele>115</ele>
        <time>2013-08-06T20:08:11.000Z</time>
      </trkpt>
      <trkpt lat="48.8882" lon="2.32768">
        <ele>115.8</ele>
        <time>2013-08-06T20:08:12.000Z</time>
      </trkpt>
      <trkpt lat="48.88822" lon="2.32763">
        <ele>115.8</ele>
        <time>2013-08-06T20:08:13.000Z</time>
      </trkpt>
      <trkpt lat="48.88825" lon="2.32759">
        <ele>118.2</ele>
        <time>2013-08-06T20:08:14.000Z</time>
      </trkpt>
      <trkpt lat="48.88827" lon="2.32755">
        <ele>118.3</ele>
        <time>2013-08-06T20:08:15.000Z</time>
      </trkpt>
      <trkpt lat="48.8883" lon="2.32751">
        <ele>120.1</ele>
        <time>2013-08-06T20:08:16.000Z</time>
      </trkpt>
      <trkpt lat="48.88832" lon="2.32748">
        <ele>121.5</ele>
        <time>2013-08-06T20:08:17.000Z</time>
      </trkpt>
      <trkpt lat="48.88835" lon="2.32746">
        <ele>122.6</ele>
        <time>2013-08-06T20:08:18.000Z</time>
      </trkpt>
      <trkpt lat="48.88837" lon="2.32744">
        <ele>123.4</ele>
        <time>2013-08-06T20:08:19.000Z</time>
      </trkpt>
      <trkpt lat="48.88841" lon="2.32745">
        <ele>125.8</ele>
        <time>2013-08-06T20:08:20.000Z</time>
      </trkpt>
      <trkpt lat="48.88846" lon="2.32747">
        <ele>126.2</ele>
        <time>2013-08-06T20:08:21.000Z</time>
      </trkpt>
      <trkpt lat="48.8885" lon="2.32751">
        <ele>126.2</ele>
        <time>2013-08-06T20:08:22.000Z</time>
      </trkpt>
      <trkpt lat="48.8886" lon="2.32763">
        <ele>126</ele>
        <time>2013-08-06T20:08:23.000Z</time>
      </trkpt>
      <trkpt lat="48.88864" lon="2.32769">
        <ele>126.4</ele>
        <time>2013-08-06T20:08:24.000Z</time>
      </trkpt>
      <trkpt lat="48.88868" lon="2.32775">
        <ele>126.5</ele>
        <time>2013-08-06T20:08:25.000Z</time>
      </trkpt>
      <trkpt lat="48.88872" lon="2.32778">
        <ele>126.3</ele>
        <time>2013-08-06T20:08:26.000Z</time>
      </trkpt>
      <trkpt lat="48.88874" lon="2.3278">
        <ele>124</ele>
        <time>2013-08-06T20:08:27.000Z</time>
      </trkpt>
      <trkpt lat="48.8888" lon="2.32781">
        <ele>121.1</ele>
        <time>2013-08-06T20:08:28.000Z</time>
      </trkpt>
      <trkpt lat="48.88884" lon="2.32784">
        <ele>121.1</ele>
        <time>2013-08-06T20:08:29.000Z</time>
      </trkpt>
      <trkpt lat="48.88888" lon="2.32792">
        <ele>122.2</ele>
        <time>2013-08-06T20:08:30.000Z</time>
      </trkpt>
      <trkpt lat="48.88892" lon="2.32796">
        <ele>121.1</ele>
        <time>2013-08-06T20:08:31.000Z</time>
      </trkpt>
      <trkpt lat="48.88896" lon="2.328">
        <ele>121</ele>
        <time>2013-08-06T20:08:32.000Z</time>
      </trkpt>
      <trkpt lat="48.889" lon="2.32802">
        <ele>120.4</ele>
        <time>2013-08-06T20:08:33.000Z</time>
      </trkpt>
      <trkpt lat="48.88903" lon="2.32807">
        <ele>120.2</ele>
        <time>2013-08-06T20:08:34.000Z</time>
      </trkpt>
      <trkpt lat="48.88907" lon="2.3281">
        <ele>120</ele>
        <time>2013-08-06T20:08:35.000Z</time>
      </trkpt>
      <trkpt lat="48.88911" lon="2.32814">
        <ele>119.7</ele>
        <time>2013-08-06T20:08:36.000Z</time>
      </trkpt>
      <trkpt lat="48.88917" lon="2.3282">
        <ele>119.6</ele>
        <time>2013-08-06T20:08:37.990Z</time>
      </trkpt>
      <trkpt lat="48.8892" lon="2.32825">
        <ele>116.8</ele>
        <time>2013-08-06T20:08:39.000Z</time>
      </trkpt>
      <trkpt lat="48.88923" lon="2.32828">
        <ele>117.3</ele>
        <time>2013-08-06T20:08:40.000Z</time>
      </trkpt>
      <trkpt lat="48.88927" lon="2.32832">
        <ele>117.3</ele>
        <time>2013-08-06T20:08:41.000Z</time>
      </trkpt>
      <trkpt lat="48.88931" lon="2.32835">
        <ele>117.9</ele>
        <time>2013-08-06T20:08:42.000Z</time>
      </trkpt>
      <trkpt lat="48.88935" lon="2.32839">
        <ele>118.6</ele>
        <time>2013-08-06T20:08:43.000Z</time>
      </trkpt>
      <trkpt lat="48.88939" lon="2.32842">
        <ele>118.5</ele>
        <time>2013-08-06T20:08:44.000Z</time>
      </trkpt>
      <trkpt lat="48.88944" lon="2.32846">
        <ele>115.9</ele>
        <time>2013-08-06T20:08:45.000Z</time>
      </trkpt>
      <trkpt lat="48.88948" lon="2.32849">
        <ele>113.4</ele>
        <time>2013-08-06T20:08:46.000Z</time>
      </trkpt>
      <trkpt lat="48.88952" lon="2.32852">
        <ele>112.9</ele>
        <time>2013-08-06T20:08:47.000Z</time>
      </trkpt>
      <trkpt lat="48.88956" lon="2.32855">
        <ele>113.9</ele>
        <time>2013-08-06T20:08:48.000Z</time>
      </trkpt>
      <trkpt lat="48.88959" lon="2.32858">
        <ele>113.4</ele>
        <time>2013-08-06T20:08:49.000Z</time>
      </trkpt>
      <trkpt lat="48.88963" lon="2.32861">
        <ele>113.6</ele>
        <time>2013-08-06T20:08:50.000Z</time>
      </trkpt>
      <trkpt lat="48.88967" lon="2.32863">
        <ele>113.8</ele>
        <time>2013-08-06T20:08:51.000Z</time>
      </trkpt>
      <trkpt lat="48.88971" lon="2.32866">
        <ele>112.9</ele>
        <time>2013-08-06T20:08:52.000Z</time>
      </trkpt>
      <trkpt lat="48.88975" lon="2.32868">
        <ele>111.9</ele>
        <time>2013-08-06T20:08:53.000Z</time>
      </trkpt>
      <trkpt lat="48.88979" lon="2.32872">
        <ele>111.5</ele>
        <time>2013-08-06T20:08:54.000Z</time>
      </trkpt>
      <trkpt lat="48.88982" lon="2.32876">
        <ele>111.7</ele>
        <time>2013-08-06T20:08:55.000Z</time>
      </trkpt>
      <trkpt lat="48.88985" lon="2.32879">
        <ele>109.5</ele>
        <time>2013-08-06T20:08:56.000Z</time>
      </trkpt>
      <trkpt lat="48.88988" lon="2.32883">
        <ele>107.9</ele>
        <time>2013-08-06T20:08:57.000Z</time>
      </trkpt>
      <trkpt lat="48.88991" lon="2.32887">
        <ele>107.3</ele>
        <time>2013-08-06T20:08:58.000Z</time>
      </trkpt>
      <trkpt lat="48.88993" lon="2.32891">
        <ele>107.2</ele>
        <time>2013-08-06T20:08:59.000Z</time>
      </trkpt>
      <trkpt lat="48.88995" lon="2.32894">
        <ele>107.1</ele>
        <time>2013-08-06T20:09:00.000Z</time>
      </trkpt>
      <trkpt lat="48.88998" lon="2.32897">
        <ele>107</ele>
        <time>2013-08-06T20:09:01.000Z</time>
      </trkpt>
      <trkpt lat="48.89" lon="2.329">
        <ele>107.8</ele>
        <time>2013-08-06T20:09:02.000Z</time>
      </trkpt>
      <trkpt lat="48.89002" lon="2.32903">
        <ele>107.9</ele>
        <time>2013-08-06T20:09:03.000Z</time>
      </trkpt>
      <trkpt lat="48.89004" lon="2.32906">
        <ele>108.6</ele>
        <time>2013-08-06T20:09:04.000Z</time>
      </trkpt>
      <trkpt lat="48.89007" lon="2.3291">
        <ele>107.9</ele>
        <time>2013-08-06T20:09:06.000Z</time>
      </trkpt>
      <trkpt lat="48.89009" lon="2.32911">
        <ele>106.3</ele>
        <time>2013-08-06T20:09:07.000Z</time>
      </trkpt>
      <trkpt lat="48.89012" lon="2.32914">
        <ele>105.1</ele>
        <time>2013-08-06T20:09:09.000Z</time>
      </trkpt>
      <trkpt lat="48.89013" lon="2.32916">
        <ele>104.8</ele>
        <time>2013-08-06T20:09:10.000Z</time>
      </trkpt>
      <trkpt lat="48.89015" lon="2.3292">
        <ele>104.6</ele>
        <time>2013-08-06T20:09:12.000Z</time>
      </trkpt>
      <trkpt lat="48.89016" lon="2.32923">
        <ele>104.6</ele>
        <time>2013-08-06T20:09:13.000Z</time>
      </trkpt>
      <trkpt lat="48.89017" lon="2.32928">
        <ele>105.7</ele>
        <time>2013-08-06T20:09:15.000Z</time>
      </trkpt>
      <trkpt lat="48.89017" lon="2.3293">
        <ele>106.9</ele>
        <time>2013-08-06T20:09:16.000Z</time>
      </trkpt>
      <trkpt lat="48.89018" lon="2.32935">
        <ele>107.1</ele>
        <time>2013-08-06T20:09:18.000Z</time>
      </trkpt>
      <trkpt lat="48.89019" lon="2.32938">
        <ele>106.5</ele>
        <time>2013-08-06T20:09:19.000Z</time>
      </trkpt>
      <trkpt lat="48.8902" lon="2.3294">
        <ele>106.5</ele>
        <time>2013-08-06T20:09:20.000Z</time>
      </trkpt>
      <trkpt lat="48.89022" lon="2.32945">
        <ele>106.9</ele>
        <time>2013-08-06T20:09:21.000Z</time>
      </trkpt>
      <trkpt lat="48.89024" lon="2.32949">
        <ele>106.7</ele>
        <time>2013-08-06T20:09:22.000Z</time>
      </trkpt>
      <trkpt lat="48.89026" lon="2.32953">
        <ele>106.4</ele>
        <time>2013-08-06T20:09:23.000Z</time>
      </trkpt>
      <trkpt lat="48.89029" lon="2.32956">
        <ele>105.8</ele>
        <time>2013-08-06T20:09:24.000Z</time>
      </trkpt>
      <trkpt lat="48.89031" lon="2.3296">
        <ele>106.1</ele>
        <time>2013-08-06T20:09:25.000Z</time>
      </trkpt>
      <trkpt lat="48.89033" lon="2.32964">
        <ele>106.2</ele>
        <time>2013-08-06T20:09:26.000Z</time>
      </trkpt>
      <trkpt lat="48.89035" lon="2.32968">
        <ele>106</ele>
        <time>2013-08-06T20:09:27.000Z</time>
      </trkpt>
      <trkpt lat="48.89038" lon="2.32972">
        <ele>105.9</ele>
        <time>2013-08-06T20:09:28.000Z</time>
      </trkpt>
      <trkpt lat="48.8904" lon="2.32976">
        <ele>104.9</ele>
        <time>2013-08-06T20:09:29.000Z</time>
      </trkpt>
      <trkpt lat="48.89043" lon="2.32981">
        <ele>104.2</ele>
        <time>2013-08-06T20:09:30.000Z</time>
      </trkpt>
      <trkpt lat="48.89045" lon="2.32986">
        <ele>103.4</ele>
        <time>2013-08-06T20:09:31.000Z</time>
      </trkpt>
      <trkpt lat="48.89047" lon="2.32992">
        <ele>102.9</ele>
        <time>2013-08-06T20:09:32.000Z</time>
      </trkpt>
      <trkpt lat="48.89049" lon="2.32997">
        <ele>103</ele>
        <time>2013-08-06T20:09:33.000Z</time>
      </trkpt>
      <trkpt lat="48.89051" lon="2.33003">
        <ele>103.4</ele>
        <time>2013-08-06T20:09:34.000Z</time>
      </trkpt>
      <trkpt lat="48.89052" lon="2.33008">
        <ele>104.1</ele>
        <time>2013-08-06T20:09:35.000Z</time>
      </trkpt>
      <trkpt lat="48.89054" lon="2.33012">
        <ele>103.1</ele>
        <time>2013-08-06T20:09:36.000Z</time>
      </trkpt>
      <trkpt lat="48.89058" lon="2.33022">
        <ele>103.1</ele>
        <time>2013-08-06T20:09:38.082Z</time>
      </trkpt>
      <trkpt lat="48.8906" lon="2.33025">
        <ele>103</ele>
        <time>2013-08-06T20:09:39.000Z</time>
      </trkpt>
      <trkpt lat="48.89062" lon="2.33029">
        <ele>102.5</ele>
        <time>2013-08-06T20:09:40.000Z</time>
      </trkpt>
      <trkpt lat="48.89063" lon="2.33033">
        <ele>102.4</ele>
        <time>2013-08-06T20:09:41.000Z</time>
      </trkpt>
      <trkpt lat="48.89065" lon="2.33038">
        <ele>102.6</ele>
        <time>2013-08-06T20:09:42.000Z</time>
      </trkpt>
      <trkpt lat="48.89067" lon="2.33042">
        <ele>101.3</ele>
        <time>2013-08-06T20:09:43.000Z</time>
      </trkpt>
      <trkpt lat="48.89069" lon="2.33046">
        <ele>100.3</ele>
        <time>2013-08-06T20:09:44.000Z</time>
      </trkpt>
      <trkpt lat="48.89071" lon="2.33051">
        <ele>100.2</ele>
        <time>2013-08-06T20:09:45.000Z</time>
      </trkpt>
      <trkpt lat="48.89074" lon="2.33055">
        <ele>100.6</ele>
        <time>2013-08-06T20:09:46.000Z</time>
      </trkpt>
      <trkpt lat="48.89076" lon="2.3306">
        <ele>101.8</ele>
        <time>2013-08-06T20:09:47.000Z</time>
      </trkpt>
      <trkpt lat="48.89078" lon="2.33065">
        <ele>102.7</ele>
        <time>2013-08-06T20:09:48.000Z</time>
      </trkpt>
      <trkpt lat="48.89081" lon="2.33069">
        <ele>103</ele>
        <time>2013-08-06T20:09:49.000Z</time>
      </trkpt>
      <trkpt lat="48.89083" lon="2.33074">
        <ele>103.2</ele>
        <time>2013-08-06T20:09:50.000Z</time>
      </trkpt>
      <trkpt lat="48.89085" lon="2.33077">
        <ele>104</ele>
        <time>2013-08-06T20:09:51.000Z</time>
      </trkpt>
      <trkpt lat="48.89088" lon="2.33081">
        <ele>103.6</ele>
        <time>2013-08-06T20:09:52.000Z</time>
      </trkpt>
      <trkpt lat="48.89091" lon="2.33084">
        <ele>102.3</ele>
        <time>2013-08-06T20:09:54.000Z</time>
      </trkpt>
      <trkpt lat="48.89092" lon="2.33086">
        <ele>102.2</ele>
        <time>2013-08-06T20:09:55.000Z</time>
      </trkpt>
      <trkpt lat="48.89095" lon="2.33087">
        <ele>102.2</ele>
        <time>2013-08-06T20:09:57.000Z</time>
      </trkpt>
      <trkpt lat="48.89097" lon="2.33088">
        <ele>102.9</ele>
        <time>2013-08-06T20:09:58.000Z</time>
      </trkpt>
      <trkpt lat="48.89099" lon="2.33093">
        <ele>101.4</ele>
        <time>2013-08-06T20:10:01.000Z</time>
      </trkpt>
      <trkpt lat="48.891" lon="2.33094">
        <ele>101.2</ele>
        <time>2013-08-06T20:10:02.000Z</time>
      </trkpt>
      <trkpt lat="48.89104" lon="2.33095">
        <ele>108.4</ele>
        <time>2013-08-06T20:10:36.000Z</time>
      </trkpt>
      <trkpt lat="48.89106" lon="2.33095">
        <ele>108.1</ele>
        <time>2013-08-06T20:10:37.886Z</time>
      </trkpt>
      <trkpt lat="48.8911" lon="2.33092">
        <ele>107.9</ele>
        <time>2013-08-06T20:10:41.000Z</time>
      </trkpt>
      <trkpt lat="48.89111" lon="2.33091">
        <ele>107.4</ele>
        <time>2013-08-06T20:10:42.000Z</time>
      </trkpt>
      <trkpt lat="48.89115" lon="2.33089">
        <ele>106.9</ele>
        <time>2013-08-06T20:10:44.000Z</time>
      </trkpt>
      <trkpt lat="48.89115" lon="2.33087">
        <ele>107</ele>
        <time>2013-08-06T20:10:45.000Z</time>
      </trkpt>
      <trkpt lat="48.89117" lon="2.33082">
        <ele>107.1</ele>
        <time>2013-08-06T20:10:47.000Z</time>
      </trkpt>
      <trkpt lat="48.8912" lon="2.33081">
        <ele>107.1</ele>
        <time>2013-08-06T20:10:48.000Z</time>
      </trkpt>
      <trkpt lat="48.89124" lon="2.33078">
        <ele>107.4</ele>
        <time>2013-08-06T20:10:49.000Z</time>
      </trkpt>
      <trkpt lat="48.89128" lon="2.33075">
        <ele>107.2</ele>
        <time>2013-08-06T20:10:50.000Z</time>
      </trkpt>
      <trkpt lat="48.89133" lon="2.33075">
        <ele>107.5</ele>
        <time>2013-08-06T20:10:51.000Z</time>
      </trkpt>
      <trkpt lat="48.89138" lon="2.33075">
        <ele>107.9</ele>
        <time>2013-08-06T20:10:52.000Z</time>
      </trkpt>
      <trkpt lat="48.89143" lon="2.33075">
        <ele>108.2</ele>
        <time>2013-08-06T20:10:53.000Z</time>
      </trkpt>
      <trkpt lat="48.89148" lon="2.33074">
        <ele>108.3</ele>
        <time>2013-08-06T20:10:54.000Z</time>
      </trkpt>
      <trkpt lat="48.89153" lon="2.33074">
        <ele>108.6</ele>
        <time>2013-08-06T20:10:55.000Z</time>
      </trkpt>
      <trkpt lat="48.89157" lon="2.33074">
        <ele>108.3</ele>
        <time>2013-08-06T20:10:56.000Z</time>
      </trkpt>
      <trkpt lat="48.8916" lon="2.33074">
        <ele>108</ele>
        <time>2013-08-06T20:10:57.000Z</time>
      </trkpt>
      <trkpt lat="48.89162" lon="2.33074">
        <ele>107.8</ele>
        <time>2013-08-06T20:10:58.000Z</time>
      </trkpt>
      <trkpt lat="48.89164" lon="2.33073">
        <ele>107.9</ele>
        <time>2013-08-06T20:10:59.000Z</time>
      </trkpt>
      <trkpt lat="48.89167" lon="2.33073">
        <ele>107.8</ele>
        <time>2013-08-06T20:11:09.000Z</time>
      </trkpt>
      <trkpt lat="48.8917" lon="2.33072">
        <ele>108.1</ele>
        <time>2013-08-06T20:11:10.000Z</time>
      </trkpt>
      <trkpt lat="48.89173" lon="2.33072">
        <ele>109.4</ele>
        <time>2013-08-06T20:11:11.000Z</time>
      </trkpt>
      <trkpt lat="48.89176" lon="2.33071">
        <ele>109.9</ele>
        <time>2013-08-06T20:11:12.000Z</time>
      </trkpt>
      <trkpt lat="48.89179" lon="2.33071">
        <ele>109.8</ele>
        <time>2013-08-06T20:11:13.000Z</time>
      </trkpt>
      <trkpt lat="48.89182" lon="2.3307">
        <ele>109.2</ele>
        <time>2013-08-06T20:11:14.000Z</time>
      </trkpt>
      <trkpt lat="48.89186" lon="2.33068">
        <ele>109.4</ele>
        <time>2013-08-06T20:11:15.000Z</time>
      </trkpt>
      <trkpt lat="48.89189" lon="2.33067">
        <ele>109.9</ele>
        <time>2013-08-06T20:11:16.000Z</time>
      </trkpt>
      <trkpt lat="48.89193" lon="2.33065">
        <ele>109.2</ele>
        <time>2013-08-06T20:11:17.000Z</time>
      </trkpt>
      <trkpt lat="48.89197" lon="2.33063">
        <ele>108.3</ele>
        <time>2013-08-06T20:11:18.000Z</time>
      </trkpt>
      <trkpt lat="48.89201" lon="2.33061">
        <ele>108.3</ele>
        <time>2013-08-06T20:11:19.000Z</time>
      </trkpt>
      <trkpt lat="48.89205" lon="2.33059">
        <ele>108.5</ele>
        <time>2013-08-06T20:11:20.000Z</time>
      </trkpt>
      <trkpt lat="48.89209" lon="2.33057">
        <ele>108.2</ele>
        <time>2013-08-06T20:11:21.000Z</time>
      </trkpt>
      <trkpt lat="48.89213" lon="2.33056">
        <ele>107.5</ele>
        <time>2013-08-06T20:11:22.000Z</time>
      </trkpt>
      <trkpt lat="48.89218" lon="2.33055">
        <ele>107.7</ele>
        <time>2013-08-06T20:11:23.000Z</time>
      </trkpt>
      <trkpt lat="48.89224" lon="2.33052">
        <ele>107.5</ele>
        <time>2013-08-06T20:11:24.000Z</time>
      </trkpt>
      <trkpt lat="48.89229" lon="2.33053">
        <ele>108.1</ele>
        <time>2013-08-06T20:11:25.000Z</time>
      </trkpt>
      <trkpt lat="48.89233" lon="2.33052">
        <ele>108.6</ele>
        <time>2013-08-06T20:11:26.000Z</time>
      </trkpt>
      <trkpt lat="48.89236" lon="2.33051">
        <ele>108.2</ele>
        <time>2013-08-06T20:11:27.000Z</time>
      </trkpt>
      <trkpt lat="48.89239" lon="2.33047">
        <ele>105.9</ele>
        <time>2013-08-06T20:11:28.000Z</time>
      </trkpt>
      <trkpt lat="48.89244" lon="2.33048">
        <ele>107.4</ele>
        <time>2013-08-06T20:11:29.000Z</time>
      </trkpt>
      <trkpt lat="48.89246" lon="2.33046">
        <ele>108.2</ele>
        <time>2013-08-06T20:11:30.000Z</time>
      </trkpt>
      <trkpt lat="48.89248" lon="2.33043">
        <ele>108.2</ele>
        <time>2013-08-06T20:11:31.000Z</time>
      </trkpt>
      <trkpt lat="48.89253" lon="2.33041">
        <ele>108.2</ele>
        <time>2013-08-06T20:11:32.000Z</time>
      </trkpt>
      <trkpt lat="48.89257" lon="2.33039">
        <ele>108.1</ele>
        <time>2013-08-06T20:11:33.000Z</time>
      </trkpt>
      <trkpt lat="48.89261" lon="2.33039">
        <ele>107.3</ele>
        <time>2013-08-06T20:11:34.000Z</time>
      </trkpt>
      <trkpt lat="48.89265" lon="2.33038">
        <ele>109.3</ele>
        <time>2013-08-06T20:11:35.000Z</time>
      </trkpt>
      <trkpt lat="48.89269" lon="2.33038">
        <ele>107.6</ele>
        <time>2013-08-06T20:11:36.000Z</time>
      </trkpt>
      <trkpt lat="48.89277" lon="2.33038">
        <ele>106.6</ele>
        <time>2013-08-06T20:11:38.039Z</time>
      </trkpt>
      <trkpt lat="48.8928" lon="2.33038">
        <ele>106.7</ele>
        <time>2013-08-06T20:11:39.000Z</time>
      </trkpt>
      <trkpt lat="48.89284" lon="2.33037">
        <ele>107.5</ele>
        <time>2013-08-06T20:11:40.000Z</time>
      </trkpt>
      <trkpt lat="48.89288" lon="2.33034">
        <ele>107.4</ele>
        <time>2013-08-06T20:11:41.000Z</time>
      </trkpt>
      <trkpt lat="48.89292" lon="2.33031">
        <ele>107</ele>
        <time>2013-08-06T20:11:42.000Z</time>
      </trkpt>
      <trkpt lat="48.89296" lon="2.33029">
        <ele>106.7</ele>
        <time>2013-08-06T20:11:43.000Z</time>
      </trkpt>
      <trkpt lat="48.89304" lon="2.33024">
        <ele>106.6</ele>
        <time>2013-08-06T20:11:44.000Z</time>
      </trkpt>
      <trkpt lat="48.89309" lon="2.33023">
        <ele>106.4</ele>
        <time>2013-08-06T20:11:45.000Z</time>
      </trkpt>
      <trkpt lat="48.89314" lon="2.33022">
        <ele>107.1</ele>
        <time>2013-08-06T20:11:46.000Z</time>
      </trkpt>
      <trkpt lat="48.89319" lon="2.33024">
        <ele>106.2</ele>
        <time>2013-08-06T20:11:47.000Z</time>
      </trkpt>
      <trkpt lat="48.89324" lon="2.33023">
        <ele>106</ele>
        <time>2013-08-06T20:11:48.000Z</time>
      </trkpt>
      <trkpt lat="48.89327" lon="2.33023">
        <ele>106.2</ele>
        <time>2013-08-06T20:11:49.000Z</time>
      </trkpt>
      <trkpt lat="48.89331" lon="2.33021">
        <ele>105.8</ele>
        <time>2013-08-06T20:11:50.000Z</time>
      </trkpt>
      <trkpt lat="48.89333" lon="2.3302">
        <ele>107.1</ele>
        <time>2013-08-06T20:11:51.000Z</time>
      </trkpt>
      <trkpt lat="48.89336" lon="2.33019">
        <ele>107</ele>
        <time>2013-08-06T20:11:52.000Z</time>
      </trkpt>
      <trkpt lat="48.89338" lon="2.33016">
        <ele>109.2</ele>
        <time>2013-08-06T20:11:53.000Z</time>
      </trkpt>
      <trkpt lat="48.89342" lon="2.3301">
        <ele>104</ele>
        <time>2013-08-06T20:11:54.000Z</time>
      </trkpt>
      <trkpt lat="48.89344" lon="2.33009">
        <ele>103.8</ele>
        <time>2013-08-06T20:11:55.000Z</time>
      </trkpt>
      <trkpt lat="48.89346" lon="2.33008">
        <ele>104.1</ele>
        <time>2013-08-06T20:11:56.000Z</time>
      </trkpt>
      <trkpt lat="48.8935" lon="2.33008">
        <ele>105.2</ele>
        <time>2013-08-06T20:11:59.000Z</time>
      </trkpt>
      <trkpt lat="48.8935" lon="2.33009">
        <ele>103.8</ele>
        <time>2013-08-06T20:12:00.000Z</time>
      </trkpt>
      <trkpt lat="48.89354" lon="2.33009">
        <ele>103.4</ele>
        <time>2013-08-06T20:12:54.000Z</time>
      </trkpt>
      <trkpt lat="48.89355" lon="2.33005">
        <ele>102.9</ele>
        <time>2013-08-06T20:12:55.000Z</time>
      </trkpt>
      <trkpt lat="48.89356" lon="2.33001">
        <ele>103.1</ele>
        <time>2013-08-06T20:12:56.000Z</time>
      </trkpt>
      <trkpt lat="48.89356" lon="2.32996">
        <ele>101.9</ele>
        <time>2013-08-06T20:12:57.000Z</time>
      </trkpt>
      <trkpt lat="48.89355" lon="2.32991">
        <ele>101.6</ele>
        <time>2013-08-06T20:12:58.000Z</time>
      </trkpt>
      <trkpt lat="48.89354" lon="2.32986">
        <ele>102.2</ele>
        <time>2013-08-06T20:12:59.000Z</time>
      </trkpt>
      <trkpt lat="48.89354" lon="2.32981">
        <ele>100.9</ele>
        <time>2013-08-06T20:13:00.000Z</time>
      </trkpt>
      <trkpt lat="48.89353" lon="2.32977">
        <ele>101.3</ele>
        <time>2013-08-06T20:13:01.000Z</time>
      </trkpt>
      <trkpt lat="48.89351" lon="2.32972">
        <ele>101.1</ele>
        <time>2013-08-06T20:13:02.000Z</time>
      </trkpt>
      <trkpt lat="48.8935" lon="2.32966">
        <ele>101.3</ele>
        <time>2013-08-06T20:13:03.000Z</time>
      </trkpt>
      <trkpt lat="48.89348" lon="2.3296">
        <ele>101.8</ele>
        <time>2013-08-06T20:13:04.000Z</time>
      </trkpt>
      <trkpt lat="48.89346" lon="2.32954">
        <ele>101.7</ele>
        <time>2013-08-06T20:13:05.000Z</time>
      </trkpt>
      <trkpt lat="48.89344" lon="2.32948">
        <ele>101.6</ele>
        <time>2013-08-06T20:13:06.000Z</time>
      </trkpt>
      <trkpt lat="48.89343" lon="2.32942">
        <ele>100.1</ele>
        <time>2013-08-06T20:13:07.000Z</time>
      </trkpt>
      <trkpt lat="48.89342" lon="2.32935">
        <ele>98.9</ele>
        <time>2013-08-06T20:13:08.000Z</time>
      </trkpt>
      <trkpt lat="48.8934" lon="2.32929">
        <ele>99.4</ele>
        <time>2013-08-06T20:13:09.000Z</time>
      </trkpt>
      <trkpt lat="48.89339" lon="2.32923">
        <ele>99.1</ele>
        <time>2013-08-06T20:13:10.000Z</time>
      </trkpt>
      <trkpt lat="48.89338" lon="2.32917">
        <ele>98.8</ele>
        <time>2013-08-06T20:13:11.000Z</time>
      </trkpt>
      <trkpt lat="48.89337" lon="2.32911">
        <ele>99</ele>
        <time>2013-08-06T20:13:12.000Z</time>
      </trkpt>
      <trkpt lat="48.89335" lon="2.32905">
        <ele>98</ele>
        <time>2013-08-06T20:13:13.000Z</time>
      </trkpt>
      <trkpt lat="48.89333" lon="2.32898">
        <ele>96.7</ele>
        <time>2013-08-06T20:13:14.000Z</time>
      </trkpt>
      <trkpt lat="48.89331" lon="2.32889">
        <ele>95.9</ele>
        <time>2013-08-06T20:13:15.000Z</time>
      </trkpt>
      <trkpt lat="48.89329" lon="2.32882">
        <ele>95.8</ele>
        <time>2013-08-06T20:13:16.000Z</time>
      </trkpt>
      <trkpt lat="48.89326" lon="2.32876">
        <ele>95.5</ele>
        <time>2013-08-06T20:13:17.000Z</time>
      </trkpt>
      <trkpt lat="48.89324" lon="2.32869">
        <ele>95.2</ele>
        <time>2013-08-06T20:13:18.000Z</time>
      </trkpt>
      <trkpt lat="48.89326" lon="2.3286">
        <ele>94.7</ele>
        <time>2013-08-06T20:13:19.000Z</time>
      </trkpt>
      <trkpt lat="48.89323" lon="2.32856">
        <ele>92.7</ele>
        <time>2013-08-06T20:13:20.000Z</time>
      </trkpt>
      <trkpt lat="48.89322" lon="2.32851">
        <ele>91.6</ele>
        <time>2013-08-06T20:13:21.000Z</time>
      </trkpt>
      <trkpt lat="48.8932" lon="2.32846">
        <ele>91.2</ele>
        <time>2013-08-06T20:13:22.000Z</time>
      </trkpt>
      <trkpt lat="48.89318" lon="2.32839">
        <ele>90</ele>
        <time>2013-08-06T20:13:23.000Z</time>
      </trkpt>
      <trkpt lat="48.89316" lon="2.32833">
        <ele>89.4</ele>
        <time>2013-08-06T20:13:24.000Z</time>
      </trkpt>
      <trkpt lat="48.89313" lon="2.32828">
        <ele>88</ele>
        <time>2013-08-06T20:13:25.000Z</time>
      </trkpt>
      <trkpt lat="48.89312" lon="2.32821">
        <ele>88</ele>
        <time>2013-08-06T20:13:26.000Z</time>
      </trkpt>
      <trkpt lat="48.8931" lon="2.32813">
        <ele>89.2</ele>
        <time>2013-08-06T20:13:27.000Z</time>
      </trkpt>
      <trkpt lat="48.89309" lon="2.32806">
        <ele>89.2</ele>
        <time>2013-08-06T20:13:28.000Z</time>
      </trkpt>
      <trkpt lat="48.89308" lon="2.32799">
        <ele>88.5</ele>
        <time>2013-08-06T20:13:29.000Z</time>
      </trkpt>
      <trkpt lat="48.89308" lon="2.32792">
        <ele>88.3</ele>
        <time>2013-08-06T20:13:30.000Z</time>
      </trkpt>
      <trkpt lat="48.89308" lon="2.32785">
        <ele>89.4</ele>
        <time>2013-08-06T20:13:31.000Z</time>
      </trkpt>
      <trkpt lat="48.89307" lon="2.32778">
        <ele>88.7</ele>
        <time>2013-08-06T20:13:32.000Z</time>
      </trkpt>
      <trkpt lat="48.89306" lon="2.32771">
        <ele>88.1</ele>
        <time>2013-08-06T20:13:33.000Z</time>
      </trkpt>
      <trkpt lat="48.89306" lon="2.32765">
        <ele>88.1</ele>
        <time>2013-08-06T20:13:34.000Z</time>
      </trkpt>
      <trkpt lat="48.89305" lon="2.32759">
        <ele>88.1</ele>
        <time>2013-08-06T20:13:35.000Z</time>
      </trkpt>
      <trkpt lat="48.89304" lon="2.32754">
        <ele>87.8</ele>
        <time>2013-08-06T20:13:36.000Z</time>
      </trkpt>
      <trkpt lat="48.89301" lon="2.32741">
        <ele>84.9</ele>
        <time>2013-08-06T20:13:39.000Z</time>
      </trkpt>
      <trkpt lat="48.89299" lon="2.32738">
        <ele>84.7</ele>
        <time>2013-08-06T20:13:40.000Z</time>
      </trkpt>
      <trkpt lat="48.89297" lon="2.32736">
        <ele>85.6</ele>
        <time>2013-08-06T20:13:41.000Z</time>
      </trkpt>
      <trkpt lat="48.89296" lon="2.3273">
        <ele>92.2</ele>
        <time>2013-08-06T20:14:53.000Z</time>
      </trkpt>
      <trkpt lat="48.89294" lon="2.3273">
        <ele>92.7</ele>
        <time>2013-08-06T20:14:54.000Z</time>
      </trkpt>
      <trkpt lat="48.89292" lon="2.32729">
        <ele>93.7</ele>
        <time>2013-08-06T20:14:55.000Z</time>
      </trkpt>
      <trkpt lat="48.8929" lon="2.32729">
        <ele>93.2</ele>
        <time>2013-08-06T20:14:56.000Z</time>
      </trkpt>
      <trkpt lat="48.89286" lon="2.32727">
        <ele>95.7</ele>
        <time>2013-08-06T20:14:58.000Z</time>
      </trkpt>
      <trkpt lat="48.89285" lon="2.32725">
        <ele>94.5</ele>
        <time>2013-08-06T20:14:59.000Z</time>
      </trkpt>
      <trkpt lat="48.89282" lon="2.32722">
        <ele>96.2</ele>
        <time>2013-08-06T20:15:01.000Z</time>
      </trkpt>
      <trkpt lat="48.89279" lon="2.32722">
        <ele>94.6</ele>
        <time>2013-08-06T20:15:02.000Z</time>
      </trkpt>
      <trkpt lat="48.89277" lon="2.32722">
        <ele>95.4</ele>
        <time>2013-08-06T20:15:03.000Z</time>
      </trkpt>
      <trkpt lat="48.89273" lon="2.32723">
        <ele>96.3</ele>
        <time>2013-08-06T20:15:04.000Z</time>
      </trkpt>
      <trkpt lat="48.89269" lon="2.32722">
        <ele>96.3</ele>
        <time>2013-08-06T20:15:05.000Z</time>
      </trkpt>
      <trkpt lat="48.89265" lon="2.32722">
        <ele>97.1</ele>
        <time>2013-08-06T20:15:06.000Z</time>
      </trkpt>
      <trkpt lat="48.89261" lon="2.32723">
        <ele>96.8</ele>
        <time>2013-08-06T20:15:07.000Z</time>
      </trkpt>
      <trkpt lat="48.89257" lon="2.32724">
        <ele>97.5</ele>
        <time>2013-08-06T20:15:08.000Z</time>
      </trkpt>
      <trkpt lat="48.89254" lon="2.32725">
        <ele>96.8</ele>
        <time>2013-08-06T20:15:09.000Z</time>
      </trkpt>
      <trkpt lat="48.8925" lon="2.32726">
        <ele>97.5</ele>
        <time>2013-08-06T20:15:10.000Z</time>
      </trkpt>
      <trkpt lat="48.89247" lon="2.32727">
        <ele>98.2</ele>
        <time>2013-08-06T20:15:11.000Z</time>
      </trkpt>
      <trkpt lat="48.89243" lon="2.32727">
        <ele>99.5</ele>
        <time>2013-08-06T20:15:12.000Z</time>
      </trkpt>
      <trkpt lat="48.8924" lon="2.32727">
        <ele>100.3</ele>
        <time>2013-08-06T20:15:13.000Z</time>
      </trkpt>
      <trkpt lat="48.89237" lon="2.32726">
        <ele>101.8</ele>
        <time>2013-08-06T20:15:14.000Z</time>
      </trkpt>
      <trkpt lat="48.89233" lon="2.32726">
        <ele>103.9</ele>
        <time>2013-08-06T20:15:15.000Z</time>
      </trkpt>
      <trkpt lat="48.89231" lon="2.32726">
        <ele>103.5</ele>
        <time>2013-08-06T20:15:16.000Z</time>
      </trkpt>
      <trkpt lat="48.89228" lon="2.32726">
        <ele>103.6</ele>
        <time>2013-08-06T20:15:17.000Z</time>
      </trkpt>
      <trkpt lat="48.89225" lon="2.32726">
        <ele>103.3</ele>
        <time>2013-08-06T20:15:18.000Z</time>
      </trkpt>
      <trkpt lat="48.89222" lon="2.32726">
        <ele>103.3</ele>
        <time>2013-08-06T20:15:19.000Z</time>
      </trkpt>
      <trkpt lat="48.89219" lon="2.32726">
        <ele>104</ele>
        <time>2013-08-06T20:15:20.000Z</time>
      </trkpt>
      <trkpt lat="48.89215" lon="2.32729">
        <ele>102</ele>
        <time>2013-08-06T20:15:34.000Z</time>
      </trkpt>
      <trkpt lat="48.89215" lon="2.32729">
        <ele>101.9</ele>
        <time>2013-08-06T20:15:35.000Z</time>
      </trkpt>
      <trkpt lat="48.89215" lon="2.3273">
        <ele>102</ele>
        <time>2013-08-06T20:16:04.000Z</time>
      </trkpt>
    </trkseg>
  </trk>
</gpx>